ECMWFFLT2_sfc_thetae_000.txt.gz
Theta_e
344 346 346 345 346 349 347 345 344 343 343 346 349 352 352 352 352 352 352 351 347 351 350 345 349 344 344 345 342 343 347 347 347 347 346 345 344 343 344 344 343 342 341 341 341 341 342 342 342 342 341 340 340 338 338 337 334 334 336 332 334 336
342 345 346 345 346 346 347 346 348 349 349 349 349 352 353 354 352 351 348 350 348 345 347 350 345 346 347 345 345 345 344 347 347 346 347 346 346 345 344 343 341 340 339 339 338 336 341 343 341 342 341 341 340 337 339 337 337 334 335 335 338 335
338 343 344 346 346 346 346 346 348 347 347 347 350 347 346 342 345 345 345 345 344 346 348 349 351 347 344 342 347 346 345 344 346 346 346 346 345 344 342 342 341 339 338 337 335 335 335 339 343 342 342 342 339 337 337 339 337 337 335 337 339 336
335 341 342 345 346 344 346 346 347 347 347 349 351 348 345 343 343 346 343 345 348 350 345 348 346 347 346 343 346 345 345 343 346 346 347 346 345 343 341 340 339 337 336 336 334 334 333 337 340 342 342 340 338 338 338 338 336 337 338 333 337 338
331 337 339 342 346 345 344 344 345 347 346 348 348 350 350 345 347 349 344 346 346 349 344 349 347 351 350 343 347 346 346 342 344 348 345 342 341 341 340 337 335 334 335 335 333 333 335 336 340 341 340 340 339 339 338 338 337 337 338 336 339 339
328 332 338 339 342 343 345 343 343 345 346 346 347 349 349 347 346 350 351 344 345 349 348 347 349 347 347 347 346 349 347 345 344 339 340 340 338 339 338 338 336 335 336 337 336 335 336 336 337 339 339 339 338 339 338 336 337 337 339 339 341 339
326 330 333 334 338 340 343 342 340 341 342 344 347 346 344 344 349 350 349 347 343 345 347 346 345 347 345 347 343 343 343 341 341 341 338 340 339 340 338 337 337 338 338 337 335 335 335 336 338 337 338 338 339 338 338 337 337 337 338 338 340 339
324 326 330 330 333 334 336 336 335 336 335 337 340 342 344 344 346 347 350 349 348 346 346 345 346 346 346 347 345 342 340 341 343 342 340 341 339 339 338 338 340 339 337 336 334 335 332 332 336 338 338 338 338 337 339 337 338 340 340 340 341 339
324 324 326 328 329 331 331 332 331 332 333 330 330 335 341 345 345 345 349 350 349 346 344 345 346 347 351 345 347 345 342 341 342 342 342 339 338 338 338 338 338 338 338 337 335 335 331 331 336 337 337 337 338 337 338 339 339 339 339 339 341 340
323 323 325 325 327 328 329 329 329 328 329 329 331 330 332 337 342 345 346 348 349 350 347 348 347 348 346 348 347 347 345 342 341 342 344 340 338 338 337 338 338 338 334 336 334 334 332 331 330 336 337 338 338 338 338 338 338 337 339 340 341 342
322 326 324 323 326 327 328 327 326 327 328 328 328 330 332 331 333 338 343 348 348 348 348 347 345 347 344 345 347 346 346 344 343 344 343 340 341 339 338 338 338 337 336 334 333 333 332 331 330 330 335 336 338 338 338 339 338 338 337 338 339 340
324 327 326 323 324 325 326 326 327 327 326 327 328 326 328 332 334 330 334 341 344 346 348 349 347 347 344 347 347 346 344 344 344 343 343 341 341 340 339 337 338 340 339 338 335 334 334 331 330 328 333 335 337 337 337 339 338 337 336 338 337 338
324 326 325 324 324 324 324 325 325 326 327 328 329 326 325 326 332 332 332 337 340 343 345 348 351 345 341 345 348 349 345 344 344 344 345 344 342 342 339 338 339 340 338 336 336 334 332 332 330 329 331 333 336 337 338 337 338 338 336 336 335 335
324 323 324 323 324 322 323 324 324 325 327 327 328 328 326 327 327 331 332 333 336 339 341 346 346 348 347 343 346 345 343 341 343 344 345 346 344 342 338 337 337 338 336 334 332 332 330 330 328 329 331 333 336 338 338 335 337 337 336 335 335 337
325 324 324 324 323 323 324 324 322 323 324 326 327 328 328 328 327 328 330 330 332 335 335 337 341 345 347 345 344 344 345 342 343 345 344 344 342 343 340 337 337 335 336 333 332 330 330 330 329 328 330 333 332 334 336 335 336 336 334 336 336 335
325 326 325 323 324 324 324 325 324 323 325 326 325 327 328 327 327 327 329 331 331 331 331 336 338 339 342 341 343 341 343 348 346 342 342 343 342 341 340 337 337 337 334 332 331 330 330 330 329 327 328 332 335 335 335 334 335 333 334 334 333 335
325 324 325 325 325 324 325 323 324 325 324 325 324 324 325 327 327 328 328 327 331 333 333 332 333 334 338 338 341 340 343 346 348 344 342 342 341 339 340 336 338 338 337 335 330 329 331 330 327 328 326 331 333 335 334 334 334 335 332 334 333 333
325 324 324 324 325 324 323 325 324 322 325 326 326 325 324 324 326 327 328 327 327 328 329 330 329 331 333 331 334 337 337 338 337 343 344 341 338 337 338 339 338 338 337 337 333 330 329 329 326 324 327 330 332 334 334 334 334 333 332 331 332 332
325 324 324 325 325 325 324 324 324 325 325 325 325 325 326 325 325 326 327 327 327 328 328 329 330 329 328 329 330 328 328 331 333 335 338 341 338 337 337 337 336 337 338 337 336 332 331 329 324 323 325 329 330 332 334 334 334 333 332 331 330 330
325 323 322 324 322 318 316 315 315 318 319 322 324 323 326 325 325 325 326 326 326 327 326 327 328 329 327 326 326 327 327 329 330 329 330 333 331 336 336 336 335 334 334 335 334 333 331 328 326 326 327 329 329 330 331 333 334 332 332 331 330 331
326 323 321 320 318 316 314 313 315 317 316 318 320 323 324 326 325 325 326 325 326 325 326 327 326 327 329 327 326 327 326 326 329 328 329 332 333 335 338 336 336 334 332 331 331 332 330 330 325 325 328 328 329 330 330 332 332 331 329 329 330 330
324 322 322 321 321 322 318 315 315 315 315 315 316 319 320 324 324 325 326 326 326 326 325 326 326 327 327 327 327 327 328 329 330 331 331 332 335 335 335 338 337 335 334 332 329 330 329 328 322 322 322 322 325 327 329 330 328 328 328 328 331 333
323 321 321 321 321 319 321 321 319 317 316 315 320 322 322 323 324 323 324 324 324 325 324 325 326 326 326 327 327 327 328 329 330 332 333 335 336 334 336 336 337 335 331 331 330 331 331 329 323 324 326 322 320 319 323 325 328 327 328 328 331 331
323 321 321 321 318 322 321 322 323 321 321 319 317 321 324 325 323 323 322 323 323 323 323 324 325 324 326 326 327 327 328 328 329 331 333 332 332 332 333 334 335 333 333 327 329 327 330 329 326 323 318 319 321 320 317 321 323 326 329 329 331 331
322 321 319 319 321 322 322 323 322 324 323 320 320 319 320 320 320 320 320 321 321 322 322 322 323 325 325 326 327 327 328 329 330 331 331 331 329 331 334 335 333 332 332 330 327 330 327 328 326 328 323 320 318 317 317 320 325 324 327 326 328 330
322 319 318 320 320 321 319 318 316 313 313 313 313 314 314 315 316 317 317 319 320 320 320 321 322 323 323 325 326 326 328 329 331 330 331 332 333 336 336 335 335 334 333 332 329 327 325 328 328 327 325 326 325 320 320 322 323 319 328 329 328 327
321 319 318 318 319 319 319 318 318 316 316 315 313 315 316 317 316 317 317 318 318 319 319 320 321 322 323 323 324 325 326 326 327 330 331 332 332 333 334 334 335 334 334 332 331 326 327 329 331 326 324 326 327 328 329 325 321 323 319 325 327 327
320 318 319 319 320 317 318 317 316 317 315 315 314 314 315 316 316 316 315 317 317 318 319 320 320 320 321 322 323 323 324 325 324 326 328 330 331 333 334 335 335 334 334 334 331 326 328 333 328 325 324 324 327 329 330 328 328 324 321 320 321 326
320 318 319 319 319 319 316 316 315 315 315 314 314 313 314 314 314 315 315 315 317 317 318 319 319 319 320 321 321 322 323 323 323 325 324 326 330 331 333 333 335 330 330 331 330 328 328 329 330 327 326 324 325 326 327 327 327 326 322 321 319 321
319 318 318 318 318 319 318 316 315 315 314 314 314 314 314 314 314 314 313 314 315 315 316 317 318 319 319 319 320 322 321 322 323 324 324 325 327 329 330 333 333 334 333 332 332 330 328 328 330 332 332 327 324 324 326 325 325 325 324 324 318 318
320 318 318 318 318 318 318 317 315 315 314 313 313 313 313 312 313 313 312 312 313 314 315 315 316 317 317 318 319 320 321 321 322 322 322 323 325 326 329 331 332 333 333 332 331 330 327 330 330 328 329 329 328 326 324 324 325 324 324 322 320 320
319 319 317 317 317 317 317 316 315 315 314 313 312 312 312 311 312 311 311 310 312 313 313 314 316 316 317 317 317 318 320 321 320 322 321 323 326 327 328 330 331 333 332 333 332 329 328 327 328 329 330 329 328 330 328 325 327 328 325 323 323 321
319 318 316 317 316 317 316 316 314 314 314 313 313 313 312 312 312 311 311 311 310 310 312 312 314 313 315 316 316 316 317 317 318 320 322 322 323 325 326 327 329 331 331 331 331 331 328 327 329 329 328 330 329 330 331 331 328 329 329 327 325 321
319 319 317 315 316 316 316 315 315 313 313 312 312 312 312 311 312 312 311 311 310 310 309 310 311 312 313 314 315 315 316 316 317 319 320 320 322 324 325 325 326 327 330 330 331 330 330 329 329 329 329 329 329 330 330 329 329 329 327 326 324 322
318 318 315 315 316 315 315 315 314 314 313 313 312 312 312 311 311 311 312 311 310 310 309 310 310 311 311 312 312 313 314 314 315 317 317 319 320 322 324 323 324 326 327 329 330 330 331 331 328 327 329 329 328 330 331 331 331 329 330 328 326 325
318 318 315 315 315 314 314 314 314 313 313 312 310 311 310 310 311 312 311 311 311 311 311 311 311 311 311 310 310 311 311 312 314 315 316 317 319 320 321 322 323 323 324 327 328 331 329 327 328 330 330 331 329 328 328 330 331 331 330 330 330 327
318 318 315 314 314 314 313 313 313 312 312 312 311 310 310 311 311 311 311 311 311 311 312 311 311 311 310 310 310 310 310 311 313 314 314 316 317 318 320 321 321 323 323 325 326 327 332 332 332 333 331 331 329 329 328 328 330 331 332 330 329 330

ECMWFFLT2_sfc_thetae_006.txt.gz
Theta_e
347 348 349 349 350 348 349 348 348 349 350 350 351 351 351 351 351 351 352 350 347 349 350 349 349 346 348 346 345 346 347 347 347 346 345 344 344 343 343 344 344 344 343 343 343 341 341 341 341 341 340 340 340 337 333 334 335 333 331 332 332 335
346 346 347 349 347 347 348 348 350 350 350 350 350 350 351 350 351 350 350 351 349 348 345 346 348 346 346 346 346 346 347 347 346 346 345 344 343 342 342 342 343 343 343 343 343 340 340 341 342 341 340 340 338 333 333 337 333 333 332 331 333 337
341 345 346 346 347 347 348 348 348 347 348 349 349 350 348 347 347 345 345 347 347 345 343 343 342 345 344 346 347 347 347 346 346 345 345 345 344 344 343 342 342 342 341 341 341 337 338 338 338 341 341 338 335 334 335 338 335 336 331 331 332 339
340 343 344 345 346 347 347 346 345 346 347 350 349 346 344 343 342 341 339 342 344 344 346 344 343 341 343 343 346 346 347 347 346 345 344 343 344 344 343 341 340 340 338 336 333 333 335 335 336 337 338 337 334 334 337 336 331 333 331 334 334 340
334 342 344 345 344 343 345 343 344 344 345 346 346 347 347 346 344 340 339 341 341 343 342 344 341 343 345 344 343 342 345 344 344 343 344 340 341 340 340 336 336 337 333 333 332 333 334 334 335 334 334 334 334 334 337 338 334 333 329 331 335 338
337 333 343 343 343 343 343 341 342 343 342 343 343 345 345 347 346 347 347 342 340 342 340 340 340 340 340 341 340 340 340 342 342 341 342 338 337 338 337 334 332 332 333 333 333 333 335 335 334 333 333 333 334 336 333 333 332 333 331 332 336 339
329 334 335 343 343 343 341 339 340 340 340 339 342 342 342 342 345 346 345 341 340 338 339 340 337 338 339 341 341 342 338 339 339 338 339 335 334 336 335 333 332 332 333 334 334 330 333 336 335 334 333 333 333 335 332 336 335 334 330 331 336 339
328 333 334 338 340 340 338 339 340 340 337 337 339 339 342 341 340 343 339 340 342 341 338 337 337 337 340 339 339 340 343 336 336 337 337 335 334 333 334 334 333 332 333 333 333 329 327 330 333 336 334 333 333 335 331 331 335 331 331 331 334 338
327 330 330 339 339 334 335 337 338 336 337 337 338 338 336 340 342 342 339 338 341 339 338 338 337 338 340 339 339 341 340 340 336 336 336 333 336 334 333 334 334 333 332 331 331 332 328 330 331 335 334 333 333 332 335 331 336 333 333 330 331 337
329 326 331 332 332 334 335 332 332 334 335 337 333 335 335 336 339 340 338 341 340 341 339 339 338 339 339 337 340 340 338 340 339 336 335 333 337 337 337 335 337 336 331 332 329 332 333 329 328 330 331 333 336 335 335 333 333 332 331 333 331 334
325 330 329 325 331 332 333 330 332 332 333 331 332 333 332 334 335 335 338 340 341 340 338 339 338 338 338 339 339 339 337 340 339 343 343 339 340 337 337 340 335 335 334 332 331 330 330 332 330 328 329 330 332 333 333 333 333 333 331 335 332 332
325 331 329 322 333 330 331 330 330 336 331 329 334 330 331 333 337 337 336 340 339 340 339 339 338 339 338 338 337 339 340 340 341 341 340 339 338 337 335 335 335 336 338 336 337 331 332 330 329 326 328 328 331 333 333 334 332 332 333 335 334 331
325 330 327 326 329 329 333 325 334 330 330 334 335 331 329 329 335 337 338 338 340 340 340 338 337 336 338 337 338 340 341 341 341 340 340 339 340 336 335 335 336 338 335 338 338 332 330 329 330 330 327 327 329 331 332 333 335 334 332 334 336 335
326 323 327 326 327 325 329 330 328 328 331 331 336 333 333 331 330 331 334 336 338 335 340 339 338 336 337 337 339 338 340 340 341 340 340 339 339 339 335 335 334 334 337 336 333 335 332 327 326 327 326 328 329 331 333 333 333 332 335 334 333 336
326 325 325 326 327 327 328 322 320 326 328 331 336 335 336 334 330 331 330 335 333 334 335 338 338 338 338 338 337 339 339 341 340 340 341 340 342 339 336 335 335 335 337 333 331 329 331 330 330 327 327 328 329 334 333 333 334 335 333 334 335 332
326 327 327 329 331 331 330 330 327 328 332 332 332 329 334 331 334 333 334 333 337 336 336 338 340 340 339 339 339 339 340 341 340 340 340 339 338 337 338 337 335 338 335 330 330 327 327 327 327 326 327 331 328 331 334 333 333 333 332 332 330 330
326 327 329 329 329 331 334 330 329 332 330 333 328 325 331 334 337 333 335 329 336 336 332 338 339 337 339 338 338 338 339 341 341 341 343 341 340 337 335 337 337 334 334 331 328 326 326 325 326 326 327 328 330 329 330 332 332 333 333 332 331 330
328 329 331 331 332 330 331 332 330 328 332 327 329 329 328 331 328 335 334 330 334 336 339 336 334 335 338 337 336 336 338 339 338 339 340 341 340 340 339 339 338 337 333 331 328 328 331 331 328 325 325 325 328 329 328 331 332 332 331 331 330 329
329 329 330 331 332 333 331 329 329 328 326 329 326 330 335 326 329 336 329 333 332 336 337 333 335 336 335 335 336 337 335 335 337 338 338 338 338 339 339 340 339 339 340 338 337 336 334 333 331 330 325 325 326 327 328 329 332 330 329 329 330 331
329 329 330 331 327 325 325 321 322 324 321 326 322 326 330 328 328 326 330 333 334 339 330 333 333 335 338 332 334 333 334 333 334 332 336 335 336 336 336 337 337 338 336 337 337 336 336 333 331 330 327 326 325 325 326 327 328 329 329 329 330 332
328 328 326 324 325 322 322 320 322 324 325 323 318 325 327 327 328 326 328 326 330 329 332 332 332 333 331 330 332 331 331 330 331 330 331 334 335 335 335 335 338 338 336 334 336 338 337 334 329 326 330 327 329 328 326 327 326 326 326 328 329 329
327 327 332 328 324 330 323 324 325 321 323 318 317 322 321 324 327 328 330 330 332 333 331 331 334 334 335 332 331 332 332 331 329 329 330 329 331 333 333 333 335 332 336 335 333 336 338 334 327 325 323 322 324 328 329 328 325 325 325 326 328 328
326 327 330 327 327 323 325 327 326 325 323 322 323 329 324 325 328 324 330 330 327 325 325 324 327 330 330 330 330 330 331 332 332 332 330 329 328 329 331 331 333 331 332 333 333 336 335 334 329 329 326 322 318 317 322 324 327 325 325 325 326 327
326 326 324 327 326 325 326 328 331 331 327 328 323 327 329 327 327 326 327 327 324 328 327 325 324 322 325 327 332 333 331 331 330 332 333 330 330 329 330 331 332 331 331 328 330 331 335 335 332 331 322 320 319 319 314 317 320 324 326 326 326 326
326 326 323 326 323 325 325 328 328 328 329 328 328 325 323 321 324 324 326 325 325 324 325 326 324 323 323 325 326 326 326 329 330 331 329 329 330 330 331 332 332 331 330 327 326 329 332 333 332 332 327 324 319 315 315 319 320 321 325 324 325 326
325 326 322 323 325 324 324 327 324 324 321 321 320 319 319 319 322 322 321 327 327 325 325 326 326 325 322 323 327 327 328 326 326 328 329 329 329 330 329 327 330 332 331 331 328 328 329 335 333 333 332 328 326 321 322 323 321 316 324 325 325 325
325 325 321 322 324 325 325 324 324 323 323 326 322 319 324 325 327 325 324 326 326 328 323 324 325 326 326 325 324 327 326 327 324 326 326 326 326 327 329 330 329 331 332 331 331 327 327 329 332 331 330 328 327 327 326 322 317 319 317 322 324 324
325 324 322 323 322 325 322 323 322 323 323 322 323 319 322 323 326 326 325 325 326 328 327 325 325 323 325 326 325 324 325 326 325 322 323 322 323 325 328 330 332 332 333 332 331 329 328 329 326 325 328 328 329 329 328 326 324 319 317 318 319 325
326 324 323 322 321 322 324 322 322 321 321 321 321 321 320 320 322 322 323 324 325 323 324 325 325 324 324 325 325 324 324 322 322 323 321 321 322 323 324 324 328 331 331 331 331 331 329 328 328 326 326 326 327 327 327 327 326 323 317 317 319 320
325 323 323 321 321 322 324 322 321 321 320 320 319 320 321 319 322 321 322 322 324 322 325 323 324 324 324 323 323 324 323 323 322 321 323 320 321 321 321 322 323 325 328 331 331 330 329 329 329 328 327 327 325 326 325 325 324 323 319 319 317 318
325 323 322 321 321 319 323 320 320 321 320 320 320 320 321 317 321 320 320 320 322 323 326 327 326 323 322 323 322 323 322 322 322 322 321 320 320 320 321 323 324 325 325 326 327 330 329 329 330 329 329 328 327 327 324 322 321 321 320 321 320 319
325 324 322 322 322 320 320 319 321 321 319 321 320 319 319 318 319 318 320 320 321 323 320 323 323 322 322 322 323 322 322 321 320 320 320 321 321 320 321 322 321 322 323 325 327 327 329 328 329 328 328 329 329 329 328 326 324 323 323 322 324 322
324 324 322 321 321 321 320 319 320 320 320 321 320 320 319 320 319 320 319 318 320 320 321 319 320 321 323 321 322 320 320 320 320 320 320 320 320 320 320 320 320 320 322 323 323 325 326 328 329 328 329 330 330 330 328 329 327 325 327 329 326 321
324 324 323 321 321 321 321 320 321 320 320 320 320 320 320 319 320 320 319 319 319 318 318 317 319 318 320 321 320 321 320 319 318 318 318 318 318 318 318 317 318 318 319 320 322 323 323 326 328 329 328 329 329 329 329 329 328 326 325 324 323 322
325 324 323 322 321 321 320 320 320 320 320 319 319 319 319 319 319 319 321 320 319 320 318 318 318 320 320 320 319 319 318 317 316 316 315 316 317 316 317 317 316 317 318 319 320 320 321 323 326 328 328 327 327 329 329 329 329 327 326 325 323 322
325 324 323 321 320 320 320 320 320 319 319 319 318 318 317 319 320 321 321 320 319 320 319 319 319 319 319 319 318 317 316 315 315 315 314 314 314 314 315 315 315 316 316 319 318 320 320 321 321 324 328 328 327 326 327 329 329 328 328 327 325 325
325 325 323 321 321 320 320 319 319 318 318 318 318 317 317 317 318 319 320 319 319 319 320 319 319 318 318 318 318 317 315 314 314 314 313 313 313 313 313 313 313 314 315 316 317 317 319 320 321 322 325 327 325 325 327 327 328 328 328 328 327 326

ECMWFFLT2_sfc_thetae_012.txt.gz
Theta_e
341 342 342 343 344 346 349 349 349 347 346 344 345 347 345 345 351 351 350 349 346 345 344 345 345 344 348 345 345 346 347 347 346 346 346 346 345 344 344 344 343 343 342 342 341 340 340 341 340 341 340 341 337 329 329 329 329 331 332 334 336 334
342 343 343 344 346 348 348 347 344 345 345 343 344 346 344 343 348 346 349 347 343 345 342 341 342 348 342 345 346 346 346 347 346 346 346 345 345 344 344 344 343 343 342 341 341 332 333 338 340 340 341 340 331 329 329 329 329 330 332 333 334 338
343 343 343 343 345 346 345 344 344 344 346 346 346 346 342 344 344 344 344 343 344 343 342 342 342 344 344 346 345 346 346 346 346 345 343 345 344 344 344 344 342 342 341 341 334 329 328 329 328 337 337 330 328 328 329 327 328 330 331 332 332 341
342 342 341 342 343 342 340 341 341 343 343 343 343 345 341 342 343 343 343 341 340 342 342 340 349 348 348 343 344 345 346 346 346 345 345 344 344 343 343 343 342 342 341 338 327 328 328 328 327 327 328 325 328 329 327 327 327 329 330 336 334 342
341 341 341 342 340 338 338 338 338 338 338 338 337 336 335 336 337 339 339 338 339 339 338 337 337 337 336 339 340 342 342 341 340 340 343 336 337 340 339 335 334 335 328 329 329 328 326 326 327 327 328 327 328 327 328 327 326 327 330 333 333 342
339 339 339 338 337 341 339 336 336 336 337 337 336 334 334 335 336 337 338 338 337 335 334 334 335 335 334 336 336 336 341 340 338 338 338 335 334 335 332 331 331 330 328 330 331 331 329 328 328 328 328 328 327 328 327 325 326 327 329 330 334 341
336 337 337 339 337 336 335 335 334 335 335 334 335 333 333 334 335 336 337 338 334 333 332 332 332 333 333 334 333 333 337 340 339 336 336 335 333 333 331 329 327 328 325 326 329 329 328 327 326 329 329 329 326 328 327 325 325 327 328 330 335 340
335 336 335 336 335 334 334 335 339 339 335 339 335 333 333 333 335 334 336 336 336 333 333 331 331 332 333 333 333 334 335 337 338 337 336 335 333 331 330 328 327 326 327 327 327 327 327 327 328 329 329 327 326 327 327 325 326 327 328 330 333 339
332 335 334 335 334 333 334 334 333 334 333 339 331 333 334 333 333 334 334 336 336 333 332 332 331 332 332 332 333 334 334 335 336 336 336 332 332 330 330 329 328 327 325 326 326 326 326 327 328 328 328 327 327 327 326 325 326 326 328 329 331 336
324 332 333 333 332 332 330 330 332 333 334 334 327 330 333 332 331 333 333 335 336 333 332 332 332 332 332 332 333 333 334 335 336 334 335 333 330 330 330 329 329 328 327 326 326 326 326 325 327 328 328 327 327 327 325 325 325 326 328 329 330 333
325 332 329 330 328 329 329 328 330 331 329 327 328 331 331 331 332 333 333 334 335 334 333 332 332 332 332 333 332 332 333 334 335 335 335 333 334 336 332 329 328 328 327 327 327 326 327 325 326 328 328 328 327 327 326 325 325 326 327 328 329 330
317 323 323 326 329 327 326 328 329 324 324 325 327 326 330 331 334 331 334 334 334 335 334 332 332 332 332 333 333 332 333 333 334 336 336 335 333 335 334 333 331 330 329 329 328 326 325 324 325 327 327 326 326 327 326 325 325 325 327 328 329 330
314 314 314 315 320 322 324 327 324 323 325 328 324 324 327 330 329 331 331 332 333 334 334 332 332 333 334 331 334 335 333 333 334 336 336 336 335 333 334 333 331 332 330 330 329 329 325 322 324 325 324 325 325 326 326 326 325 325 326 328 328 329
317 317 315 315 318 318 319 320 321 322 328 324 323 323 326 326 330 331 333 331 332 333 333 333 332 332 334 333 333 334 334 334 335 336 335 335 334 333 332 332 332 331 332 330 328 329 324 320 322 322 322 323 322 326 325 326 326 326 327 327 328 328
315 313 315 315 314 314 315 317 314 315 322 322 322 322 322 321 325 327 330 330 331 334 334 333 333 332 332 331 331 333 332 335 336 335 334 334 334 332 332 331 331 330 329 328 328 328 324 321 321 320 321 321 321 322 325 327 326 327 326 326 327 328
313 313 313 314 313 314 315 316 319 322 319 320 320 319 318 319 323 326 328 326 327 329 333 332 332 331 331 331 331 331 332 334 336 334 333 333 333 332 332 332 333 332 328 328 327 325 323 321 320 320 319 319 320 323 324 326 326 327 327 326 326 327
312 313 314 314 313 313 314 314 313 314 314 313 313 315 319 322 324 324 324 323 325 330 332 332 332 331 331 331 333 332 332 334 335 334 333 332 332 332 332 333 332 332 331 329 328 326 323 321 320 320 320 319 320 324 324 325 326 327 329 326 325 326
313 313 313 314 314 314 314 316 315 318 321 315 315 316 319 322 322 321 321 321 325 327 330 332 332 332 330 332 332 331 332 333 334 334 334 333 332 332 332 332 331 334 335 332 329 326 323 321 322 322 321 321 320 320 324 325 327 328 327 327 326 326
314 313 314 314 317 314 313 311 312 314 314 314 316 316 317 318 318 319 320 321 323 323 325 326 328 329 328 329 329 330 330 332 332 335 332 332 332 333 332 330 330 331 333 334 331 330 328 326 329 329 326 323 320 320 321 324 326 327 326 327 327 329
313 314 313 314 313 310 309 312 311 311 312 313 314 317 316 315 317 318 320 321 320 319 321 321 321 324 323 325 325 327 328 329 330 331 330 328 328 328 331 330 329 330 329 330 331 332 330 327 325 324 323 325 324 321 320 321 324 325 326 326 326 328
313 313 314 314 312 307 304 306 307 307 308 311 314 314 315 314 316 317 317 319 319 319 318 319 320 318 319 328 322 323 324 326 327 329 327 328 330 331 331 331 330 328 328 326 328 332 333 328 323 321 319 321 321 322 321 321 321 323 324 325 325 325
312 314 313 314 314 310 306 304 305 307 309 313 313 312 312 313 315 318 316 316 316 315 315 316 319 318 319 318 318 320 320 320 322 323 324 326 328 328 329 329 330 328 330 328 327 331 334 328 322 319 319 318 318 320 320 320 320 320 322 323 323 323
313 314 313 314 310 309 310 309 308 308 310 311 312 312 312 316 318 316 314 314 314 314 314 315 315 318 318 318 318 318 319 320 320 323 321 321 322 324 326 327 327 326 327 328 328 331 330 327 322 322 320 318 315 316 315 317 319 319 320 320 320 322
314 314 315 315 312 309 311 310 310 311 311 311 311 317 313 314 313 314 313 314 313 312 314 313 314 317 316 316 316 318 318 319 319 321 319 320 319 319 320 324 325 325 327 323 325 326 330 328 325 323 316 316 315 314 311 314 315 318 321 320 319 320
314 314 313 316 312 314 315 312 313 313 314 314 313 309 309 309 311 315 313 311 313 312 313 313 313 315 318 314 314 316 316 316 317 317 318 318 318 319 321 321 322 324 325 322 321 325 327 329 328 328 322 318 314 312 313 314 314 315 317 319 320 320
313 313 313 313 313 313 312 311 310 309 308 308 308 306 305 307 309 309 309 311 313 312 314 313 312 313 316 317 314 314 315 316 316 317 318 316 316 316 317 319 321 322 322 324 323 321 321 326 329 329 327 324 320 315 315 319 316 310 316 319 320 321
314 312 314 312 313 314 310 310 310 310 309 310 309 306 305 306 309 309 310 310 311 311 313 312 313 311 312 315 313 313 314 314 315 315 318 315 314 315 317 318 319 319 321 323 322 322 321 321 324 327 329 328 327 325 325 320 315 315 313 314 318 319
314 313 313 312 312 313 311 310 310 309 311 309 308 307 308 309 308 311 309 310 311 311 313 313 313 312 312 314 313 312 312 312 313 315 317 314 314 314 315 316 317 316 317 320 321 322 322 324 322 322 326 326 327 328 328 326 324 320 316 313 316 319
314 312 312 313 312 312 313 312 312 312 312 311 308 310 310 312 311 311 308 310 311 311 309 312 313 312 312 312 318 311 309 310 310 312 316 315 313 314 313 313 314 315 315 316 319 320 323 324 325 323 323 322 323 323 325 325 325 325 320 317 316 317
314 312 312 312 313 312 313 314 311 310 311 310 310 309 309 309 309 308 308 308 308 309 309 309 310 311 311 312 311 312 310 310 309 313 316 311 311 312 313 312 312 314 314 314 316 316 317 320 323 325 324 323 322 322 323 323 323 322 323 322 317 317
314 312 312 312 312 312 313 313 312 309 310 310 309 310 307 306 307 307 308 307 307 307 309 308 309 310 310 311 310 315 310 310 313 313 312 310 310 310 311 311 311 311 312 312 312 314 315 317 320 322 323 324 323 323 321 320 321 322 320 318 318 318
314 311 311 312 311 312 313 312 311 309 309 310 310 310 308 307 308 308 308 308 307 308 308 310 309 308 308 309 311 310 313 310 311 309 310 309 311 311 310 310 310 310 309 310 311 313 312 312 313 315 318 322 322 324 324 323 324 323 321 321 320 319
314 311 311 312 311 311 313 311 310 309 309 310 310 310 309 308 308 307 308 307 306 308 306 308 308 308 308 308 311 308 309 308 307 310 309 308 308 308 308 308 309 308 308 308 309 309 309 310 311 312 314 317 320 321 322 323 323 323 323 323 321 318
314 312 311 311 311 310 312 312 310 309 310 309 310 309 309 308 309 307 309 309 308 307 306 307 308 307 309 309 309 310 309 307 308 308 309 308 308 308 308 308 308 307 306 307 307 307 308 309 311 312 313 313 315 317 319 322 323 323 322 322 320 319
314 313 311 311 310 310 311 311 310 310 310 310 309 309 309 308 310 308 308 309 308 307 306 307 307 307 308 307 307 306 306 306 307 307 307 306 308 306 306 307 307 307 307 306 306 307 306 307 309 309 310 310 312 314 316 318 321 323 324 323 321 321
315 313 312 311 310 310 310 310 310 310 310 311 311 310 309 310 310 310 309 308 308 307 306 306 305 306 307 306 306 306 308 306 306 306 307 308 306 306 306 306 305 305 304 309 306 305 305 305 305 306 307 309 310 310 313 315 318 320 322 323 323 323
315 314 313 312 311 310 310 309 310 310 310 311 310 310 309 309 309 309 309 308 308 307 306 307 308 307 306 305 305 304 306 306 306 306 306 306 306 305 304 304 304 303 304 304 305 304 305 305 305 305 306 307 309 310 311 313 315 317 319 321 322 323

ECMWFFLT2_sfc_thetae_015.txt.gz
Theta_e
343 345 346 347 348 348 349 349 347 346 346 347 347 346 346 346 345 349 349 349 345 344 342 342 342 345 346 345 345 346 347 346 345 344 346 345 345 344 344 344 343 342 342 341 341 340 340 340 340 340 339 337 336 328 328 328 330 332 332 334 336 332
341 343 346 347 348 348 348 346 343 342 343 344 345 345 344 340 346 342 348 346 342 344 341 340 341 346 343 344 344 346 347 345 345 345 345 345 344 344 344 344 343 342 341 340 340 326 327 335 338 338 338 337 327 324 327 328 329 330 332 332 334 334
341 343 345 346 347 348 345 344 342 340 341 343 343 342 340 344 340 341 342 342 341 341 339 340 340 343 343 346 345 346 346 345 346 346 345 345 344 344 343 343 343 342 340 340 328 324 321 323 327 335 333 327 324 324 325 327 328 330 331 330 330 338
342 342 343 344 346 345 344 344 342 341 341 341 342 341 337 339 340 339 341 340 339 340 339 338 345 344 345 341 343 345 344 345 344 346 345 343 344 343 343 343 342 341 339 332 325 325 323 321 324 322 321 323 324 324 324 325 327 329 330 335 331 340
340 340 341 343 343 342 341 341 341 341 339 338 338 337 337 334 340 338 339 338 338 338 338 336 336 337 338 338 339 339 341 341 341 340 343 335 335 337 337 332 332 333 327 328 326 323 324 323 324 323 322 323 325 324 323 326 326 328 329 332 332 341
339 339 341 340 339 342 340 338 337 338 337 337 336 335 335 335 337 335 336 337 338 336 335 334 333 333 333 337 338 337 337 338 337 338 338 335 333 334 334 332 329 328 326 326 327 326 325 326 322 323 322 322 324 324 324 325 325 326 329 329 332 341
336 337 338 339 337 335 332 333 333 333 334 334 332 332 333 333 334 335 336 337 335 333 332 332 332 332 334 335 335 336 338 338 336 335 334 334 333 333 332 328 325 325 323 324 326 325 324 324 322 324 324 324 323 324 323 324 325 326 328 328 332 341
334 335 335 335 334 333 332 333 337 339 333 338 334 331 330 331 334 334 336 335 336 333 332 331 331 332 333 334 335 336 335 338 337 334 334 333 332 329 327 325 324 323 325 325 325 325 324 325 323 323 325 324 323 322 323 323 324 325 327 327 329 339
334 333 332 333 333 333 333 332 333 332 333 338 331 330 330 331 332 333 333 334 335 331 330 331 331 331 330 332 332 332 333 336 338 335 334 332 331 330 328 326 324 325 322 322 322 323 324 324 322 322 324 325 323 323 323 323 324 325 326 327 328 333
332 332 331 332 331 331 330 330 331 332 333 334 329 331 329 329 331 332 332 333 334 332 331 331 331 331 330 331 331 332 332 335 336 334 334 332 331 331 329 328 325 324 324 322 323 324 325 324 324 323 323 325 324 325 324 323 323 325 326 327 328 330
330 333 329 330 328 328 328 329 330 332 329 329 330 332 330 330 330 330 332 334 333 333 331 331 332 332 330 330 331 331 331 333 333 333 335 333 331 331 330 329 329 327 326 324 325 325 325 324 324 324 324 326 326 325 324 324 323 325 326 327 328 329
323 327 327 328 330 326 325 327 329 326 326 327 330 328 329 330 333 330 333 334 333 332 333 332 333 332 332 332 331 330 331 331 332 334 334 333 333 333 330 330 330 329 328 326 326 326 325 324 324 324 324 325 325 325 324 323 324 324 326 327 327 328
318 320 322 323 324 322 323 327 325 322 324 328 326 328 328 329 328 330 331 333 333 333 332 332 332 333 333 333 332 330 330 331 332 334 333 334 334 332 333 331 329 329 327 326 325 326 327 325 324 324 324 325 325 325 324 323 323 324 325 326 327 328
315 316 318 319 321 321 321 321 321 319 326 322 321 322 327 326 329 329 331 331 332 333 331 330 332 332 334 332 333 332 331 330 331 333 333 333 333 332 332 332 331 329 331 328 326 326 325 324 323 324 324 325 324 324 323 323 322 323 324 325 327 327
317 316 319 319 319 318 317 319 317 317 320 317 319 319 320 321 324 327 330 332 333 334 333 332 331 330 333 333 333 333 334 333 332 332 333 332 331 331 331 331 330 328 326 326 327 327 327 325 324 323 322 323 323 322 323 323 323 323 323 324 325 327
313 314 316 317 313 314 314 313 313 323 318 317 318 317 317 317 321 323 326 326 331 334 333 331 331 330 330 330 330 330 332 335 336 335 333 331 331 331 331 330 331 330 327 328 326 326 325 324 323 322 321 321 322 322 323 323 323 323 323 324 325 325
311 313 313 313 311 311 311 311 312 313 312 312 312 313 315 317 321 322 321 322 325 330 330 330 331 332 329 330 331 331 331 332 335 334 333 330 330 330 331 331 330 331 330 327 327 327 326 322 321 320 319 318 320 320 321 323 323 323 325 323 323 324
311 312 312 312 312 312 312 313 313 316 319 314 313 315 317 320 320 318 320 322 324 328 329 329 329 330 329 332 332 331 331 331 332 333 331 331 331 330 329 330 330 331 332 329 327 327 327 325 321 320 319 319 319 319 320 322 324 325 324 323 323 323
312 311 311 313 314 312 311 312 311 313 314 314 315 315 316 317 317 318 318 319 322 324 327 325 327 328 327 329 328 329 330 331 331 332 331 330 330 330 330 329 328 328 330 331 329 329 328 326 326 325 321 319 319 319 320 322 324 324 324 324 324 325
310 310 311 312 311 309 310 312 311 311 313 313 313 317 315 315 315 317 319 318 317 316 319 319 317 319 321 324 325 327 328 329 330 331 330 329 329 328 329 329 329 328 328 329 330 330 329 327 325 323 321 323 323 321 319 320 323 324 325 325 324 325
309 310 313 311 308 307 307 306 305 307 310 309 314 313 313 312 314 315 316 316 316 315 314 316 316 315 314 324 322 323 323 324 326 327 327 327 328 328 329 328 328 328 327 326 326 328 330 327 323 322 319 319 321 321 322 321 320 323 324 324 323 324
309 310 311 311 311 307 304 307 305 306 307 310 312 310 311 311 312 315 314 313 313 312 313 314 316 315 316 314 315 316 318 319 320 321 323 325 326 327 326 326 327 325 329 327 325 330 331 327 320 318 317 316 316 318 320 320 319 320 322 323 323 324
310 311 310 312 309 306 306 307 305 305 310 308 308 310 309 314 315 312 310 312 312 311 312 312 314 317 316 315 315 316 316 318 320 322 320 321 322 322 323 325 326 323 322 326 327 330 329 327 323 321 319 317 312 314 315 316 318 319 320 320 321 322
310 310 310 312 312 307 308 307 307 309 308 308 309 315 309 308 310 311 311 310 311 310 310 311 313 315 314 313 313 314 315 317 318 318 318 317 318 320 321 322 324 325 325 321 323 324 330 328 326 323 317 316 313 311 310 313 314 317 319 319 319 320
311 311 311 314 310 310 311 310 311 311 312 310 310 308 309 309 308 314 310 308 310 310 311 311 312 313 316 312 312 313 314 314 315 315 316 315 315 316 318 319 322 323 323 321 320 322 325 328 327 328 322 317 314 312 312 314 314 315 316 317 318 319
310 310 312 310 310 311 311 311 310 308 306 306 306 307 306 308 307 309 307 308 310 310 311 309 310 312 315 314 312 311 312 313 313 314 315 313 313 314 315 315 317 319 318 322 323 322 321 324 327 327 326 326 322 315 315 318 316 310 316 317 318 319
311 311 311 309 310 312 308 310 310 309 308 308 307 306 303 303 308 306 307 308 308 308 309 310 310 308 311 312 311 310 311 312 314 314 315 313 313 313 314 316 316 315 316 318 321 319 320 322 324 326 327 327 327 325 324 319 314 315 313 316 318 317
312 313 311 310 310 310 309 308 308 307 310 308 309 309 305 305 305 309 306 308 309 308 307 310 309 309 309 312 310 309 309 310 312 315 315 313 312 312 313 315 315 314 315 316 316 315 316 319 318 320 324 323 324 326 327 326 324 319 317 314 317 322
312 312 311 310 310 308 310 309 308 308 309 308 309 308 307 310 308 310 306 308 308 307 306 306 310 310 308 311 314 308 306 308 309 312 314 312 311 312 311 311 312 312 312 313 314 314 313 314 316 316 318 321 323 323 324 325 325 324 319 316 316 318
311 311 310 310 310 308 308 310 308 308 309 308 308 306 307 307 307 305 306 305 306 306 306 305 306 308 308 308 308 309 307 307 308 312 312 309 309 309 309 310 309 310 310 311 312 313 312 311 313 314 316 317 316 317 320 322 323 322 322 321 315 317
311 311 310 310 309 308 309 309 308 309 309 309 307 307 306 305 305 305 304 305 305 304 305 306 305 306 306 308 309 313 307 308 309 313 310 308 307 307 307 308 308 308 308 308 308 310 311 312 311 311 312 314 314 315 315 314 316 319 319 318 318 318
311 310 310 310 309 308 310 309 308 309 309 309 308 308 307 307 307 307 305 306 305 305 305 306 305 306 305 306 309 306 308 307 309 306 307 306 307 308 307 307 307 307 306 306 306 308 305 307 308 309 310 312 312 314 316 316 317 318 317 317 317 317
312 310 310 310 309 308 309 309 309 309 309 310 308 308 307 306 307 307 306 305 303 304 304 306 306 306 305 305 309 305 306 306 306 308 306 306 305 305 306 306 306 304 304 305 305 305 305 304 305 307 307 309 310 310 311 314 316 317 318 319 318 315
312 311 310 309 309 308 309 309 309 309 309 310 309 308 307 307 307 307 307 307 306 306 305 305 305 306 306 306 307 308 307 305 305 306 307 305 305 306 304 306 304 304 303 304 304 304 304 305 304 305 305 305 307 308 309 311 313 314 315 315 314 314
313 312 310 310 309 309 309 309 309 309 309 309 309 309 308 307 307 306 306 307 307 305 305 305 306 306 307 306 305 304 305 305 304 303 305 304 306 304 305 304 306 305 305 303 303 304 303 302 304 303 303 304 305 307 307 309 311 311 313 314 315 315
314 313 310 310 309 309 309 310 309 308 308 309 310 309 308 308 308 307 307 308 307 306 306 304 303 305 305 305 304 305 306 302 303 304 305 304 303 303 303 303 303 302 301 308 303 302 302 302 302 302 303 303 304 304 305 307 309 310 311 313 313 315
314 313 311 310 310 309 309 309 309 309 308 308 308 308 308 307 307 307 307 307 307 306 304 304 305 305 305 302 303 303 303 303 302 302 302 303 303 302 302 302 301 301 301 301 304 302 302 301 302 302 302 302 303 303 304 305 306 309 310 311 312 314

ECMWFFLT2_sfc_thetae_018.txt.gz
Theta_e
344 346 348 348 348 347 347 348 346 347 344 344 342 342 342 343 344 344 343 341 344 345 343 343 344 344 345 345 345 346 347 346 347 346 345 345 344 344 345 344 343 342 341 341 340 340 340 340 339 338 337 338 339 332 331 332 333 335 334 337 337 334
343 344 346 346 348 348 346 346 342 343 345 342 344 340 343 342 346 341 340 340 341 344 341 339 341 345 344 345 345 346 346 345 346 346 345 345 344 343 343 344 343 342 341 340 334 329 333 338 338 337 338 335 329 328 330 332 332 333 335 336 336 336
343 344 345 346 347 347 345 343 341 340 341 344 344 342 338 340 338 339 340 339 341 342 339 340 342 343 343 345 344 346 345 343 344 344 345 345 344 344 343 344 343 342 340 336 327 326 326 326 329 335 332 328 327 328 329 330 331 333 334 335 333 338
342 343 344 345 346 345 344 343 341 339 340 338 337 339 337 338 338 338 340 338 338 340 339 337 345 345 344 343 343 343 345 343 344 344 344 344 344 343 343 343 342 340 335 330 326 327 326 325 324 324 326 326 326 326 328 329 331 332 332 337 332 338
342 343 343 342 344 343 343 343 341 341 340 340 337 335 336 337 337 337 337 338 338 338 336 336 337 338 337 338 338 338 340 338 338 340 342 337 338 340 339 335 335 334 329 329 327 326 326 326 325 324 325 324 325 325 328 330 330 331 332 335 334 338
341 341 343 342 342 344 343 340 340 340 340 340 339 337 336 334 336 336 337 337 340 335 335 333 333 333 335 335 336 336 337 336 336 337 339 336 336 336 336 335 334 333 330 329 329 329 329 328 325 324 324 324 323 325 326 328 329 330 331 332 335 338
340 341 341 342 340 339 338 338 338 338 339 337 338 337 336 335 335 335 337 339 337 335 335 333 332 333 335 335 335 336 336 336 336 336 338 338 337 337 336 335 333 332 328 328 328 325 325 324 325 327 325 324 325 326 326 327 328 329 330 331 333 338
339 339 339 339 337 336 336 337 339 341 337 340 338 336 335 336 336 335 336 335 337 334 334 332 332 333 336 336 336 336 336 336 338 337 336 336 336 335 335 333 331 327 328 327 327 327 326 325 324 325 327 326 326 325 325 326 327 328 329 330 331 336
338 338 336 336 334 334 335 336 336 334 334 340 332 332 334 336 337 336 335 335 336 332 331 332 332 333 334 335 336 334 333 335 338 336 334 333 334 334 333 331 328 327 323 325 324 325 325 325 323 323 325 327 326 326 325 325 326 327 328 329 330 332
336 335 334 333 331 330 330 332 333 334 336 335 328 329 331 333 334 334 332 333 334 333 332 332 332 331 332 334 334 332 331 332 334 336 334 332 332 332 331 328 326 326 326 324 325 325 327 325 324 325 325 327 326 326 326 325 325 326 328 329 330 332
334 335 332 332 328 329 329 330 331 329 329 329 330 332 330 330 330 331 332 333 333 333 332 332 331 331 331 332 332 329 328 330 332 336 335 333 331 331 330 329 328 327 326 324 325 326 326 325 324 324 325 327 327 326 327 326 325 326 327 328 329 330
331 331 330 330 330 327 327 329 329 327 328 328 330 329 330 330 332 330 333 333 333 332 332 330 331 332 331 331 331 330 329 330 331 333 335 334 332 332 331 330 330 329 328 327 326 326 326 326 325 325 324 325 326 326 327 326 326 325 327 328 328 330
326 326 327 327 326 324 324 328 325 323 326 330 331 330 329 330 331 332 332 332 333 333 334 332 332 332 332 332 331 331 330 330 331 333 333 334 333 333 332 331 330 330 328 327 327 327 327 326 326 326 326 326 326 326 326 326 326 325 326 327 328 329
322 322 323 322 322 322 323 323 321 319 324 322 322 323 329 329 332 331 332 331 331 333 333 332 332 331 333 332 331 331 331 331 332 333 331 333 333 333 332 332 330 329 330 327 326 327 327 327 327 326 326 326 326 326 326 325 325 325 326 326 328 328
322 320 323 321 322 321 318 322 317 316 317 317 319 318 319 324 327 331 331 331 333 333 333 333 332 331 332 332 331 332 332 333 332 332 330 330 332 332 332 332 331 329 328 327 327 328 328 327 327 327 327 326 325 325 325 326 325 325 325 326 327 328
318 318 317 319 315 316 315 313 316 322 316 317 317 317 316 320 322 323 327 328 330 333 333 332 332 331 331 330 330 330 330 332 333 332 331 329 330 331 330 330 331 331 328 328 327 327 326 326 326 326 326 325 324 325 324 325 325 324 325 325 326 327
315 316 315 313 311 310 310 311 313 314 313 313 313 313 315 319 321 320 321 323 325 329 330 331 332 332 331 330 330 329 329 330 333 333 331 330 330 331 329 330 329 331 331 328 328 328 327 327 325 324 323 322 322 323 324 325 325 325 324 324 325 326
314 315 313 311 310 310 311 312 312 315 319 313 313 314 317 319 318 318 320 321 324 329 330 331 331 330 329 332 331 330 329 330 331 332 331 330 329 330 328 330 329 330 331 330 328 327 327 327 326 326 323 320 320 321 322 324 325 327 325 324 325 325
313 311 310 311 312 310 311 311 311 312 313 313 314 314 316 317 316 317 317 320 327 329 330 328 330 330 329 330 329 329 329 329 330 331 330 328 327 328 329 330 328 328 331 331 329 329 328 326 325 325 326 322 320 320 321 323 325 326 325 325 325 326
310 310 311 311 311 310 311 312 313 312 314 313 313 317 314 314 315 316 319 317 317 318 321 321 319 321 324 326 327 327 327 329 330 330 329 328 328 328 328 328 328 327 327 328 331 330 329 327 326 325 324 323 324 322 321 322 324 325 326 326 326 327
309 311 311 309 308 308 308 307 307 309 310 309 313 312 313 312 314 315 315 315 315 315 315 317 317 315 315 324 323 325 324 325 329 328 326 326 327 327 328 328 327 327 327 326 326 328 330 329 325 323 321 322 322 323 324 322 323 324 325 326 326 326
309 310 310 310 310 308 305 309 308 310 308 309 311 311 311 311 313 315 314 313 314 313 314 316 318 317 316 314 316 317 318 320 322 323 324 325 326 327 326 326 326 323 328 327 325 329 330 327 321 319 315 317 320 321 322 323 321 323 325 325 326 326
310 310 309 311 308 307 305 306 307 306 311 308 307 310 310 314 314 311 310 311 312 311 313 314 315 318 316 316 317 318 318 319 320 322 320 320 322 322 324 325 324 323 323 326 326 329 328 327 322 321 320 319 314 315 318 319 320 321 322 325 325 325
310 310 310 312 311 305 308 306 307 310 307 307 309 314 309 309 309 309 310 310 311 310 312 313 313 315 314 314 315 315 316 316 316 318 316 316 318 319 321 322 324 325 325 321 322 324 328 327 325 322 316 317 316 314 312 316 316 320 320 321 323 324
310 309 310 314 309 309 311 310 310 310 310 310 311 308 309 308 309 314 310 309 309 310 311 312 313 314 317 313 313 314 314 314 315 314 315 315 315 315 317 317 319 321 322 322 321 323 325 328 327 327 322 317 315 313 313 315 318 318 319 320 320 321
309 309 310 309 308 310 312 310 309 307 306 304 305 306 306 308 308 308 308 308 308 309 310 310 310 313 316 315 312 313 313 314 314 314 314 314 314 315 315 315 316 317 318 321 323 321 320 324 327 327 327 326 323 316 316 319 318 314 321 320 321 321
310 310 310 309 308 311 309 310 310 309 307 306 306 305 303 304 308 305 306 308 307 308 309 310 310 310 312 313 311 312 313 314 314 314 316 313 313 313 314 315 316 315 315 317 318 316 316 318 323 322 324 326 326 326 325 320 316 317 315 320 323 323
310 312 310 309 308 309 309 309 308 306 307 305 305 307 305 304 305 309 308 307 307 307 308 309 309 309 311 313 311 310 311 312 313 314 314 312 312 312 312 314 314 314 315 315 315 314 314 316 315 315 320 321 322 324 327 326 325 319 317 315 319 324
309 311 309 308 309 307 310 309 308 307 307 307 306 307 308 310 308 310 306 306 307 306 306 307 308 308 309 314 315 309 310 311 311 312 314 311 310 311 310 310 311 311 312 313 314 314 313 312 314 313 315 315 318 318 321 325 324 324 318 315 315 317
309 310 310 308 309 307 307 310 306 306 307 306 308 305 306 307 306 305 306 305 306 306 305 306 305 307 308 310 310 310 310 310 310 312 313 308 308 309 309 309 310 310 310 310 311 312 312 312 313 313 314 314 313 314 315 318 318 316 319 321 315 315
310 310 310 308 308 307 306 307 307 306 307 307 306 306 306 305 305 304 305 305 305 305 305 305 304 305 307 308 311 312 309 310 312 314 310 308 308 308 308 308 308 308 308 308 308 309 310 311 311 311 311 312 312 312 312 312 312 314 314 313 314 315
309 309 309 308 308 307 306 307 306 307 307 308 307 307 307 306 306 307 305 305 304 304 305 306 305 306 306 308 310 309 311 309 309 307 307 308 308 308 308 308 308 308 307 307 308 309 307 308 308 308 309 311 311 312 312 311 313 314 313 313 313 312
309 309 309 308 308 306 306 307 306 306 307 308 308 308 307 307 306 307 305 305 304 306 304 306 306 307 306 306 309 307 307 308 308 309 307 307 307 307 307 307 306 306 306 307 307 307 307 306 307 307 307 308 309 309 310 312 313 312 313 314 314 311
309 309 309 307 307 306 306 307 306 307 307 309 307 308 307 307 307 307 307 306 306 306 306 307 306 307 307 306 308 310 309 307 308 308 308 306 306 306 305 306 305 305 306 306 306 306 306 307 306 306 307 306 307 308 309 310 311 311 310 311 310 309
308 309 309 308 307 306 306 306 306 307 307 308 308 307 307 307 307 307 306 307 306 305 306 306 307 307 307 307 307 307 307 307 307 308 308 308 307 306 306 307 307 307 307 305 306 306 305 305 305 305 305 306 308 307 307 308 309 309 311 311 310 310
309 309 309 309 308 307 307 307 307 306 307 308 310 309 307 307 306 307 307 307 307 306 306 306 305 307 306 307 307 306 308 305 305 306 306 305 305 305 305 305 304 303 304 308 304 304 304 303 304 304 305 305 305 305 307 307 308 309 310 310 310 311
309 309 309 309 309 308 307 306 306 307 307 307 308 308 308 307 306 306 306 307 307 307 306 305 305 306 306 305 307 307 306 305 305 304 304 305 304 304 304 304 303 302 303 305 306 304 304 304 304 304 304 304 304 305 306 307 307 308 308 308 309 309

ECMWFFLT2_sfc_thetae_021.txt.gz
Theta_e
348 349 350 351 353 351 349 345 343 340 339 338 340 341 340 343 341 344 345 344 342 348 350 349 348 347 344 348 346 346 347 347 347 346 346 346 345 343 342 344 342 342 341 340 340 340 340 339 338 337 339 342 341 342 343 342 342 340 340 340 340 338
346 347 348 349 350 351 349 346 347 341 343 342 341 340 341 347 344 350 345 347 348 349 349 349 349 345 349 346 347 346 347 347 347 346 346 345 345 343 342 344 342 341 341 340 336 340 341 338 337 338 338 339 342 343 342 342 342 340 340 341 341 340
343 346 347 348 349 351 350 350 348 346 345 342 343 345 343 346 347 348 348 348 348 349 348 349 350 344 347 345 346 346 346 346 346 346 346 345 344 344 343 342 341 341 337 335 336 336 336 336 338 336 337 340 342 341 342 342 342 341 340 341 341 340
343 344 346 346 348 349 349 348 346 344 344 346 347 344 343 343 345 348 346 347 347 348 348 351 344 345 345 347 347 343 341 343 345 345 345 346 344 344 342 343 341 338 336 336 336 333 333 335 335 337 339 340 339 340 340 341 340 341 341 340 339 340
343 344 345 346 345 346 347 346 345 343 342 344 344 342 343 343 345 347 346 348 345 347 347 350 350 349 348 350 349 347 345 345 346 345 343 342 342 339 342 341 340 339 338 337 336 336 335 334 336 336 335 338 339 339 340 340 340 340 341 342 342 339
342 343 344 345 345 345 345 344 344 345 344 344 343 341 342 343 345 345 346 346 345 346 346 348 349 350 349 349 348 347 346 344 345 345 344 342 340 342 340 339 338 337 337 338 337 338 337 335 334 335 335 335 337 339 338 339 340 340 341 342 343 339
342 342 343 343 344 344 344 344 344 344 343 343 344 343 342 343 345 345 346 343 343 344 345 347 348 348 347 347 347 347 346 345 344 344 345 340 340 341 340 338 337 336 336 337 336 335 335 334 336 333 334 334 335 337 338 339 339 340 341 341 341 338
341 342 341 341 342 342 343 343 343 345 345 344 344 343 343 343 345 345 345 346 346 345 344 345 346 346 345 345 345 346 346 346 343 344 343 340 339 338 338 338 337 335 335 336 334 334 332 331 334 335 333 334 335 334 337 338 340 341 341 342 341 339
341 341 341 341 340 341 342 342 343 343 344 343 342 342 343 344 343 344 345 346 346 344 344 345 344 344 345 344 345 345 343 341 343 342 342 340 338 338 337 337 337 336 336 335 334 333 331 332 334 335 333 332 335 334 335 337 339 339 340 340 341 340
341 341 340 340 340 340 340 340 340 341 341 344 342 342 343 342 343 343 343 345 345 345 346 345 344 344 342 342 341 343 343 342 339 342 341 339 340 338 337 336 336 336 331 333 331 333 332 332 331 333 332 332 333 335 336 335 338 337 339 340 341 340
340 341 340 339 339 339 340 340 340 341 341 341 340 340 340 340 341 343 344 344 344 343 340 338 337 338 337 331 332 334 338 340 338 339 339 339 340 339 339 337 336 333 332 332 331 333 332 331 332 330 332 331 333 335 335 337 336 336 336 338 339 341
339 340 340 339 339 339 340 340 340 340 340 340 339 339 338 339 339 338 338 339 339 338 335 334 334 333 331 332 333 333 334 334 336 337 338 339 339 339 338 338 337 337 335 334 333 334 335 332 332 331 332 332 334 335 335 336 336 336 336 338 338 341
338 339 339 338 338 339 340 340 339 340 339 338 336 335 336 337 336 336 337 337 335 337 337 336 336 335 332 333 333 333 334 334 336 334 336 338 338 339 339 338 337 337 336 335 335 335 334 335 334 334 335 333 335 334 335 335 337 337 336 337 337 339
336 337 337 337 338 339 338 338 339 340 339 338 336 335 335 336 337 336 336 334 337 335 335 336 335 335 335 333 333 333 333 333 334 335 335 336 337 340 339 337 335 335 335 335 334 335 334 335 335 335 336 336 336 337 337 335 336 337 338 338 337 339
335 335 335 337 338 338 337 337 337 338 338 337 336 336 337 337 336 338 337 337 338 337 336 336 335 335 337 338 336 335 334 334 335 335 335 336 337 338 339 338 337 334 336 336 336 334 335 334 335 335 335 337 335 335 338 337 338 338 336 339 339 338
335 336 337 336 335 336 336 336 336 334 336 336 335 334 335 336 336 336 336 335 335 335 335 335 336 336 336 336 334 334 333 334 335 333 334 333 335 335 337 337 338 337 335 333 333 334 335 335 335 335 335 336 336 337 336 336 337 336 336 337 336 338
335 336 335 333 332 331 331 331 332 331 331 333 332 333 334 335 334 335 334 334 334 334 334 333 335 337 335 334 334 333 334 334 335 335 334 332 333 336 336 335 335 336 336 335 331 331 333 333 334 333 334 335 335 334 334 336 337 338 334 336 336 336
334 333 331 329 329 328 328 329 329 329 329 329 331 332 334 333 334 333 334 335 334 334 335 336 335 335 335 335 336 336 336 335 334 334 334 334 333 334 334 334 333 335 335 335 333 331 331 332 331 331 333 334 336 334 332 335 337 337 335 335 337 336
330 328 327 327 327 327 327 328 328 328 328 328 330 332 333 332 333 335 334 333 334 335 334 334 334 334 333 333 334 335 334 333 333 335 334 333 333 333 333 333 333 334 335 336 335 334 333 332 331 331 331 333 333 333 333 333 334 336 336 336 335 336
327 326 326 326 326 325 326 326 326 326 326 327 329 329 332 331 333 332 334 334 334 334 333 334 333 333 332 332 332 332 332 332 333 333 333 332 333 332 332 331 331 331 331 333 333 335 333 330 329 329 330 332 333 332 330 330 331 333 336 338 338 337
325 326 325 323 324 324 323 324 326 327 326 326 327 330 330 330 329 329 328 328 329 328 330 330 330 331 333 332 331 331 332 332 333 332 332 331 332 332 333 332 330 330 329 329 332 332 331 330 327 326 329 330 332 333 332 330 329 330 332 335 337 337
323 325 326 326 325 326 327 326 325 325 326 326 326 326 326 327 327 326 328 328 329 329 330 330 331 332 332 333 331 330 330 330 331 331 331 331 330 330 330 330 330 328 330 329 330 331 330 329 323 322 320 323 327 331 332 331 330 329 330 332 335 336
323 324 324 325 325 324 324 326 328 326 327 324 323 326 327 326 325 323 326 326 327 328 329 328 331 332 333 332 331 330 330 331 331 330 329 328 329 329 331 330 330 328 327 329 330 330 330 330 324 324 324 322 319 319 327 329 331 330 331 332 334 333
323 323 323 324 324 325 324 324 326 327 325 326 324 325 326 324 324 323 322 325 326 327 327 327 327 328 328 329 329 328 328 328 328 329 327 325 326 326 328 329 329 329 328 324 326 326 330 330 329 325 318 320 320 321 315 320 325 329 329 328 330 331
322 322 323 324 324 325 324 324 324 324 325 324 324 324 323 322 323 322 322 322 323 325 325 326 327 327 326 327 328 328 327 327 326 327 327 324 324 324 324 326 328 329 327 326 325 326 326 329 329 330 326 320 317 317 318 321 322 326 329 327 327 328
322 322 323 324 324 324 324 324 322 321 319 319 319 319 318 319 320 321 319 323 322 324 324 325 325 325 325 325 326 327 327 325 325 325 325 323 324 323 323 323 325 327 327 327 326 325 324 326 326 327 328 330 326 319 320 323 322 319 329 329 329 328
322 322 324 323 324 325 324 324 324 322 321 320 319 321 323 325 323 321 322 322 322 324 323 324 325 324 325 325 326 326 326 325 324 324 324 323 321 322 321 322 323 324 324 325 327 322 322 323 326 325 326 327 327 327 327 323 319 322 319 327 328 329
322 322 323 322 323 325 324 325 324 323 321 320 321 321 321 323 325 323 321 321 322 322 323 323 323 323 323 323 324 324 324 324 321 321 319 319 318 319 319 319 321 322 322 322 323 321 319 320 320 319 322 323 324 326 328 327 325 322 320 318 323 330
321 322 323 322 322 324 326 325 324 322 320 320 320 321 321 322 322 322 321 321 322 321 322 323 322 322 322 321 322 322 322 321 320 318 317 316 317 316 317 317 317 317 318 318 320 321 320 317 318 317 319 320 322 322 324 325 323 323 320 317 318 321
320 322 323 322 321 322 325 324 323 322 321 320 319 319 321 321 322 321 321 321 321 321 321 321 322 321 321 320 321 322 321 320 320 318 316 315 316 316 316 316 316 316 317 316 317 317 317 316 317 317 318 318 317 318 319 319 320 319 320 322 316 316
320 321 322 322 321 321 322 323 323 323 322 321 320 320 320 320 320 321 320 320 320 320 321 321 321 322 321 321 322 322 321 320 320 318 316 315 315 314 315 315 315 315 314 314 313 314 314 314 314 314 314 315 314 315 314 314 314 316 317 316 316 316
320 321 321 322 321 320 320 322 323 324 322 322 321 320 320 320 321 320 321 319 320 320 320 321 321 320 321 322 322 321 321 320 318 318 317 317 316 315 315 315 314 314 313 314 314 312 312 312 312 311 311 312 312 314 314 313 314 315 315 314 314 313
318 320 321 321 321 320 319 320 321 322 323 323 322 321 322 321 322 321 320 320 319 318 319 319 320 320 321 322 322 320 319 318 318 318 318 316 316 316 315 314 314 314 313 312 311 312 310 311 311 309 309 311 311 310 311 312 312 313 314 315 314 312
318 320 321 320 320 320 319 320 321 321 322 321 321 322 322 321 322 322 321 320 319 319 318 319 320 320 321 322 321 321 321 320 318 318 317 317 316 315 315 312 314 313 313 313 312 312 311 311 311 311 311 309 310 309 310 311 311 311 311 312 311 311
318 319 320 320 320 320 319 320 320 320 320 321 322 321 321 322 322 321 321 321 321 321 320 321 320 322 322 322 322 322 320 319 318 318 317 317 316 316 315 313 313 314 313 313 312 311 311 310 309 309 310 309 309 309 309 309 310 310 309 310 310 310
316 318 319 319 319 320 320 320 319 319 319 321 321 322 322 321 321 322 322 321 321 321 321 322 323 323 322 322 321 320 320 319 318 318 317 316 315 313 314 313 312 313 312 313 312 311 311 311 310 310 310 310 309 308 309 309 310 309 309 310 310 309
315 317 318 319 319 319 320 319 318 319 319 319 320 321 321 321 321 321 322 322 322 321 322 322 321 323 322 322 321 320 319 318 318 317 316 315 314 313 313 312 312 311 311 312 311 310 310 310 310 310 310 309 308 308 308 310 309 309 310 310 310 309

ECMWFFLT2_sfc_thetae_024.txt.gz
Theta_e
352 355 355 350 349 351 348 345 344 341 340 339 341 341 343 343 343 346 346 345 343 347 349 349 349 348 344 350 346 346 347 347 346 345 344 343 343 344 343 342 341 341 340 340 341 340 339 339 339 340 341 341 342 344 343 342 342 341 340 339 340 339
349 352 354 348 351 351 348 348 352 348 348 344 344 342 347 352 346 353 344 345 346 345 345 349 349 343 347 346 347 347 347 347 347 345 345 344 343 343 343 342 341 341 340 340 339 335 337 337 338 339 342 342 344 343 344 343 344 339 340 341 341 341
347 352 354 352 349 349 349 351 352 350 347 345 349 350 352 349 350 349 347 345 346 344 344 344 344 343 344 342 347 346 347 347 346 346 344 344 343 342 342 342 341 340 339 336 336 335 337 336 338 337 341 344 344 342 344 343 343 342 340 340 340 340
344 347 350 352 352 348 351 352 351 350 349 348 351 350 351 349 345 345 342 344 347 346 344 345 343 343 339 345 345 344 344 345 345 345 345 344 344 343 343 342 339 337 338 334 332 333 334 335 335 340 340 340 340 342 343 343 341 342 342 338 339 341
343 345 344 350 352 350 347 346 346 348 348 347 348 349 349 349 347 344 345 347 345 347 344 346 345 347 346 344 344 344 346 346 344 344 344 340 338 339 343 339 340 336 337 336 334 334 335 335 337 336 337 339 340 342 342 342 341 340 340 342 343 342
343 343 345 346 347 350 351 348 348 348 348 347 347 347 347 348 347 349 348 347 346 346 346 340 342 342 342 345 346 344 344 345 344 344 343 339 336 338 336 336 338 337 337 337 336 335 335 335 335 334 335 338 339 341 340 339 340 341 341 341 344 342
342 343 345 345 345 348 350 349 348 348 347 346 347 346 344 342 346 348 349 348 347 345 344 343 343 343 344 346 345 345 343 344 344 342 344 340 338 338 335 334 335 337 337 336 334 334 334 334 335 333 335 335 337 339 340 339 339 340 342 341 343 341
344 344 345 343 344 349 348 350 348 347 348 347 346 345 344 346 345 346 347 348 348 344 343 343 343 343 343 347 345 345 345 343 342 342 344 341 338 334 333 334 336 335 335 334 333 334 333 330 333 334 334 335 336 338 339 339 339 340 341 342 343 341
343 344 344 345 343 343 347 349 349 347 346 345 347 345 345 346 345 344 345 344 345 345 343 344 343 344 345 347 346 346 347 348 348 344 343 342 337 335 335 334 334 334 335 333 333 333 333 332 334 335 333 333 335 334 337 338 339 338 339 341 341 342
343 341 342 342 342 342 343 342 347 348 347 347 346 347 346 344 344 343 339 337 338 345 344 343 342 346 346 345 345 348 347 345 345 347 344 341 338 336 334 334 334 334 331 332 330 331 331 332 330 333 332 333 333 335 336 336 336 336 338 339 340 343
339 344 341 339 342 343 344 343 342 346 346 346 346 347 345 344 343 339 342 342 339 337 336 337 342 342 341 343 344 345 344 343 343 345 346 342 340 337 338 336 333 332 331 330 330 330 329 331 331 329 331 330 332 335 335 337 335 336 336 337 339 341
340 344 343 338 342 341 341 341 343 343 342 345 347 345 343 343 343 342 344 336 339 339 337 339 342 342 341 340 340 340 341 343 343 344 344 342 339 338 337 335 328 335 336 331 330 331 333 332 331 329 330 329 332 333 333 335 335 335 335 336 337 339
342 343 342 341 339 339 341 339 340 341 341 343 343 344 343 343 342 341 343 341 340 340 338 338 340 341 340 340 341 342 341 340 341 342 338 338 339 340 336 335 330 331 332 330 331 330 331 332 333 332 331 330 332 331 332 333 336 336 334 335 335 336
342 341 343 341 342 337 339 339 340 340 341 341 340 340 342 343 342 342 341 339 340 337 337 338 339 341 341 341 340 340 339 339 340 339 338 339 338 337 334 333 332 332 327 327 329 331 332 331 331 332 333 331 332 333 331 331 333 334 334 335 335 337
340 342 341 341 340 338 340 338 335 337 338 338 338 339 341 342 339 338 340 340 341 338 337 336 338 342 340 340 340 341 339 339 339 341 338 339 337 335 336 334 332 332 331 331 328 330 331 333 335 333 334 336 332 330 332 332 333 333 333 336 336 336
340 340 340 339 340 339 339 338 336 336 337 339 334 334 334 335 336 338 338 339 338 339 340 339 339 338 340 340 340 340 341 342 340 339 338 339 340 337 337 337 335 335 333 330 330 331 330 330 333 335 336 336 335 334 333 332 332 332 333 334 334 336
340 339 339 338 338 337 337 337 336 337 336 336 333 332 332 334 334 334 335 336 334 335 335 335 339 340 339 339 338 339 338 340 341 340 339 339 339 339 337 336 338 338 338 334 330 329 330 330 331 331 333 336 336 335 334 333 332 333 331 333 334 333
340 338 339 338 339 338 337 336 334 333 335 333 333 332 332 332 333 332 333 333 335 333 335 335 336 337 338 339 339 337 338 339 340 340 340 339 339 339 340 338 337 339 337 336 333 332 330 331 331 328 329 330 334 337 335 334 333 332 331 331 332 333
339 339 338 340 340 339 338 336 334 333 332 331 332 332 332 331 330 332 332 333 334 335 334 334 335 336 336 335 336 336 336 337 339 338 338 338 337 337 337 336 337 337 339 337 333 334 333 334 331 331 329 329 332 336 338 337 335 333 332 332 331 332
339 340 340 338 335 331 330 328 328 328 327 326 330 329 332 330 332 329 332 332 332 332 332 333 332 332 334 333 334 333 334 335 335 336 337 336 335 336 335 336 336 335 336 337 338 338 339 335 335 333 333 334 334 333 334 335 334 332 333 333 333 332
338 339 334 330 329 328 327 326 326 325 324 325 328 330 330 331 330 330 331 328 329 328 330 330 330 330 331 331 332 333 333 335 335 334 334 335 335 334 336 337 336 336 334 335 335 338 339 335 334 332 334 333 332 332 335 336 334 332 331 332 332 331
335 335 332 331 329 328 327 325 323 324 323 323 325 325 326 329 330 330 328 327 327 327 328 329 329 331 330 331 331 330 332 332 333 333 334 336 335 333 334 334 334 333 334 330 331 335 335 333 330 329 326 326 331 331 331 335 333 331 330 331 333 333
333 332 332 333 329 327 327 329 326 324 323 325 328 329 327 328 330 326 328 327 329 329 328 327 329 328 330 331 330 330 330 332 332 332 332 332 335 334 333 334 334 334 332 333 332 335 333 334 329 329 329 323 321 320 327 329 333 334 333 332 333 331
333 333 332 333 329 330 331 331 332 329 331 327 327 330 331 329 327 326 326 328 328 328 328 328 327 326 328 329 330 328 328 328 329 330 329 328 329 328 331 332 333 332 332 327 329 330 333 334 331 328 322 321 321 321 316 318 324 331 336 334 334 333
333 333 333 332 332 333 331 330 330 331 330 329 328 328 325 324 325 325 325 326 325 328 327 327 328 327 326 327 329 328 327 328 327 328 327 325 326 327 327 329 330 331 331 329 327 329 330 332 330 333 326 321 319 317 318 321 326 327 331 330 332 332
332 333 331 332 332 328 326 325 324 322 320 321 321 321 320 321 322 323 322 324 326 327 327 327 327 327 325 326 328 328 328 326 327 326 325 324 326 326 326 326 328 328 328 329 329 327 328 329 330 329 330 330 325 319 320 323 323 320 331 331 331 332
331 332 332 331 331 326 326 325 325 323 322 320 318 320 323 324 324 323 324 325 325 328 327 327 327 327 327 326 326 326 327 325 325 325 325 325 323 325 325 326 327 326 326 327 328 324 325 326 328 328 328 329 327 327 327 324 321 323 319 326 327 328
330 330 332 331 329 327 325 325 325 324 321 319 319 322 324 325 327 325 323 324 325 326 327 326 326 326 327 326 327 326 327 326 323 323 322 322 322 323 324 325 326 327 326 325 325 323 323 324 322 323 327 326 326 326 326 327 325 321 322 318 321 329
329 329 331 331 328 327 326 325 324 323 320 320 323 322 322 324 323 325 324 323 323 324 325 326 325 324 323 323 324 323 322 320 319 318 318 317 318 319 320 322 322 323 324 325 325 324 321 319 322 321 322 322 323 323 325 326 323 323 321 317 319 321
328 328 330 330 328 327 326 327 324 322 321 320 321 322 321 321 323 324 323 323 322 322 322 324 324 321 321 320 321 321 320 320 320 318 318 317 318 319 319 320 320 321 321 320 321 323 322 320 320 321 320 320 319 319 320 321 321 320 321 323 317 319
327 326 329 329 327 327 327 327 325 324 323 322 321 321 320 322 322 323 322 322 321 321 322 321 321 321 321 321 322 322 321 320 320 320 319 319 319 318 319 319 319 320 320 319 318 318 318 319 319 319 319 319 318 317 317 315 316 317 318 318 317 315
327 326 328 329 327 327 327 327 326 327 324 323 323 321 320 321 322 322 322 320 320 321 322 321 321 320 322 322 323 322 322 322 320 320 319 320 320 319 320 319 319 318 318 318 318 317 317 316 315 314 315 316 317 318 318 317 317 317 317 317 316 315
325 326 328 329 327 328 327 327 326 327 326 324 324 322 321 321 323 321 321 321 320 318 320 320 320 320 321 323 323 323 322 321 320 320 320 319 319 319 320 319 319 318 318 318 317 317 316 316 316 315 313 314 314 314 316 316 316 316 317 317 316 312
325 326 327 328 327 327 328 327 328 327 327 325 325 323 321 321 323 321 321 321 320 318 319 320 321 321 323 323 323 323 323 323 321 320 320 320 320 319 320 317 319 318 318 318 318 317 316 316 316 316 316 314 315 313 314 315 315 314 314 313 311 313
324 326 327 327 327 327 326 327 328 327 327 327 326 322 321 321 324 322 322 323 321 319 320 320 320 323 324 324 324 324 324 323 321 321 320 319 319 319 319 317 318 319 318 318 318 317 316 316 315 315 315 314 314 314 313 313 314 315 313 313 311 311
324 326 326 326 327 327 327 327 328 328 328 328 325 325 323 322 324 324 324 323 322 321 321 321 322 323 325 324 325 324 324 323 322 321 320 319 319 318 318 318 317 318 317 317 317 317 316 316 316 315 315 315 314 313 314 313 314 313 313 314 313 312
324 325 325 326 326 327 327 327 328 329 328 328 327 325 324 325 326 327 326 325 322 323 323 322 323 325 324 324 325 325 323 323 322 321 319 318 318 318 318 318 317 317 317 318 317 316 316 316 316 316 315 314 313 314 313 315 314 313 314 315 315 314

ECMWFFLT2_sfc_thetae_027.txt.gz
Theta_e
352 352 353 353 352 352 350 346 346 345 344 345 346 347 347 346 346 346 347 345 345 348 348 349 348 345 346 349 346 346 346 346 345 345 344 344 344 344 343 343 342 341 340 339 338 340 340 338 339 338 342 342 343 344 343 342 341 338 339 335 338 338
351 351 350 352 350 348 351 348 351 348 347 346 346 345 349 349 346 349 345 347 345 346 346 346 349 343 343 344 347 346 346 345 345 344 344 343 343 343 343 342 341 340 340 339 340 333 336 340 341 340 341 341 344 344 344 342 342 337 337 336 340 340
348 352 353 351 350 348 346 349 349 348 347 343 347 347 346 345 347 348 346 346 349 348 347 343 344 343 343 341 343 346 346 345 344 345 344 343 343 343 342 341 340 340 339 339 333 331 335 331 333 342 342 344 342 341 343 343 340 339 337 340 339 341
347 347 352 349 351 347 348 351 351 349 345 344 345 350 346 347 344 342 343 346 348 346 345 344 343 344 344 344 343 345 346 345 345 345 344 344 343 343 342 340 340 340 340 333 332 331 333 332 334 336 339 340 341 341 343 343 341 341 340 338 338 341
344 345 348 349 350 349 346 347 346 346 345 344 343 343 344 342 347 347 349 348 347 343 341 343 343 343 343 343 344 344 345 343 344 343 345 340 340 344 342 337 335 335 333 333 332 333 332 331 336 336 336 338 339 341 342 343 342 340 340 341 339 341
344 343 347 347 346 346 345 342 343 343 345 345 343 340 344 346 341 347 344 345 344 342 339 339 341 343 341 342 342 339 341 340 340 339 339 337 336 337 338 336 337 334 334 336 336 336 335 334 334 332 333 336 338 340 340 342 342 340 341 343 341 342
342 344 344 344 347 345 348 345 342 343 342 343 344 342 343 343 346 342 342 343 341 341 337 338 339 341 340 343 344 341 340 350 344 341 343 336 336 336 336 334 335 336 335 335 334 335 335 335 334 331 332 333 335 337 340 340 341 341 341 342 342 342
343 343 345 342 345 344 346 344 345 343 343 346 344 343 342 348 345 342 341 341 343 342 340 338 338 339 340 343 345 345 342 339 341 343 344 340 337 336 335 334 336 336 335 334 333 333 333 333 332 332 331 333 335 337 339 339 341 342 342 342 339 343
342 342 346 346 345 345 342 340 340 342 341 343 342 343 343 341 342 343 342 342 343 344 343 340 339 338 341 342 343 342 342 340 342 343 343 342 339 336 335 334 335 334 336 334 332 333 331 332 333 333 330 330 333 332 335 339 341 341 341 341 341 340
342 341 342 342 345 345 345 344 342 343 344 343 344 345 346 342 340 342 344 344 344 344 343 342 342 340 338 339 339 338 341 344 345 343 344 342 341 339 336 334 334 334 332 332 330 331 330 330 330 331 330 329 330 332 335 335 338 339 339 340 341 340
338 341 339 337 339 341 342 342 343 343 344 343 344 343 343 343 343 343 344 342 343 343 344 344 344 342 342 341 341 340 340 339 342 343 345 344 343 339 337 335 335 333 333 331 330 329 329 330 330 328 329 328 329 331 333 336 335 336 337 337 339 341
340 343 339 334 337 337 337 336 339 341 345 339 344 343 343 343 343 343 344 342 342 344 344 344 344 342 342 341 339 337 339 341 341 342 343 342 342 340 337 336 336 335 336 335 333 329 331 328 329 328 327 328 328 330 331 334 333 335 336 337 337 340
341 343 337 336 335 335 336 334 335 337 340 346 344 343 342 342 343 343 345 343 344 344 343 343 342 342 341 340 340 339 339 340 341 342 343 344 344 341 338 336 336 333 334 334 332 331 330 330 330 329 329 327 329 328 330 332 334 335 335 335 335 335
340 338 338 336 336 334 334 335 336 336 340 343 340 342 342 342 342 341 343 345 344 343 343 344 342 342 342 341 340 338 336 338 342 342 342 344 343 342 338 335 334 331 330 329 331 330 327 328 327 328 330 330 329 330 332 330 332 333 335 335 334 335
340 339 339 338 333 336 336 333 333 336 339 339 341 341 342 343 341 341 340 341 341 341 340 342 343 342 341 340 336 339 338 340 341 342 341 342 341 341 337 336 338 330 330 326 328 327 323 325 326 326 330 332 330 327 332 331 332 333 332 335 336 335
341 341 340 339 338 339 337 337 336 336 338 337 334 334 336 340 341 341 341 342 343 342 342 343 342 342 340 338 339 338 338 338 340 340 341 340 341 340 338 335 335 332 330 327 328 327 327 325 327 330 331 333 333 333 331 330 330 329 331 333 333 334
339 340 339 338 340 339 337 336 336 336 336 335 332 332 334 334 335 337 338 339 339 341 341 341 342 342 341 337 338 337 342 337 336 335 338 340 339 339 337 334 335 334 335 330 328 327 328 327 327 329 331 334 334 335 333 332 331 331 330 331 332 332
339 339 339 337 339 336 336 335 333 333 333 332 331 332 333 331 333 331 333 335 336 336 337 337 339 340 340 340 338 338 338 337 337 338 335 335 336 337 336 335 333 336 334 335 333 329 329 328 327 327 328 328 332 334 334 333 332 332 331 330 332 332
338 339 338 338 338 338 336 334 332 330 328 327 330 333 331 330 330 332 332 334 333 334 334 336 336 336 337 335 336 338 336 335 333 335 334 334 333 335 335 335 334 333 332 334 333 333 331 332 330 329 327 327 328 330 335 337 334 331 331 331 330 331
338 339 338 339 336 332 332 328 327 328 326 329 330 329 331 329 331 330 329 332 331 333 331 332 333 334 333 333 332 333 335 335 336 331 333 331 331 333 333 333 332 331 329 331 332 335 336 335 336 335 330 334 333 334 331 331 333 331 331 331 331 332
338 338 336 334 331 328 326 326 326 326 324 324 327 330 330 330 330 330 331 328 330 329 330 330 331 331 332 329 330 331 333 333 333 334 331 330 333 334 333 332 332 333 330 328 331 333 335 337 333 330 330 330 332 335 334 334 331 333 330 330 331 330
338 336 335 333 330 329 329 326 324 324 324 323 323 324 325 328 329 327 328 327 327 328 329 328 329 332 332 330 329 327 329 332 332 332 334 332 334 333 330 330 331 333 333 329 329 331 332 330 329 327 325 325 328 335 335 332 330 330 332 332 330 331
336 333 333 334 331 329 328 329 327 324 324 325 328 329 327 327 328 325 329 328 328 329 329 328 329 329 328 329 329 328 329 330 331 331 332 334 333 330 329 330 331 330 328 331 330 334 335 333 327 330 331 326 323 322 330 332 333 332 334 334 334 330
334 332 332 333 331 331 331 330 329 327 329 327 326 329 329 328 326 327 327 329 330 330 329 329 328 327 327 327 327 326 327 327 328 329 329 329 331 330 333 330 330 330 329 326 327 329 334 335 331 327 319 321 324 322 317 322 324 329 333 333 331 330
332 331 332 332 332 332 331 331 329 331 331 328 326 325 325 322 325 326 325 326 327 329 328 328 329 328 325 326 326 327 326 326 327 327 328 326 326 327 328 330 331 329 328 328 326 327 328 331 328 331 326 323 320 319 319 323 326 329 331 329 328 330
332 332 332 332 334 331 327 327 325 322 320 320 320 321 320 321 321 323 322 325 327 329 328 328 328 327 326 325 326 325 326 326 325 326 326 325 326 325 324 326 326 328 331 333 330 326 325 330 330 328 329 329 324 321 322 326 324 319 331 331 331 332
332 331 333 332 334 328 325 325 324 322 320 320 320 322 324 324 324 323 324 327 326 328 327 328 328 327 327 327 326 326 326 326 325 325 323 325 324 324 324 325 326 325 325 327 328 324 322 325 327 328 329 329 327 327 327 326 321 324 320 328 330 330
332 331 333 333 331 328 326 326 325 323 322 321 321 323 324 325 326 324 324 325 327 326 327 327 326 326 326 327 327 326 326 325 323 322 321 321 322 322 325 325 325 327 325 325 325 323 323 324 322 323 326 325 325 324 326 327 326 322 319 318 322 330
331 332 333 332 330 327 328 326 325 324 321 323 324 324 323 324 323 324 324 324 325 324 325 326 326 324 325 324 324 323 322 321 321 320 318 317 319 320 321 323 323 323 324 324 324 323 323 321 321 319 322 324 323 324 326 326 326 324 319 316 319 322
330 331 333 332 329 327 328 327 325 325 322 322 324 321 322 322 323 323 323 324 323 323 323 324 324 323 323 322 321 321 320 320 320 318 317 317 320 321 321 322 322 321 322 322 323 324 322 321 322 322 321 320 319 319 320 322 323 321 320 320 315 318
329 329 332 331 329 327 328 327 324 324 323 323 324 321 321 322 322 323 322 322 321 322 322 321 321 322 322 322 323 322 321 319 321 321 321 319 320 320 321 321 321 321 321 321 320 320 320 320 321 320 319 320 318 318 318 317 317 318 317 317 316 317
329 329 332 331 328 328 327 327 327 325 323 325 324 322 323 320 323 322 323 321 321 322 322 321 321 321 322 323 323 322 322 322 321 321 320 321 322 321 321 321 321 321 320 320 321 320 320 318 318 316 316 316 317 316 318 317 318 318 316 316 316 315
328 329 331 331 327 328 327 327 326 326 325 325 324 322 323 323 324 321 323 321 321 320 321 320 320 320 322 323 324 322 323 322 321 320 321 320 320 321 322 320 321 321 321 320 319 320 318 319 318 318 315 315 316 315 317 318 316 316 316 316 315 310
328 329 331 331 327 327 327 327 327 327 325 324 324 324 322 323 324 322 323 322 321 321 321 321 321 321 322 323 323 323 324 323 322 321 321 321 322 321 322 319 320 320 320 320 320 320 319 319 319 319 319 316 316 315 314 315 316 317 315 313 310 311
327 328 329 330 328 327 327 328 327 327 326 325 325 323 322 323 324 323 322 323 323 321 321 322 322 323 324 323 324 324 324 323 321 322 321 321 321 321 321 319 319 320 320 320 320 320 319 319 318 316 318 317 316 315 314 314 315 315 315 316 312 311
328 328 329 330 328 327 326 328 328 327 328 326 325 324 322 322 324 324 324 324 323 322 322 322 324 324 325 323 324 323 324 323 322 321 321 321 320 320 320 320 319 320 318 318 318 318 319 318 317 318 317 317 317 314 315 314 315 315 314 315 315 315
327 328 328 330 329 327 327 327 328 328 327 327 327 325 323 323 324 326 326 325 324 323 323 324 323 324 325 324 324 324 323 323 323 321 321 320 320 320 319 321 320 319 319 320 320 319 319 319 319 319 317 316 316 316 313 317 316 314 315 316 315 314

ECMWFFLT2_sfc_thetae_030.txt.gz
Theta_e
347 349 347 348 348 348 348 349 348 348 349 349 348 348 348 347 346 343 341 341 341 344 345 345 343 344 346 346 346 346 346 346 346 346 345 345 344 344 344 343 344 343 342 340 339 338 338 338 340 341 340 340 343 341 341 341 338 337 337 337 336 336
346 345 346 347 346 348 348 348 347 347 347 347 346 346 346 346 346 342 342 342 341 342 343 346 346 346 345 344 346 346 346 345 345 345 345 344 344 344 344 344 343 342 341 340 340 334 335 338 339 339 343 342 341 339 341 341 339 336 337 336 337 339
347 347 345 343 345 347 347 347 346 346 346 346 347 346 345 342 342 340 340 341 342 343 341 343 345 345 344 343 344 346 346 346 345 345 344 345 343 344 344 344 342 341 341 339 339 331 332 331 333 342 343 341 339 339 340 341 340 337 336 336 336 341
343 346 346 345 346 346 346 347 347 347 345 345 343 344 339 339 341 341 340 340 341 340 341 345 345 345 345 344 344 345 346 345 345 345 344 343 343 343 343 343 342 340 339 336 331 330 329 331 330 332 337 338 337 339 341 341 340 338 336 338 338 342
346 345 344 344 345 343 345 344 344 345 345 344 344 338 339 337 338 340 340 342 340 343 342 343 344 345 343 343 343 343 344 343 343 343 345 341 341 341 341 338 338 338 332 330 328 328 329 331 331 331 332 336 337 339 340 341 341 340 335 336 339 342
345 343 343 344 345 346 346 345 343 344 345 345 341 336 337 337 339 340 341 341 339 342 344 342 344 344 343 342 340 340 340 341 341 340 343 339 339 340 340 337 333 331 329 329 329 329 334 336 331 333 333 335 339 338 341 339 339 341 336 337 340 342
345 344 342 343 346 346 345 345 344 343 342 342 342 337 337 335 336 337 342 343 341 341 341 342 342 341 342 342 341 344 343 343 341 340 343 339 336 339 339 336 335 332 331 331 331 331 336 332 333 330 327 330 334 335 338 338 340 339 337 337 341 342
343 344 343 343 345 345 343 343 343 342 341 342 342 340 339 338 339 340 342 344 343 342 338 337 339 340 341 340 339 340 340 341 341 340 341 338 338 339 336 335 335 334 333 330 331 335 333 332 332 332 331 331 334 333 336 336 337 339 337 337 340 342
341 341 343 344 342 343 342 342 340 340 339 342 340 339 340 340 340 340 341 342 343 342 341 339 340 341 341 338 336 336 339 341 341 340 342 342 343 337 337 339 337 332 334 332 331 332 330 333 333 335 331 328 331 334 335 337 339 337 338 336 337 341
340 340 342 342 344 344 341 339 337 340 340 342 340 339 339 340 342 341 340 341 342 343 341 338 338 339 339 338 337 338 339 339 338 341 341 341 342 339 337 338 337 333 333 330 330 331 331 329 328 330 328 329 327 330 334 334 335 337 338 337 336 341
336 343 340 341 344 342 341 339 338 339 339 339 339 343 340 342 339 340 341 343 342 339 340 341 341 338 338 337 336 338 335 338 336 339 339 336 338 336 338 338 335 338 334 333 330 330 329 327 327 327 328 326 325 328 330 333 334 335 335 338 336 338
339 344 350 337 339 339 339 338 338 341 339 337 338 339 339 341 340 343 342 342 340 339 341 342 341 341 338 336 336 336 336 337 338 341 338 337 338 336 334 335 336 338 336 340 332 331 329 330 327 325 325 326 325 327 327 333 331 333 334 336 336 335
338 343 340 338 338 338 338 339 336 337 340 339 337 338 338 340 341 341 343 343 342 341 341 341 342 340 340 337 337 337 337 338 339 339 338 335 334 334 335 334 337 335 334 333 332 332 333 328 327 326 327 327 325 324 326 329 331 333 332 335 337 335
339 336 339 337 347 337 338 336 334 339 342 342 340 336 339 337 340 343 345 343 342 340 343 345 339 341 340 341 338 338 336 338 339 339 337 334 334 334 333 333 337 334 331 330 331 330 329 328 327 326 325 327 330 327 328 327 330 331 335 332 336 337
339 339 338 337 338 337 338 336 335 337 339 340 339 335 335 335 339 342 342 340 342 339 340 340 340 335 338 339 338 335 335 338 337 336 335 334 332 333 334 333 338 332 332 330 326 328 327 326 324 324 325 330 328 328 329 328 330 329 331 334 338 336
341 340 339 340 341 340 339 339 338 337 340 343 337 335 336 338 338 341 338 339 338 339 339 341 341 337 340 337 336 336 336 335 334 334 336 337 334 332 333 334 335 333 330 328 323 327 327 321 323 323 325 330 331 331 330 329 331 328 328 331 329 333
339 339 339 340 339 340 340 337 336 338 337 343 338 334 334 336 336 336 337 338 339 341 342 337 338 336 339 336 335 334 333 334 332 331 334 336 335 334 334 332 333 335 334 332 332 326 328 327 327 326 326 329 330 331 331 331 330 330 332 332 329 330
339 339 340 339 339 340 335 336 336 335 338 334 336 337 338 333 334 335 336 337 338 340 344 340 341 337 338 336 337 334 333 333 332 333 335 333 332 335 334 332 332 335 335 333 332 332 328 329 328 327 329 325 324 328 331 332 333 332 330 329 329 330
338 339 338 340 339 337 339 332 333 331 331 333 333 335 338 331 332 333 334 335 337 334 341 340 338 339 339 337 333 333 333 333 333 334 334 333 332 334 334 332 333 334 335 334 332 332 331 331 330 332 332 330 331 330 330 332 331 332 331 330 330 331
339 338 339 339 335 332 333 331 329 332 330 332 329 330 335 331 334 330 332 333 335 337 332 333 333 333 334 332 333 334 333 334 333 334 332 331 332 332 332 332 331 331 332 332 333 333 333 331 331 330 329 331 334 335 332 331 331 331 330 330 329 330
337 338 336 333 332 330 330 329 333 329 325 332 327 332 330 331 329 329 329 327 329 331 330 331 331 336 337 334 338 335 334 334 335 334 332 331 332 332 333 332 332 333 330 329 330 332 332 330 328 326 330 330 331 332 335 331 328 327 328 330 331 329
336 336 336 336 336 335 334 328 332 327 326 325 321 326 326 327 326 330 332 332 332 331 333 334 333 333 332 336 330 334 331 332 332 333 334 333 332 332 332 331 331 330 330 329 328 331 331 326 323 322 320 323 327 333 334 332 329 329 326 328 329 331
335 335 335 337 334 335 339 333 336 333 332 325 327 329 326 327 329 325 334 330 333 335 334 328 332 332 336 327 332 332 331 331 331 333 332 331 332 330 330 330 331 328 327 329 329 331 330 329 324 325 324 321 319 319 327 329 332 331 330 329 331 331
334 335 334 335 335 334 334 333 332 333 331 329 326 328 329 330 329 330 326 327 329 335 334 331 328 325 324 328 328 328 327 327 331 333 334 330 330 329 329 329 329 329 328 325 326 327 330 329 327 324 317 318 318 318 314 319 323 331 333 334 332 332
333 333 334 334 334 333 331 332 332 330 328 327 328 327 326 326 328 324 327 329 330 334 329 328 329 327 324 325 325 327 331 334 325 331 327 331 330 329 329 330 330 329 328 326 323 327 327 329 328 329 323 318 316 314 315 320 323 326 332 331 330 333
332 333 333 334 333 331 330 329 329 326 324 324 323 325 324 324 326 328 320 331 329 328 328 329 325 325 325 327 330 327 326 325 325 325 324 326 322 327 324 323 331 330 328 328 325 323 324 327 328 326 328 326 323 317 317 321 321 315 328 331 331 331
331 332 332 333 332 330 329 328 328 326 324 323 322 326 327 329 326 325 330 326 328 331 328 328 328 327 327 326 326 327 328 328 326 328 326 326 323 323 322 322 323 324 325 327 327 322 323 324 326 326 326 327 326 325 323 319 316 319 314 319 328 328
331 331 331 333 330 329 327 327 327 326 325 325 325 324 326 328 328 327 327 327 326 331 329 328 329 326 325 324 326 326 328 323 324 323 319 318 318 319 323 323 323 325 325 323 323 325 325 324 322 321 326 324 322 324 325 324 324 320 316 314 318 328
331 332 331 333 328 327 329 327 326 328 325 327 325 324 325 325 326 327 327 329 329 324 327 329 324 325 323 324 324 324 323 322 319 318 318 317 319 320 320 320 322 322 320 322 322 323 322 319 321 319 323 324 323 322 322 323 321 321 319 314 315 318
330 331 331 331 328 328 330 327 327 328 326 325 324 323 324 324 325 327 327 328 326 327 324 325 327 324 324 321 324 323 322 323 323 322 321 321 320 320 320 321 322 321 321 321 320 319 319 319 320 318 319 321 320 323 322 321 321 321 321 320 314 316
330 331 332 330 328 328 329 326 326 328 327 325 324 324 323 323 323 325 323 325 326 327 325 324 324 325 325 323 324 324 324 322 325 325 322 320 321 321 323 322 321 320 320 319 319 320 319 318 319 315 315 315 314 314 315 315 316 317 316 315 315 315
330 331 331 329 328 328 328 326 328 328 327 326 324 323 322 322 322 323 323 323 327 325 324 323 325 325 324 325 324 324 326 325 324 325 324 325 325 323 322 320 321 322 321 321 321 320 318 317 318 317 315 315 316 318 315 313 314 314 313 312 311 309
329 331 330 329 327 328 328 326 327 327 328 328 325 324 323 324 323 324 322 323 323 322 322 321 324 322 325 326 325 325 326 324 322 322 324 321 321 323 320 321 321 319 318 318 317 317 316 316 316 316 317 316 315 313 312 315 316 314 314 314 313 309
328 331 330 328 327 327 328 327 328 327 328 327 327 326 325 323 325 325 325 324 324 323 322 322 322 323 323 325 325 325 327 325 323 323 321 323 324 323 325 318 321 321 319 320 321 319 318 318 317 317 318 313 313 313 315 318 316 318 318 313 309 307
328 331 329 327 327 326 327 328 328 328 327 327 327 326 327 326 326 326 326 325 325 327 324 323 322 325 323 324 326 325 327 323 323 323 323 323 324 323 323 318 318 321 320 321 319 318 317 317 317 316 315 316 318 313 314 311 314 312 312 313 313 310
328 330 329 326 327 326 326 327 328 328 327 328 325 326 326 326 327 329 328 326 326 329 327 325 324 325 323 323 326 325 325 323 323 323 323 323 322 321 321 321 319 321 318 319 319 318 317 317 317 316 315 316 315 312 314 313 312 312 313 313 313 318
327 328 329 327 327 327 327 327 327 329 328 328 326 326 324 327 327 328 331 330 327 329 330 327 326 326 323 324 325 324 323 323 323 322 322 322 323 321 320 322 319 319 319 320 320 319 320 318 317 319 316 316 317 313 311 316 313 313 314 314 313 312

ECMWFFLT2_sfc_thetae_033.txt.gz
Theta_e
344 344 345 345 346 347 349 350 350 350 350 347 345 344 344 344 343 343 343 344 343 342 341 341 343 344 348 346 345 346 346 346 346 346 345 345 345 345 344 344 345 345 344 343 342 341 341 338 339 339 341 342 344 335 337 337 336 336 335 336 336 336
344 344 345 345 346 347 347 347 346 346 346 344 344 344 342 340 346 340 342 341 340 341 339 339 339 347 344 346 345 347 346 346 345 345 346 345 345 345 344 343 344 344 343 342 342 334 334 338 340 340 339 341 339 335 335 336 334 335 335 334 336 339
344 344 344 344 346 346 345 344 344 345 345 345 345 343 339 341 336 337 338 339 339 338 338 340 341 344 344 346 346 347 346 346 346 345 345 345 345 345 345 344 344 344 342 342 336 331 327 327 328 337 339 339 335 333 335 336 333 334 334 335 335 342
344 342 342 342 344 344 343 343 343 342 341 338 337 338 337 337 337 336 337 336 337 339 338 337 343 343 344 343 345 346 346 346 345 345 344 344 344 344 343 344 343 342 341 338 332 330 328 326 326 327 330 333 333 334 335 335 333 333 334 338 337 342
344 343 342 343 343 342 342 341 341 341 339 337 335 335 336 333 334 337 337 337 337 338 338 337 338 340 339 340 340 340 341 339 339 340 344 337 337 340 341 339 337 337 331 331 330 327 326 325 327 328 328 332 333 333 334 336 334 334 335 336 338 342
343 342 342 341 339 343 342 339 339 340 338 335 334 333 334 332 333 335 336 338 338 336 337 338 336 336 340 338 339 338 339 338 337 338 341 337 337 338 337 336 335 335 332 329 327 326 325 327 326 327 326 327 331 333 335 335 334 334 335 336 338 342
341 341 342 342 341 342 340 340 339 340 337 335 333 331 332 332 332 333 336 338 335 335 336 336 335 335 336 337 336 336 337 335 335 334 339 336 333 337 337 336 333 331 329 327 326 326 326 326 329 328 326 328 330 333 334 334 334 335 335 336 339 342
340 340 340 343 342 341 340 339 341 343 338 339 335 332 332 331 334 334 337 339 339 335 335 334 334 334 335 336 335 336 335 335 334 334 335 335 334 334 335 335 333 331 330 328 327 327 327 328 328 327 326 326 329 332 333 334 334 334 336 337 338 341
341 340 341 343 340 340 340 339 337 336 337 343 335 333 333 334 334 335 337 339 338 334 334 335 334 335 335 333 332 333 334 334 335 335 335 335 337 333 333 334 333 333 331 331 329 327 327 327 327 327 325 326 327 329 332 333 334 334 336 337 337 340
340 340 341 340 339 338 337 336 336 335 337 339 333 334 336 335 334 335 335 337 338 337 335 334 333 332 334 332 331 332 334 334 333 335 334 335 334 332 332 333 332 333 333 331 330 329 328 326 325 327 326 325 325 324 328 332 334 334 335 337 337 339
340 344 340 340 339 337 336 335 335 336 338 336 335 336 334 335 334 336 336 337 338 336 335 334 334 332 333 333 333 333 333 332 331 332 333 333 332 331 331 333 334 334 332 331 330 330 328 325 325 323 326 324 323 323 325 331 334 335 334 335 337 339
339 340 340 340 340 337 335 335 336 335 335 335 336 335 335 336 339 334 336 336 335 335 336 335 334 335 334 332 332 331 332 332 332 333 332 332 331 332 332 334 335 333 333 331 330 329 328 327 324 324 323 323 323 323 322 329 332 335 334 334 336 338
336 338 337 338 337 336 335 336 335 334 334 335 335 335 334 335 334 335 336 335 334 335 335 334 331 329 333 330 330 330 331 332 332 332 332 331 331 330 331 331 333 333 331 330 329 328 331 326 325 325 324 324 323 322 321 329 329 332 334 334 335 336
331 332 331 332 333 333 334 333 334 336 337 334 333 333 335 332 334 336 336 334 334 335 335 335 332 331 331 331 333 333 331 332 333 332 330 329 329 329 329 330 330 328 331 329 328 327 325 324 322 323 324 325 327 324 325 324 326 328 333 334 333 333
330 329 332 330 330 331 332 333 334 336 334 331 331 331 332 332 333 336 334 331 333 336 333 333 333 330 331 331 331 329 331 331 330 330 329 327 327 327 329 328 331 329 329 328 327 325 326 321 321 321 323 325 328 328 328 327 328 326 330 334 332 332
331 331 330 331 330 331 332 332 334 338 333 331 329 330 331 330 332 334 334 334 335 334 334 334 333 332 332 331 330 329 330 332 329 327 329 330 328 327 327 328 329 329 326 327 325 326 322 319 319 319 324 325 324 327 327 329 329 329 328 328 333 332
330 331 330 329 329 329 329 329 330 333 332 330 328 329 330 331 334 333 332 334 332 332 330 332 332 334 333 331 332 330 329 330 329 326 327 328 327 328 327 329 326 329 329 327 329 329 327 327 327 326 327 323 324 326 326 328 329 329 330 327 326 331
331 331 329 329 328 326 327 327 325 328 331 327 329 331 332 333 331 331 331 332 334 333 330 330 331 330 330 331 331 329 329 330 329 328 327 327 327 327 328 326 325 328 329 328 328 328 325 326 329 330 328 327 326 325 325 327 327 330 328 328 327 328
330 330 329 329 328 325 322 321 320 320 321 322 324 328 329 328 329 328 326 326 326 329 333 331 332 330 328 331 330 329 326 327 329 328 328 329 328 327 327 328 327 328 329 329 328 328 327 326 328 329 330 329 331 327 327 328 327 326 326 327 329 330
329 329 327 325 323 318 317 318 317 320 320 320 322 325 324 322 322 322 325 325 325 323 324 326 328 330 331 329 328 327 326 327 328 328 326 325 326 325 326 326 327 327 328 329 330 327 327 327 326 325 325 327 330 329 331 329 325 325 325 324 325 328
328 328 325 323 322 319 317 318 319 318 318 319 321 321 321 321 320 320 321 322 322 322 322 323 323 327 324 331 327 326 327 328 328 327 326 325 325 328 329 327 326 327 327 327 326 329 329 327 324 320 324 326 325 327 329 330 329 326 324 324 324 326
328 327 326 324 323 322 320 318 315 316 318 318 320 317 316 318 321 323 322 322 322 322 323 323 323 322 324 324 328 328 328 328 328 326 326 327 327 329 328 327 327 325 327 324 323 327 326 323 319 317 317 318 320 324 329 328 327 329 327 325 324 326
328 328 326 327 324 322 320 320 318 318 320 319 321 319 317 320 321 320 320 322 324 324 323 320 323 325 321 322 323 324 326 328 328 328 326 324 325 325 325 325 325 323 322 325 325 327 326 323 318 320 319 316 314 313 318 322 325 328 328 326 326 330
328 327 327 326 324 322 324 323 322 321 321 320 319 321 319 319 319 318 319 321 322 322 322 321 322 321 319 319 320 319 318 323 325 326 326 325 323 322 322 324 323 323 323 319 323 325 327 324 323 319 313 313 314 313 311 314 318 324 328 329 331 330
327 326 326 326 323 323 322 320 320 320 320 319 318 316 316 315 315 319 319 319 321 322 321 320 320 320 321 319 319 319 321 318 318 320 324 323 322 323 324 324 323 322 322 320 319 323 325 326 325 325 318 315 312 310 311 314 318 319 325 326 330 331
326 325 325 322 322 322 320 318 316 315 313 312 312 313 312 313 315 315 316 319 321 321 321 320 319 320 321 320 318 319 318 316 317 318 319 317 318 318 319 323 324 325 321 321 320 320 321 325 325 324 324 320 318 313 314 317 315 311 319 324 326 330
325 325 325 322 323 323 320 318 316 314 313 313 313 315 315 316 315 316 318 318 320 320 320 319 319 319 319 321 319 317 314 314 317 316 317 314 315 316 317 318 320 321 322 322 321 318 319 320 322 322 323 322 322 321 320 315 312 313 311 316 321 323
325 325 325 323 323 322 320 319 316 315 316 315 316 316 316 315 318 318 318 319 319 319 320 321 319 316 316 318 316 315 314 312 313 315 316 313 313 314 315 318 318 317 318 318 318 318 317 318 316 316 321 319 320 322 321 322 321 315 311 311 314 320
324 324 324 323 322 322 321 319 316 316 317 318 317 317 317 318 317 319 316 316 317 316 316 317 317 317 316 315 317 315 314 314 312 312 315 314 315 316 314 313 314 315 313 313 315 315 314 313 316 316 318 317 318 317 318 320 319 319 314 311 310 314
324 324 324 322 322 321 320 319 316 316 318 317 317 316 316 315 315 316 317 316 315 314 314 315 314 314 313 315 315 315 314 314 315 316 315 312 312 312 313 313 313 313 313 313 313 313 312 311 311 311 313 315 315 315 316 317 318 318 318 316 310 312
324 324 324 321 320 320 319 318 318 317 317 316 316 315 314 314 315 315 314 315 314 315 315 314 315 314 314 314 314 316 313 315 316 318 316 314 313 314 314 313 314 314 314 313 313 312 312 312 310 309 310 310 309 311 309 308 308 311 311 308 307 308
324 324 323 320 319 320 318 318 318 318 317 316 316 316 314 314 315 314 313 314 315 314 312 314 315 314 314 314 314 314 316 314 316 314 313 314 315 315 313 315 314 314 312 312 312 312 310 310 311 310 309 310 309 310 310 309 309 309 307 307 307 306
324 324 323 319 319 320 317 317 320 318 317 317 317 316 315 314 315 314 313 314 313 312 312 314 313 314 313 313 314 312 312 311 311 313 313 312 313 314 314 313 312 312 311 311 310 310 309 308 309 309 308 309 309 310 310 310 311 309 308 308 305 301
324 324 322 319 319 319 317 317 319 319 318 317 317 316 316 315 316 315 315 315 314 313 312 313 313 313 315 316 314 315 316 313 312 312 313 313 314 315 313 313 313 312 312 311 312 310 309 309 308 308 309 307 307 308 306 309 308 308 308 307 304 303
322 323 322 319 319 319 317 317 319 319 318 316 318 316 317 317 317 315 315 316 315 314 313 313 315 315 317 316 314 315 313 312 313 313 312 312 315 313 314 314 315 313 313 312 311 311 309 309 311 309 307 309 308 307 307 307 308 309 308 308 307 305
317 319 322 320 319 319 318 318 318 319 318 318 319 317 317 318 317 317 316 317 316 315 315 314 316 316 315 317 316 316 315 313 313 312 312 313 313 312 313 313 313 311 311 316 310 310 309 309 307 307 307 308 306 306 308 307 308 308 308 308 309 309
319 319 320 320 321 320 320 320 319 318 318 317 318 317 317 317 316 318 317 316 317 317 316 315 317 316 315 316 317 316 315 314 314 313 313 313 313 313 312 312 311 309 309 311 312 311 310 309 310 309 309 308 305 305 307 307 307 309 308 307 309 307

ECMWFFLT2_sfc_thetae_039.txt.gz
Theta_e
347 347 347 347 344 345 348 350 349 350 350 349 349 348 349 348 348 348 347 347 343 340 340 341 342 343 346 343 345 345 345 345 345 345 345 345 344 344 344 344 343 342 342 342 341 341 340 338 337 337 338 338 338 328 331 330 331 333 331 331 334 329
345 346 346 346 345 345 347 347 344 345 346 347 347 347 344 344 348 342 346 341 339 342 337 334 339 343 342 343 343 345 345 345 345 345 344 345 344 344 344 344 344 343 342 342 342 328 328 334 335 336 336 337 328 327 329 331 331 331 332 330 332 332
344 345 345 344 344 345 343 342 340 340 344 346 346 344 340 341 336 337 338 338 337 336 338 340 340 341 340 344 343 345 345 344 345 345 344 344 344 344 344 344 344 343 342 342 332 325 324 323 322 332 331 327 325 328 329 330 330 331 332 330 330 337
343 344 344 343 343 341 342 340 339 339 339 338 338 338 336 335 334 334 335 334 334 338 336 335 343 343 344 338 338 344 345 345 345 344 344 344 344 343 343 344 344 342 336 334 328 326 326 323 323 321 321 324 326 327 328 330 331 331 330 335 331 339
343 343 343 342 343 343 342 338 336 336 336 335 334 334 333 332 333 333 333 334 334 335 333 333 334 335 334 337 336 338 338 336 336 335 343 332 333 336 335 333 332 333 328 327 327 327 326 325 324 322 321 323 325 326 328 330 331 330 331 333 333 340
342 342 342 341 342 343 342 336 335 335 334 334 333 331 331 331 332 332 332 335 336 331 333 332 332 333 334 334 335 334 334 333 333 334 337 333 332 331 331 331 330 332 329 326 325 325 323 325 324 323 322 322 324 325 328 329 330 331 332 332 334 340
340 341 341 342 341 341 339 336 335 334 333 332 331 330 330 330 330 330 331 334 332 331 331 330 331 332 333 332 333 332 333 334 334 332 333 333 331 330 331 331 328 327 325 326 326 325 323 323 321 322 322 323 324 326 327 329 330 331 331 333 335 341
339 340 340 341 340 339 337 336 336 340 333 336 332 329 329 331 332 331 332 332 335 331 332 330 330 330 330 330 331 330 331 332 332 331 332 331 330 329 330 329 328 327 327 327 326 325 323 323 323 322 322 322 323 323 327 329 330 331 331 332 334 340
340 340 339 340 339 338 337 336 337 334 332 339 329 329 329 331 331 334 335 333 335 330 329 330 329 330 328 329 329 329 331 331 330 331 331 329 328 328 329 328 327 327 326 326 325 324 325 325 323 322 321 322 323 323 326 329 330 331 331 331 333 338
340 339 339 339 338 337 336 336 336 334 333 337 328 328 329 329 330 333 335 333 333 331 330 330 329 328 326 328 328 328 332 330 328 328 329 328 328 327 327 328 326 327 328 326 327 325 326 325 325 323 319 321 322 324 326 328 329 331 331 332 333 336
340 342 339 339 337 336 337 335 335 334 336 334 331 332 330 329 329 331 334 332 332 332 329 328 328 328 327 327 326 326 326 329 329 329 327 326 326 327 327 328 327 326 325 325 326 326 326 324 323 322 320 321 320 323 327 328 330 331 332 332 333 333
340 341 339 338 339 336 336 335 335 333 333 334 334 331 330 330 333 330 332 330 330 331 332 329 330 328 325 325 325 325 326 325 326 328 328 328 328 326 327 329 330 328 327 327 327 325 325 324 321 321 320 323 321 321 327 328 328 330 332 332 332 333
340 341 338 337 337 335 334 336 333 333 332 334 332 330 330 331 331 331 329 329 329 331 329 327 328 330 331 326 325 325 326 326 327 328 328 329 330 328 327 325 325 326 325 325 325 325 327 323 321 319 322 326 325 323 327 329 329 328 330 331 331 332
339 338 337 336 335 333 333 332 333 331 334 332 330 329 331 329 332 331 330 328 330 330 328 327 328 327 327 328 326 324 328 330 331 330 327 326 325 326 325 324 326 325 328 324 322 322 322 321 319 320 323 325 325 323 323 328 328 329 329 330 330 331
339 336 337 336 335 332 331 332 331 330 331 329 329 328 327 329 330 330 330 328 329 330 329 328 327 327 326 325 325 325 329 330 330 328 326 325 326 327 326 324 326 326 322 321 322 323 319 317 319 322 322 324 325 326 325 325 327 328 329 328 330 331
336 335 334 334 331 331 331 330 330 333 328 327 327 327 326 329 330 328 328 327 328 330 329 328 327 326 325 325 325 327 330 329 328 327 326 326 324 324 324 325 327 323 320 322 323 322 321 320 323 324 323 324 324 325 324 324 324 326 328 328 329 330
333 333 332 331 330 328 329 329 327 327 326 325 325 325 325 328 330 329 326 326 327 330 328 328 328 327 325 325 325 326 329 328 326 326 327 327 325 324 324 325 322 325 323 321 323 323 321 322 324 324 325 325 325 325 324 324 324 323 327 327 325 327
330 331 331 330 329 328 328 328 325 324 329 324 324 324 326 329 328 326 326 326 326 329 328 326 327 326 325 325 325 325 327 327 324 323 326 329 328 327 324 322 322 324 325 322 321 320 320 322 325 325 323 326 325 325 324 323 323 326 323 323 324 326
327 327 328 328 327 325 324 322 321 322 322 322 324 323 324 325 322 324 325 324 325 325 329 325 325 327 325 325 323 323 323 324 322 322 326 329 328 327 325 321 320 322 325 325 323 321 321 322 324 323 322 323 325 324 325 324 322 322 321 322 324 327
325 326 326 326 324 321 320 321 319 319 320 320 319 322 318 318 318 320 323 324 323 322 325 325 323 323 324 324 322 321 321 323 324 323 326 327 325 325 324 323 322 323 323 326 325 323 324 322 319 319 321 321 322 323 322 322 322 322 322 323 321 322
324 325 326 323 319 319 316 314 314 316 316 315 317 316 316 315 317 318 318 319 321 321 321 323 324 323 322 328 324 323 324 325 326 325 326 326 325 325 325 324 322 323 325 325 324 324 325 321 318 317 317 317 318 320 324 323 322 323 323 323 323 325
324 324 324 322 319 316 314 316 315 315 314 315 316 315 315 314 315 319 317 317 317 315 315 318 323 320 321 321 321 323 325 325 327 327 327 325 322 325 322 321 322 322 325 326 324 326 324 319 314 313 313 313 312 314 321 323 323 324 323 323 324 327
322 322 320 319 316 315 314 316 316 313 315 312 313 315 314 317 318 315 314 315 316 315 315 315 317 322 321 320 320 322 324 325 326 327 325 325 326 325 323 322 321 322 322 324 324 325 320 316 314 316 315 312 309 310 312 315 319 323 325 323 324 326
321 320 318 319 318 315 316 316 316 315 313 313 314 317 313 313 313 314 314 315 316 314 315 315 315 318 318 317 317 318 321 323 324 325 323 322 322 324 323 323 322 322 322 321 322 321 322 319 315 315 312 311 310 308 305 309 313 320 323 324 323 327
320 319 318 321 317 318 318 316 315 315 316 314 313 312 312 312 314 317 315 314 314 315 316 315 315 316 318 315 314 314 314 314 317 318 319 318 318 319 322 322 323 322 321 321 321 324 325 323 321 321 315 313 308 305 306 309 312 316 320 323 324 327
319 319 319 317 317 318 317 314 313 312 310 311 309 309 309 311 310 311 312 312 314 314 315 314 313 313 315 315 313 313 313 314 313 314 315 313 312 313 316 320 319 319 318 318 321 321 322 324 323 321 317 315 312 308 309 313 310 307 315 318 320 325
320 319 319 317 317 318 315 314 313 312 311 311 309 307 307 309 311 310 312 312 311 313 313 312 311 310 311 313 312 312 312 311 312 312 314 312 312 311 313 315 317 317 318 317 317 319 320 320 321 321 321 319 320 317 315 312 309 307 309 314 315 316
321 320 318 317 316 317 315 313 311 311 312 310 309 309 309 310 310 312 311 311 312 311 311 311 311 311 311 312 311 311 311 311 312 312 313 310 310 310 312 312 312 312 314 315 317 318 318 318 314 315 321 318 319 318 317 316 312 310 306 306 311 312
320 318 316 316 316 315 316 313 312 312 311 310 309 311 311 313 311 311 311 309 310 309 309 309 309 310 310 312 313 309 309 309 309 311 313 311 309 309 308 308 308 309 311 311 314 316 315 312 312 315 317 317 317 316 316 317 317 315 308 304 306 307
319 317 317 315 315 314 315 314 312 312 311 310 311 311 310 310 309 309 310 307 307 308 307 307 308 308 308 310 310 310 309 308 308 310 311 307 307 308 308 309 307 307 307 308 307 308 306 305 310 315 318 315 312 310 309 307 310 313 313 308 307 306
317 317 317 315 314 314 313 313 313 312 312 311 310 311 310 308 308 308 309 307 307 307 306 307 308 307 308 310 310 312 310 310 311 314 310 308 308 308 307 307 307 308 308 307 306 306 307 305 307 308 308 309 308 305 305 304 305 306 307 303 302 302
317 317 316 315 313 313 312 311 312 313 313 312 312 312 311 310 309 308 307 307 306 306 306 307 306 306 307 308 310 309 310 308 309 307 308 307 307 308 307 307 307 307 306 305 306 307 305 304 304 304 304 304 304 305 304 304 304 304 305 304 303 301
317 317 318 316 314 313 312 312 313 313 313 313 313 312 311 310 308 308 306 306 305 306 305 306 306 306 306 306 309 307 307 307 307 308 308 308 306 306 308 307 307 306 306 305 304 305 304 302 303 304 303 302 303 304 304 304 304 303 302 302 301 298
318 318 317 316 315 313 313 313 315 315 314 314 313 313 312 312 310 309 308 307 307 307 307 307 306 306 308 307 307 308 308 306 306 307 308 306 306 307 307 308 306 307 306 304 305 305 304 303 303 302 301 303 303 303 303 304 302 303 301 300 299 298
319 319 318 317 316 314 314 315 315 315 315 314 314 313 313 313 312 310 308 307 306 307 307 308 307 308 307 306 307 307 307 307 307 308 308 308 309 307 308 309 308 306 305 304 305 305 303 304 305 302 302 302 304 302 302 303 303 304 303 302 301 299
321 320 318 318 317 316 315 316 315 314 315 315 315 314 314 314 312 311 310 309 307 307 308 308 307 307 307 307 308 307 308 306 306 306 306 307 307 308 306 307 305 304 305 309 306 305 302 303 302 301 301 300 303 301 301 302 304 303 303 303 303 300
319 318 318 319 318 316 315 316 315 315 315 315 314 313 314 314 313 312 311 309 308 308 307 307 309 309 307 307 307 307 306 306 306 307 307 308 308 306 306 307 306 304 304 304 307 304 303 305 301 300 300 300 300 302 301 301 302 303 302 301 302 301

ECMWFFLT2_sfc_thetae_042.txt.gz
Theta_e
346 346 346 346 344 345 348 349 347 347 347 347 346 347 346 347 347 346 345 344 342 340 339 341 343 342 346 344 345 346 346 345 345 345 345 344 344 344 344 344 343 342 342 342 341 340 339 338 337 338 337 338 338 333 332 332 332 335 334 336 338 331
345 346 346 346 346 345 345 347 345 345 345 345 345 346 345 344 346 342 345 341 339 341 338 338 341 346 342 345 344 346 346 346 345 345 345 345 344 344 344 344 343 343 342 342 338 330 329 332 335 334 335 337 329 330 332 332 333 334 335 334 336 334
344 345 345 345 345 345 344 344 343 343 345 346 346 344 342 341 338 338 338 338 338 338 338 340 340 343 343 345 344 345 345 345 345 345 344 344 344 344 343 343 343 342 340 339 330 327 327 325 325 331 333 329 328 330 333 332 333 333 334 334 334 336
343 344 343 343 343 343 342 341 341 339 339 339 338 338 337 336 335 336 337 336 337 338 336 336 346 346 346 340 340 345 345 345 345 344 344 343 343 343 343 343 343 340 335 332 329 329 328 326 325 323 323 326 328 329 332 332 333 333 333 335 333 337
343 343 342 342 343 342 341 340 339 338 338 337 336 335 334 334 335 335 335 335 336 336 332 333 333 335 332 336 335 336 338 338 338 338 342 333 334 335 335 333 334 336 332 331 330 327 327 327 326 324 324 325 328 329 331 333 333 333 333 334 337 337
342 342 341 341 342 343 341 338 337 338 336 335 335 334 334 333 333 333 334 336 336 332 331 331 332 331 333 335 336 334 333 333 333 335 336 332 332 332 333 334 334 333 333 328 328 327 326 328 325 324 324 325 326 328 330 331 332 333 333 334 336 338
341 341 340 340 341 342 339 339 338 337 335 334 334 333 333 332 332 332 335 336 333 332 332 330 331 332 333 335 336 333 333 333 331 332 335 334 334 333 332 333 330 328 325 327 327 326 325 325 324 324 324 324 326 328 330 331 332 333 333 334 335 338
341 341 340 340 340 340 339 337 338 340 335 337 334 332 332 333 333 333 334 335 336 333 332 330 331 332 332 333 334 334 334 332 331 332 335 333 332 332 333 331 329 328 328 327 327 326 326 327 326 324 324 325 326 326 330 331 332 332 333 334 334 338
340 340 340 340 339 340 338 338 339 335 335 339 331 331 332 334 333 333 333 334 335 332 332 330 329 330 330 330 330 331 334 333 332 333 335 331 330 330 330 330 329 329 326 326 326 327 329 327 326 324 322 325 326 325 329 330 331 332 333 333 334 336
340 340 340 339 339 338 338 337 336 334 336 336 329 329 332 333 333 335 334 333 334 332 331 329 329 328 328 329 329 329 334 332 331 331 335 332 330 329 329 329 329 329 328 327 328 328 328 326 326 323 322 324 325 326 329 330 330 332 333 334 334 335
339 341 339 338 338 337 337 337 336 333 335 332 330 331 329 329 332 334 334 333 332 333 330 329 331 329 328 329 329 327 329 330 330 331 331 330 329 329 328 329 328 329 327 327 328 328 327 327 325 322 322 323 323 326 329 331 331 332 333 333 334 335
339 339 338 338 338 336 335 336 335 334 334 333 332 331 330 330 332 332 334 332 332 331 332 330 332 330 327 327 327 325 326 328 328 329 329 329 329 328 328 330 331 330 329 329 328 327 328 326 324 321 324 326 322 326 328 330 331 332 333 334 334 335
339 339 337 336 336 334 334 336 334 333 334 335 333 331 330 330 330 332 334 333 330 330 330 328 329 330 331 327 326 326 327 327 328 328 328 329 329 329 328 327 327 328 327 326 327 326 327 324 323 322 325 327 326 325 329 330 331 331 332 333 334 334
339 338 336 335 334 333 333 333 333 332 335 333 331 330 332 331 332 332 332 330 329 329 329 329 329 328 328 327 327 326 328 330 331 330 329 328 326 326 326 326 328 326 329 326 324 324 324 321 321 323 325 326 327 326 328 330 330 331 332 333 334 334
339 336 338 336 334 332 332 333 332 333 332 331 330 330 330 331 333 332 330 330 330 330 329 328 329 328 328 328 328 327 329 331 331 329 327 326 326 326 326 326 327 326 322 323 323 325 320 320 322 323 324 326 327 327 328 330 330 330 330 332 333 334
337 335 336 336 333 331 331 331 333 334 331 331 329 329 329 331 332 331 331 330 330 331 330 329 329 328 327 327 328 327 329 330 329 328 327 326 326 324 324 325 327 325 323 323 324 324 323 323 324 324 325 326 326 327 326 326 328 329 330 330 332 333
334 335 335 334 332 331 331 331 332 331 328 326 325 325 327 329 330 329 329 329 330 333 331 329 328 327 326 326 327 328 329 329 328 327 328 327 326 325 325 325 324 327 325 323 323 324 324 325 325 326 326 326 326 326 325 326 325 326 329 329 329 331
333 333 332 331 330 330 330 329 329 329 329 324 323 323 326 329 327 325 326 327 329 332 330 328 327 327 325 326 326 327 328 328 325 325 328 328 328 328 325 324 324 326 327 323 322 322 324 325 326 326 325 325 325 325 324 324 325 327 328 328 328 330
332 331 329 329 329 327 325 323 323 323 323 322 322 322 323 325 324 325 325 326 328 329 329 326 327 327 325 327 324 325 326 326 325 323 326 328 329 328 327 325 324 325 326 326 324 322 323 325 325 324 325 324 325 324 325 325 324 324 324 326 328 329
329 330 328 327 326 324 323 323 321 321 322 320 320 323 319 320 319 321 325 326 325 324 327 325 325 327 326 326 323 322 324 326 326 325 326 326 327 327 326 324 324 325 325 327 325 324 324 322 321 321 322 322 322 323 325 326 324 324 325 324 325 326
327 328 327 324 323 323 320 317 317 317 318 315 318 317 317 315 317 318 318 320 323 323 323 324 325 325 326 330 326 325 325 326 326 326 326 326 327 326 325 325 324 325 326 326 325 325 324 323 321 321 321 319 320 323 326 326 325 326 325 325 327 327
324 326 326 325 324 321 316 320 318 316 315 315 317 316 315 315 317 317 317 317 317 317 319 321 325 323 324 324 323 324 325 325 326 326 327 328 326 327 325 325 325 324 326 327 325 325 324 321 317 316 317 317 316 319 322 324 324 325 326 326 327 328
324 325 323 323 322 319 315 316 316 314 317 312 312 315 315 317 317 314 313 314 315 315 316 318 322 324 322 322 323 323 324 326 326 327 326 326 326 326 324 324 324 324 324 326 325 326 323 320 317 316 317 316 311 313 317 318 322 325 326 326 325 326
323 322 320 320 319 316 317 316 316 315 313 314 315 317 314 314 314 313 314 314 315 313 315 316 319 323 322 321 321 322 323 324 325 326 326 325 325 325 325 324 324 324 324 322 323 323 325 321 318 317 315 314 312 311 309 311 316 324 325 326 326 326
321 319 317 319 317 318 317 315 315 315 316 315 314 313 313 312 313 317 314 313 313 314 315 315 316 318 321 318 319 321 323 323 324 323 323 322 322 322 324 324 325 324 323 323 321 324 325 324 322 323 318 314 311 309 309 312 316 320 321 326 326 328
318 317 316 316 317 318 317 315 314 314 312 310 310 310 310 310 310 310 311 312 312 313 313 313 313 315 317 316 314 316 318 319 319 319 319 318 317 319 322 323 324 324 322 321 323 323 322 324 323 322 319 318 317 313 310 314 314 312 318 319 320 324
318 316 316 316 317 317 314 315 315 314 313 312 310 308 306 307 310 310 311 311 310 311 311 312 312 313 314 315 313 313 314 314 314 315 317 314 315 317 319 320 321 320 321 321 323 321 322 321 322 322 321 321 320 318 318 315 312 311 313 318 319 318
318 318 316 317 316 316 314 313 312 312 313 311 311 310 308 309 310 312 311 310 310 309 310 311 311 311 312 314 312 311 311 312 312 314 315 311 311 312 313 314 316 318 318 319 321 321 319 321 319 318 321 320 319 318 317 317 315 315 312 313 316 318
319 318 316 316 315 314 315 313 313 312 311 309 309 311 312 313 311 311 310 308 309 308 308 309 310 311 311 313 316 311 310 311 311 313 315 311 310 310 309 310 312 314 316 316 319 319 318 315 315 318 319 319 318 316 316 316 316 316 311 310 310 310
318 317 315 315 315 313 313 314 312 311 311 310 312 310 310 309 309 308 309 307 307 307 308 308 308 309 310 310 310 311 309 310 310 313 314 309 309 310 309 310 309 310 310 310 310 313 314 311 316 318 318 316 315 312 311 312 311 313 312 311 310 307
317 315 315 313 313 313 312 312 312 311 311 311 310 311 310 308 307 308 308 306 306 306 306 307 309 309 309 310 311 314 310 311 314 316 312 309 309 309 308 309 308 309 308 308 308 308 310 312 313 314 312 312 312 309 310 310 308 310 313 311 309 308
316 315 314 313 313 313 312 312 312 311 311 312 312 312 311 310 308 308 307 306 305 306 306 306 306 308 309 310 311 310 312 310 311 309 309 309 309 309 309 308 308 308 307 307 308 308 306 306 306 306 306 306 306 307 307 307 308 307 309 310 309 306
317 315 314 314 313 313 312 312 312 312 312 313 313 313 312 310 308 308 307 306 305 306 305 307 306 307 308 307 309 308 309 310 310 311 309 308 308 308 308 308 308 307 307 306 306 306 306 305 306 307 306 305 306 306 306 305 305 305 304 305 305 304
316 316 315 314 313 312 312 312 313 313 313 314 313 313 312 311 309 308 307 307 306 307 306 306 306 307 307 308 308 309 309 308 309 309 309 308 308 309 308 308 308 307 307 306 306 306 305 305 305 304 306 306 306 306 306 306 306 306 305 305 304 303
318 316 316 314 314 313 312 313 314 314 314 314 314 314 313 313 311 309 307 307 306 305 307 306 306 307 309 307 308 307 309 308 308 309 309 310 310 309 310 309 308 307 307 306 306 306 305 306 305 305 305 306 306 306 306 306 306 306 306 306 306 303
317 315 316 315 314 313 312 313 314 314 314 315 315 314 313 314 312 311 309 308 306 305 306 307 306 308 308 308 307 307 308 306 307 307 309 309 308 308 308 308 307 308 308 309 306 305 304 304 303 303 303 304 305 304 305 305 306 306 306 306 305 303
317 316 316 316 315 314 313 313 314 314 313 314 314 313 313 313 313 311 310 309 307 306 306 306 308 309 307 307 307 307 307 307 306 307 308 309 308 307 307 308 307 307 307 307 308 306 305 305 303 303 304 304 305 305 305 306 306 305 305 305 305 305

ECMWFFLT2_sfc_thetae_045.txt.gz
Theta_e
350 350 347 347 349 349 350 349 349 348 347 346 345 344 344 345 344 345 346 346 345 349 350 348 348 347 347 348 346 346 346 346 345 345 345 345 344 344 344 344 343 342 342 340 338 337 337 337 336 336 337 339 341 345 346 344 343 342 341 340 340 340
345 346 348 349 350 347 350 349 350 349 349 347 345 346 347 347 346 350 346 347 349 349 349 349 348 346 347 348 347 346 346 345 345 345 345 344 344 344 344 344 343 342 341 339 337 342 341 336 334 334 335 335 343 344 345 344 344 342 341 342 341 341
345 344 346 346 349 350 349 349 349 349 348 346 347 349 350 348 348 348 348 347 347 348 348 347 348 347 347 345 347 346 345 345 345 344 344 344 343 343 343 343 341 339 338 337 341 340 338 336 337 334 335 339 343 344 344 344 344 344 341 342 341 340
342 344 344 346 349 347 348 349 348 347 347 347 347 347 346 347 348 348 347 347 347 348 347 348 344 345 346 348 348 345 344 345 344 344 343 344 344 344 343 341 339 338 338 342 340 338 336 335 337 337 337 336 338 343 344 344 342 343 343 340 339 338
343 344 345 345 345 346 346 346 346 346 345 345 344 344 346 345 346 346 347 347 347 347 346 347 349 347 348 347 347 347 347 346 344 345 344 343 343 343 342 342 342 339 341 340 338 337 338 336 338 337 337 336 337 341 345 344 342 341 343 343 343 338
343 343 345 345 344 344 345 343 343 343 343 343 343 343 344 345 345 345 346 346 346 345 345 345 347 346 344 345 345 346 344 345 344 343 344 342 341 342 341 341 340 339 339 339 338 338 338 337 336 336 336 337 336 338 344 343 343 342 343 343 345 338
342 343 343 344 345 344 343 343 343 343 341 342 343 342 342 343 344 345 346 346 344 344 344 344 344 344 343 344 344 345 343 342 341 342 343 341 341 341 341 339 339 340 339 338 336 337 337 337 336 333 335 335 336 337 342 344 343 343 343 343 342 338
342 342 343 344 343 343 342 342 343 343 342 342 342 342 342 343 343 344 345 345 345 345 343 342 343 342 341 342 342 342 342 340 341 341 343 342 340 339 340 342 341 340 338 337 335 337 336 335 334 335 334 336 336 338 341 343 344 344 344 345 344 340
342 342 343 343 342 342 341 342 343 342 341 342 342 342 341 342 342 343 344 345 345 343 343 343 342 339 336 338 340 342 341 340 340 341 341 339 341 340 342 341 341 340 340 338 337 337 336 334 334 335 333 334 335 336 339 342 343 342 342 344 344 342
342 341 342 342 341 341 341 341 341 341 341 342 341 340 340 341 342 342 343 343 343 343 343 342 341 339 338 336 337 338 341 341 340 341 340 340 341 342 343 342 341 340 336 337 336 337 336 334 331 334 333 334 335 335 338 339 341 340 341 342 344 343
340 342 341 340 341 340 341 340 339 340 341 341 340 339 339 340 340 341 341 342 341 341 343 342 340 341 341 338 336 338 342 342 341 341 341 340 341 342 342 341 342 342 339 339 336 337 335 335 333 331 333 331 333 336 336 339 339 341 341 342 343 344
341 342 341 338 340 339 339 339 339 340 341 340 340 340 339 339 339 340 340 340 340 341 339 337 337 335 338 335 337 339 340 341 341 340 340 341 341 340 340 337 339 339 339 340 338 338 338 335 333 331 332 331 332 334 335 338 337 339 341 343 342 343
342 343 341 340 339 339 340 339 339 339 340 339 339 338 337 338 337 338 340 339 339 338 335 337 336 334 333 333 333 334 338 339 339 339 339 339 339 338 340 339 339 339 338 338 338 337 335 337 334 333 334 332 333 331 334 335 338 340 341 342 342 342
342 341 341 340 340 339 340 339 339 340 340 339 338 338 338 338 337 338 339 338 338 335 335 337 335 332 332 333 334 335 337 337 338 338 338 338 338 339 339 338 338 338 336 336 335 335 334 333 332 333 335 335 336 337 335 334 338 340 342 342 342 343
342 342 342 340 339 339 340 339 339 339 339 338 338 338 337 335 336 338 338 337 336 335 335 335 335 334 336 336 334 335 336 337 337 337 337 337 337 337 337 337 337 337 338 336 335 334 333 333 332 332 334 337 335 334 336 336 337 338 339 343 344 343
342 341 342 340 339 340 339 339 339 339 338 338 337 337 337 336 337 338 337 336 336 336 336 336 336 336 334 334 333 334 334 335 335 336 337 336 336 336 336 335 335 337 337 335 334 333 333 332 333 333 335 337 337 337 336 336 337 337 338 340 340 343
341 341 340 339 338 338 338 338 338 338 338 338 338 337 337 337 337 337 338 338 337 337 336 336 336 335 334 333 333 333 335 334 334 335 335 335 335 334 334 334 334 335 336 335 333 331 332 332 332 333 334 334 335 336 336 336 336 337 337 339 340 340
341 340 339 338 337 337 337 337 337 337 338 338 338 338 338 338 338 337 338 337 337 337 336 335 335 335 335 334 334 335 335 335 334 334 333 333 334 334 333 333 333 334 334 334 334 332 331 332 330 331 332 332 334 334 334 335 336 335 336 337 339 339
339 338 337 336 336 334 334 335 335 336 336 337 338 338 339 339 338 338 337 336 335 336 335 335 335 335 336 335 334 334 333 332 332 334 332 332 332 333 332 332 333 333 333 333 333 333 334 334 332 331 330 331 331 332 334 333 335 335 335 337 337 337
337 336 335 334 334 333 333 333 332 334 335 335 336 336 338 337 338 336 336 336 335 335 335 335 334 335 335 334 333 332 332 332 332 332 331 331 331 332 330 330 330 332 333 330 329 329 329 331 333 332 332 333 333 334 333 334 333 332 334 335 336 337
335 335 335 333 332 332 332 331 333 332 331 333 334 336 335 335 336 336 336 335 335 335 334 334 334 334 334 334 332 331 331 331 331 331 330 330 331 330 330 330 330 330 331 330 327 329 330 331 330 328 330 329 331 335 336 335 331 332 332 334 335 334
335 335 335 334 333 334 334 334 334 333 332 331 333 333 331 331 331 331 334 336 337 336 335 336 334 333 333 333 332 331 331 330 330 330 331 331 331 330 329 330 330 329 331 332 328 327 330 329 326 326 325 325 327 331 335 334 330 330 332 332 334 335
335 335 335 335 336 334 334 335 335 333 332 328 327 329 327 328 329 327 330 330 333 335 335 335 334 333 332 331 330 331 331 331 330 331 330 330 331 330 329 329 329 328 328 332 331 329 329 331 326 327 328 324 322 322 328 330 332 332 332 333 332 331
335 335 334 335 334 333 332 332 331 331 330 330 326 326 327 328 328 328 327 329 329 331 333 335 334 333 332 331 333 333 331 330 330 331 330 329 329 328 330 330 330 329 328 326 328 328 329 329 329 326 320 320 322 320 318 323 327 330 333 332 332 330
336 335 335 334 332 331 329 329 328 329 328 327 327 327 326 325 328 327 326 328 327 329 331 334 336 335 333 332 332 333 331 330 329 329 330 330 329 329 329 329 329 329 328 327 326 329 328 329 328 330 328 322 320 319 319 323 324 327 330 329 330 330
324 331 333 331 330 329 329 329 328 327 325 325 323 324 323 323 323 325 324 326 326 327 330 332 334 334 333 333 332 330 330 330 330 330 330 329 329 328 328 328 329 329 328 328 328 328 325 327 329 329 329 328 326 319 320 323 323 319 328 329 330 330
320 322 324 326 327 327 328 330 331 330 328 327 324 324 324 326 325 323 325 325 324 326 326 331 331 332 333 333 332 331 332 332 332 331 330 330 329 329 328 328 329 329 329 329 328 325 325 325 327 327 327 327 328 327 327 323 319 323 321 326 329 330
321 321 321 322 324 327 328 330 330 329 328 327 325 323 325 325 326 324 322 323 324 325 325 327 328 328 329 330 330 329 329 329 328 327 328 329 330 329 329 328 327 328 329 329 331 328 326 328 323 324 326 326 326 327 327 324 323 322 321 319 321 326
322 322 321 322 322 324 327 328 328 327 324 324 326 325 325 325 323 324 322 322 324 323 324 325 325 326 327 327 327 326 326 327 327 327 325 324 324 325 328 330 329 328 328 327 328 327 326 324 325 323 325 327 325 324 324 324 324 326 323 321 318 320
324 324 321 321 322 323 324 324 325 326 324 323 324 324 324 323 322 323 322 322 323 323 323 324 324 325 325 324 325 325 325 325 326 325 323 324 325 326 326 327 327 328 327 327 326 326 325 324 325 326 326 325 324 323 323 323 322 322 321 322 316 314
323 323 321 321 320 321 322 323 324 325 325 324 325 324 322 322 321 322 321 321 322 322 323 323 324 324 325 325 326 326 326 325 326 326 323 322 324 323 324 324 323 324 324 325 326 326 323 323 324 324 323 322 319 320 320 318 320 322 320 316 315 314
322 322 321 321 321 321 320 322 323 325 326 325 325 324 323 322 323 322 321 320 320 321 321 322 324 323 324 325 325 325 325 325 324 325 323 324 323 322 322 322 322 323 323 323 324 324 323 321 321 320 320 319 318 319 318 317 317 322 322 319 318 315
321 321 321 321 321 321 321 321 321 323 325 326 326 326 325 324 324 322 322 320 320 319 320 320 321 322 323 324 325 324 324 323 323 324 324 322 322 323 323 323 322 322 322 321 321 323 319 321 323 319 317 320 318 316 316 317 318 318 321 321 319 314
323 322 321 320 320 320 321 322 322 323 323 324 325 326 325 324 324 324 322 321 320 320 319 321 321 323 322 323 323 325 326 325 324 323 323 323 323 322 323 319 321 321 321 321 322 322 320 320 320 320 321 317 317 316 317 318 318 317 317 318 316 315
322 322 321 320 320 320 320 321 321 322 322 324 324 323 323 324 323 322 322 322 322 322 320 321 321 322 322 323 324 324 325 325 323 323 323 323 322 322 323 320 320 321 321 321 321 320 319 320 319 319 320 318 317 316 316 315 316 316 315 317 317 316
323 322 321 320 320 320 320 320 322 321 322 323 323 324 322 321 321 321 320 320 320 322 322 321 322 322 323 323 324 324 324 324 323 323 324 323 322 320 321 321 319 320 318 318 320 319 318 319 319 319 318 318 316 314 316 315 315 316 315 317 317 318
323 323 323 322 321 321 321 321 321 322 322 322 322 322 322 322 320 319 317 317 320 322 323 323 322 323 323 323 324 324 323 323 323 324 324 323 322 320 320 320 319 319 318 319 319 318 318 316 317 318 317 318 315 315 315 317 316 316 317 317 316 316

ECMWFFLT2_sfc_thetae_048.txt.gz
Theta_e
349 347 349 352 347 353 349 348 348 346 348 346 346 346 346 346 346 348 349 347 346 351 353 352 348 347 347 349 346 346 346 345 345 345 345 344 344 344 343 342 342 342 341 339 339 338 338 337 336 336 338 341 342 347 346 345 345 344 342 340 343 341
346 346 349 350 350 348 346 348 347 351 346 348 347 346 349 349 347 352 347 350 352 350 349 347 349 346 350 348 348 346 345 345 345 345 344 344 344 343 343 343 342 341 339 340 338 344 340 338 335 336 335 336 346 344 346 345 345 343 342 343 342 340
349 349 349 347 345 345 345 344 348 344 342 345 347 348 351 349 352 351 351 350 351 349 348 349 349 347 348 344 347 345 345 345 344 344 344 344 344 344 343 341 340 339 339 337 343 339 338 338 338 337 339 344 346 343 345 345 343 344 342 344 343 341
348 348 346 347 343 348 342 343 341 344 345 343 348 350 351 351 351 352 351 352 351 350 350 350 345 345 345 348 347 345 344 344 344 344 344 344 344 344 342 340 340 339 340 342 341 339 338 337 338 341 342 342 344 344 345 345 341 343 344 340 340 341
347 347 347 347 345 342 343 345 345 345 344 349 350 350 351 352 353 353 353 353 350 350 347 348 348 345 345 346 343 347 346 346 346 345 344 347 343 342 344 342 341 341 342 340 338 339 338 338 339 338 339 340 342 344 346 344 342 343 344 344 343 341
346 345 344 347 349 348 350 346 344 349 348 348 350 350 351 350 350 352 351 351 349 349 346 345 346 346 347 346 344 346 344 344 345 343 344 344 343 343 342 341 340 339 340 341 339 338 339 337 337 336 336 339 340 342 345 344 343 343 344 344 343 341
343 345 346 348 346 346 348 348 348 348 348 347 349 348 348 348 350 351 351 350 348 346 345 343 343 346 347 347 343 342 342 344 344 342 344 342 342 340 338 337 336 339 339 339 337 337 336 337 337 334 335 335 337 339 343 344 342 341 343 345 343 341
345 348 349 348 348 347 346 345 346 345 347 345 346 346 346 348 350 350 350 350 348 345 343 340 342 343 345 346 344 343 344 344 344 343 344 343 339 339 340 344 343 338 335 336 335 336 336 335 336 336 334 334 335 338 340 341 344 343 343 345 342 341
345 347 346 345 344 346 346 346 346 347 346 345 348 348 348 349 349 348 348 347 347 346 341 341 342 342 346 345 345 345 345 343 345 342 344 343 342 339 344 344 343 339 337 336 336 337 335 334 336 336 334 333 334 335 338 342 344 343 343 344 346 343
346 344 342 342 342 346 346 346 347 347 347 347 347 348 348 347 347 346 345 346 345 346 346 341 340 344 343 344 345 345 344 343 343 343 344 343 343 342 344 344 340 338 335 335 336 337 337 336 333 334 333 333 332 334 338 340 342 339 341 344 346 343
344 346 345 342 345 345 346 345 344 345 346 346 347 347 346 346 346 346 344 346 346 345 341 337 341 342 342 341 344 343 341 341 341 344 344 342 344 343 344 344 342 339 337 337 338 337 334 336 335 332 333 332 334 336 336 340 340 340 339 341 346 346
345 346 345 342 343 343 343 343 344 344 346 346 347 346 345 346 347 347 347 346 345 345 335 340 341 340 342 342 341 340 342 341 340 342 343 343 343 344 343 341 344 344 342 339 337 336 337 336 335 333 333 331 333 334 334 336 337 338 341 342 345 344
343 342 342 340 341 341 343 342 343 345 346 346 345 346 345 345 346 346 347 345 344 338 335 338 340 342 341 341 342 342 342 341 341 341 341 342 342 343 343 342 344 344 342 338 336 337 335 336 335 334 333 332 332 330 332 333 336 338 339 342 342 341
342 340 341 341 341 340 342 343 344 345 346 346 345 344 344 345 344 343 343 344 343 339 337 343 342 340 341 341 341 340 340 340 341 341 341 342 340 342 339 339 339 342 339 339 337 337 335 335 335 335 334 334 334 336 333 331 333 335 340 341 341 342
343 342 341 340 340 340 343 343 343 344 345 345 344 343 343 344 342 342 343 342 343 342 342 340 341 341 340 340 339 339 339 340 341 341 338 337 339 338 335 335 338 335 336 339 338 338 338 338 336 335 337 338 334 334 336 333 332 333 333 339 345 343
345 342 343 342 342 342 344 345 345 344 345 345 343 342 343 343 343 344 344 344 344 343 342 341 341 340 338 337 337 337 340 341 340 341 339 338 338 335 338 338 337 337 333 334 335 336 337 337 337 336 337 339 338 337 336 336 335 332 333 336 336 340
344 345 344 344 344 344 344 344 344 345 345 346 344 343 344 345 345 344 343 342 343 342 341 341 340 341 337 337 336 336 337 340 340 340 338 337 334 338 338 337 336 336 337 333 334 334 336 337 336 337 337 336 337 338 337 337 338 336 335 337 339 340
344 345 344 343 342 342 343 344 344 344 342 342 342 341 342 343 343 344 344 341 342 342 341 340 340 340 338 338 338 338 336 338 339 339 338 339 338 339 338 338 335 338 339 339 337 335 335 336 335 335 336 335 337 337 337 338 339 338 335 335 337 339
340 341 338 341 342 342 342 343 344 341 340 340 341 340 341 340 339 340 338 339 339 343 341 340 340 340 339 337 335 336 335 337 339 338 339 337 337 338 338 337 335 337 340 339 338 338 338 337 336 334 334 335 335 336 338 338 337 336 339 339 338 337
333 333 337 340 339 338 339 338 336 337 336 336 337 337 340 339 337 335 338 337 337 338 337 339 340 340 339 337 335 334 337 338 338 337 335 334 336 337 336 334 334 336 338 337 338 338 337 337 336 336 334 336 335 335 336 334 335 336 338 341 341 340
336 337 337 338 338 338 336 334 335 334 333 336 335 337 336 336 336 335 336 334 336 335 337 338 338 340 341 337 339 339 339 338 337 337 337 337 338 338 339 338 335 337 337 335 335 336 335 337 333 332 334 333 335 336 337 335 334 335 335 335 338 338
333 335 341 340 339 337 337 335 334 333 333 333 333 332 333 335 335 335 337 336 336 335 336 336 336 336 336 335 335 336 336 335 335 336 335 335 335 335 336 337 336 335 338 335 333 336 335 336 330 328 327 328 331 333 335 335 332 333 334 334 334 335
333 337 341 341 340 337 338 339 337 336 334 332 335 336 334 333 334 331 335 335 336 335 333 334 335 335 334 333 333 332 332 332 333 332 332 332 333 333 333 333 335 334 334 337 335 337 337 337 329 330 330 327 324 323 328 330 334 332 333 334 334 334
329 339 339 340 338 339 340 339 340 339 338 336 334 336 335 334 332 330 329 332 333 334 334 332 332 330 330 332 332 332 332 331 332 333 331 330 331 330 333 332 332 333 334 332 332 333 337 337 334 329 323 323 323 324 319 320 324 330 333 334 333 333
323 332 339 339 338 339 339 339 339 340 338 336 334 332 330 329 329 327 328 330 331 333 333 332 332 332 330 331 331 331 331 331 331 332 332 330 330 330 329 330 332 332 331 329 330 333 335 337 336 336 328 322 322 321 320 319 321 326 333 329 330 331
331 335 338 337 337 337 336 334 332 330 328 328 327 327 326 326 324 326 325 330 330 332 331 332 331 331 330 331 331 331 332 330 332 330 329 329 330 330 330 329 330 331 330 332 331 332 331 334 334 336 335 332 327 322 321 325 323 316 330 329 330 330
335 337 337 337 337 337 336 334 333 331 329 328 326 329 331 330 328 326 329 330 330 333 331 331 331 330 330 329 330 330 331 330 329 329 329 329 328 329 328 330 331 330 330 331 331 328 329 329 332 333 335 334 333 333 332 326 321 322 316 325 327 328
336 337 338 339 339 339 336 336 334 332 330 328 328 329 330 330 330 329 328 328 329 329 330 329 328 328 329 328 328 327 328 328 326 327 325 327 327 327 328 330 333 332 332 333 333 331 331 331 328 329 332 331 331 332 331 333 330 324 322 319 321 326
337 339 340 341 339 339 338 337 335 333 329 329 329 329 328 328 327 328 327 327 327 326 328 329 328 328 327 325 325 326 327 326 325 324 323 323 325 324 328 329 328 328 329 329 330 330 331 330 331 329 330 327 328 330 329 330 331 330 323 318 318 320
336 338 339 340 340 339 340 338 334 332 331 329 329 328 327 326 326 327 326 327 326 325 325 326 328 327 325 323 325 326 325 327 326 323 323 324 326 328 328 328 329 329 329 328 328 329 328 329 331 332 330 328 327 328 328 327 329 328 329 325 319 318
335 336 337 338 339 338 339 337 334 333 331 330 329 328 326 326 324 326 325 325 325 324 325 325 326 326 325 324 326 326 326 324 326 326 324 323 326 325 326 327 327 327 327 327 327 328 328 329 328 327 327 326 324 325 324 322 325 328 326 324 322 322
333 334 336 336 336 335 334 335 335 333 331 331 330 328 326 325 325 325 325 324 323 323 324 325 324 323 324 325 324 325 326 324 323 325 324 325 325 325 326 326 325 325 325 327 327 326 326 326 325 325 325 324 323 324 324 323 323 326 326 324 324 321
328 330 333 331 331 331 332 334 333 332 332 332 330 328 327 326 326 324 324 323 322 320 322 322 322 323 325 325 324 325 324 322 321 323 324 324 324 325 324 323 323 323 324 324 324 325 323 325 325 322 321 322 320 319 320 322 323 323 324 326 325 318
327 328 329 330 329 328 330 333 333 332 332 331 330 329 327 327 327 325 324 322 321 320 321 322 323 323 324 325 324 325 325 324 323 322 322 323 323 323 324 320 322 323 324 324 324 324 323 324 324 324 323 320 320 318 319 321 322 322 322 321 320 319
327 327 327 328 327 326 328 331 332 332 333 331 331 329 327 327 327 325 323 322 321 322 322 323 323 325 325 325 326 326 325 325 325 324 323 323 322 323 323 319 320 322 322 322 321 321 321 323 321 321 322 320 319 318 318 316 318 319 319 322 321 321
330 329 328 326 327 326 327 329 331 331 333 332 331 331 329 330 329 327 326 322 321 322 323 323 325 325 326 325 325 325 325 325 325 325 324 322 321 321 323 320 319 321 320 319 320 319 319 320 320 321 321 320 318 316 318 317 317 317 318 321 322 322
330 329 326 326 328 327 327 328 329 331 331 331 331 329 328 329 329 329 328 326 323 322 324 324 324 326 326 326 326 325 324 325 326 326 325 323 322 322 322 321 320 320 320 320 319 317 318 318 320 320 319 320 318 317 318 320 318 318 319 320 321 321

ECMWFFLT2_sfc_thetae_051.txt.gz
Theta_e
351 350 348 345 351 345 345 342 343 344 345 346 348 349 348 348 348 347 344 340 341 345 347 347 347 348 347 349 346 346 345 345 345 344 343 342 342 342 342 342 341 342 341 339 340 339 340 338 338 338 339 339 344 346 346 344 343 342 339 337 342 340
347 347 349 349 345 347 343 346 346 347 349 348 347 348 349 349 346 346 340 341 343 346 347 344 345 347 344 348 347 346 345 345 345 343 343 342 343 342 342 342 342 341 341 340 339 338 338 342 338 339 338 340 342 344 342 343 341 339 337 341 341 342
346 345 342 345 345 347 345 343 344 346 345 345 345 347 347 345 345 342 340 340 346 347 346 348 345 343 343 344 347 345 344 345 344 344 343 343 342 342 342 342 342 342 341 341 343 340 339 335 337 339 340 341 342 342 344 342 342 342 339 342 339 342
348 346 344 345 345 343 344 344 344 345 343 345 345 345 344 341 342 341 343 342 345 345 346 349 344 344 345 347 346 345 344 344 344 344 344 344 343 343 342 342 342 341 340 340 338 336 336 338 337 338 340 340 340 343 344 343 337 340 341 341 339 343
342 343 344 347 345 344 345 344 345 345 345 346 345 343 341 340 343 340 340 340 342 345 345 347 343 343 344 343 343 344 344 342 342 342 344 342 343 343 343 341 341 340 338 338 336 338 339 339 340 339 339 340 342 345 343 344 341 341 341 341 341 342
342 343 345 344 345 347 344 344 348 347 346 344 341 342 342 343 343 341 341 345 344 343 345 347 345 343 340 345 344 344 344 344 344 341 342 342 341 341 340 339 339 337 338 339 339 341 336 337 336 335 337 338 341 341 343 342 340 344 344 343 340 342
340 343 343 347 347 349 346 347 349 344 341 340 341 338 340 341 341 341 344 343 341 342 341 342 344 343 340 343 345 345 346 346 344 345 343 343 340 340 339 339 339 339 340 339 337 337 335 335 336 335 334 335 336 339 340 340 340 340 348 343 341 342
341 342 341 346 345 345 347 344 343 343 342 343 341 336 341 339 342 344 343 344 343 346 343 345 345 344 341 342 339 340 341 341 341 342 343 344 340 340 340 339 340 337 339 338 335 337 335 334 333 334 335 334 334 336 339 339 341 341 345 344 340 342
340 340 343 344 339 343 343 343 343 343 343 343 344 342 346 346 347 347 346 343 345 347 344 343 343 342 342 337 337 337 341 342 341 343 339 340 340 343 341 341 341 340 339 338 336 337 335 335 335 335 333 332 334 332 336 337 340 339 346 346 342 340
346 342 339 343 343 341 341 342 341 339 341 345 346 346 347 345 344 346 344 343 342 344 343 342 341 343 342 340 340 339 342 341 342 341 339 339 339 344 340 341 342 342 336 335 335 337 336 335 332 334 332 333 331 333 334 336 337 339 342 343 344 342
347 345 344 343 344 344 343 340 340 340 341 344 346 347 346 344 345 345 345 343 344 344 346 344 342 342 346 344 343 340 339 339 343 340 342 340 340 343 342 339 338 339 336 335 332 339 333 335 335 330 332 331 331 334 335 336 338 336 337 340 345 343
344 346 346 343 344 343 341 340 342 342 343 343 347 346 343 342 342 343 343 343 345 344 343 344 343 342 341 342 341 340 339 336 340 345 341 341 340 338 338 336 336 335 335 334 335 336 336 338 335 333 331 331 333 333 333 333 333 335 336 342 343 344
343 345 345 342 342 341 343 342 343 343 342 345 347 346 342 341 341 342 343 342 342 342 342 343 344 343 340 343 342 340 335 335 337 340 341 339 336 337 340 339 337 337 334 335 335 335 334 340 336 335 335 332 332 330 332 330 333 333 337 340 340 342
344 343 342 342 343 344 343 343 345 344 344 344 345 344 343 342 342 341 342 342 343 343 344 344 341 341 343 341 341 340 337 338 340 341 338 340 336 338 338 340 338 335 335 334 334 331 332 334 335 334 334 334 334 336 334 332 334 334 336 337 340 341
344 343 343 343 343 343 344 343 343 345 346 347 344 344 344 344 344 343 343 342 343 345 343 341 341 344 340 339 337 337 337 336 337 337 339 338 338 340 338 337 337 336 336 336 335 335 332 330 336 335 334 336 334 332 334 333 335 333 334 336 341 340
339 341 341 340 339 345 344 344 344 344 345 346 342 342 342 344 343 342 343 340 342 342 341 341 340 340 340 340 339 338 336 338 338 338 339 340 340 339 339 337 338 337 335 335 336 336 334 333 331 333 335 336 336 337 335 334 334 332 333 335 337 340
337 335 337 336 342 341 345 344 345 344 344 344 342 342 342 344 343 342 342 341 342 341 340 340 341 340 339 339 337 338 338 338 338 338 337 337 338 339 338 336 335 337 337 335 335 332 333 332 331 336 332 335 335 335 334 336 337 337 334 335 335 337
337 335 331 332 337 343 344 344 345 343 345 344 344 342 343 344 343 342 342 341 342 341 341 340 340 341 340 338 338 337 338 337 335 336 337 338 339 339 338 334 334 337 337 335 335 335 333 335 330 329 332 332 334 336 335 336 337 338 336 335 337 336
336 335 336 340 341 344 344 344 345 342 342 341 340 339 339 341 339 339 342 342 342 342 341 341 340 341 342 338 338 337 336 337 335 336 336 332 336 336 336 337 336 335 334 335 335 335 335 333 331 331 333 332 334 335 338 338 337 337 336 336 338 337
336 335 340 342 343 342 339 341 336 336 335 334 335 335 339 336 337 335 336 336 336 338 342 341 341 339 342 341 340 339 337 337 336 338 338 335 336 335 331 333 335 333 331 333 335 334 336 335 335 333 334 336 335 334 336 336 334 335 337 338 337 339
336 338 339 340 341 337 336 333 331 331 331 333 333 335 335 335 335 334 334 333 335 334 336 338 340 341 339 338 339 340 337 336 336 336 336 335 334 334 335 336 334 335 333 331 331 335 337 335 333 333 333 331 333 335 335 335 334 333 336 334 337 337
332 335 338 337 333 332 335 331 331 330 331 333 331 331 332 333 333 333 334 334 335 335 336 336 336 336 336 335 335 335 336 336 337 335 335 335 334 335 338 338 337 334 336 332 329 334 335 331 328 325 324 325 329 332 334 332 332 331 334 333 335 335
331 333 332 332 330 329 334 335 334 332 331 330 333 335 331 331 332 331 335 335 335 334 333 333 333 333 333 333 333 332 332 332 332 332 331 332 334 336 336 336 337 334 332 333 332 333 335 333 330 327 328 325 323 321 327 330 332 331 332 334 333 335
331 332 332 330 330 331 334 336 337 336 336 335 333 333 333 332 329 330 331 333 334 334 332 331 329 327 330 332 333 332 332 331 332 333 331 330 330 328 332 334 334 334 334 330 329 330 336 335 333 328 322 321 323 321 317 322 326 330 332 333 333 332
331 332 331 331 330 331 335 335 336 337 336 333 332 329 328 326 329 328 329 331 332 333 331 330 330 329 329 331 332 331 331 331 331 332 331 329 329 329 328 329 331 332 331 330 327 332 335 337 336 336 329 324 319 318 317 323 324 327 333 332 331 331
334 332 332 331 333 334 336 334 333 330 326 327 326 327 325 322 322 326 326 331 332 331 331 330 329 329 328 329 330 330 331 329 330 331 331 330 329 329 329 329 330 330 329 332 329 331 329 333 336 335 335 331 329 321 318 324 321 317 330 330 330 330
336 334 332 331 332 335 335 334 332 330 329 327 326 328 328 329 327 326 329 330 330 332 330 330 330 329 329 329 329 330 330 329 329 329 329 330 329 329 328 330 331 332 330 333 332 326 328 328 332 332 334 334 330 329 330 324 319 322 317 326 330 330
333 332 331 331 333 337 334 333 333 331 330 329 329 327 329 328 329 329 327 328 329 329 329 328 329 327 327 326 327 326 327 329 327 326 325 326 326 328 329 330 331 331 331 331 331 328 330 328 326 326 330 331 331 332 332 332 330 323 320 318 320 327
330 334 333 333 335 337 336 335 333 331 329 331 330 328 327 327 327 328 328 327 328 328 329 329 327 325 324 324 325 326 326 326 326 325 324 323 326 328 329 330 329 329 329 329 329 329 330 329 328 326 327 328 328 329 329 330 330 326 322 320 318 322
329 333 335 334 338 337 336 335 331 331 330 327 327 325 326 325 326 328 327 327 326 325 325 326 326 325 324 325 326 326 325 325 325 323 324 326 326 326 326 326 326 327 328 328 328 328 328 328 329 330 328 327 324 326 325 324 326 326 326 324 317 321
332 336 338 336 333 336 335 334 332 332 329 328 327 326 324 325 325 326 325 325 325 324 325 324 324 325 324 323 325 325 324 323 325 326 325 324 324 323 325 326 326 324 325 326 325 326 327 327 326 325 325 323 322 323 322 319 323 324 323 322 321 322
331 335 331 326 324 331 335 333 333 332 330 329 328 325 325 325 324 325 325 324 324 323 323 323 324 322 323 324 324 322 323 323 324 324 324 326 326 325 325 324 324 325 326 327 328 326 327 326 326 322 322 321 320 321 322 320 321 322 323 322 321 320
331 334 328 324 325 329 334 332 331 331 331 330 328 327 326 325 326 325 324 322 322 321 321 321 321 321 323 325 324 323 322 320 321 324 325 323 324 324 323 323 324 324 324 323 322 324 322 324 324 323 321 321 319 318 319 321 322 322 323 324 321 317
333 334 332 328 326 329 334 333 332 331 331 330 328 327 326 326 326 325 324 322 322 321 321 322 321 322 323 324 323 323 323 323 321 322 322 323 324 324 323 320 323 323 323 323 324 324 323 323 323 323 322 318 318 318 318 319 321 322 322 321 320 318
334 334 334 333 330 335 334 332 331 331 331 331 328 326 325 326 327 325 324 323 323 323 322 322 322 324 324 324 324 324 323 323 322 322 322 322 322 323 322 319 320 322 320 321 321 320 319 322 321 321 322 319 318 318 317 316 316 319 322 323 322 321
333 332 333 333 332 334 333 333 331 331 331 331 329 328 326 326 327 326 325 324 324 325 323 323 323 324 324 325 323 323 324 324 322 322 322 322 322 322 322 320 319 321 320 318 320 320 319 321 321 321 321 320 318 316 319 318 318 317 318 322 322 321
332 331 331 330 330 330 328 329 330 331 331 332 331 329 327 328 328 328 326 325 325 324 326 324 324 325 325 325 325 324 324 324 325 323 322 322 322 322 322 321 320 319 319 320 319 318 320 320 320 321 321 320 318 318 319 320 319 319 320 321 322 321

ECMWFFLT2_sfc_thetae_054.txt.gz
Theta_e
345 346 346 346 347 345 344 342 340 341 345 347 346 344 342 341 342 343 343 342 340 340 341 341 342 345 346 345 346 346 345 345 344 342 342 342 341 341 342 341 340 339 339 340 338 340 341 338 338 340 340 341 343 342 342 343 344 336 339 338 338 339
343 344 346 345 344 344 342 341 340 341 345 347 345 342 341 340 343 342 342 341 339 338 341 340 342 344 345 346 345 346 345 344 343 342 342 342 341 341 341 340 340 341 339 340 342 338 338 340 342 340 341 341 340 339 341 343 341 335 337 337 339 341
344 344 343 344 344 344 342 345 344 345 344 345 343 341 343 344 342 341 342 340 340 340 340 340 344 345 345 345 345 346 345 344 343 343 342 341 342 342 341 342 342 341 341 342 339 336 335 333 335 340 341 340 335 338 340 342 340 340 337 337 338 344
345 346 344 344 343 344 342 342 343 345 344 341 341 340 341 342 342 341 341 340 340 338 339 339 343 344 344 344 345 345 345 344 343 343 343 342 342 342 341 342 343 342 342 339 334 335 335 334 333 334 335 336 337 338 340 341 337 337 337 339 339 344
344 344 345 344 343 343 343 343 344 344 342 342 341 341 343 344 342 342 342 341 340 337 339 339 343 345 343 344 343 343 343 343 343 342 343 341 341 339 341 340 339 341 337 334 332 333 335 339 336 334 335 336 337 344 343 341 339 338 337 337 340 343
344 344 342 344 343 342 344 343 342 343 342 342 340 341 342 342 343 343 342 341 339 340 340 340 342 343 344 343 341 341 341 341 341 340 342 342 341 341 340 339 338 336 335 335 336 337 337 336 336 335 335 336 341 341 341 336 337 342 336 338 341 344
342 342 340 341 344 343 342 343 344 343 341 341 342 340 339 342 341 341 341 340 341 337 337 335 342 343 344 345 344 345 346 346 344 344 342 343 343 341 340 339 337 334 335 334 336 336 335 336 335 334 334 334 336 338 338 334 341 342 338 337 342 344
341 339 338 341 343 343 340 340 343 342 342 343 342 341 342 341 340 339 341 341 341 341 337 339 338 342 342 344 342 345 344 344 343 344 345 343 340 340 336 336 335 334 337 336 334 333 333 333 331 332 335 335 334 336 336 336 340 345 339 336 340 343
339 339 338 338 341 344 343 341 342 342 342 343 341 341 340 338 339 339 338 338 340 341 339 336 340 340 341 340 341 341 342 342 343 342 340 338 341 337 335 336 337 337 335 335 335 334 337 334 333 333 330 333 332 332 333 334 339 341 342 335 336 341
338 338 340 341 342 343 342 340 342 343 343 343 341 341 339 339 338 338 337 338 340 338 339 335 337 340 338 338 340 340 339 339 340 341 341 339 338 337 337 336 338 338 336 336 335 337 337 333 333 334 329 330 333 331 332 334 337 341 344 342 337 341
341 341 340 340 342 341 342 342 343 342 342 342 341 339 339 338 339 337 338 338 337 341 342 340 339 338 339 337 336 335 337 339 340 340 341 341 340 338 338 338 336 337 336 334 336 338 337 333 334 335 330 332 333 331 330 333 335 337 339 343 338 338
341 342 341 339 342 340 340 341 342 342 343 342 339 338 339 339 337 337 335 335 340 342 343 342 338 340 336 335 335 336 340 339 340 342 341 340 341 339 339 337 339 338 337 336 335 337 337 337 333 334 332 332 333 330 332 333 335 335 337 342 340 336
339 342 342 341 340 341 341 341 342 342 339 341 341 338 337 336 337 336 337 338 338 341 339 337 336 337 336 335 335 335 336 338 339 341 341 341 339 338 339 339 339 338 337 337 337 336 335 338 336 337 337 335 333 332 332 330 332 336 339 340 340 341
337 335 338 338 336 335 337 340 341 343 342 339 339 337 335 337 338 338 338 340 342 342 342 341 339 338 338 335 335 337 337 337 339 341 340 342 339 339 339 338 338 337 337 335 334 334 335 333 335 335 332 334 334 333 334 331 334 336 336 338 338 337
337 336 338 338 336 336 335 336 339 338 342 341 338 334 334 338 339 340 340 342 341 341 341 339 340 339 337 338 338 336 337 337 339 339 339 340 339 339 338 338 338 335 337 335 336 336 335 332 334 333 333 332 339 336 332 334 336 335 336 337 338 336
335 336 337 335 336 336 336 336 337 339 341 338 339 337 340 339 339 341 341 341 342 342 341 340 340 340 340 337 336 336 335 338 338 338 339 340 340 338 339 338 338 337 334 334 335 335 335 334 333 333 336 334 335 334 335 334 334 334 335 337 335 334
336 337 338 339 336 333 338 337 335 335 338 336 336 339 340 343 341 340 340 340 341 342 342 340 340 340 340 337 336 336 337 338 339 338 339 338 337 338 338 337 335 336 337 334 333 333 334 333 334 333 334 334 332 337 335 335 337 336 335 333 334 334
336 336 336 336 336 335 334 336 336 337 335 336 336 339 344 340 339 341 340 339 340 341 341 339 340 340 340 337 338 337 338 339 338 339 339 337 336 339 337 335 334 337 336 334 333 333 333 334 335 333 332 332 331 335 338 337 335 338 332 333 335 335
334 333 334 335 335 334 334 333 333 333 337 337 338 340 341 338 338 341 339 340 340 341 340 340 339 340 339 337 337 336 337 337 336 337 336 334 336 336 336 336 335 335 335 335 334 335 334 334 333 333 332 333 334 333 335 337 337 333 331 331 335 335
336 338 339 339 337 333 331 329 328 332 334 335 336 336 338 335 336 334 336 337 337 341 339 340 338 339 340 338 337 336 336 336 336 335 335 334 334 335 335 335 335 335 333 334 335 334 335 334 332 330 329 329 331 332 335 334 334 332 331 331 332 333
337 337 334 334 336 334 332 332 335 334 334 334 333 338 336 335 333 336 334 333 335 337 338 338 337 338 339 336 336 338 337 336 336 335 336 336 336 336 336 335 334 333 332 331 331 334 336 334 329 326 327 329 332 335 335 334 332 330 329 332 333 332
338 337 335 336 338 337 337 338 335 333 332 331 332 332 329 332 332 333 335 336 336 334 336 336 337 338 336 335 334 334 334 334 336 336 337 337 336 335 335 335 334 331 332 330 330 333 335 332 325 324 321 324 327 331 331 332 331 330 329 330 332 331
336 337 337 335 338 336 336 337 341 335 336 331 336 334 329 331 333 332 336 334 336 337 334 333 335 335 334 334 334 335 334 334 335 336 335 334 336 336 337 336 334 331 330 331 329 333 334 333 326 327 326 323 319 318 325 328 330 329 329 329 332 331
335 336 334 334 335 336 336 335 343 338 338 334 329 331 332 332 331 331 331 333 337 339 337 332 328 328 329 334 336 333 332 334 334 337 334 333 334 331 333 334 335 332 332 325 326 330 333 333 331 327 319 320 319 319 315 318 323 326 330 331 329 329
335 334 334 333 335 336 337 341 336 334 334 332 332 329 327 328 329 328 330 334 335 334 329 327 328 329 329 331 333 335 334 333 333 335 335 330 329 330 329 330 331 331 331 328 326 328 330 333 331 332 325 321 318 316 316 320 321 323 326 327 328 329
334 334 334 334 335 334 337 336 332 330 328 330 328 330 327 323 325 328 326 333 331 331 335 335 329 329 329 330 331 334 334 330 333 332 333 333 333 331 329 328 329 330 328 330 329 326 327 330 333 331 332 330 326 319 317 321 321 313 323 325 327 329
334 334 335 334 335 335 337 334 333 331 331 329 329 330 332 333 328 329 334 331 331 333 330 331 330 329 329 329 332 333 335 333 329 331 331 330 329 329 327 328 330 329 328 331 330 325 325 326 330 330 331 332 330 329 328 323 317 318 314 320 325 326
335 335 335 335 335 338 337 334 334 333 332 333 331 328 331 330 332 330 330 331 331 332 329 330 329 326 327 329 332 332 332 330 332 328 328 326 327 328 329 330 331 331 331 330 329 327 327 330 326 326 328 326 329 329 329 327 325 320 318 314 317 323
334 334 334 334 336 338 337 336 336 336 335 332 329 329 327 328 329 329 329 332 331 328 329 327 324 326 325 325 326 328 329 327 325 325 324 326 327 327 328 328 328 329 328 328 329 330 328 327 327 326 327 326 326 326 325 325 326 324 319 315 315 317
332 333 333 335 334 329 326 327 330 335 333 328 329 327 328 328 328 332 327 326 328 328 328 328 327 327 327 325 327 327 327 329 329 326 325 323 323 325 327 325 326 327 328 327 328 328 327 327 328 329 327 326 325 324 323 324 323 322 322 320 315 316
331 333 332 331 330 328 327 326 325 329 332 328 328 329 326 326 328 327 325 326 327 327 326 326 327 325 325 325 326 328 327 324 327 328 325 324 325 324 326 327 327 327 326 327 326 326 326 326 326 322 322 323 322 322 320 321 320 322 321 317 317 316
330 330 330 329 327 326 327 326 326 329 330 330 329 327 325 324 325 324 326 326 326 326 325 327 327 327 326 326 326 324 325 326 327 328 325 327 326 323 323 324 324 324 323 324 324 324 324 322 322 323 320 320 320 321 320 319 323 324 322 320 318 317
328 328 328 328 327 326 326 326 326 329 331 331 329 328 327 325 326 325 326 324 324 323 324 323 324 324 327 328 328 325 324 324 324 325 327 327 325 323 323 324 323 322 323 322 322 323 321 321 321 320 320 318 317 316 317 319 324 322 325 323 320 316
328 328 327 328 328 327 327 327 329 331 330 330 330 329 327 326 327 327 326 324 324 323 323 323 324 326 326 324 325 326 326 325 325 325 325 325 323 324 325 319 320 321 320 320 321 321 321 321 321 321 321 316 315 316 319 320 316 323 321 321 316 315
331 329 328 329 328 328 329 329 332 331 330 330 329 329 328 328 328 326 325 325 325 325 322 322 325 326 324 324 325 326 325 325 325 325 325 325 324 323 322 318 319 320 320 321 320 319 319 320 320 320 320 319 318 316 317 316 316 318 321 320 321 318
330 328 328 328 328 329 329 330 331 329 330 331 326 328 328 328 329 328 326 326 326 325 324 325 325 324 326 326 325 325 324 324 325 326 326 325 323 321 323 322 321 321 318 320 320 320 319 320 321 321 320 319 317 316 317 316 316 317 316 324 320 322
329 330 329 328 329 328 331 333 330 329 330 330 328 327 326 329 328 328 329 327 326 325 326 325 325 327 325 325 327 326 325 325 324 323 324 324 324 324 322 320 320 320 319 320 320 319 320 319 319 319 319 318 316 317 318 318 318 318 319 318 322 320

ECMWFFLT2_sfc_thetae_057.txt.gz
Theta_e
345 346 346 345 344 344 346 346 344 345 344 344 345 344 345 344 342 343 342 341 339 339 338 341 345 346 348 346 346 346 345 344 343 342 342 342 342 342 342 341 340 340 338 340 339 341 340 340 340 340 342 342 344 336 335 338 336 337 337 338 338 337
344 344 344 344 343 342 341 342 342 341 341 341 343 344 344 342 344 340 341 339 338 341 339 339 342 347 346 347 345 346 345 344 343 343 342 342 342 341 341 340 340 341 339 341 342 334 335 338 341 341 341 343 337 332 333 337 335 335 336 336 338 340
343 342 343 342 341 340 338 339 341 341 340 341 343 343 342 343 341 339 338 337 339 338 339 340 342 345 345 346 346 346 345 344 343 343 342 342 341 341 341 341 342 340 342 341 336 333 332 330 330 339 342 338 333 331 332 336 335 335 335 337 337 343
342 341 341 340 340 339 340 339 338 337 338 339 339 341 341 341 340 339 337 338 338 339 339 337 345 346 346 344 344 345 345 344 343 342 342 342 342 341 342 341 342 342 340 339 332 331 331 331 331 329 331 330 331 331 334 335 334 335 336 340 338 343
343 343 341 341 339 339 339 339 338 336 336 338 337 340 341 339 338 338 338 338 338 338 336 335 337 340 341 342 341 341 341 340 338 337 342 335 335 338 338 336 335 336 332 332 332 330 330 331 332 332 330 330 330 333 334 335 335 335 336 338 339 343
341 342 341 341 340 341 340 337 334 334 336 338 337 338 340 339 338 338 338 338 339 337 335 336 338 339 340 340 339 339 339 339 337 338 340 336 336 336 334 334 332 331 332 331 331 333 332 331 331 332 331 330 331 333 332 336 336 335 336 338 340 344
339 339 340 342 341 340 339 336 334 336 336 335 336 336 339 339 338 338 338 338 336 333 333 332 336 337 338 339 338 338 338 338 336 337 338 336 336 335 334 332 332 331 332 333 334 334 333 332 330 331 328 329 331 332 332 337 335 334 336 338 341 344
339 336 337 340 338 336 337 336 336 339 337 337 336 336 339 339 338 336 338 338 338 333 332 333 335 337 337 338 338 338 338 336 337 338 338 336 334 333 332 332 331 332 335 335 334 333 334 333 330 330 329 328 329 332 331 335 337 334 335 338 340 343
335 336 336 339 336 336 337 338 336 333 336 340 336 337 338 337 335 336 336 336 339 335 334 335 335 336 336 336 336 336 335 336 336 335 335 334 335 332 330 332 332 333 332 333 334 333 335 336 332 330 328 328 328 329 332 336 337 335 335 337 338 342
336 334 335 338 337 336 337 336 334 335 338 340 338 338 336 335 335 334 333 335 338 335 333 333 334 335 334 334 333 334 335 334 334 334 334 333 332 332 331 331 333 333 333 331 332 334 334 333 334 332 329 330 329 328 330 332 336 336 334 334 336 341
337 337 338 337 336 336 337 336 336 336 338 338 337 337 335 335 335 334 333 335 335 337 336 333 334 334 334 332 331 331 332 333 333 334 334 333 333 332 332 331 330 331 329 328 330 332 333 333 332 333 332 331 331 328 328 330 334 339 335 332 334 336
339 339 337 335 334 335 337 337 337 338 337 336 337 335 334 334 335 334 335 334 335 336 336 335 335 334 332 330 330 329 331 332 332 333 334 335 334 334 332 333 332 331 330 328 331 332 333 332 331 333 334 332 332 329 330 330 332 332 334 334 334 335
338 336 334 334 335 334 335 340 339 338 337 337 335 335 334 334 334 334 333 333 335 337 335 333 332 333 333 330 330 329 329 330 332 334 335 335 334 332 333 332 332 331 330 329 331 329 334 333 331 331 331 333 332 332 331 331 331 333 334 334 335 335
335 333 333 333 334 335 337 338 339 338 338 336 335 334 336 336 336 336 336 335 336 336 335 334 333 332 331 328 328 329 329 329 331 334 334 335 332 332 331 332 331 330 333 329 329 328 328 330 331 332 330 332 332 331 331 331 331 332 334 335 336 335
335 334 333 332 333 334 335 335 335 336 336 336 334 334 334 335 335 335 335 334 336 337 335 335 333 333 333 330 330 329 330 329 331 331 332 332 332 332 331 331 329 330 327 327 329 330 330 328 328 329 329 332 334 334 332 331 332 334 334 333 334 334
334 333 332 332 331 332 333 333 335 338 334 334 335 334 333 333 332 333 333 333 333 335 336 335 334 333 332 332 331 330 329 330 331 331 331 331 330 330 328 331 329 329 326 328 332 330 330 329 327 330 330 332 331 332 331 331 332 334 334 334 333 333
332 332 332 332 331 332 331 331 331 333 333 332 332 333 333 334 333 332 332 334 334 335 335 336 335 335 332 331 330 330 330 332 331 329 330 330 328 330 329 331 327 329 329 327 330 331 329 328 328 329 330 329 330 331 331 330 331 332 334 332 333 333
333 333 331 330 331 331 331 332 332 332 335 333 332 334 335 334 332 333 335 334 336 335 336 335 335 335 331 331 331 331 330 330 329 330 330 328 328 330 330 328 326 328 329 329 327 328 328 328 330 330 329 329 328 331 330 329 330 334 332 332 331 330
333 332 331 331 331 330 330 330 330 331 333 332 331 332 333 332 333 331 332 332 336 336 337 334 334 335 332 332 331 330 330 329 328 328 328 326 327 329 328 328 327 327 328 329 328 328 328 329 330 330 328 328 329 330 330 330 330 329 330 330 333 335
330 331 332 330 329 327 327 327 327 329 330 330 330 329 330 330 330 330 332 335 335 335 336 336 334 334 333 332 330 329 328 328 328 328 326 326 326 326 327 328 328 327 326 328 329 328 329 329 326 324 325 326 328 330 330 330 329 330 329 329 329 330
332 333 331 328 327 327 326 326 327 326 326 327 329 329 329 329 330 332 333 334 334 334 334 334 334 333 333 338 332 331 330 329 329 328 327 327 329 329 327 327 326 325 325 325 325 327 329 328 324 320 323 324 326 329 329 328 329 329 330 329 329 328
333 332 331 330 330 329 329 329 328 326 326 326 326 326 325 326 329 332 332 332 333 333 333 333 333 333 332 331 331 330 330 329 328 327 328 329 328 330 328 329 328 325 325 323 323 327 329 326 318 316 317 318 321 325 327 327 328 328 328 328 327 328
331 330 331 332 331 330 330 332 329 327 328 327 328 326 326 329 330 329 329 331 331 331 331 332 332 333 331 330 329 328 328 327 328 329 329 328 328 328 329 330 329 326 324 323 322 327 328 324 318 319 318 316 314 315 321 322 324 326 328 327 328 329
331 331 332 333 332 330 331 329 332 329 326 325 324 327 327 326 326 326 325 329 330 329 329 330 330 329 329 329 328 327 327 327 328 330 327 326 325 327 326 328 328 327 324 319 321 323 328 327 323 318 312 311 314 314 312 314 317 320 327 327 327 327
332 331 330 331 330 328 330 327 326 325 325 323 322 322 322 322 323 325 324 324 325 325 327 325 325 325 327 324 325 325 325 324 324 325 324 321 321 322 325 327 328 325 323 319 321 321 323 326 325 325 316 314 311 309 311 316 318 319 323 323 326 327
330 330 329 328 329 329 328 324 322 319 318 317 316 318 317 317 319 321 322 322 323 324 324 323 323 323 324 324 322 325 323 323 323 323 325 324 323 322 322 323 324 324 323 324 322 320 319 322 326 326 325 321 317 312 314 316 317 313 321 322 324 326
330 329 329 329 329 331 327 324 322 321 319 317 318 318 317 320 321 322 323 322 322 323 324 322 321 321 321 324 322 323 324 323 325 324 325 323 322 322 324 324 325 324 323 325 322 318 319 319 321 322 326 325 324 323 322 317 312 316 313 318 320 320
330 329 329 330 330 331 327 325 323 322 321 321 320 320 321 321 323 323 322 322 320 319 320 320 320 321 321 323 323 320 319 322 323 324 324 322 322 322 324 325 324 323 324 325 322 321 319 319 317 319 322 322 323 324 323 321 320 316 315 312 314 320
329 329 329 330 330 331 328 324 323 323 324 323 322 322 323 323 322 323 320 321 321 318 316 318 319 318 317 320 322 320 319 319 320 321 324 322 320 320 319 319 320 321 320 322 322 321 320 319 319 319 319 319 322 320 320 321 321 319 314 313 313 314
328 328 329 329 328 328 328 327 324 324 322 321 321 321 321 320 320 321 319 318 318 318 317 318 319 319 318 320 318 318 318 320 319 319 319 318 319 319 318 319 319 319 320 320 320 320 319 319 320 321 319 320 318 317 319 319 317 318 317 315 312 312
327 327 328 327 325 324 324 324 325 322 321 319 319 320 319 319 320 318 318 318 317 317 317 316 316 317 317 319 319 321 318 320 321 323 320 318 318 319 320 320 319 319 319 318 317 317 316 316 316 314 315 318 319 319 316 315 316 317 315 312 312 312
326 326 326 325 324 322 323 323 324 322 320 320 321 320 319 319 317 317 318 318 316 315 316 317 317 314 314 315 317 317 318 318 319 317 317 318 318 318 318 318 318 317 317 317 317 316 314 314 313 311 311 311 312 315 316 318 319 318 316 315 314 313
325 325 324 324 323 322 322 322 324 324 321 322 321 320 320 319 318 318 318 317 315 315 315 314 313 314 315 317 316 314 314 314 315 316 316 317 317 318 318 315 315 315 316 316 315 314 313 312 313 311 308 310 312 312 312 314 321 319 318 317 315 312
323 322 321 320 321 321 321 322 323 325 323 322 320 320 320 319 319 319 318 316 315 315 314 313 315 316 315 316 316 316 316 316 315 315 316 315 316 315 314 314 314 313 312 313 314 313 313 313 313 312 312 310 310 311 311 313 318 320 318 317 314 313
322 321 321 320 319 319 320 321 323 324 322 321 321 321 320 320 320 319 318 317 316 316 315 316 317 316 316 314 314 313 314 314 314 314 314 315 315 313 313 313 314 314 313 313 313 314 313 314 315 312 311 310 311 310 310 312 311 315 319 317 315 314
322 321 321 321 319 319 320 321 324 322 322 322 322 322 321 321 320 319 318 317 316 315 316 317 316 315 316 316 315 316 316 315 316 316 315 314 315 315 314 313 311 311 312 318 313 312 312 312 312 311 310 311 311 310 312 312 313 312 313 316 316 315
323 322 321 321 320 320 320 321 323 321 322 321 321 320 320 320 319 318 319 318 316 317 317 316 317 318 316 315 315 315 316 314 313 313 313 314 313 312 312 313 312 311 312 312 313 311 312 312 311 311 310 310 310 311 311 310 311 312 312 312 314 313

ECMWFFLT2_sfc_thetae_060.txt.gz
Theta_e
346 346 345 345 343 342 346 347 345 347 347 346 346 346 346 346 346 345 343 343 341 340 341 344 345 344 347 345 346 346 344 344 343 342 342 341 342 342 342 341 339 340 339 340 339 340 340 340 340 341 342 342 340 331 334 334 334 335 334 335 337 335
345 344 344 344 343 343 345 345 341 342 343 343 345 346 343 342 344 339 342 339 338 341 338 339 343 346 344 346 345 345 344 343 343 342 342 342 342 341 341 340 340 340 339 341 341 329 332 336 338 339 341 343 332 330 334 334 334 334 335 334 336 339
344 343 342 341 341 342 340 339 338 339 342 344 345 343 339 342 337 336 337 338 338 336 337 338 342 346 346 346 345 345 344 343 343 343 342 342 341 341 340 341 341 341 342 340 329 327 328 327 327 336 336 331 329 329 333 333 333 334 334 335 334 343
342 341 340 338 339 339 339 339 338 338 338 339 339 340 338 339 337 336 337 336 336 338 336 335 344 345 345 344 343 345 344 343 343 342 342 341 341 341 342 341 340 339 334 333 328 328 328 327 328 328 327 326 328 330 333 333 333 333 334 338 336 343
341 340 337 338 339 338 337 337 337 337 337 337 337 337 337 338 337 336 336 336 336 336 334 335 336 341 340 340 338 338 340 338 337 335 342 331 331 335 333 330 328 330 328 329 329 330 330 328 329 328 327 326 328 330 331 333 334 334 335 335 337 343
341 339 338 338 339 340 336 334 335 336 335 334 336 337 337 337 336 335 335 336 337 335 335 336 337 338 340 339 338 337 337 336 334 334 336 332 332 331 329 329 328 328 329 328 328 330 330 330 328 328 326 325 328 331 331 332 334 335 335 335 339 343
339 338 338 339 339 337 334 333 334 335 334 334 334 335 336 337 337 336 335 337 335 334 334 333 336 337 337 337 337 337 335 335 333 333 335 332 332 331 329 329 328 328 327 330 332 330 331 330 327 328 327 326 327 331 332 333 334 335 335 336 340 343
338 339 338 338 336 335 333 333 333 339 335 337 336 335 336 337 338 336 337 337 336 333 333 333 335 336 335 336 335 334 334 333 334 333 335 332 330 328 329 329 329 328 329 330 331 332 333 332 329 328 327 327 330 331 332 332 334 335 336 336 338 342
337 338 337 337 336 334 333 333 335 334 333 340 333 335 337 336 335 336 336 336 336 332 331 333 333 334 335 334 333 333 334 333 332 332 332 330 329 328 327 330 330 328 326 327 329 330 332 332 329 329 328 327 329 332 333 332 333 334 335 335 335 339
335 336 336 335 334 333 333 333 334 333 335 338 333 336 336 334 333 334 333 335 336 332 332 332 333 333 334 332 332 332 332 331 330 330 330 330 329 328 329 328 329 329 328 326 329 330 330 330 330 330 330 328 328 331 332 331 332 333 333 333 333 333
334 337 337 334 334 332 333 332 333 334 337 336 336 336 335 333 333 332 333 334 334 334 332 332 333 333 332 331 330 330 330 330 330 329 328 329 329 328 327 326 327 327 324 323 328 329 329 329 329 330 331 329 328 331 331 331 331 332 332 331 332 333
334 337 336 334 334 332 332 332 333 335 337 337 337 335 334 332 334 333 334 332 333 333 333 332 333 332 330 328 327 328 330 330 330 329 329 329 330 330 329 328 328 327 327 325 327 328 328 328 328 330 330 330 330 330 330 331 331 332 333 333 333 334
334 336 334 333 333 333 333 334 334 336 337 337 336 334 333 332 332 333 332 331 332 334 334 333 332 331 332 328 328 329 328 329 330 330 329 329 331 330 329 329 328 329 329 329 328 328 330 328 327 328 330 330 330 330 330 331 332 332 332 333 333 333
335 333 332 333 333 332 333 334 335 335 336 334 333 333 333 331 333 332 332 332 333 334 333 332 332 330 329 329 329 329 329 329 329 331 329 329 328 328 327 327 327 327 331 325 327 325 326 327 328 329 329 329 329 329 329 330 331 331 332 332 333 332
335 332 333 332 333 335 336 336 336 334 333 332 332 332 332 332 332 333 333 332 333 334 333 331 332 330 328 328 329 328 328 328 330 330 329 327 327 326 328 325 325 328 326 326 328 329 326 326 327 328 328 329 329 330 330 329 330 331 331 330 331 331
333 332 332 332 333 334 334 334 334 335 332 331 331 331 332 332 332 332 333 332 331 333 332 331 331 330 328 328 329 328 327 329 330 329 328 328 327 325 325 326 326 326 325 327 330 327 326 326 327 327 326 327 328 329 329 329 330 331 331 331 330 329
331 331 331 332 331 331 332 332 332 332 331 331 330 330 331 331 331 331 331 331 331 333 332 332 331 331 329 329 328 328 328 329 329 328 328 327 325 325 326 327 324 326 324 324 327 328 327 326 326 325 326 326 327 327 328 329 330 330 331 329 329 329
331 331 331 331 331 331 331 331 330 329 332 329 329 330 331 330 329 330 331 331 332 333 333 333 332 331 329 330 329 329 329 329 328 328 327 325 325 325 325 325 324 326 327 326 325 327 326 326 327 326 324 326 327 328 327 328 329 333 330 330 330 329
330 330 329 330 330 329 329 328 328 328 328 326 326 328 330 329 328 330 330 331 333 333 334 333 332 331 331 331 329 329 329 328 328 326 325 324 325 325 325 324 324 324 326 327 325 326 326 326 326 325 324 325 326 327 327 328 328 328 329 331 333 334
329 329 329 328 328 327 327 327 327 328 326 326 326 328 327 328 328 328 330 331 332 332 334 333 332 331 331 330 329 328 328 328 327 326 324 325 323 323 324 324 324 324 323 325 325 327 326 324 321 320 323 324 326 328 328 327 327 327 328 329 331 332
328 329 328 327 327 326 326 325 325 325 324 324 326 326 327 327 327 328 331 332 332 333 333 333 332 330 329 333 328 328 328 326 327 326 325 323 323 323 323 324 324 323 322 320 322 324 324 323 320 319 322 323 323 325 328 327 326 327 328 329 330 330
328 328 327 327 327 327 327 327 325 324 323 324 326 325 325 326 327 330 330 331 332 332 332 331 331 331 331 329 328 326 326 326 326 326 326 325 324 328 325 325 324 321 322 319 320 324 326 322 318 316 316 315 319 320 324 323 324 326 326 327 327 328
329 328 327 327 327 327 327 327 326 324 325 324 326 326 326 327 330 329 329 330 331 331 331 331 331 331 330 329 328 326 326 326 325 326 325 325 324 324 324 325 323 322 321 320 320 324 324 319 318 316 316 315 312 312 317 318 321 323 326 325 327 328
329 329 328 328 329 328 328 327 327 326 325 324 323 325 326 326 326 327 328 329 329 329 329 330 331 330 328 327 326 326 324 324 324 325 325 324 322 324 323 324 324 322 321 317 316 319 324 323 321 317 311 311 311 311 310 314 317 319 323 325 327 328
329 329 329 330 328 328 329 326 325 324 323 323 323 322 323 321 323 326 326 325 326 327 328 328 326 326 327 325 323 322 323 322 322 323 322 320 321 324 325 324 325 323 319 318 317 315 320 323 322 320 316 312 309 307 308 314 318 318 322 323 325 325
328 328 329 328 327 327 327 324 322 320 319 318 318 319 319 320 319 321 322 321 324 325 324 322 322 323 325 324 321 320 319 320 321 322 320 320 319 319 319 320 324 323 320 318 320 316 316 320 322 325 319 316 313 310 312 315 314 312 321 322 322 324
328 327 327 325 326 326 324 323 322 321 320 318 318 316 318 319 320 319 320 319 320 321 322 321 320 321 321 322 320 319 320 321 321 321 322 321 320 320 320 320 321 320 321 321 320 315 318 317 318 320 321 321 322 317 319 315 310 316 314 318 320 321
325 325 325 325 325 324 323 321 320 319 319 318 318 317 319 319 320 321 319 319 320 319 318 318 318 319 320 320 318 318 320 320 321 321 322 320 319 319 321 321 321 320 321 320 319 320 317 317 317 317 319 318 319 320 318 315 316 315 315 314 315 319
325 324 324 325 326 323 322 320 319 318 318 318 318 319 320 321 320 319 317 317 317 316 317 316 317 317 318 319 319 318 319 320 320 320 321 318 317 318 317 318 318 319 319 318 319 318 318 316 317 317 316 316 317 316 317 317 317 315 312 313 313 314
325 324 325 325 325 323 322 321 319 319 319 318 319 319 319 318 318 317 316 314 315 315 315 315 316 316 315 315 317 319 319 318 317 319 319 316 316 317 317 317 316 316 316 315 314 317 316 315 315 316 316 317 315 314 316 315 312 314 313 310 312 311
323 324 325 326 325 323 321 321 321 320 319 318 318 318 318 317 317 315 314 314 314 314 314 314 315 316 316 317 318 320 317 316 317 320 318 317 317 316 315 315 315 315 314 313 312 312 312 311 311 312 314 315 316 318 315 312 313 312 310 310 310 309
322 323 324 322 321 321 321 322 322 320 319 319 319 318 318 317 316 314 314 313 312 312 312 312 312 312 313 315 316 315 316 315 316 315 315 315 315 316 315 315 314 314 313 312 312 312 310 309 309 309 308 309 311 313 313 316 316 315 314 314 314 312
322 322 322 319 319 319 321 322 320 319 319 320 319 319 319 317 316 315 313 312 311 311 310 311 310 313 311 312 313 313 313 314 314 315 315 315 313 313 313 313 313 312 312 311 310 310 310 308 308 308 307 308 309 311 312 317 317 316 315 315 315 312
321 320 320 319 318 318 319 320 319 319 320 320 319 319 318 317 317 316 314 312 312 311 310 310 312 312 311 312 312 313 314 313 313 314 314 312 312 311 311 311 311 310 310 309 311 310 309 309 308 307 308 309 309 310 311 317 317 317 315 314 311 312
321 320 319 317 317 317 318 319 320 319 319 319 319 318 317 318 318 316 313 313 312 311 311 312 312 311 313 312 312 311 311 312 313 313 312 311 313 310 310 311 311 311 310 310 311 311 309 309 310 309 308 308 309 309 310 313 317 317 316 315 314 312
321 320 319 318 316 316 318 319 319 318 318 319 320 318 318 318 318 316 314 314 313 312 313 313 311 311 311 311 311 311 312 312 311 311 311 310 310 311 309 310 309 310 311 313 310 309 308 308 308 307 307 307 308 307 309 311 313 314 315 314 313 310
320 319 320 318 318 317 319 319 319 318 318 318 318 317 317 317 317 316 316 315 314 314 315 313 313 312 312 311 310 311 312 311 311 311 310 310 310 309 308 309 309 308 309 309 311 308 308 309 306 307 309 309 308 308 307 308 310 313 315 315 315 312

ECMWFFLT2_sfc_thetae_063.txt.gz
Theta_e
346 346 346 344 342 343 347 349 348 349 348 348 347 348 348 347 346 347 346 346 343 342 342 343 344 343 346 344 345 345 344 343 343 342 342 342 342 342 343 341 340 339 340 341 340 339 338 338 338 340 341 340 341 334 331 331 332 334 333 335 337 333
345 346 344 342 343 343 345 345 343 344 345 345 346 346 344 343 346 342 345 341 340 343 339 339 342 346 342 345 344 344 343 343 342 342 342 342 342 341 340 340 341 340 339 339 337 326 327 333 335 339 341 339 331 332 331 332 332 333 334 333 335 337
345 344 342 342 343 343 340 339 339 341 343 345 345 343 342 340 335 336 337 338 339 338 339 340 340 344 344 345 344 344 343 343 342 342 342 342 342 341 341 341 340 337 337 337 326 323 324 324 326 336 338 331 329 331 331 332 332 333 332 333 332 341
343 342 340 340 341 339 338 337 337 338 339 340 340 340 338 336 335 335 336 336 336 337 337 337 345 346 346 343 342 344 343 343 343 342 342 342 341 341 340 339 338 336 332 331 325 326 327 325 326 324 325 326 328 330 332 332 332 332 332 337 334 343
342 340 339 340 339 338 337 337 338 338 337 337 338 339 338 334 334 335 335 335 335 335 334 336 338 340 339 339 337 337 338 337 336 336 338 333 332 332 329 327 326 328 325 328 328 328 328 326 325 325 325 326 329 330 331 332 332 332 332 335 335 342
340 339 339 339 338 339 337 336 336 336 335 335 337 338 337 334 334 335 334 335 335 332 334 336 336 337 338 336 336 334 334 333 332 333 335 330 329 328 327 327 327 328 329 329 329 328 327 328 324 324 324 324 327 330 331 331 332 332 333 332 337 342
338 338 338 339 339 338 335 335 335 334 334 335 337 337 337 335 335 335 333 335 332 332 333 335 336 337 336 335 334 333 332 331 331 331 334 330 329 328 328 329 328 328 329 329 329 329 328 327 324 325 326 329 330 330 330 330 331 331 332 332 339 342
337 337 338 339 336 334 333 333 334 339 334 338 338 337 337 337 335 334 334 335 335 333 334 334 335 336 334 333 331 330 330 330 332 332 332 331 329 326 329 329 329 327 329 329 330 329 329 328 326 326 329 330 331 331 331 331 331 331 332 333 336 341
338 337 338 337 333 332 332 332 334 335 333 340 336 338 338 337 334 334 334 334 335 332 333 334 333 333 332 332 330 330 329 329 330 328 329 326 328 326 327 329 328 328 327 327 326 328 328 328 326 325 329 331 331 331 331 332 332 332 332 333 335 339
338 337 336 334 332 332 332 332 334 334 334 339 336 338 338 336 334 334 333 332 333 332 332 333 332 331 331 329 329 329 330 327 327 327 327 327 328 328 328 328 329 328 327 325 327 329 327 327 327 326 327 330 331 331 331 332 332 332 331 331 331 335
337 337 335 333 332 332 332 332 334 333 335 336 337 337 336 334 332 332 333 332 332 332 332 332 332 331 330 330 329 329 329 328 328 328 326 328 328 327 325 327 328 327 324 326 328 327 326 327 325 327 327 329 330 330 331 332 332 332 331 330 330 330
337 336 334 333 333 332 331 332 334 334 336 336 337 336 334 333 333 331 332 331 331 331 332 331 331 330 330 329 328 330 330 329 329 329 327 329 329 328 328 329 329 328 328 328 327 326 326 326 325 326 327 329 330 330 330 330 332 332 331 330 330 331
337 335 333 332 332 331 332 333 332 334 336 336 336 335 333 331 331 331 331 332 332 332 332 331 330 331 331 327 328 328 329 329 329 329 330 330 330 329 331 330 329 328 328 328 327 325 326 324 325 324 326 328 329 329 330 330 330 330 330 331 331 331
336 334 333 332 332 331 332 332 333 336 337 334 334 333 333 330 332 332 331 332 332 332 331 331 330 329 328 328 328 328 329 328 329 329 329 330 329 329 329 329 327 328 330 326 324 322 323 324 323 323 324 325 328 327 328 329 328 329 330 331 330 331
336 334 334 331 332 332 332 333 335 336 336 334 333 331 330 330 330 331 331 332 332 333 332 331 331 329 328 328 328 326 326 327 328 326 327 326 328 328 327 326 326 326 326 327 327 325 322 322 323 324 324 326 327 328 329 328 329 330 330 330 329 329
334 334 332 332 332 333 333 334 336 337 334 334 333 331 330 330 330 330 331 331 331 332 331 331 329 328 327 327 327 326 325 327 328 328 328 328 328 326 324 325 326 325 326 326 327 324 322 322 323 324 324 326 327 329 329 330 331 331 330 330 328 328
332 333 333 333 333 334 335 334 334 334 333 332 331 330 329 329 329 330 330 330 331 332 329 330 329 328 327 327 326 326 326 327 328 328 328 326 325 325 326 325 324 325 326 326 323 322 322 322 323 324 325 325 326 327 329 331 331 331 329 327 326 326
333 333 333 333 334 334 334 333 332 331 332 330 329 329 329 329 328 328 330 330 332 332 331 330 330 328 326 328 327 327 324 326 327 328 326 325 324 324 323 325 323 325 326 325 323 323 322 322 324 323 324 326 326 327 328 330 331 332 329 328 327 327
332 332 332 333 332 332 331 330 329 329 328 328 329 329 328 327 328 328 329 331 332 332 333 331 330 329 329 329 326 326 326 324 325 325 325 324 324 324 324 322 324 323 324 323 323 321 323 323 322 323 325 326 327 327 327 329 330 331 330 329 331 331
331 332 331 331 330 329 329 328 327 328 327 327 328 329 327 326 326 327 329 331 331 331 332 331 329 329 329 328 326 326 326 324 324 323 324 324 321 322 323 322 321 323 321 323 324 323 323 322 321 323 324 324 324 325 326 327 328 329 330 331 331 331
330 330 330 328 328 328 326 326 327 326 325 324 325 324 325 324 326 326 329 331 331 332 331 331 330 329 328 332 328 326 327 325 324 324 324 324 323 322 323 325 324 323 320 319 321 323 321 321 321 319 321 321 322 324 327 327 327 328 329 330 331 331
328 329 329 329 328 326 326 327 326 324 322 322 325 324 323 325 325 328 328 330 331 332 331 330 330 328 329 328 327 326 326 326 325 324 325 324 322 327 324 323 322 321 322 319 321 323 322 316 313 314 316 315 319 320 322 324 326 327 328 329 329 329
328 327 326 326 326 325 324 325 324 322 325 321 322 323 325 327 329 329 328 330 331 331 330 329 329 330 328 328 327 326 325 323 323 327 326 325 324 322 322 322 321 322 320 320 320 320 321 317 313 313 313 314 311 313 318 321 324 325 327 328 328 328
327 326 325 326 326 324 325 323 324 324 323 322 322 325 324 325 325 327 327 329 329 330 330 329 329 330 328 327 326 325 324 323 323 323 323 323 322 323 322 322 320 319 319 317 316 318 322 320 317 316 310 308 309 312 311 315 318 322 326 328 328 328
325 325 324 326 324 325 325 323 323 323 323 323 324 323 323 321 321 323 324 324 325 326 328 328 328 328 328 325 324 323 323 321 321 320 321 321 321 323 323 323 322 320 319 320 316 315 317 320 319 317 315 311 308 306 309 315 318 318 323 324 326 328
325 325 325 324 324 326 324 323 322 321 321 320 319 320 320 320 320 320 320 319 321 323 324 322 322 324 326 324 319 318 318 319 319 318 317 318 317 317 318 321 323 321 318 317 320 314 316 318 320 324 318 314 311 310 312 316 314 311 319 322 324 325
325 325 325 324 324 326 323 323 322 322 321 321 320 319 317 317 319 316 319 318 318 318 319 319 318 318 320 320 317 316 317 317 318 317 319 318 317 316 317 318 321 320 320 320 317 315 317 318 317 319 319 319 319 316 319 314 309 315 312 317 321 321
326 326 326 324 323 325 323 322 321 320 321 321 321 319 318 317 317 319 318 317 317 315 316 317 316 316 317 320 318 317 317 318 318 318 320 319 317 316 319 319 317 317 319 320 319 319 317 316 317 315 316 316 317 317 313 310 314 314 314 312 315 320
325 325 324 324 324 323 323 321 320 320 319 319 319 319 320 320 318 318 316 314 315 314 314 313 315 316 315 319 321 318 317 318 318 317 318 317 314 315 315 316 317 317 317 316 316 316 317 314 313 314 315 314 316 314 315 315 314 313 313 313 313 314
324 324 323 323 322 321 322 320 319 319 319 318 319 319 318 316 315 315 315 313 313 313 313 313 313 312 314 316 318 319 318 317 315 316 317 314 314 314 314 314 313 314 315 315 314 317 317 314 314 313 314 315 314 312 314 313 311 313 312 311 313 313
323 322 322 322 320 320 321 320 319 319 319 318 318 318 316 315 314 313 313 312 312 312 312 313 314 314 314 316 316 318 315 314 316 319 316 314 313 314 312 312 312 312 312 313 312 312 312 311 311 313 313 316 317 316 313 309 312 311 308 309 313 314
321 321 321 321 319 319 320 320 319 318 318 319 319 318 316 314 313 313 312 311 311 312 311 311 311 312 313 314 316 315 316 314 315 313 312 312 312 313 312 312 311 310 310 309 310 310 308 308 308 308 310 312 315 314 311 314 315 314 313 314 315 313
321 319 320 319 318 318 319 319 319 319 318 318 318 317 316 315 314 313 312 310 311 310 310 312 310 312 310 312 314 313 313 313 311 312 312 312 311 311 310 310 310 309 308 308 307 307 307 306 307 309 307 307 310 312 313 315 315 314 314 315 315 312
320 319 318 318 319 318 318 319 318 319 319 318 317 317 316 315 314 313 313 312 311 310 310 311 310 311 310 311 311 312 312 310 311 311 311 309 309 310 309 309 308 308 308 306 307 307 307 306 306 305 306 308 308 311 313 316 315 316 315 315 312 312
320 319 318 317 318 318 319 318 317 318 319 318 318 317 315 316 314 312 312 312 311 309 310 310 311 310 312 310 310 310 311 311 310 310 309 310 311 308 309 310 309 309 309 306 307 308 306 306 308 306 306 308 310 312 314 314 315 315 316 316 315 313
321 319 318 318 317 318 319 318 318 318 318 319 319 317 316 316 313 313 313 313 311 310 311 311 310 311 311 309 310 311 311 309 308 308 308 307 307 307 307 309 307 308 308 311 307 306 304 306 306 305 305 305 309 308 312 315 315 315 315 314 313 312
319 318 317 317 316 317 318 318 318 318 318 318 317 316 316 314 313 312 313 312 312 312 312 311 312 310 309 308 309 310 310 308 308 308 307 308 307 306 306 307 306 306 306 306 307 305 305 307 304 305 306 305 306 307 309 313 315 315 314 313 313 313

ECMWFFLT2_sfc_thetae_066.txt.gz
Theta_e
346 347 347 346 345 345 348 349 348 349 349 349 349 349 348 348 346 346 345 346 344 342 342 342 343 343 346 344 345 345 344 343 343 343 342 342 341 342 341 341 340 339 339 337 336 336 338 339 340 342 341 343 343 335 333 335 336 337 336 338 338 334
346 346 345 344 344 345 346 345 344 345 345 346 347 346 344 344 345 344 346 343 341 343 340 340 343 346 343 344 343 344 343 343 342 342 342 342 342 340 340 339 338 339 338 336 334 328 329 336 339 342 341 343 337 332 333 334 335 336 336 336 337 337
345 344 342 343 344 345 344 342 342 343 344 346 346 344 343 341 339 339 340 340 341 339 339 340 341 344 344 344 344 343 343 343 343 342 342 341 340 340 340 339 339 337 336 334 328 327 326 326 327 339 340 336 333 332 333 334 334 335 335 336 335 339
344 343 342 342 342 341 341 342 341 340 341 341 340 339 338 338 338 338 338 338 338 340 339 338 345 346 347 342 342 344 343 343 343 343 342 341 341 340 339 338 337 334 332 331 328 329 327 327 327 327 328 332 332 332 333 334 334 334 334 337 334 340
343 343 342 341 340 339 340 341 340 340 340 340 338 337 336 336 337 337 336 336 336 337 337 338 339 340 338 338 337 338 338 338 338 337 338 334 333 331 330 327 328 330 328 329 329 329 328 327 328 327 328 331 332 332 333 334 334 334 334 337 337 343
342 342 341 341 339 340 340 339 339 339 339 339 338 336 335 336 335 335 335 336 336 335 336 337 338 338 337 336 336 335 335 336 335 335 336 333 331 329 328 328 329 329 329 330 330 329 331 329 327 326 327 330 332 332 333 333 334 334 335 336 339 343
340 341 340 341 340 339 338 339 338 338 337 337 338 336 335 335 335 334 335 336 335 334 335 337 338 338 337 336 335 335 334 334 334 334 335 332 330 328 329 329 329 329 329 330 330 330 328 327 326 326 327 330 332 332 332 333 333 334 334 336 340 342
340 340 339 340 338 336 336 336 338 340 337 339 338 336 336 335 335 334 335 335 336 335 336 337 338 337 336 335 334 334 333 333 334 333 333 331 328 327 329 329 328 327 329 329 330 330 328 328 327 329 331 331 332 332 332 333 333 334 334 336 339 342
339 339 339 338 336 335 335 336 338 336 337 340 337 337 337 335 333 334 334 335 337 335 336 337 336 336 336 334 333 333 332 332 332 330 329 327 328 326 328 328 328 327 328 328 328 329 329 328 328 330 331 332 332 332 332 333 334 334 335 337 338 342
338 338 338 336 334 333 334 335 336 336 338 339 337 337 337 335 334 334 333 333 335 335 335 335 335 335 334 333 333 332 331 330 330 329 328 327 328 328 328 328 327 327 327 328 329 330 329 328 328 330 331 332 332 333 333 333 334 335 335 335 337 341
338 338 337 334 333 332 334 334 335 336 338 337 337 337 336 335 334 334 333 333 333 335 334 335 335 333 332 332 331 330 329 329 328 328 328 328 328 327 327 327 326 326 327 327 327 327 328 328 328 330 331 332 332 333 333 334 335 334 334 334 335 336
338 337 335 333 332 331 331 333 335 335 337 338 338 336 335 334 334 333 334 332 333 334 335 334 333 332 331 330 330 330 330 329 328 328 328 328 329 328 328 328 329 329 328 328 327 327 327 327 326 328 330 331 332 332 333 334 334 334 333 333 334 335
337 336 334 332 331 331 332 334 334 336 337 338 337 336 334 333 332 333 333 332 333 334 334 333 332 332 332 330 330 330 329 329 329 329 329 330 331 331 330 329 329 329 328 327 326 326 327 326 326 326 329 330 331 331 332 333 333 333 334 334 335 334
337 335 333 332 331 332 333 334 335 337 337 336 336 335 334 332 333 332 332 333 333 334 333 333 332 330 329 329 329 329 329 329 329 330 330 330 329 329 329 329 328 328 328 325 324 324 325 326 326 327 327 328 329 329 330 331 332 332 333 334 334 334
336 334 333 331 331 332 333 334 335 336 336 335 335 334 333 332 332 332 332 332 332 333 332 331 331 329 328 329 329 328 328 330 329 330 329 329 329 328 327 327 327 326 326 326 325 326 324 325 326 326 327 329 329 329 330 330 331 332 333 333 333 333
335 332 331 331 331 332 333 334 336 336 335 335 334 333 332 332 332 331 331 331 331 333 331 330 329 329 328 328 329 329 328 329 330 329 329 329 329 327 326 326 327 327 325 325 325 324 324 325 326 326 328 329 330 331 330 331 331 331 332 332 332 331
333 332 331 331 332 333 334 335 335 334 334 334 333 332 332 331 332 331 331 332 331 332 330 329 329 328 328 327 327 328 329 330 330 329 329 328 326 326 326 325 325 327 326 324 324 324 323 324 325 326 327 328 329 331 331 331 331 331 331 330 330 330
333 333 332 332 332 333 334 334 333 333 333 332 332 332 331 332 331 330 331 332 331 331 331 329 328 328 327 328 328 328 328 329 328 328 328 327 326 325 325 325 325 327 327 325 324 324 323 324 325 325 326 327 328 330 331 331 332 332 330 329 329 329
333 332 332 333 333 333 332 331 331 331 330 330 331 331 331 330 329 330 330 332 331 331 332 329 329 328 329 330 327 327 328 328 329 327 326 326 326 325 324 324 325 326 327 324 324 324 324 325 325 325 325 326 328 328 330 331 331 330 330 330 332 332
332 333 333 332 332 330 330 329 327 328 329 329 329 329 329 329 329 329 330 331 331 330 331 330 329 329 329 328 327 328 327 327 327 326 325 324 323 324 323 322 325 326 325 325 325 324 325 324 324 324 324 325 327 328 328 329 331 331 331 332 331 331
331 332 331 330 329 329 327 327 327 327 326 327 328 328 327 327 327 328 330 330 331 331 330 330 330 329 328 331 329 328 327 327 326 326 326 325 324 325 326 326 325 325 324 323 322 323 324 324 323 321 323 323 324 327 328 328 329 330 330 332 333 332
331 331 331 330 330 329 329 328 327 326 326 326 327 325 324 325 326 329 329 329 330 330 330 330 330 329 330 330 328 328 328 327 326 325 325 325 324 326 325 324 325 324 323 322 321 323 323 321 319 319 318 318 321 324 326 327 327 328 329 330 330 331
330 330 330 330 329 328 328 328 327 325 326 324 324 324 325 326 329 328 328 329 330 330 329 328 329 330 329 329 328 328 328 326 325 327 326 326 326 325 324 324 325 324 321 322 323 323 323 319 316 317 318 317 314 315 320 323 326 327 328 329 330 330
329 329 329 330 328 327 327 325 324 324 323 322 322 325 325 325 326 327 327 329 329 329 329 329 329 330 329 328 327 326 325 325 325 327 326 325 325 325 323 321 321 323 324 322 322 322 323 320 319 318 313 312 313 315 312 316 319 323 328 328 329 329
328 328 328 329 327 326 325 323 323 323 325 324 324 324 324 323 325 327 326 327 327 328 329 329 329 329 329 327 326 325 325 324 324 324 325 326 326 325 324 322 322 323 324 324 319 317 321 322 321 321 317 313 312 311 310 316 319 319 324 324 326 327
327 327 327 326 326 325 324 322 322 322 321 320 320 321 322 323 325 325 325 323 327 327 327 326 326 327 328 326 324 323 324 323 323 324 324 325 325 323 323 324 323 324 322 322 323 317 319 322 322 323 319 317 315 314 313 318 316 311 321 324 324 326
326 326 326 326 325 324 322 322 322 322 322 322 320 317 319 322 324 319 321 323 323 322 323 324 322 323 324 324 321 320 321 322 323 322 324 322 322 323 324 324 324 322 322 321 321 320 320 319 320 321 319 320 321 320 322 317 312 316 313 319 322 322
326 326 325 325 324 324 322 321 320 320 321 321 321 319 320 319 319 320 320 319 318 316 317 318 319 319 321 321 319 318 319 319 319 320 322 320 320 318 319 321 324 322 321 322 322 322 319 320 320 319 318 319 320 320 316 314 319 317 315 313 315 321
325 324 323 324 323 322 323 321 321 321 320 320 320 319 319 319 319 320 317 315 316 314 314 314 316 318 318 320 322 318 318 318 319 320 322 318 317 318 319 319 320 320 321 320 321 320 320 319 318 317 317 317 318 317 317 317 316 317 317 315 315 316
324 324 323 323 322 321 321 321 320 320 319 318 319 317 317 317 317 317 316 313 313 313 313 313 313 315 317 318 319 320 318 318 317 319 320 316 316 316 316 317 318 319 319 319 319 321 321 319 318 319 319 318 316 316 317 317 316 317 317 318 315 315
324 323 322 321 321 320 319 320 320 320 319 317 316 315 315 315 315 315 314 312 312 312 312 312 314 314 316 317 318 319 316 316 319 322 318 315 315 315 314 314 314 316 317 318 317 317 317 317 317 318 318 320 319 319 317 314 315 315 316 316 315 315
322 322 320 319 319 319 319 319 319 319 318 318 316 316 315 314 314 314 312 311 310 311 310 311 312 314 315 316 317 316 317 315 315 314 314 314 314 313 313 313 312 313 312 312 314 316 315 316 317 318 318 319 319 317 314 318 318 316 318 318 317 316
322 320 319 318 318 318 318 318 318 318 318 318 317 316 315 314 313 314 312 311 311 311 310 312 311 313 313 314 316 314 314 314 314 315 313 313 312 312 312 311 311 310 310 311 311 313 315 315 317 318 318 316 318 315 316 318 318 317 319 320 318 315
321 319 318 317 317 317 317 317 317 318 318 318 316 315 314 314 313 313 312 312 311 311 311 312 311 312 312 314 314 315 314 312 313 313 313 311 312 312 311 310 310 310 309 308 309 309 309 309 309 309 313 314 316 315 316 318 318 319 319 318 316 315
320 318 317 316 317 317 317 317 317 318 319 318 317 315 314 315 313 312 312 312 311 310 311 310 311 311 313 312 312 312 313 312 311 311 312 312 311 310 311 311 311 310 310 308 309 310 308 309 309 309 311 313 314 315 317 318 319 320 320 319 317 316
320 318 317 317 316 317 317 317 317 317 318 318 318 315 314 314 313 313 312 312 310 310 311 310 311 311 311 312 312 313 312 310 309 310 310 310 310 310 310 310 309 309 310 312 308 308 307 308 308 308 310 311 316 315 316 317 319 320 320 319 319 317
319 315 315 315 316 316 316 316 316 318 317 317 316 314 314 313 312 312 312 311 311 310 310 310 311 311 310 310 311 311 310 309 309 309 309 309 309 309 309 309 308 308 308 308 310 307 308 308 307 308 308 310 314 314 315 317 318 318 318 318 318 318

ECMWFFLT2_sfc_thetae_069.txt.gz
Theta_e
349 350 351 351 351 351 352 350 350 349 349 350 350 350 349 349 348 348 348 346 344 350 350 347 347 346 347 348 345 345 346 345 345 344 343 342 343 341 339 339 340 339 338 339 339 340 341 342 343 344 343 342 341 342 343 343 343 341 340 339 340 337
348 349 349 349 350 350 349 350 352 350 349 350 348 347 349 350 348 349 347 349 350 347 348 349 348 347 347 346 345 345 344 343 343 343 343 342 341 339 339 340 340 339 337 337 336 342 343 342 342 344 343 342 342 341 343 344 343 341 340 340 340 338
348 348 348 349 349 347 349 351 351 348 348 347 348 348 350 348 350 348 348 349 348 348 346 346 347 346 346 344 344 343 343 343 343 343 341 341 340 339 339 339 338 338 336 335 340 341 341 341 343 343 344 343 342 342 344 344 343 342 341 340 340 339
348 348 347 347 348 347 350 351 351 348 348 348 350 349 349 348 347 346 345 346 346 345 345 347 345 345 344 344 344 344 343 342 342 342 342 341 341 340 339 338 337 336 338 340 340 339 338 339 341 346 347 345 342 343 343 343 341 342 342 340 339 340
346 346 346 346 347 347 348 348 348 347 346 347 346 346 346 346 345 345 345 345 344 345 345 345 344 344 343 343 343 343 343 342 342 341 341 341 341 339 340 339 338 337 339 338 338 340 340 339 341 342 345 345 343 343 343 343 342 341 343 342 342 341
345 345 347 346 346 345 346 347 345 346 343 344 345 344 345 344 344 345 344 345 345 347 348 345 343 342 342 342 341 341 341 341 341 341 342 342 340 340 339 338 338 338 338 339 339 340 340 340 340 342 343 344 343 343 342 341 341 341 343 342 342 342
344 345 345 346 347 346 344 344 344 344 342 342 344 343 342 343 344 344 344 345 346 347 347 343 341 341 340 341 340 340 340 341 341 341 341 341 339 339 339 338 339 339 341 341 338 338 339 339 339 340 343 342 342 342 343 342 341 341 342 341 342 342
343 343 343 344 344 344 343 342 343 344 344 342 343 342 341 342 343 345 344 345 344 345 345 341 341 340 339 340 340 341 341 341 341 340 340 340 337 337 338 337 338 340 340 340 337 338 338 336 337 341 342 342 342 343 343 341 342 342 343 342 343 342
343 342 342 343 341 340 341 343 343 344 343 343 341 341 340 339 339 342 345 345 345 344 343 342 341 340 340 338 339 341 341 340 341 340 340 338 338 337 337 338 340 341 343 342 342 341 340 340 339 341 341 341 341 341 342 342 342 342 342 342 342 341
342 341 341 341 339 338 340 341 341 342 342 343 341 341 339 336 337 339 342 344 345 344 343 341 341 340 339 338 338 340 340 340 341 341 340 338 338 338 338 340 341 341 341 340 339 340 340 339 338 340 340 340 341 341 342 341 341 342 343 344 343 341
341 341 341 339 338 338 339 339 341 343 341 341 341 341 339 338 338 339 341 344 344 344 343 343 340 339 340 339 340 340 340 340 340 340 340 339 339 338 337 339 339 340 340 339 339 340 340 340 340 339 340 340 341 343 342 342 341 342 341 343 343 343
340 340 340 338 337 337 337 340 341 342 341 341 341 341 338 338 338 339 341 343 344 344 342 341 340 339 338 339 341 341 340 340 340 341 341 340 340 339 339 337 336 336 337 338 338 340 340 340 338 338 339 339 341 341 341 342 341 342 341 343 344 345
341 340 338 337 336 336 335 338 338 339 339 339 340 338 339 338 338 339 341 342 343 343 343 341 341 340 339 340 339 338 338 339 340 341 339 339 338 339 339 338 337 337 338 339 339 338 338 337 336 336 338 338 340 339 339 339 340 341 342 342 344 346
340 338 337 336 335 334 335 338 339 339 340 340 339 338 339 338 340 340 340 342 342 342 342 342 340 340 340 338 339 339 339 339 339 339 338 338 338 339 338 339 338 339 337 338 337 338 337 334 335 336 337 338 338 340 340 339 339 340 342 343 344 343
337 335 336 335 335 335 338 338 339 339 340 340 339 338 338 338 339 340 341 342 342 341 340 340 341 340 339 340 339 339 339 338 338 338 337 337 338 337 338 338 337 336 337 335 335 335 334 334 334 334 335 336 336 337 338 337 339 340 341 341 337 337
334 334 333 334 334 336 335 338 340 340 339 339 339 337 337 337 339 339 341 340 341 341 340 340 340 341 341 342 341 340 339 338 338 338 338 337 337 336 336 336 337 338 335 333 334 333 332 332 333 333 335 336 336 336 337 337 338 338 340 336 335 332
334 334 332 333 334 334 336 337 338 337 337 338 338 336 337 338 338 339 339 340 340 341 341 341 342 343 344 343 342 340 338 338 338 338 337 337 337 337 336 335 334 335 336 333 332 331 331 331 331 332 333 334 335 336 336 337 338 338 340 332 333 332
335 334 333 333 333 334 336 337 337 336 337 337 337 337 337 338 339 339 339 340 341 341 341 341 342 343 344 343 341 339 337 337 338 337 337 337 337 337 337 337 333 334 334 334 332 331 330 331 331 330 331 332 334 336 335 335 336 337 338 333 332 332
334 333 333 334 334 335 336 335 335 337 335 335 335 336 337 337 339 339 340 341 341 342 341 341 341 341 341 340 338 337 337 337 338 337 337 336 336 336 336 336 335 332 334 334 332 331 331 331 330 330 330 331 332 334 335 335 335 335 336 335 333 332
334 334 334 333 334 334 333 332 332 332 333 333 334 334 336 337 339 339 340 340 340 341 340 340 340 340 340 338 337 337 336 336 337 337 336 335 335 335 335 334 334 333 332 331 332 331 331 330 329 329 329 331 331 333 334 334 335 335 337 337 336 335
333 334 333 332 332 332 330 331 332 331 330 332 332 333 334 336 337 339 340 339 340 340 340 339 339 339 339 337 337 337 336 336 337 337 336 336 337 337 336 336 334 333 331 329 329 332 332 332 328 325 329 329 328 330 332 331 331 332 335 336 337 335
333 334 333 332 331 332 332 332 331 330 330 331 331 331 331 334 336 338 339 339 340 340 340 339 339 339 339 337 335 335 335 335 337 337 336 336 336 335 335 334 333 331 332 330 328 331 332 332 327 325 322 322 325 328 330 331 330 331 334 334 336 336
333 333 333 333 332 332 333 334 333 331 331 330 333 334 334 336 337 336 338 339 340 340 339 338 338 338 338 337 337 336 335 336 336 337 335 334 334 333 334 334 334 331 327 330 329 332 332 333 326 327 327 323 320 320 325 327 330 330 332 335 336 335
333 333 333 333 333 334 334 335 334 333 333 332 331 333 334 335 335 336 336 337 338 338 338 338 338 338 338 337 337 336 336 335 335 336 336 334 333 332 333 334 334 333 332 326 327 328 331 332 330 326 320 321 320 320 316 320 323 327 332 331 332 333
332 332 333 333 332 333 332 331 331 331 332 331 332 332 331 331 333 334 334 335 336 337 338 338 338 338 338 337 337 337 336 336 335 334 335 336 334 334 334 336 335 334 333 330 326 328 328 332 332 333 326 319 318 317 318 319 321 323 329 329 330 331
332 332 332 332 332 332 331 330 329 328 327 328 327 327 328 328 329 331 332 335 336 337 338 338 338 338 337 337 337 337 337 336 335 334 335 337 336 335 335 336 335 336 334 334 330 327 326 330 331 331 331 330 329 322 319 321 320 314 325 327 328 329
331 331 331 331 332 332 331 332 332 332 332 330 328 329 332 332 332 333 335 334 335 338 338 338 338 338 337 337 337 337 337 336 336 336 336 337 335 335 335 337 337 336 335 334 332 329 327 327 328 329 329 331 333 331 329 322 318 320 316 324 327 326
330 330 331 331 331 332 332 333 334 334 333 332 331 330 331 333 335 334 334 334 335 336 337 338 337 336 337 337 336 337 337 337 335 335 335 335 336 337 337 337 337 337 337 335 334 332 330 329 326 326 328 330 331 332 331 330 328 324 320 316 317 323
330 330 330 331 331 333 334 334 334 333 332 333 333 332 332 332 333 335 333 333 333 333 334 335 337 337 337 336 336 336 336 335 335 335 334 334 335 335 337 336 334 334 334 335 335 335 333 330 331 328 327 328 329 328 328 330 330 328 321 318 316 318
329 330 330 331 332 334 334 334 334 334 333 330 331 331 332 332 333 334 332 331 331 331 332 333 335 335 335 334 334 335 334 335 335 333 332 333 334 335 335 336 335 334 334 335 335 334 333 333 333 332 331 330 328 327 326 325 325 325 324 324 317 318
329 330 331 331 332 333 333 334 334 334 333 331 331 331 330 331 331 331 329 329 330 329 330 331 332 333 333 331 333 333 334 333 333 333 331 332 333 332 333 334 334 334 333 333 333 333 333 333 333 332 331 330 329 328 326 324 324 325 323 320 319 319
328 329 331 332 333 332 332 333 334 334 332 332 332 331 330 329 330 330 330 327 327 327 327 329 330 331 330 331 332 332 332 332 331 332 331 332 332 332 332 331 332 333 333 334 334 333 334 332 332 332 332 332 331 332 330 329 327 328 325 323 322 319
327 329 330 331 333 332 332 332 332 332 332 332 333 333 332 331 331 330 329 327 325 325 325 326 327 329 329 330 331 330 331 330 330 331 330 329 329 328 329 329 330 330 331 332 332 334 332 333 333 332 331 332 331 329 330 331 330 329 328 326 323 319
327 330 330 331 331 330 331 332 332 332 331 331 332 332 331 331 331 330 329 327 327 325 325 327 327 329 328 328 329 330 331 331 330 328 327 327 327 326 326 325 327 327 328 329 330 333 333 334 334 334 334 331 331 329 330 330 330 329 326 324 321 320
323 326 328 330 329 329 330 331 331 332 331 332 330 330 331 331 330 328 328 328 327 327 326 325 327 327 326 328 327 327 329 328 327 327 326 326 325 325 326 323 323 325 324 325 326 328 329 330 330 329 332 332 332 330 330 329 329 329 328 327 324 322
322 322 323 326 328 329 329 330 330 331 331 330 329 330 329 329 329 330 328 328 327 326 326 325 326 326 326 327 326 327 326 326 326 326 326 325 325 324 325 324 323 324 322 321 324 324 324 325 327 328 330 331 331 329 331 330 330 330 329 329 327 325
322 321 321 323 327 328 328 327 328 330 330 329 328 328 328 328 328 328 328 328 326 325 326 326 325 326 326 327 328 327 326 325 326 326 326 326 325 324 324 324 323 323 322 323 324 322 324 325 325 326 327 330 330 330 330 331 330 330 330 330 328 328

ECMWFFLT2_sfc_thetae_072.txt.gz
Theta_e
348 351 353 352 353 355 353 351 351 350 349 349 349 348 348 348 348 347 348 348 346 351 352 352 350 348 348 350 346 346 346 345 345 344 343 343 343 341 340 341 341 341 341 342 343 343 344 344 343 342 343 341 341 343 346 345 344 343 343 341 340 337
349 353 352 350 351 352 352 351 351 351 350 352 350 349 351 351 348 349 347 350 348 348 349 349 350 348 350 349 348 345 345 344 344 343 343 342 341 340 341 341 340 340 340 341 341 342 344 345 344 343 342 343 342 345 346 347 345 342 340 342 340 339
352 352 351 348 348 352 351 351 350 347 347 346 348 349 348 349 349 350 350 349 348 349 350 350 348 346 349 344 347 344 344 343 343 343 342 341 340 341 341 340 340 340 339 338 341 342 342 343 345 343 343 343 347 345 347 347 345 344 342 341 340 338
351 350 348 347 347 348 349 348 347 344 344 348 348 349 351 351 349 349 349 350 350 352 350 348 344 345 345 345 345 344 343 343 342 342 341 340 340 340 340 339 339 337 339 339 340 340 340 342 345 347 347 345 345 345 346 346 342 344 343 340 340 339
350 351 349 346 347 346 349 348 346 343 347 348 348 348 347 348 349 350 351 350 347 347 344 344 346 344 342 343 343 344 344 342 343 343 341 342 339 336 339 336 337 339 339 338 337 339 340 340 343 345 347 346 345 345 344 345 343 343 343 343 342 341
347 350 351 349 348 347 349 348 346 345 349 347 346 346 347 348 348 350 348 348 345 345 344 342 343 341 342 342 342 340 341 341 340 341 343 341 340 338 340 340 341 339 338 338 338 339 339 340 341 343 345 346 344 344 343 343 343 343 344 343 343 341
347 348 345 348 350 347 350 347 344 347 349 348 348 347 346 347 348 348 349 348 347 346 343 341 342 343 343 344 343 342 341 341 342 340 343 343 342 342 340 339 339 340 339 338 337 338 339 340 341 341 343 343 344 343 344 342 343 343 343 341 342 342
346 347 344 346 347 350 347 345 345 345 348 346 346 346 347 348 349 349 351 351 351 348 344 341 343 342 342 345 343 345 344 342 342 342 344 343 340 340 339 341 342 341 339 338 337 338 336 337 339 342 342 343 343 344 344 343 344 345 342 343 342 343
347 346 347 348 350 347 347 347 344 347 347 344 345 346 349 350 349 349 351 351 350 347 345 344 343 342 343 344 344 344 341 340 342 340 343 342 341 340 340 340 341 341 341 341 341 339 338 338 339 341 342 342 343 343 344 345 345 345 344 345 342 343
346 346 347 349 348 348 346 345 344 345 347 347 346 347 346 346 351 350 349 347 349 351 346 344 343 342 341 341 341 345 344 342 342 342 344 341 342 342 340 341 341 343 341 341 341 340 339 337 336 340 340 342 341 342 344 343 344 344 345 345 341 345
348 347 346 345 344 347 348 347 347 345 347 347 346 347 345 347 347 348 348 349 344 347 347 345 344 342 342 339 341 343 342 343 342 343 343 342 344 344 343 341 344 342 342 342 342 342 342 340 339 337 340 340 341 343 343 344 343 343 343 345 340 341
346 343 340 339 341 342 346 348 346 343 344 343 345 345 344 347 347 347 349 347 349 348 348 347 345 344 343 341 341 341 341 341 340 341 343 343 343 344 343 343 346 346 345 345 343 343 345 343 342 339 339 340 342 342 341 342 342 343 342 342 338 342
340 340 337 335 339 340 341 341 344 343 341 343 344 344 343 345 346 347 343 350 348 347 346 346 346 345 343 341 342 341 341 340 341 342 343 344 345 345 343 342 344 344 343 344 343 343 342 343 342 343 344 341 342 338 339 340 341 342 343 340 337 336
338 336 336 337 336 338 338 339 344 342 343 343 343 343 345 345 347 347 348 348 349 347 346 346 345 343 342 341 342 341 340 340 342 342 343 344 342 342 341 341 341 342 340 341 340 342 340 340 339 341 343 343 341 343 342 339 346 342 337 337 340 338
336 336 337 337 337 337 338 339 340 341 341 340 341 342 345 344 346 345 343 348 348 347 346 346 345 343 342 342 341 342 341 341 344 345 342 343 343 343 341 341 339 340 340 339 340 341 341 341 340 339 341 343 343 341 344 342 342 337 338 340 343 342
336 337 337 338 338 339 338 340 340 340 342 340 341 341 341 344 341 342 342 343 346 346 346 346 346 346 343 343 343 344 343 343 343 343 343 343 343 342 341 340 340 340 336 336 338 338 339 339 339 338 339 340 340 340 340 340 336 337 339 340 342 343
336 338 337 337 338 339 338 338 339 339 339 343 342 341 340 343 341 342 341 344 344 345 346 345 346 346 345 343 343 344 344 344 344 343 342 342 341 342 341 339 339 340 340 336 335 337 338 338 337 338 339 339 339 339 339 337 335 336 339 340 341 342
339 339 337 335 337 337 338 339 339 338 341 342 342 339 341 342 342 343 344 343 345 345 346 345 344 343 345 344 345 345 345 344 342 341 342 342 340 342 341 339 337 338 339 339 336 336 336 337 337 336 337 336 338 338 338 335 337 336 341 340 340 341
338 339 337 337 337 337 338 336 339 336 340 342 341 342 342 339 339 343 343 343 343 345 343 341 343 345 346 345 345 345 343 342 342 340 341 340 341 341 342 339 337 337 338 338 336 337 338 337 336 335 335 336 337 338 339 338 339 340 339 340 340 340
339 339 338 335 336 336 338 339 336 338 337 339 341 339 341 341 343 343 343 340 340 342 342 341 343 347 347 345 344 343 343 343 342 343 341 339 339 339 340 340 338 336 335 334 336 336 337 336 336 336 335 337 338 339 339 338 338 338 338 340 340 339
337 338 336 334 334 336 333 335 336 334 332 334 335 339 339 340 341 342 343 341 339 340 344 346 346 346 346 344 344 344 344 344 343 343 343 341 342 341 342 341 339 337 335 334 333 336 337 337 334 332 335 335 336 338 339 339 337 337 336 337 338 338
335 338 337 336 335 336 338 336 334 332 333 334 335 335 337 340 341 342 343 344 346 346 346 346 345 345 345 344 343 342 343 343 343 342 342 342 342 340 341 340 339 336 337 333 334 336 336 336 331 329 328 329 332 334 336 336 334 334 336 335 336 336
336 335 336 336 338 339 340 341 338 336 336 335 338 339 339 341 342 343 346 346 347 347 345 344 343 343 345 343 343 343 342 342 342 341 340 340 341 341 340 340 339 336 334 335 335 338 338 336 328 332 333 329 325 324 328 331 332 333 333 334 334 334
333 335 336 337 335 337 339 341 337 334 338 338 337 340 341 342 343 343 343 345 344 345 343 343 343 342 342 343 344 342 342 341 341 341 340 339 340 338 340 339 339 338 337 332 332 333 338 338 334 331 325 325 326 325 317 320 323 330 334 333 332 333
333 334 335 333 334 335 334 333 335 336 337 337 338 338 339 338 341 341 342 343 342 343 342 341 342 341 339 340 341 342 342 342 341 342 340 337 337 338 338 338 338 338 337 334 331 333 335 337 337 336 330 325 324 320 321 324 324 325 331 333 331 333
334 336 335 333 335 335 333 332 331 330 330 330 330 334 333 334 336 337 338 342 342 342 341 340 339 339 337 338 339 342 343 341 342 341 339 337 337 338 338 337 338 339 337 337 334 331 332 336 337 337 338 335 334 323 325 326 325 317 329 332 331 333
336 335 333 334 335 334 334 333 334 333 333 332 331 334 336 338 338 338 341 341 340 342 340 340 340 339 339 339 339 340 342 341 340 341 340 339 338 339 338 338 338 338 335 335 335 330 331 332 335 337 337 337 338 337 333 327 321 322 319 325 330 332
336 335 335 333 334 332 333 334 334 335 334 337 333 335 338 339 341 341 340 339 339 339 339 339 339 338 338 338 338 339 340 340 340 340 339 339 340 339 339 339 339 338 336 335 334 331 329 331 329 331 335 334 336 337 335 333 329 325 323 320 322 329
335 335 335 334 334 335 335 334 334 338 337 338 338 337 337 338 338 339 338 337 337 336 338 339 337 338 338 337 337 337 337 337 337 335 335 335 340 340 340 340 339 338 337 335 335 333 333 330 332 331 332 332 330 330 332 334 333 331 326 322 321 323
334 335 336 336 338 336 335 339 334 339 338 338 337 335 335 336 337 336 336 336 336 335 336 337 338 337 337 336 336 336 335 335 336 334 332 332 332 333 334 334 336 338 339 337 337 335 334 333 334 335 332 331 328 328 328 329 330 329 328 328 323 322
334 335 337 337 337 338 338 335 339 339 338 336 335 334 333 334 334 334 334 334 334 334 334 334 336 337 336 335 337 336 335 334 335 335 332 332 332 331 332 333 334 335 336 337 336 337 335 332 332 332 333 332 331 327 325 325 327 328 328 326 324 324
332 334 336 336 337 335 335 339 340 341 338 337 335 333 334 333 333 333 333 331 332 333 332 334 334 334 336 336 337 336 336 335 333 334 333 334 333 331 332 332 333 334 334 338 339 338 337 335 333 331 333 332 329 330 330 329 329 330 328 326 327 324
331 334 334 336 337 337 339 339 340 340 340 338 337 336 335 334 333 332 332 332 331 330 330 330 331 332 335 336 334 334 334 332 332 333 334 332 331 333 333 332 333 333 334 337 338 338 336 336 335 332 331 332 331 331 331 332 333 331 331 330 328 323
332 335 336 336 336 337 338 339 340 339 338 338 339 338 334 334 334 333 333 332 331 330 329 331 332 332 333 334 333 333 334 334 333 333 332 332 333 334 333 330 331 332 335 338 338 338 336 337 337 335 335 333 334 332 333 334 334 333 331 329 326 325
333 334 334 334 335 336 338 339 339 340 339 339 338 335 334 335 335 333 331 330 330 330 329 330 329 333 333 334 335 335 335 334 332 331 331 332 332 332 332 329 330 333 333 334 336 337 335 336 336 336 336 335 334 335 333 333 333 333 331 330 329 326
333 333 335 335 335 334 334 336 337 338 337 337 336 335 334 336 336 333 331 330 331 330 330 330 332 333 335 334 333 333 331 330 330 330 331 330 330 329 330 329 329 331 330 330 333 332 330 333 334 335 336 336 334 332 335 334 334 332 330 331 331 327
333 334 334 334 336 335 335 333 336 336 336 335 334 334 334 336 335 334 332 331 331 331 333 332 332 333 334 334 333 331 328 329 330 329 329 329 328 328 329 328 328 329 328 329 329 327 328 328 331 333 335 335 334 334 334 336 334 333 334 333 329 326

ECMWFFLT2_sfc_thetae_075.txt.gz
Theta_e
346 346 347 347 348 349 349 352 351 351 351 350 350 350 350 349 349 349 350 349 348 349 350 349 349 347 349 348 347 347 346 345 345 345 344 343 342 341 340 340 342 343 343 344 344 344 345 343 343 342 341 343 341 340 345 342 340 340 340 339 338 336
345 345 347 349 347 349 350 349 349 350 350 351 350 350 351 348 350 348 349 349 349 349 347 348 349 348 348 347 347 346 345 345 344 344 344 342 341 341 340 340 341 342 343 344 344 345 344 343 342 343 343 342 341 345 345 345 342 339 339 338 338 337
347 344 344 345 347 347 348 348 348 347 348 349 350 349 348 350 347 348 348 347 349 346 346 345 348 347 346 346 346 345 344 344 343 344 343 341 341 341 342 341 340 340 341 342 345 345 344 343 344 343 343 344 345 345 344 345 342 339 340 339 337 338
342 344 345 344 347 347 346 347 345 346 347 346 346 347 348 347 346 348 345 348 347 350 348 347 347 347 347 347 346 345 344 343 343 342 341 341 341 341 341 340 340 340 342 340 343 342 342 344 345 346 345 346 344 342 344 344 340 339 340 338 336 338
343 341 342 343 345 347 348 343 342 342 343 343 344 348 347 348 347 345 347 348 347 347 346 348 349 349 345 345 345 344 344 343 343 343 341 340 338 337 339 336 336 336 336 338 340 341 341 341 344 345 344 345 345 343 345 345 339 338 340 340 338 340
343 344 345 347 346 345 344 342 340 340 342 343 344 346 346 347 348 346 346 347 348 347 345 348 347 346 346 345 343 343 342 340 343 341 340 339 337 337 337 336 335 334 337 340 340 340 340 340 342 343 344 346 343 343 342 341 343 339 340 341 340 339
342 342 342 347 346 347 345 344 342 343 342 341 346 346 344 346 347 347 346 346 345 346 343 342 342 343 343 342 340 339 338 338 339 338 340 339 339 337 338 337 337 339 341 337 336 337 339 339 339 337 341 343 346 340 344 341 341 340 341 340 340 340
341 343 343 347 346 340 344 343 344 345 346 345 343 345 346 347 347 345 347 347 345 341 339 337 340 342 341 340 340 340 342 338 339 339 341 341 340 339 339 341 341 338 336 336 334 336 336 335 336 338 339 342 344 341 342 343 345 340 340 340 340 342
340 341 343 343 342 340 340 344 347 348 346 347 346 346 346 346 346 349 347 346 347 344 340 341 338 341 341 343 343 345 342 342 342 341 343 339 338 341 341 339 338 337 338 337 336 337 335 336 337 338 344 338 339 339 340 341 340 342 342 341 341 342
341 342 342 341 340 338 344 344 344 346 347 346 344 346 346 344 346 350 348 347 348 350 343 341 341 341 342 343 344 344 343 342 342 342 342 343 344 340 338 338 340 339 335 337 340 338 338 337 335 337 340 339 337 342 342 340 341 340 342 341 341 341
341 341 338 339 340 342 344 343 343 347 345 347 347 344 343 345 347 339 345 350 352 351 347 344 342 342 343 343 344 345 343 343 341 341 344 344 345 342 340 340 340 340 340 338 340 340 334 337 334 335 336 335 341 342 335 338 338 343 343 342 341 341
341 341 338 337 340 342 344 348 345 344 345 344 349 348 346 345 345 347 347 350 351 349 348 345 345 343 341 342 343 343 344 343 342 342 343 341 342 343 340 337 344 347 345 345 342 342 342 339 337 334 335 335 337 335 338 340 339 339 340 341 341 341
341 341 337 337 341 343 345 345 343 344 343 344 345 346 343 345 343 344 342 344 345 345 343 345 348 343 340 341 343 343 341 342 343 344 344 344 343 342 342 344 344 344 342 342 343 342 339 342 340 339 341 335 340 338 337 339 339 339 340 341 344 342
342 341 342 342 342 343 345 345 345 344 344 345 344 344 346 345 347 341 343 343 342 341 341 343 345 343 342 341 342 342 341 342 342 343 344 345 342 340 340 338 341 340 340 341 340 342 338 338 338 340 337 341 337 340 341 339 340 339 340 339 341 340
339 341 343 344 344 343 344 345 344 344 346 346 342 342 347 344 350 340 340 341 341 341 341 342 341 343 341 343 343 343 341 342 342 343 342 342 342 342 343 341 337 338 338 339 338 339 339 339 338 339 340 344 339 339 340 339 341 341 341 340 341 340
341 341 343 344 345 344 344 344 344 343 346 344 343 344 346 346 340 341 339 342 344 343 342 340 340 343 347 344 342 343 346 344 343 343 341 343 345 342 342 341 341 340 335 336 336 336 338 339 340 341 341 341 341 339 339 339 340 341 342 340 338 338
341 341 341 343 344 344 343 343 342 343 342 343 341 344 345 349 342 344 344 342 342 340 340 339 339 342 344 340 341 342 345 344 343 342 343 343 343 342 342 342 341 341 339 334 332 333 337 339 339 340 339 336 337 339 339 340 341 342 342 338 337 340
341 341 341 342 343 343 342 342 341 341 343 343 345 345 344 342 342 345 344 339 341 342 339 339 339 339 342 340 340 341 341 340 343 344 344 343 342 342 342 342 340 340 339 339 339 334 336 337 338 337 338 336 338 341 341 341 339 341 339 338 337 336
340 340 340 342 342 342 342 342 341 340 344 344 346 345 343 343 342 341 339 337 339 339 337 336 340 341 339 343 339 339 342 343 343 344 343 341 342 341 342 341 340 339 341 339 336 336 337 338 337 337 337 337 337 338 340 341 342 340 338 337 338 335
341 339 339 339 340 340 339 338 338 339 340 341 341 340 343 342 343 341 339 340 338 339 339 338 343 343 343 340 340 340 340 340 343 342 341 340 338 338 340 341 340 339 338 337 339 339 339 338 338 338 336 336 336 336 338 339 337 338 340 339 338 339
340 339 338 338 338 338 336 334 336 336 336 337 338 340 339 341 338 339 338 339 340 341 341 341 342 341 341 340 339 338 338 342 342 341 341 340 339 340 341 341 339 339 338 335 335 339 339 339 335 333 335 334 336 336 336 336 336 337 338 339 338 340
340 340 339 339 337 337 338 336 335 336 336 336 337 337 337 339 338 339 340 340 341 341 343 343 341 339 340 338 338 341 341 342 340 340 341 340 341 339 339 340 339 336 338 336 335 337 339 336 330 328 327 329 332 334 333 333 335 337 338 339 338 337
340 339 339 339 337 337 340 340 339 340 338 338 341 341 340 340 338 338 339 340 340 342 340 340 340 339 340 337 340 342 339 340 341 341 339 339 338 338 338 338 337 335 333 335 335 338 338 338 333 332 331 326 324 325 327 331 334 333 334 336 336 337
337 337 338 339 338 337 337 340 340 339 340 342 340 340 338 338 338 337 337 340 341 341 340 338 341 338 337 339 341 341 340 340 340 341 340 338 337 334 337 337 337 336 335 330 331 333 338 338 335 331 322 322 324 324 317 323 327 332 335 335 335 337
336 336 338 338 339 336 337 337 338 339 338 337 338 336 335 335 333 334 337 338 340 339 340 340 341 340 340 341 342 342 340 340 340 340 340 338 336 336 334 336 336 335 334 333 329 332 336 338 337 335 331 325 321 319 322 325 327 327 335 333 333 335
335 334 337 338 339 336 334 338 335 334 332 331 330 330 330 331 333 332 332 336 339 339 342 342 342 342 340 342 343 343 342 341 341 340 339 337 338 337 336 336 335 337 335 336 334 331 331 335 338 336 335 332 329 324 322 326 327 318 331 333 331 332
336 334 337 338 338 338 338 337 336 334 334 334 331 330 335 335 335 337 338 342 341 344 341 339 339 340 339 338 343 343 343 342 341 341 340 338 337 336 335 335 336 334 337 335 335 329 331 332 334 336 336 335 335 334 333 326 321 322 318 326 333 329
336 334 337 338 337 338 337 337 336 334 333 333 335 334 333 334 337 340 339 340 341 343 339 338 338 338 339 338 341 342 343 341 341 340 337 338 337 337 338 336 338 338 337 336 335 332 330 332 330 332 335 334 332 335 335 331 329 325 322 319 324 327
334 335 336 337 336 336 337 336 334 332 332 335 333 333 334 335 336 338 341 341 339 337 338 339 338 338 338 338 339 339 339 338 339 337 334 338 338 337 337 337 338 338 337 335 335 334 334 332 332 331 332 333 331 333 333 332 332 329 327 321 319 322
330 332 333 334 335 336 338 337 336 336 335 334 334 334 333 333 336 339 339 336 336 336 337 337 338 338 338 337 337 338 336 336 336 334 333 333 334 338 339 339 339 336 337 335 338 336 334 335 336 334 332 330 330 329 329 330 331 330 327 327 320 320
331 332 334 335 335 335 336 336 336 336 334 332 334 332 333 332 336 339 335 334 335 335 336 336 338 338 337 337 337 337 336 335 336 335 332 332 333 331 333 334 334 335 338 335 334 335 336 338 336 334 333 332 333 330 329 324 325 328 324 322 322 323
334 334 336 336 336 335 336 335 336 335 334 332 333 333 332 333 335 334 334 333 334 334 335 336 337 336 336 337 337 336 336 336 334 334 333 334 332 331 332 332 333 333 333 338 338 337 335 335 335 333 334 334 332 333 329 330 328 327 326 326 325 322
333 336 338 339 337 337 338 336 335 333 333 332 332 334 333 333 335 333 333 333 333 333 333 333 334 334 335 336 335 335 335 332 333 334 333 332 332 333 332 332 332 332 333 335 336 337 335 335 333 332 333 335 333 333 332 335 333 330 331 327 327 322
334 335 336 337 337 337 337 337 335 333 332 331 332 334 336 333 333 333 333 332 331 331 330 332 332 331 332 334 333 333 333 333 332 332 332 333 332 331 333 329 331 331 333 338 338 337 335 336 335 334 333 332 333 333 334 333 332 331 328 327 325 324
334 334 333 334 336 336 336 336 335 334 333 331 331 333 333 333 333 332 332 332 332 331 331 332 331 332 333 333 333 332 333 332 332 332 332 332 332 333 332 330 331 333 334 337 338 337 336 336 333 333 333 332 333 331 333 334 330 333 328 329 327 326
335 335 335 333 335 335 336 335 335 334 333 333 333 334 334 332 333 334 334 332 333 333 333 333 334 333 332 333 332 331 331 331 331 331 331 331 331 331 331 331 330 332 331 331 333 332 333 334 334 335 335 335 331 332 332 332 331 332 328 330 329 328
335 335 334 336 334 337 336 334 333 334 333 332 333 334 333 333 334 334 334 333 331 331 332 333 332 333 332 332 332 332 330 330 331 331 331 331 330 330 330 331 331 330 330 330 330 328 329 330 332 333 335 335 333 333 331 332 332 331 332 330 328 326

ECMWFFLT2_sfc_thetae_078.txt.gz
Theta_e
342 346 345 347 349 350 350 351 350 351 350 349 350 350 350 350 349 349 349 349 348 347 348 348 347 345 349 347 347 347 347 346 345 345 345 344 343 343 342 341 343 345 346 346 345 345 345 344 343 344 345 343 345 339 342 338 337 336 334 334 335 334
340 343 348 346 347 348 350 350 349 348 349 350 350 350 350 349 350 349 349 348 347 347 346 346 347 348 345 346 347 347 346 345 345 345 344 343 342 342 341 342 342 342 345 345 345 342 343 343 344 344 344 345 340 339 346 339 336 335 335 334 335 335
340 342 345 347 346 348 348 348 347 348 348 349 349 349 348 348 347 347 347 347 348 347 346 346 346 346 346 347 346 346 345 345 344 344 343 342 342 342 341 340 342 342 343 345 343 344 342 343 342 343 344 342 340 342 343 336 336 335 334 334 333 337
341 342 344 345 347 346 346 346 347 347 348 348 347 347 346 347 346 346 346 347 348 347 346 349 346 347 346 344 345 346 345 344 344 343 343 341 341 340 340 341 340 342 340 339 339 343 342 342 342 343 341 342 343 344 338 338 336 335 334 335 333 340
343 344 344 345 346 346 346 344 344 345 346 344 345 345 346 346 346 346 346 349 345 348 346 346 346 345 344 343 342 341 342 341 341 341 341 338 337 337 338 336 336 337 335 336 337 339 342 342 344 343 342 343 341 336 334 338 336 335 334 334 335 340
343 344 345 345 346 346 348 344 342 342 344 342 342 345 346 347 347 347 347 350 346 347 346 344 345 343 344 343 341 341 341 341 341 340 338 338 336 335 334 334 335 334 334 337 336 342 341 341 342 343 342 341 333 334 334 340 339 337 335 335 336 338
342 344 345 346 343 343 342 344 344 342 342 340 344 343 343 345 346 347 348 349 348 346 345 344 344 344 343 343 342 341 341 341 340 339 336 338 335 336 334 336 334 334 334 335 338 339 341 340 338 337 338 334 336 338 339 343 339 337 336 336 338 342
341 344 343 344 341 341 342 341 342 344 339 339 344 341 341 344 345 348 348 349 349 348 345 342 342 342 341 342 340 341 342 341 340 337 336 338 336 336 335 337 336 336 337 339 337 334 335 337 337 339 334 333 336 338 338 339 339 337 337 337 338 341
343 344 343 343 340 340 340 341 342 338 336 340 341 342 342 345 345 346 347 345 344 348 345 342 341 340 340 339 339 340 339 338 337 335 335 339 337 336 336 343 342 339 340 338 337 334 335 337 338 334 331 335 337 339 338 338 341 339 338 338 338 340
342 343 342 341 339 338 339 340 340 338 338 342 338 345 345 343 347 346 341 341 345 345 346 341 340 340 339 341 346 347 344 345 343 343 343 341 343 344 342 341 341 340 335 337 338 337 338 334 334 333 336 336 338 338 338 340 341 339 338 338 339 340
344 343 342 340 339 339 340 339 340 339 339 344 345 345 345 345 344 341 340 342 342 340 343 344 341 346 344 344 344 344 345 344 342 344 343 341 344 344 341 342 340 341 343 338 338 341 337 331 333 337 339 336 335 337 337 340 341 342 340 338 338 338
343 340 340 340 339 341 340 341 342 340 339 344 344 344 343 343 341 339 340 340 341 341 345 341 345 345 344 342 343 343 344 342 343 343 345 343 344 344 343 341 345 348 347 345 344 342 340 334 333 337 336 335 336 338 337 339 342 342 340 338 338 337
342 341 341 340 340 342 342 340 339 341 343 345 345 344 342 341 341 339 339 340 340 342 342 341 345 342 340 342 345 344 342 343 345 344 344 344 345 344 344 346 344 345 345 344 344 342 335 333 336 336 336 336 339 337 338 339 340 340 339 338 338 337
342 340 340 342 343 343 345 342 341 344 345 344 343 343 341 340 343 342 340 338 343 343 341 343 343 341 338 336 338 339 340 342 345 345 347 346 344 344 342 342 340 340 340 341 341 340 335 331 337 337 339 340 338 338 338 338 338 338 339 337 336 335
341 339 341 343 343 344 345 343 343 343 344 344 342 340 340 340 341 341 342 342 343 343 342 343 343 342 341 339 337 335 336 341 344 346 346 346 346 342 344 340 340 342 340 339 340 339 336 333 335 334 338 339 337 338 338 337 337 337 337 336 335 334
341 340 341 343 344 344 345 345 344 344 344 344 340 337 339 340 339 341 342 342 343 343 342 342 342 343 341 339 338 337 341 341 344 349 348 348 346 344 341 346 343 341 339 335 334 336 333 333 334 334 336 337 337 337 337 337 337 337 337 336 336 335
340 341 342 343 343 343 344 344 343 341 341 343 339 338 339 338 338 340 341 344 343 341 342 341 340 341 340 339 338 342 344 342 341 337 340 344 344 347 345 342 342 340 341 335 334 333 334 333 333 335 336 336 337 336 336 336 337 337 337 335 335 336
341 341 342 341 342 342 343 343 343 340 339 341 338 337 337 338 338 340 341 340 342 340 340 339 338 341 339 341 342 342 340 340 339 338 336 337 342 341 343 346 344 343 339 338 338 332 335 333 334 336 335 335 335 337 336 335 335 336 336 336 335 334
341 341 341 341 342 342 341 342 342 341 341 340 337 337 339 340 340 339 339 340 341 341 340 339 340 340 340 341 341 340 340 339 338 337 338 336 337 341 343 343 342 339 338 337 338 337 336 334 333 335 335 335 336 334 335 337 334 335 334 334 334 335
341 342 341 338 337 339 339 337 337 338 337 338 338 336 336 338 339 339 339 339 340 341 339 338 340 341 341 340 337 338 340 335 337 336 334 334 333 340 342 341 341 340 336 336 339 341 339 335 334 333 332 334 335 335 335 336 334 333 334 334 334 334
340 341 339 337 337 337 336 336 337 335 335 337 335 336 336 336 337 339 339 339 340 340 339 338 340 342 342 341 339 340 339 335 337 335 334 332 336 338 343 342 340 340 336 333 335 338 338 335 329 329 332 331 332 333 334 334 332 332 334 334 335 333
336 339 339 339 339 338 338 336 336 334 335 336 335 335 334 336 338 339 338 339 340 341 341 340 341 342 342 339 339 337 337 336 337 336 334 334 334 338 342 343 340 336 338 333 334 339 338 332 328 327 324 323 327 328 331 331 333 333 331 331 333 332
338 338 338 340 339 337 339 338 337 337 338 333 336 338 337 337 339 338 338 337 338 339 340 341 342 342 341 340 338 337 336 336 337 335 334 331 336 339 341 340 338 337 334 336 335 338 338 334 327 329 328 324 320 319 325 329 330 331 331 331 332 332
338 339 339 339 339 341 341 340 336 335 335 335 334 337 337 338 337 337 336 337 337 338 339 341 341 340 341 338 338 336 336 337 332 337 336 334 338 335 339 339 338 338 337 329 330 333 337 335 330 328 320 321 321 320 316 320 323 328 332 330 330 331
339 339 339 340 340 339 338 337 338 337 334 334 336 335 334 333 335 335 336 336 335 337 339 342 341 340 337 338 337 337 337 338 338 337 337 339 338 336 335 336 337 335 335 333 328 334 334 337 335 335 325 321 319 317 318 321 324 323 330 328 329 332
338 339 338 339 339 338 336 335 334 332 331 329 328 329 328 329 330 331 334 338 337 338 339 338 341 339 336 337 336 337 336 334 339 339 340 337 338 337 336 336 336 337 335 335 332 331 331 335 334 334 335 333 328 323 320 323 321 315 327 328 328 330
336 337 338 338 338 337 336 336 335 333 333 331 330 331 334 335 335 336 337 337 339 339 338 336 335 336 336 336 335 334 335 336 336 340 339 338 336 336 335 335 338 337 335 335 335 330 330 331 333 334 336 335 334 334 331 323 318 320 316 322 327 327
335 335 337 338 336 335 334 334 334 334 333 332 332 332 334 335 336 336 334 336 336 337 337 335 333 334 334 334 336 336 337 339 339 337 337 338 339 339 341 337 339 338 338 336 335 331 329 331 329 330 332 332 333 333 331 329 326 323 319 316 319 327
334 334 337 338 335 336 335 334 335 334 332 333 334 334 334 334 333 334 332 334 334 335 335 335 334 333 334 336 336 335 338 338 341 338 336 339 340 336 339 337 337 337 336 336 335 335 333 331 331 327 330 330 329 329 330 330 329 328 323 318 318 320
334 334 337 337 337 337 336 336 335 334 333 332 333 334 333 333 332 333 331 332 332 331 331 333 335 335 335 336 337 338 337 336 337 335 335 336 337 336 338 339 338 337 336 335 335 335 334 334 333 329 331 330 328 325 325 324 326 326 324 325 318 318
335 335 336 336 337 337 337 337 335 334 334 333 332 332 331 330 331 332 329 329 330 330 330 331 336 337 337 335 336 336 336 336 337 337 333 333 334 335 336 337 337 337 337 336 334 334 334 336 335 333 332 329 327 326 324 323 324 326 324 321 320 320
334 334 334 336 336 336 336 336 336 335 335 334 333 332 331 330 330 330 329 328 330 329 330 335 337 337 337 337 337 337 337 335 335 338 333 335 332 333 333 334 335 335 335 337 337 335 335 333 333 332 332 330 328 329 329 328 327 326 324 323 323 320
332 332 333 335 335 335 335 335 336 336 336 336 336 334 335 333 333 331 331 330 330 330 332 333 334 334 337 337 337 336 336 336 337 340 336 334 335 338 333 331 333 333 334 334 335 336 334 333 332 331 331 333 332 331 331 333 331 328 329 327 325 319
332 333 333 334 335 334 335 335 336 335 336 336 336 335 334 334 334 333 332 332 332 332 332 332 333 333 334 335 336 338 337 334 336 334 334 335 335 334 335 330 332 334 333 337 336 336 335 334 333 333 334 332 331 331 332 334 332 332 328 326 324 323
333 334 334 334 334 334 335 335 335 335 335 335 336 337 336 335 333 333 334 333 333 332 332 332 333 333 336 334 334 335 334 334 333 333 333 334 334 333 333 330 331 333 335 339 337 335 334 333 334 332 332 332 332 332 332 333 332 330 329 325 325 323
334 335 335 334 334 335 335 335 335 335 334 335 333 333 332 334 335 335 334 333 333 334 334 334 332 333 333 332 333 333 333 332 331 332 334 334 333 333 334 331 331 333 331 333 335 334 333 334 333 335 333 333 330 330 332 332 332 330 328 327 328 328
334 333 334 335 335 334 335 335 335 335 335 334 332 332 333 333 337 337 335 335 333 335 335 333 332 333 333 333 333 333 331 331 332 333 333 334 333 333 333 330 331 331 330 332 331 330 332 332 332 334 334 333 330 332 331 333 329 330 336 330 328 327

ECMWFFLT2_sfc_thetae_081.txt.gz
Theta_e
343 344 345 346 348 348 350 352 350 352 351 351 350 351 351 350 350 350 348 349 347 345 345 345 346 346 349 347 348 348 348 347 346 346 345 344 344 344 344 345 345 346 346 345 345 345 344 345 344 345 346 346 345 336 335 332 333 334 333 333 334 332
338 343 345 346 347 348 349 350 348 349 349 349 350 350 349 348 348 346 348 346 344 346 343 343 344 348 345 347 347 347 347 346 346 345 344 344 343 342 343 343 345 345 346 345 345 336 339 343 344 344 346 343 337 337 335 333 332 332 332 332 334 335
339 341 344 344 346 347 346 346 346 347 348 349 350 349 347 347 345 345 345 344 344 342 342 343 343 346 345 347 346 347 346 346 345 345 344 343 343 342 343 342 343 344 345 345 340 336 336 337 336 345 340 336 335 337 334 333 332 331 331 333 331 337
337 339 342 342 344 345 345 345 345 346 346 347 347 347 346 345 345 344 344 343 342 343 343 342 348 348 346 345 345 346 346 345 344 344 344 343 342 342 342 342 341 343 342 343 338 338 339 338 336 336 334 332 331 332 334 333 332 331 332 334 333 340
338 339 341 342 343 342 343 344 344 345 345 345 344 344 343 342 343 343 343 343 343 343 343 342 342 341 340 342 341 340 341 340 339 336 342 334 333 338 336 335 335 338 331 333 335 335 338 337 338 334 331 332 332 332 334 333 332 331 331 331 335 341
338 340 341 341 341 343 343 342 343 344 344 342 341 340 339 339 340 343 343 343 341 343 341 341 340 340 340 339 338 337 337 337 336 335 338 333 332 331 330 330 330 330 329 332 332 333 337 339 336 331 331 333 334 334 336 334 332 332 331 333 336 339
339 340 341 342 341 341 339 340 341 341 341 339 339 339 338 339 341 341 343 344 340 340 339 340 340 340 339 338 337 337 337 337 336 335 334 333 331 331 329 329 329 328 328 330 331 331 336 336 334 332 331 335 335 335 336 334 333 332 332 333 339 339
339 340 340 341 340 339 338 339 340 343 340 340 339 338 337 339 342 343 343 343 344 340 339 339 339 339 339 339 338 338 337 336 336 335 332 334 331 330 328 329 330 329 331 331 331 330 330 332 332 332 332 333 335 334 335 334 333 333 333 334 337 338
339 340 340 339 338 338 337 338 338 337 337 343 337 338 339 341 341 343 344 343 343 340 339 339 339 339 340 338 338 338 337 336 336 334 331 332 331 330 329 329 330 330 331 331 330 330 330 330 331 331 331 332 334 335 336 335 334 334 334 335 337 337
339 340 339 338 337 336 336 336 335 335 337 341 336 337 339 340 340 341 339 340 342 339 337 337 338 338 338 337 337 337 337 336 335 332 330 331 332 331 329 330 333 332 332 331 330 329 328 329 330 331 333 334 334 334 336 336 335 335 335 336 336 336
340 340 338 336 335 335 336 336 336 336 338 337 337 338 339 339 338 337 337 338 337 340 339 338 336 337 337 336 335 335 334 334 335 332 332 332 334 334 332 333 332 331 333 332 329 329 329 331 332 335 335 335 334 334 336 337 337 336 336 335 335 334
339 338 336 335 337 336 336 337 337 337 337 337 340 340 339 338 338 336 337 336 337 337 339 338 338 337 335 334 334 334 333 332 333 335 336 335 336 336 334 335 340 340 338 333 331 331 331 331 332 333 334 334 335 334 335 337 337 336 336 335 334 334
337 336 336 336 336 337 337 337 336 337 340 341 341 340 338 337 335 336 335 336 338 338 337 337 338 336 335 334 334 333 334 335 333 333 335 338 337 336 336 336 337 339 334 333 333 332 334 332 331 331 333 334 334 334 336 337 336 335 335 334 333 333
336 336 338 338 336 337 337 337 338 338 341 341 340 339 338 337 337 336 335 337 338 337 337 337 337 335 334 333 334 333 334 335 336 336 335 334 337 335 334 334 334 334 333 332 332 331 331 331 333 334 334 335 335 335 335 335 335 335 334 333 332 333
336 337 338 337 337 336 337 337 338 335 336 339 338 337 337 338 337 336 335 337 339 338 337 337 337 334 333 334 334 333 334 334 338 338 336 337 335 335 334 334 334 330 330 331 333 332 329 330 332 333 334 334 334 334 334 334 335 334 332 331 331 332
337 336 337 336 336 337 339 337 335 332 335 336 337 336 336 337 337 338 337 338 339 338 337 337 338 337 334 334 334 333 334 336 337 336 338 339 337 335 334 337 336 332 328 330 332 331 329 329 330 332 333 333 333 333 332 333 333 333 332 331 331 331
335 335 335 336 336 335 336 334 335 333 333 335 335 336 336 335 337 337 338 338 339 339 338 338 338 337 335 334 335 336 337 338 338 335 335 335 333 334 334 336 335 332 331 328 330 329 327 329 331 333 334 333 333 333 332 333 333 333 333 331 331 331
335 336 336 338 337 336 336 336 333 334 335 335 336 336 335 335 335 336 338 338 338 338 337 336 337 336 335 335 337 338 337 337 335 334 334 334 334 335 333 334 332 333 331 330 328 328 328 329 333 332 331 332 331 331 332 332 332 335 332 331 330 330
334 334 336 335 336 336 336 335 332 333 333 334 334 334 334 334 334 335 336 337 337 337 336 336 336 336 335 336 337 337 335 334 334 333 333 332 331 331 332 334 334 331 333 331 329 330 330 330 331 330 330 329 331 332 330 330 330 331 331 330 331 333
330 332 333 334 333 332 331 332 329 330 332 332 332 332 335 336 336 336 337 337 337 336 336 336 336 336 337 336 335 335 333 333 332 332 332 330 330 331 331 333 333 331 330 332 331 331 331 330 330 329 328 328 330 330 331 330 330 329 330 330 331 331
331 332 331 331 331 332 330 329 330 328 329 331 331 332 334 335 335 335 337 337 338 336 336 337 336 336 337 338 334 335 332 332 332 331 331 331 333 332 332 332 332 331 329 328 328 331 331 330 328 325 327 327 326 328 331 330 329 328 329 329 329 329
332 331 330 331 331 332 332 332 330 330 331 331 331 331 331 333 334 335 337 337 337 336 335 336 337 337 338 335 334 333 332 331 333 331 331 333 332 332 331 331 331 327 329 328 327 330 330 328 323 323 322 321 323 325 329 328 329 328 328 329 329 328
333 332 329 330 331 332 332 333 332 332 332 330 333 333 333 334 334 333 335 337 337 337 337 336 338 339 337 336 334 332 331 332 333 332 330 330 330 329 330 331 330 326 327 327 329 330 328 325 322 324 323 321 318 318 322 324 326 328 329 327 330 330
332 333 333 333 333 331 331 332 334 334 332 331 330 334 334 334 334 333 333 336 336 337 338 337 340 340 337 335 333 332 332 332 332 333 329 329 328 329 329 330 329 328 329 327 327 328 329 327 326 323 316 315 316 317 315 317 321 323 328 327 328 328
332 332 333 335 331 332 333 332 333 332 333 333 333 332 332 331 332 332 333 332 333 335 337 338 338 338 336 334 333 333 333 333 330 333 331 330 329 329 331 329 330 329 329 326 325 326 329 329 327 326 320 317 314 312 311 318 321 321 326 325 328 329
333 333 333 334 333 332 330 330 329 328 328 328 327 328 328 328 329 330 331 332 333 334 336 336 337 336 336 335 333 334 333 333 332 332 332 330 330 331 331 330 330 331 329 327 327 326 326 328 328 330 327 321 317 312 316 319 319 315 324 326 326 328
334 333 334 335 335 333 331 331 329 329 329 328 327 328 330 330 330 331 332 331 332 333 335 335 335 334 334 334 333 333 332 331 333 333 333 332 331 330 331 331 333 331 331 329 328 326 326 325 326 327 330 328 329 326 324 320 314 319 315 321 325 326
334 333 334 335 334 334 332 331 330 329 328 327 327 327 329 329 330 332 332 332 332 333 334 333 333 333 333 333 332 332 332 331 331 334 334 333 332 330 331 333 332 331 330 330 328 327 325 326 323 323 326 327 327 327 326 322 322 319 317 316 318 325
332 332 333 335 334 333 333 332 331 329 326 328 329 330 330 331 331 331 330 331 331 332 332 331 331 332 332 333 333 332 331 333 333 333 333 333 332 333 332 331 331 330 329 329 328 327 326 324 325 323 324 322 325 324 325 324 324 321 318 317 317 319
332 332 332 333 333 332 332 332 330 328 327 327 328 329 330 329 328 327 327 328 328 328 329 329 330 331 331 333 333 332 332 334 332 333 332 333 332 331 332 331 331 330 330 329 327 329 326 325 325 325 326 324 320 319 321 321 320 320 319 320 317 318
331 331 332 332 332 331 331 331 330 329 328 328 328 328 326 326 326 325 325 325 324 325 326 327 329 330 330 333 332 332 332 332 330 330 331 333 330 331 332 332 332 331 330 329 327 327 327 326 325 324 326 324 322 321 318 316 319 319 319 316 317 318
330 330 331 332 332 331 331 331 331 330 329 329 329 328 326 326 326 325 324 324 324 324 325 327 329 329 330 332 331 330 331 332 330 329 330 330 330 331 332 332 330 329 329 328 328 327 328 327 326 326 324 324 323 323 322 321 322 322 320 319 320 318
330 331 331 331 332 332 331 331 331 331 330 330 329 328 327 326 326 325 324 324 324 324 325 326 327 329 329 331 330 329 329 327 328 328 328 330 330 329 330 331 330 329 328 328 327 328 326 326 326 325 323 323 324 325 324 324 324 322 321 322 321 318
331 332 332 331 329 328 329 329 328 328 330 330 328 328 328 328 327 326 326 325 325 325 325 327 328 328 330 331 330 330 329 327 327 327 327 326 328 328 328 329 329 328 329 328 327 328 327 325 324 326 326 325 324 325 325 327 324 324 323 321 319 318
331 331 331 329 326 325 328 327 327 328 327 329 329 329 329 329 328 327 327 326 326 327 328 328 328 328 330 329 328 328 327 326 325 324 324 324 327 325 325 326 328 328 328 329 329 329 328 327 328 327 326 326 326 325 325 328 326 325 324 323 321 320
330 330 330 326 326 327 326 327 328 327 325 328 330 329 328 329 329 328 328 328 327 328 328 328 328 328 328 327 326 326 326 324 324 324 325 324 323 325 326 326 325 327 327 332 329 327 326 327 326 326 326 325 326 324 326 326 326 324 324 324 323 321
329 328 327 326 325 326 326 326 327 329 327 324 327 327 328 328 328 329 328 328 328 328 328 327 327 327 326 326 325 325 324 323 323 323 323 324 324 325 324 325 325 324 325 326 327 327 326 327 326 326 325 325 324 324 325 324 325 325 325 324 324 322

ECMWFFLT2_sfc_thetae_084.txt.gz
Theta_e
346 346 346 345 345 346 350 352 351 352 351 351 351 351 352 351 350 350 349 349 347 346 345 346 347 346 349 347 347 348 347 347 346 345 345 345 345 346 346 346 346 346 345 345 344 345 344 346 345 345 344 342 338 330 330 330 330 332 330 331 332 330
344 345 347 347 346 347 349 349 347 348 348 349 350 351 349 347 350 346 349 347 344 346 343 343 345 349 345 347 347 347 347 346 346 345 345 344 344 345 345 346 346 346 345 345 345 331 334 342 344 343 343 341 332 330 330 330 330 330 330 329 332 334
342 344 345 346 346 346 346 344 345 346 347 349 349 348 346 347 345 344 344 344 344 342 342 343 344 346 346 348 346 347 346 346 346 345 344 343 343 344 344 344 345 345 345 344 335 330 332 331 334 340 339 333 330 330 330 330 330 330 330 332 329 336
341 342 344 344 345 344 343 344 344 345 345 345 346 346 345 345 344 343 343 343 342 342 341 341 349 349 348 345 344 346 346 345 345 344 344 343 343 343 343 343 343 344 341 339 331 331 334 333 331 330 330 331 331 331 330 329 329 329 330 333 332 336
339 340 341 344 344 342 343 344 343 342 344 345 344 344 344 344 343 343 342 342 341 342 340 341 341 342 341 342 340 340 341 339 337 335 342 333 333 337 335 331 332 334 328 330 331 330 332 332 331 330 330 331 331 331 330 330 330 329 329 332 334 337
339 339 340 340 341 344 343 342 343 343 344 344 344 343 342 342 342 342 342 342 342 340 339 339 338 339 340 340 338 335 335 336 334 334 335 331 329 330 326 329 329 329 327 327 329 329 330 335 330 329 331 332 332 331 330 329 330 329 330 333 336 337
338 338 339 340 341 342 340 340 343 344 343 342 341 339 338 339 341 342 342 342 340 339 338 337 337 338 338 338 337 335 335 335 334 333 333 330 328 328 326 327 325 325 324 327 328 328 330 337 331 330 332 333 332 331 330 329 329 330 330 333 338 338
338 338 338 339 339 338 338 339 341 345 342 342 339 337 337 337 340 341 341 341 341 339 338 337 337 337 337 337 336 336 335 334 333 332 332 330 328 327 325 325 326 325 327 327 328 328 331 335 329 331 333 333 332 330 329 329 330 331 332 333 334 336
338 338 338 338 338 336 335 337 339 339 338 343 336 336 335 337 339 340 341 341 340 338 338 338 337 337 337 336 336 335 334 333 333 332 330 328 328 327 325 325 326 326 326 326 326 329 332 330 328 330 332 333 332 331 330 330 330 332 333 333 332 334
337 338 337 337 335 334 334 334 335 336 337 339 335 336 337 336 337 340 340 340 340 338 338 338 337 337 337 335 335 335 334 333 333 332 329 328 328 327 326 325 326 328 328 326 327 330 330 329 331 331 331 333 333 332 331 331 332 333 333 332 332 333
338 339 337 335 334 333 333 332 334 334 336 336 336 338 337 335 336 337 338 337 338 339 338 338 337 337 336 335 334 332 332 330 331 330 330 328 330 329 326 327 329 327 326 326 326 328 330 331 331 332 332 333 333 333 333 333 333 333 333 331 330 330
337 337 336 335 336 335 334 334 333 335 335 335 337 336 338 336 334 334 336 335 337 337 338 337 337 336 335 333 331 331 330 331 330 329 330 328 329 330 329 330 334 331 328 327 328 328 330 330 329 330 332 333 334 333 333 333 333 333 332 331 330 331
336 335 335 334 334 335 336 335 334 336 337 338 338 338 337 335 333 334 334 334 336 337 336 336 336 336 336 332 331 330 330 331 330 331 332 332 332 331 334 335 332 330 329 329 329 329 331 328 328 329 331 332 333 334 334 333 333 333 331 330 329 329
335 334 334 334 334 334 334 335 337 334 338 338 338 337 336 334 335 334 335 336 336 336 335 335 335 334 333 332 331 331 331 331 331 331 331 332 332 332 333 331 329 331 334 329 328 328 328 329 330 331 331 332 333 333 333 332 332 331 330 330 329 330
335 334 336 335 334 334 334 334 333 332 336 337 337 335 335 335 334 335 335 336 336 336 335 335 334 333 332 332 331 330 330 330 332 332 331 330 333 332 331 329 328 328 327 328 329 330 329 329 330 331 331 331 333 333 332 332 331 330 329 328 330 328
335 334 335 335 334 335 333 333 332 335 333 335 335 335 336 335 334 334 336 336 335 336 335 334 333 333 332 332 331 330 331 332 333 332 333 334 334 331 329 328 329 329 326 328 329 327 326 329 330 331 331 331 331 332 331 331 330 329 329 329 329 327
334 333 334 334 332 331 332 331 331 333 333 333 334 334 335 335 335 335 337 336 335 336 335 335 334 333 332 331 331 331 332 333 334 333 333 331 331 330 330 329 328 330 328 327 328 327 325 329 330 331 330 330 330 331 330 330 329 329 330 328 327 326
334 333 333 332 331 331 332 332 331 331 333 332 334 335 335 335 335 336 337 336 336 336 335 335 334 333 332 332 333 333 334 334 333 332 332 331 330 330 329 329 327 328 329 329 326 326 325 330 331 330 329 329 329 330 330 330 330 332 329 328 326 326
332 333 331 331 330 331 331 332 331 330 331 332 333 334 335 335 335 336 337 337 337 336 336 335 335 334 333 334 334 334 334 332 332 332 331 330 330 329 329 329 328 328 330 328 328 327 327 329 328 328 329 330 330 330 329 330 330 330 328 327 328 329
333 334 331 330 330 329 329 329 328 329 330 331 332 333 333 334 335 336 337 337 336 335 335 335 334 334 334 335 334 332 331 331 331 331 329 329 329 329 329 329 328 328 328 329 329 329 329 327 325 326 327 328 329 328 328 329 328 329 329 327 328 327
333 332 330 329 329 329 328 327 327 328 326 328 330 331 333 333 335 336 337 337 336 335 335 335 335 335 334 337 333 331 330 330 331 330 329 329 330 330 330 329 328 329 327 325 325 328 328 327 326 324 326 326 327 330 331 330 329 329 328 328 328 329
331 332 331 329 329 329 328 327 326 327 327 329 329 330 332 334 334 336 336 336 336 335 335 335 336 335 335 334 332 331 330 330 330 329 330 331 330 331 330 329 328 326 327 325 324 328 328 326 320 322 321 321 324 326 329 327 327 328 329 329 329 329
331 332 332 332 329 329 330 330 329 329 329 328 330 330 331 334 335 335 335 336 335 334 334 335 335 337 334 334 333 331 330 330 330 331 330 329 328 328 328 328 327 325 324 325 326 329 327 323 319 321 323 321 319 318 322 325 328 328 328 329 329 328
331 331 332 332 331 330 330 329 329 330 330 328 327 331 331 333 333 333 334 336 336 334 334 334 336 337 335 334 333 331 330 331 330 330 329 328 327 327 328 327 326 326 326 322 324 326 328 326 324 322 315 313 317 317 315 318 321 325 329 329 328 327
331 330 331 332 331 330 330 326 326 329 331 330 331 331 330 330 331 332 333 333 333 333 335 335 337 337 335 333 332 331 331 331 330 329 329 328 327 328 328 328 327 326 325 324 323 325 326 327 326 325 320 316 314 312 312 317 321 321 326 326 327 327
331 331 330 331 330 330 329 326 326 326 326 327 326 327 327 328 329 329 331 333 333 334 335 336 337 337 335 333 331 331 331 330 330 329 329 328 327 328 328 328 328 326 326 327 327 325 324 326 327 327 322 319 319 312 313 319 319 313 324 325 326 328
331 331 331 330 329 330 327 327 327 327 327 327 326 328 328 330 331 331 332 331 332 333 335 335 335 335 334 333 332 332 331 330 331 330 330 328 328 328 328 328 329 328 327 327 327 325 324 323 324 326 326 324 325 320 322 319 314 318 315 321 324 324
330 331 332 330 329 330 328 328 328 327 326 325 327 328 328 329 331 331 331 331 331 331 332 333 332 333 333 333 332 331 331 331 331 331 331 329 329 329 329 329 330 330 328 328 327 326 323 324 323 322 323 321 321 322 322 317 319 318 317 315 318 323
330 330 331 330 329 329 329 328 327 327 325 327 326 326 328 329 330 332 329 329 330 331 330 331 331 331 332 332 332 331 330 330 331 331 332 331 329 329 329 329 328 328 327 327 328 327 326 324 322 322 321 318 320 320 319 318 320 318 318 317 317 319
331 331 331 330 330 330 329 326 325 325 325 325 325 326 329 329 329 330 330 329 328 330 329 328 329 330 331 331 331 331 331 331 330 330 331 331 330 329 329 329 329 328 328 327 326 327 327 325 324 323 323 321 319 317 317 317 316 316 318 317 317 317
332 333 333 331 330 328 326 326 326 326 325 325 325 326 328 328 328 328 328 327 327 327 327 326 327 328 330 331 330 331 331 331 330 331 331 330 329 330 329 329 328 328 328 327 326 325 324 324 324 324 322 322 322 321 320 316 317 317 316 313 318 318
326 326 330 332 329 326 327 327 327 327 326 326 326 327 326 327 327 327 327 326 326 325 325 325 325 326 327 329 329 329 330 329 329 329 330 330 330 331 330 330 329 328 327 327 327 326 324 323 322 323 323 321 320 319 316 318 319 319 318 317 319 318
321 323 326 329 328 325 326 327 326 326 327 327 327 326 326 326 326 326 325 325 325 324 322 324 324 326 326 328 328 327 328 327 326 328 329 329 329 331 330 330 329 328 327 326 326 326 324 323 323 324 323 321 321 320 319 319 321 320 318 320 320 318
321 323 328 328 327 325 326 327 327 327 327 328 327 327 326 325 324 324 325 324 324 324 324 324 325 326 327 328 328 328 328 328 327 326 327 328 328 329 329 329 328 327 327 326 325 325 324 323 323 323 322 321 320 321 319 322 322 321 320 319 318 318
326 325 328 324 324 325 325 326 326 325 326 326 326 327 327 327 325 324 324 324 324 324 324 325 327 327 327 328 327 326 326 326 326 325 326 326 328 327 327 328 327 327 327 325 326 325 323 323 324 321 320 321 321 320 322 322 322 322 322 322 320 319
324 325 323 321 322 322 324 325 325 324 325 325 325 327 327 327 326 325 325 324 324 324 325 325 325 326 327 327 325 324 324 324 324 324 324 325 325 324 324 324 323 324 325 328 326 325 323 324 323 323 322 320 322 322 323 323 323 322 322 323 322 321
324 324 322 322 322 323 324 323 324 325 325 324 324 325 326 326 325 325 325 324 324 325 324 324 325 325 325 324 324 323 321 321 322 322 322 324 324 324 324 324 324 323 324 324 325 325 323 324 323 322 322 323 323 323 322 321 322 322 322 322 322 321

ECMWFFLT2_sfc_thetae_087.txt.gz
Theta_e
347 346 347 347 346 345 348 350 350 351 351 351 350 351 351 352 350 350 349 349 348 346 345 346 347 346 348 346 347 347 347 347 346 345 346 346 347 347 347 346 346 346 345 344 343 344 344 345 343 342 341 339 337 328 328 328 328 331 328 330 333 329
346 346 347 347 346 345 346 348 346 347 347 348 350 350 349 347 349 345 349 347 345 346 344 343 345 348 345 346 346 347 346 346 345 345 345 345 346 346 347 346 346 346 346 343 339 332 337 343 342 341 339 336 329 328 328 329 328 329 328 327 329 334
345 346 346 346 345 344 344 343 343 345 346 348 348 348 345 346 342 343 343 343 344 342 342 343 344 346 345 347 346 346 346 346 346 345 344 344 345 345 345 345 346 345 343 340 331 331 331 334 337 340 337 330 328 328 328 328 328 328 327 329 327 336
345 345 345 345 344 343 344 344 343 343 343 343 343 344 342 342 342 342 342 342 341 342 342 342 348 348 348 344 344 346 346 345 345 345 343 342 344 344 344 344 345 339 333 334 331 332 331 329 329 328 328 328 328 328 328 328 327 328 328 332 329 338
344 345 344 345 344 343 345 345 345 344 342 342 342 341 341 340 340 341 341 341 341 342 341 341 342 342 341 340 338 338 339 336 335 334 341 329 330 335 331 328 328 327 325 329 329 330 332 329 329 329 328 328 328 328 328 329 328 328 327 328 331 337
343 343 343 343 343 345 345 344 344 344 345 344 343 341 339 339 339 340 340 341 341 339 339 339 339 340 340 338 336 334 334 333 331 331 333 328 327 326 324 326 326 325 324 325 327 329 334 330 328 327 328 328 328 328 327 326 327 328 330 329 333 336
340 340 341 341 343 344 343 344 344 344 344 343 343 341 339 337 339 340 340 341 339 338 336 336 339 341 340 337 335 333 332 332 332 329 329 327 327 325 324 323 323 322 322 324 326 328 331 330 329 330 329 329 328 328 327 327 327 328 330 330 335 336
338 339 339 341 341 341 341 342 344 345 343 344 342 340 339 338 339 340 340 340 341 338 337 336 338 339 339 336 334 333 330 331 332 329 328 326 325 324 322 322 322 323 324 324 326 327 331 330 329 330 330 328 328 327 327 326 328 329 330 331 331 336
338 339 340 340 339 339 340 341 343 342 341 344 340 339 338 338 337 338 338 338 339 336 336 337 338 338 339 336 333 333 331 330 329 329 327 326 325 323 322 322 323 323 321 322 323 327 329 328 329 330 329 329 328 327 327 327 329 329 329 329 330 333
339 339 340 340 338 338 338 340 340 340 341 342 338 338 336 336 336 337 336 336 338 337 336 336 337 338 337 335 334 333 332 330 329 328 326 325 325 324 322 322 323 323 324 322 326 330 328 328 330 330 329 329 328 328 328 329 329 329 329 328 328 333
340 341 339 338 336 336 337 337 338 338 339 338 337 336 334 333 334 334 334 335 334 336 336 336 337 336 334 334 333 333 331 330 330 329 328 327 325 325 323 323 324 323 322 323 324 327 328 329 329 330 330 329 329 329 329 330 331 330 329 327 326 329
338 337 337 336 336 335 335 335 336 337 336 335 335 334 334 334 334 333 333 333 335 336 337 336 336 335 334 333 332 332 331 330 329 328 328 325 325 326 325 327 327 325 324 326 326 327 328 328 328 329 330 330 330 330 330 331 331 330 329 326 325 326
337 337 336 335 335 334 333 333 333 336 336 334 333 335 334 333 333 333 333 333 334 335 335 336 336 336 336 332 331 330 329 330 329 329 328 326 327 326 329 328 327 327 326 327 327 327 328 327 327 328 330 330 330 330 331 331 330 329 328 326 325 326
337 336 335 335 335 334 333 332 333 333 336 334 333 334 335 333 333 333 334 334 333 334 335 335 335 334 333 332 331 330 330 329 328 328 329 329 328 327 328 327 326 328 330 326 326 325 327 328 329 332 333 332 331 330 330 330 329 328 327 327 326 327
337 335 334 334 334 333 332 331 331 330 332 333 333 333 333 333 333 333 333 334 333 334 335 335 335 334 333 332 331 330 329 329 329 329 329 328 330 329 328 327 326 326 325 326 327 328 329 330 331 332 333 333 332 332 330 329 329 328 327 324 327 326
335 332 332 333 333 332 331 330 331 333 332 333 335 334 334 334 333 334 334 333 334 335 335 335 335 333 332 331 331 330 329 330 331 330 330 331 331 329 327 326 325 327 326 326 328 328 330 330 331 332 333 333 332 331 330 328 328 327 326 327 327 326
333 332 332 332 332 331 331 331 331 332 331 334 334 334 334 334 334 334 334 334 334 335 335 334 334 333 332 331 330 330 330 332 331 332 332 330 329 329 327 327 325 326 327 326 328 329 330 330 331 332 333 332 331 330 330 328 326 326 327 326 324 325
332 333 332 331 331 330 331 331 330 331 333 332 333 334 334 334 334 334 335 335 334 335 335 333 333 332 331 331 331 331 332 332 332 331 331 329 328 328 327 327 325 325 327 327 328 329 330 331 331 331 331 332 332 331 330 328 328 330 327 326 325 326
332 332 331 330 330 329 329 328 328 329 329 329 331 333 334 334 334 334 334 335 334 335 336 334 332 332 331 332 331 332 332 332 332 331 330 328 327 327 327 326 326 325 326 326 329 331 331 330 330 330 330 331 331 331 331 331 329 328 326 326 328 330
332 332 329 329 329 328 326 328 328 328 329 330 331 333 334 334 334 334 335 335 334 334 335 334 333 332 332 332 332 332 331 331 331 331 329 328 327 327 326 326 326 326 325 327 327 329 330 329 329 329 328 328 328 327 329 329 329 328 327 327 328 326
331 330 328 327 327 327 327 327 327 328 328 330 330 332 333 334 335 334 335 336 335 334 334 333 333 332 332 335 332 331 331 330 330 330 330 329 329 328 328 328 327 326 325 324 326 329 329 329 327 325 327 327 328 330 331 328 327 328 328 327 328 329
332 329 328 328 327 327 328 328 326 326 327 329 330 331 331 333 335 335 334 335 333 333 333 332 333 332 333 333 331 330 330 330 330 329 330 330 329 330 329 328 327 325 324 325 325 328 328 327 322 322 321 322 324 326 328 328 328 329 330 330 329 328
332 330 329 328 327 326 325 326 324 323 327 326 329 331 332 334 333 332 334 334 333 333 333 333 333 334 332 331 331 330 329 330 329 330 329 328 329 328 328 328 327 325 323 321 325 329 327 323 321 324 324 321 318 318 322 325 327 328 329 329 330 329
332 332 331 329 328 325 325 325 326 327 327 327 327 331 332 334 332 331 331 333 333 332 333 333 334 334 333 331 330 330 330 329 329 330 329 327 327 327 327 327 326 325 325 322 324 326 327 322 325 324 318 317 317 318 315 318 321 325 329 329 329 329
332 332 332 331 328 326 327 325 326 327 329 329 329 329 330 330 331 330 331 331 331 332 332 332 334 334 334 332 329 330 330 329 329 328 329 327 327 327 327 327 326 325 325 324 324 325 326 323 325 325 321 317 314 314 314 318 321 321 326 326 327 327
331 332 332 331 328 327 326 326 323 325 325 326 325 326 326 327 328 328 329 332 331 331 332 332 333 334 334 332 330 330 330 329 329 328 328 327 327 327 326 326 326 326 324 324 326 325 323 324 325 325 321 318 320 315 314 319 319 313 323 325 326 328
331 331 330 331 329 326 324 323 323 325 326 326 326 327 328 329 329 330 330 329 330 331 332 333 333 334 332 332 331 330 330 329 329 328 329 327 327 327 327 327 327 326 325 325 325 323 323 322 321 323 323 323 322 318 321 319 315 318 315 320 324 324
332 329 328 329 328 328 326 326 326 326 326 326 327 326 328 329 330 331 328 330 329 330 332 333 334 332 331 331 331 330 330 329 329 328 329 327 327 327 327 327 327 326 325 326 325 324 322 322 321 321 322 320 319 319 320 315 319 317 316 315 317 323
329 328 328 328 328 327 327 328 326 325 326 327 326 326 326 328 330 331 327 328 328 329 330 332 333 332 332 332 331 330 329 329 329 329 330 327 326 327 326 326 325 325 324 324 325 324 323 322 321 320 320 314 318 317 315 316 318 314 316 316 316 318
328 327 328 327 327 326 327 327 324 324 325 325 326 326 327 327 329 329 327 326 327 327 327 328 328 330 330 331 330 330 330 330 329 329 330 328 327 326 326 326 326 326 325 324 322 324 324 323 323 321 322 318 314 314 314 314 314 314 316 315 316 317
329 330 327 326 326 326 327 326 324 325 324 324 324 325 326 327 328 329 327 326 325 326 327 327 328 328 330 331 330 330 330 330 330 331 331 329 327 328 327 327 327 327 326 325 325 324 323 321 322 321 320 320 319 319 318 314 315 315 315 313 317 318
323 324 325 325 325 325 326 326 325 326 325 324 323 324 325 326 328 328 328 325 326 327 326 326 325 326 327 329 329 329 330 329 329 329 329 329 329 328 328 327 326 326 326 325 325 325 323 322 321 322 320 319 320 320 317 316 318 318 317 316 319 318
319 323 324 324 324 324 325 325 325 325 325 324 324 325 326 326 328 328 328 326 326 326 325 324 324 324 326 328 328 328 328 328 328 328 329 329 329 329 328 327 326 326 325 325 325 325 323 322 322 322 323 319 319 319 318 317 319 318 316 318 320 318
318 322 325 325 323 322 324 325 326 325 325 325 324 325 327 327 327 328 328 327 327 327 325 325 325 325 326 327 327 327 328 327 327 327 328 328 328 328 328 328 327 326 325 325 325 324 324 322 322 322 322 320 319 319 316 318 319 319 318 318 317 318
320 320 322 323 323 322 323 325 326 326 326 326 325 326 326 327 327 327 327 327 327 327 326 324 324 325 325 326 326 325 325 325 324 325 325 326 328 327 327 327 326 325 324 323 324 323 322 321 321 320 318 320 319 319 317 319 320 320 321 320 319 318
322 321 322 323 323 323 323 324 325 326 326 327 327 327 326 326 327 327 326 326 324 325 325 323 322 323 323 326 324 324 325 324 322 323 324 325 325 326 324 325 323 323 323 325 323 322 321 321 321 320 320 317 319 318 319 320 320 320 321 321 321 320
322 322 322 322 322 323 323 323 324 326 325 325 326 327 326 326 325 325 325 324 323 323 323 323 323 323 323 323 324 323 324 322 322 322 322 323 324 324 323 324 323 321 322 320 323 322 320 322 321 320 318 319 320 319 318 320 320 320 321 320 321 321

ECMWFFLT2_sfc_thetae_090.txt.gz
Theta_e
348 348 348 347 346 346 349 350 350 351 351 351 350 351 351 351 351 349 349 349 347 346 345 346 347 347 349 346 346 346 346 346 345 346 346 346 346 346 345 345 345 344 344 345 343 342 342 341 341 340 340 338 336 329 329 330 331 334 334 335 336 332
346 347 347 346 345 345 347 348 346 347 348 348 350 350 349 348 348 346 349 348 345 346 342 343 345 348 346 347 346 346 346 345 345 345 346 346 346 346 345 345 344 343 343 343 342 340 341 341 341 340 339 336 330 329 330 331 331 332 332 332 334 336
346 346 345 344 343 344 344 344 344 344 346 348 348 347 344 346 343 344 344 344 344 342 342 343 345 346 346 346 346 345 345 345 345 345 344 345 345 345 345 345 343 341 340 339 336 336 337 338 338 339 336 330 330 330 330 330 330 330 330 334 332 336
345 345 344 342 342 342 342 342 343 343 343 343 343 344 342 342 342 342 343 342 341 342 342 342 348 348 347 344 344 346 345 345 345 344 344 342 344 345 345 343 342 339 336 335 333 335 335 334 332 330 329 330 330 329 329 330 330 330 332 336 332 337
345 344 344 343 343 343 344 344 344 343 342 341 341 340 340 339 340 342 343 341 340 342 341 342 343 343 342 341 340 341 340 337 336 334 338 330 330 332 331 330 331 332 331 332 332 332 331 330 330 329 329 330 330 329 330 331 331 331 331 333 336 338
344 344 343 343 344 345 345 344 344 343 342 342 342 340 338 339 340 342 342 341 341 340 340 340 341 341 341 339 339 337 335 334 332 331 332 329 328 326 326 327 327 328 329 331 331 331 331 330 329 329 329 329 329 329 329 330 331 331 332 334 337 337
342 342 343 344 345 345 344 345 345 344 344 343 343 341 339 339 340 341 342 342 340 340 341 341 341 341 340 339 337 336 335 334 332 330 330 328 327 325 325 325 325 325 327 330 332 331 330 330 329 329 329 329 329 329 329 329 331 332 332 334 336 336
339 340 340 343 344 343 343 344 344 345 343 344 343 341 340 339 341 340 341 341 341 340 340 339 340 340 340 338 337 335 334 333 332 330 330 328 326 324 323 324 325 325 327 327 330 331 330 330 330 330 329 329 329 329 329 330 331 332 332 333 335 336
337 340 340 342 342 342 343 343 344 343 341 345 341 340 339 340 337 337 337 338 339 337 339 339 339 339 340 338 336 335 334 333 331 331 330 328 326 324 323 325 325 326 325 326 329 331 330 330 330 330 329 329 329 329 329 330 331 332 332 333 334 336
337 339 340 341 341 340 341 342 342 342 342 343 339 338 337 335 333 333 332 334 336 337 337 339 339 339 338 337 337 336 333 332 332 330 329 328 326 325 324 325 326 326 326 327 329 331 330 330 330 330 329 329 329 330 330 331 332 332 331 332 334 336
340 341 341 340 339 339 340 341 341 341 342 340 338 336 334 332 332 332 333 334 336 338 337 338 339 338 337 336 336 335 333 332 331 330 329 328 327 326 324 325 326 325 325 327 328 330 330 330 330 330 331 329 329 330 331 332 332 332 331 331 332 335
340 340 340 339 339 338 338 339 341 341 339 336 335 334 333 333 333 332 333 333 334 336 338 337 338 338 337 336 335 335 334 332 331 331 330 328 328 328 326 327 327 326 327 328 328 329 330 330 329 330 330 329 330 331 332 332 332 331 331 331 331 332
340 339 339 337 337 337 337 338 339 339 336 335 334 333 332 332 333 333 333 333 334 335 336 335 336 337 337 335 335 334 333 332 332 331 330 328 329 328 330 327 327 328 328 329 329 328 330 330 330 329 330 330 331 331 332 332 332 331 331 330 331 332
339 338 338 337 336 335 335 336 337 337 336 334 333 332 333 333 333 333 333 333 334 335 335 335 336 336 336 334 333 333 333 332 331 330 329 328 329 329 328 327 327 329 330 328 327 328 329 329 331 331 330 330 331 332 333 331 331 330 330 330 330 331
339 338 338 336 336 334 334 335 335 335 335 334 332 332 332 333 333 333 333 333 334 334 335 335 336 336 333 333 332 331 331 332 330 330 330 329 329 329 328 327 328 327 326 327 328 329 330 330 331 330 331 331 331 332 332 330 330 330 330 330 331 330
338 336 335 335 334 333 333 332 333 334 333 333 332 332 333 333 333 333 333 333 333 334 335 335 335 335 335 332 332 331 331 331 331 330 330 330 330 329 327 327 328 328 326 327 328 328 331 331 332 331 331 332 332 332 331 330 330 330 329 330 330 330
336 335 334 333 331 331 331 331 330 331 331 333 332 331 332 333 333 333 333 333 333 334 335 334 335 334 334 332 332 331 330 331 332 331 331 330 330 329 328 327 327 329 329 327 328 328 330 331 331 331 331 331 332 332 331 329 329 329 329 330 329 329
335 335 333 331 330 329 330 330 329 330 331 331 332 334 334 334 333 333 333 333 333 334 335 334 334 334 333 333 332 330 330 331 331 331 331 330 329 329 328 328 326 326 329 329 328 328 329 331 332 331 331 331 331 331 331 330 330 330 329 329 329 329
334 333 331 330 329 328 327 327 327 328 329 331 333 335 335 334 334 334 334 333 333 334 335 333 334 334 332 333 331 331 331 331 332 331 330 329 328 328 328 327 328 326 328 330 330 330 330 331 331 331 331 331 332 331 331 331 330 329 329 328 330 330
333 333 331 330 330 328 327 328 328 328 329 330 332 333 334 335 335 334 334 335 334 333 334 334 332 333 332 332 331 331 331 331 331 331 329 328 327 327 327 327 327 327 328 330 332 332 332 331 330 329 328 329 330 330 330 330 329 329 329 330 331 329
332 332 330 329 329 328 327 327 328 328 328 330 331 333 333 334 334 334 334 335 333 334 334 334 334 332 331 333 332 331 331 330 331 331 330 329 328 328 329 328 327 329 328 328 328 331 331 332 328 326 327 327 327 330 330 329 327 327 328 329 330 330
332 331 330 330 330 328 327 326 325 327 328 330 331 331 331 333 334 334 333 333 333 333 333 333 333 332 332 332 331 331 331 330 331 331 330 330 329 330 329 328 327 326 329 328 327 330 330 330 325 324 322 322 324 327 328 328 328 329 328 329 329 329
331 330 329 330 329 327 325 324 323 322 328 327 330 332 332 332 334 332 332 333 332 331 332 333 333 333 333 332 331 331 331 331 330 331 329 329 329 328 328 328 327 326 325 327 328 330 329 328 324 326 325 322 318 318 322 325 328 329 329 329 330 329
331 331 330 330 329 327 328 327 326 324 325 326 325 330 330 332 332 330 330 332 332 332 332 332 333 333 333 332 331 331 331 330 330 331 330 329 328 327 328 327 327 327 327 324 326 327 329 326 328 324 318 319 319 319 315 318 322 325 330 329 330 329
332 332 331 331 328 327 328 326 327 328 329 329 329 329 329 330 331 331 330 330 330 332 332 332 333 333 333 331 331 331 331 330 329 330 330 329 328 328 328 328 327 326 327 326 325 326 327 327 328 328 322 318 316 316 316 319 321 322 327 327 328 329
331 332 332 330 328 327 326 326 325 326 326 326 326 326 326 327 329 328 328 329 330 332 332 332 333 333 333 332 331 331 330 329 329 330 330 329 329 328 328 327 327 327 327 328 327 326 324 327 328 327 323 321 322 318 316 320 319 313 324 327 327 328
331 330 329 328 328 327 325 326 325 325 325 325 324 326 329 330 331 330 330 329 329 330 331 331 331 333 332 333 331 330 330 330 330 329 330 329 328 328 328 328 328 327 327 327 328 325 324 324 326 325 326 324 324 320 323 321 316 317 315 321 325 325
331 330 328 328 327 326 325 325 325 324 325 325 325 326 329 329 327 329 329 329 329 329 331 332 331 332 332 332 331 330 330 329 328 329 330 328 328 328 328 328 328 327 326 327 328 326 325 325 323 323 324 323 322 322 322 320 322 319 318 316 318 324
330 329 328 327 326 325 326 325 325 325 323 324 325 327 328 328 327 328 327 327 328 329 330 331 332 332 332 332 331 330 329 329 328 328 330 328 328 328 328 327 326 325 326 326 327 326 326 324 325 323 321 319 320 320 320 320 321 319 319 316 316 319
328 328 328 327 327 325 325 326 325 324 323 323 325 326 327 326 326 328 325 326 327 328 329 329 331 332 331 331 331 330 329 329 328 329 329 328 328 328 327 327 327 326 326 326 326 326 326 325 325 323 324 320 318 318 318 319 319 318 318 318 316 317
329 328 327 327 326 325 324 325 325 324 324 323 324 325 325 325 326 327 326 326 326 327 327 328 330 330 330 330 330 331 330 329 329 330 329 328 328 328 327 327 327 327 326 326 326 326 325 325 324 324 323 322 322 321 320 317 318 318 317 316 318 318
328 328 327 326 325 324 324 325 326 325 323 323 324 325 325 325 326 327 327 326 326 326 326 327 328 328 328 330 330 330 330 329 329 329 329 329 328 328 328 327 327 326 326 326 326 326 325 324 324 323 323 322 322 322 320 320 321 321 319 319 320 318
324 326 327 326 325 324 324 324 325 325 324 324 324 325 326 326 328 328 328 326 325 325 325 324 325 326 327 329 329 328 328 328 328 329 329 329 329 329 328 327 327 326 326 325 326 326 325 324 324 323 324 322 323 322 321 320 322 321 320 321 321 318
323 323 324 324 324 323 323 324 324 325 325 326 325 325 326 326 328 329 328 327 326 326 324 324 325 325 327 328 328 329 329 329 329 329 329 329 329 329 328 327 327 326 326 326 326 326 326 325 324 325 325 322 322 322 320 321 322 322 321 321 320 319
319 320 321 321 320 320 322 322 323 325 326 326 326 326 326 327 328 329 329 328 327 328 326 325 325 326 326 328 328 327 328 328 327 327 327 327 327 328 328 328 327 327 326 326 326 326 325 324 323 323 323 324 322 321 321 321 322 322 323 323 321 321
321 320 320 322 321 321 321 321 322 325 326 326 326 326 326 327 328 329 329 329 328 328 328 326 324 325 326 327 326 326 327 326 325 325 325 326 327 327 327 326 325 324 324 325 325 325 324 323 324 323 323 322 322 322 321 322 322 323 323 323 323 323
323 323 323 323 321 321 320 321 322 324 326 325 325 325 325 326 327 328 328 328 328 328 327 326 324 325 325 326 326 325 326 325 324 325 326 326 326 327 326 326 325 324 324 324 325 324 322 323 323 322 322 322 323 321 321 322 322 322 323 323 324 324

ECMWFFLT2_sfc_thetae_093.txt.gz
Theta_e
351 351 351 351 351 352 351 352 351 351 351 350 350 350 350 349 349 349 350 349 348 350 351 350 349 349 348 348 346 346 346 346 345 345 345 346 346 345 345 345 346 346 346 345 343 342 342 341 340 340 339 338 337 338 338 338 339 338 337 336 337 335
350 350 351 350 351 351 351 351 352 351 350 351 350 350 351 350 351 351 349 350 350 349 349 350 350 349 349 348 348 346 346 345 345 344 345 345 345 345 344 345 345 345 345 343 343 343 343 341 340 340 338 337 337 338 339 339 339 338 337 337 337 337
350 350 350 350 350 351 351 351 351 351 350 350 350 352 351 350 349 349 350 349 350 350 349 350 350 348 348 347 348 346 345 345 345 345 345 345 345 345 344 344 344 345 343 342 343 343 341 341 342 338 337 338 338 338 339 339 339 339 337 337 337 336
349 350 349 349 350 349 349 350 350 350 350 350 351 350 350 349 349 349 349 349 349 349 349 349 349 348 348 349 348 346 345 345 344 344 344 345 345 345 343 342 342 342 341 344 345 343 343 343 342 340 339 338 337 338 338 339 337 338 338 336 336 336
350 349 348 348 348 349 349 348 348 348 349 350 349 350 349 351 349 350 349 349 347 347 347 348 349 349 348 347 347 347 346 345 345 344 343 343 344 343 345 343 343 342 345 344 343 343 343 342 340 338 338 338 338 338 338 339 338 338 338 338 338 337
348 348 348 347 348 349 349 347 347 347 348 348 349 349 349 348 350 349 349 348 347 347 347 346 347 346 346 347 345 346 345 345 344 342 344 343 343 343 343 343 343 342 342 344 344 343 343 340 338 338 337 338 339 339 339 339 339 338 338 338 338 336
348 348 348 349 349 349 349 349 347 347 347 348 348 348 347 348 349 348 348 347 346 345 345 344 345 345 344 346 344 345 345 345 343 341 342 339 339 341 341 341 342 343 342 342 341 341 340 339 338 336 337 337 338 338 339 339 338 337 338 337 337 336
348 348 348 349 348 348 349 348 348 347 348 348 347 347 348 348 347 347 347 347 346 344 344 343 344 344 344 345 344 345 346 344 344 341 341 340 337 338 340 341 342 342 341 341 340 339 338 337 337 338 336 337 338 338 339 339 339 339 338 338 337 337
348 348 349 349 348 348 348 347 347 347 347 348 347 348 347 346 347 346 346 346 346 344 343 343 342 342 344 344 343 344 343 342 343 340 340 338 337 337 339 339 340 341 342 341 340 340 338 338 338 339 337 336 337 338 339 340 339 339 338 337 338 338
349 348 349 348 347 346 346 346 345 346 348 347 347 347 345 345 345 344 343 344 345 346 344 342 342 342 342 342 343 344 343 343 341 341 339 338 337 337 337 337 339 340 339 340 340 340 339 338 336 338 337 337 337 339 340 339 338 338 338 337 338 339
348 346 347 347 345 346 347 346 346 346 346 347 346 344 342 343 343 343 342 343 344 345 344 344 343 342 341 341 342 343 343 343 342 342 341 339 339 338 337 339 338 337 338 339 340 341 339 338 338 337 338 336 338 340 338 339 339 339 338 337 338 338
345 345 345 344 344 345 345 345 345 345 346 345 344 342 342 344 342 342 342 342 343 344 346 345 343 342 342 341 341 341 342 342 341 341 341 339 340 339 337 337 341 343 343 343 341 342 342 340 338 338 338 336 339 338 338 338 338 338 337 337 336 338
346 346 346 343 344 344 344 344 344 345 345 344 343 342 342 343 344 342 341 341 342 344 345 345 345 343 341 342 341 342 342 341 342 341 342 342 340 340 339 338 339 341 341 341 341 340 339 339 338 338 338 338 339 337 338 338 338 337 336 337 337 337
344 344 343 344 344 343 343 343 345 344 341 342 343 343 342 342 343 342 341 341 341 343 344 345 344 343 342 341 341 340 341 341 342 343 343 342 340 339 338 338 338 340 340 341 339 338 336 335 336 336 338 338 337 338 337 337 336 336 337 337 338 338
342 342 341 341 341 341 341 341 343 343 342 342 341 341 342 342 341 342 340 341 341 341 341 343 343 342 339 342 340 339 339 341 341 342 342 341 340 339 339 338 338 338 338 338 337 337 336 336 336 336 336 336 336 336 337 336 336 336 336 337 338 337
341 341 340 341 341 340 340 341 341 339 341 342 342 341 342 341 341 342 341 340 337 338 339 342 342 343 341 339 339 339 340 341 340 341 341 341 340 338 339 339 340 340 336 333 334 334 336 335 336 335 335 336 336 336 336 336 335 336 336 336 336 336
339 340 340 342 342 339 339 339 338 338 336 339 341 340 342 340 340 339 340 337 336 337 338 338 338 339 338 337 336 338 341 340 341 340 340 340 339 339 339 337 336 338 339 334 334 333 334 335 335 335 335 335 335 336 335 335 335 335 336 336 335 336
340 340 339 339 338 337 337 338 337 337 336 338 338 338 340 340 338 338 335 333 331 334 335 336 336 336 335 335 336 338 339 339 338 339 339 339 338 339 339 339 335 337 336 338 335 334 333 334 334 333 334 334 335 336 335 335 335 335 335 334 334 335
338 337 337 336 335 334 336 336 334 333 334 335 335 338 339 339 339 336 335 335 335 335 336 335 336 337 335 335 336 338 337 336 336 337 338 338 338 337 338 338 337 335 337 336 335 335 334 334 333 333 333 333 334 335 335 336 335 334 335 335 334 335
338 337 336 335 333 332 332 332 333 332 330 332 334 336 338 339 339 337 335 337 335 335 335 334 334 335 335 335 335 335 333 335 336 335 337 336 334 335 336 336 336 334 334 334 336 336 335 334 334 333 332 333 335 335 335 335 335 334 334 335 335 336
336 337 335 334 333 332 330 329 330 330 330 332 333 335 336 339 337 338 337 338 336 335 335 335 335 334 334 334 335 334 333 334 336 336 338 336 334 336 337 337 336 336 334 333 333 336 335 335 331 330 333 332 333 336 335 334 334 334 335 337 336 335
335 335 335 335 335 334 334 332 332 331 332 332 333 333 334 337 338 339 338 338 336 336 336 335 335 335 336 334 334 334 333 333 335 336 336 335 334 335 335 335 335 333 336 333 332 334 334 333 329 327 326 326 328 331 332 333 334 332 334 336 337 336
335 336 337 338 336 332 333 334 334 336 334 334 336 337 337 338 339 339 339 340 338 338 337 336 336 335 334 334 334 334 334 336 335 335 334 332 332 332 334 335 335 332 330 333 333 334 334 335 330 330 330 326 322 320 325 329 332 331 332 335 336 336
335 335 336 336 335 335 334 333 334 336 337 336 335 336 337 338 339 338 338 338 339 338 337 337 336 335 335 334 334 333 335 336 335 336 336 332 332 331 331 331 331 333 333 327 329 331 335 335 333 330 323 324 324 324 320 322 324 330 334 333 333 334
336 337 338 336 335 333 332 331 332 333 335 335 336 337 335 334 335 334 335 336 337 336 335 336 336 336 335 334 334 334 335 336 336 336 336 334 331 331 330 332 332 332 330 329 327 330 332 332 333 335 330 323 320 318 318 324 325 325 332 331 334 334
337 337 337 337 336 334 332 330 330 329 328 328 330 331 330 331 333 331 333 337 339 337 335 335 336 336 336 335 334 334 335 335 335 335 334 333 333 332 331 332 333 333 332 334 332 329 328 331 333 333 334 334 330 322 322 324 322 317 328 331 332 331
336 337 337 336 336 334 332 332 331 331 332 331 331 333 335 337 337 337 336 337 338 339 336 335 335 335 336 335 334 334 334 334 335 334 333 332 332 331 332 332 333 333 333 333 332 327 327 327 331 332 332 332 332 331 330 325 320 323 318 325 330 330
337 337 338 337 336 334 331 331 331 331 331 332 332 332 333 335 337 337 335 335 337 337 336 335 335 334 334 335 335 334 334 334 334 333 333 332 332 332 333 333 332 333 333 333 332 329 329 329 326 327 331 331 332 332 332 332 329 324 322 319 321 328
337 337 337 336 335 334 333 332 331 330 329 330 332 333 334 333 333 335 335 335 335 335 336 336 336 335 335 335 335 334 334 334 333 333 333 333 333 333 332 330 330 330 330 331 332 333 332 329 330 330 329 329 330 329 329 331 331 330 324 322 320 322
335 336 336 336 335 334 333 332 330 329 329 329 330 330 332 332 332 333 333 334 334 334 334 334 334 334 334 335 335 334 334 332 332 332 332 333 332 331 332 331 331 331 332 331 332 334 332 333 332 333 331 328 328 328 327 327 328 328 327 327 321 320
335 336 336 335 334 333 333 332 331 331 330 330 331 330 329 329 330 330 331 333 334 333 334 333 334 333 334 334 334 334 334 332 331 331 333 332 331 332 333 333 332 332 332 331 331 334 333 335 333 333 331 331 331 329 327 326 327 328 328 324 322 322
332 334 335 335 333 331 331 331 331 330 329 329 329 328 328 329 330 329 330 330 332 332 332 333 334 333 332 334 333 333 333 333 332 332 332 332 333 333 334 334 334 332 331 333 331 331 332 333 333 332 332 333 334 334 334 331 331 331 328 327 325 323
328 330 331 330 328 328 328 328 328 329 328 329 329 329 329 330 331 330 330 329 329 329 330 331 332 332 333 332 333 333 333 332 331 332 333 333 333 333 334 334 333 332 331 330 331 332 332 332 332 331 331 334 334 334 333 334 333 331 331 330 328 324
326 328 328 328 328 327 328 328 330 330 330 328 327 328 329 330 331 331 330 329 329 330 330 330 330 330 333 333 332 333 333 333 332 333 333 332 333 334 333 333 334 332 330 331 333 334 334 335 335 335 336 332 334 333 334 333 334 332 330 329 327 326
325 327 328 329 330 329 329 331 330 330 330 330 328 328 329 330 330 330 330 329 330 331 331 331 331 332 333 331 331 333 333 333 332 332 332 333 333 334 335 333 333 334 333 333 334 334 336 335 333 333 333 334 334 334 334 333 334 333 332 331 330 329
326 327 328 328 329 330 330 330 329 328 329 330 329 329 329 330 330 331 329 330 331 332 332 332 332 333 333 331 331 331 333 333 333 333 333 334 334 333 333 331 331 333 332 332 332 332 332 332 333 334 332 332 332 333 335 334 334 333 332 333 333 332
325 327 328 328 329 329 329 329 329 329 329 329 329 328 328 328 329 330 330 330 331 332 333 332 330 331 331 332 332 333 333 334 334 334 335 335 334 334 334 333 333 334 333 334 333 332 332 332 334 334 332 330 333 335 334 336 334 334 334 334 333 332

ECMWFFLT2_sfc_thetae_096.txt.gz
Theta_e
353 353 353 351 352 352 349 351 351 351 350 350 350 350 349 348 348 347 347 347 347 349 350 349 350 349 348 349 346 346 346 346 345 345 345 345 346 347 348 348 347 347 345 344 343 342 341 340 340 339 339 338 337 344 343 343 343 341 341 340 339 336
353 351 352 352 352 352 353 350 351 350 352 351 350 350 351 351 349 351 347 348 350 350 350 349 351 349 349 349 347 345 345 345 345 344 345 345 346 346 347 347 347 346 345 343 342 343 342 341 339 339 338 339 341 342 345 344 344 341 341 341 339 337
351 352 352 352 351 352 351 352 351 350 350 348 350 352 350 350 351 350 350 349 349 351 350 349 351 348 347 346 347 345 345 345 344 344 345 345 346 346 346 346 347 345 343 343 344 344 343 341 341 339 339 340 343 343 344 344 343 343 341 340 339 337
352 353 352 352 353 353 351 354 352 351 351 351 351 349 351 351 350 350 350 350 349 349 349 353 347 348 348 349 347 346 344 344 344 344 344 346 345 345 345 345 346 344 342 343 347 343 343 344 340 341 344 343 342 343 343 344 341 342 342 339 337 336
352 353 352 352 353 352 352 350 351 351 351 348 348 350 351 352 352 352 352 351 349 349 346 348 352 350 347 347 347 346 346 344 345 346 344 343 344 345 347 347 348 344 345 346 344 345 344 343 344 343 343 342 343 344 343 343 340 342 340 340 337 335
352 353 353 351 351 351 351 349 350 351 351 352 352 350 350 353 352 354 353 352 351 351 349 345 347 350 347 346 345 343 343 344 344 343 342 342 341 342 343 344 346 345 345 346 346 345 345 343 342 341 342 343 344 343 342 339 338 339 340 339 338 337
351 352 352 353 352 351 350 351 351 351 350 351 352 351 349 352 353 354 354 352 350 349 347 345 347 348 347 347 344 342 342 343 344 341 343 342 343 342 341 341 344 344 344 344 343 344 343 343 342 340 341 342 343 342 341 339 338 338 339 338 338 336
352 352 352 352 352 351 351 350 351 349 350 350 350 351 351 352 354 353 354 353 351 351 348 345 346 346 346 346 345 346 344 342 341 341 342 343 342 341 340 341 344 345 342 343 342 342 341 340 341 342 339 342 343 342 341 340 340 339 339 339 339 338
352 352 352 352 350 350 351 352 352 352 350 350 351 351 351 353 352 352 353 354 353 351 348 347 346 346 347 345 344 346 343 343 342 341 341 339 340 340 341 341 344 344 343 343 343 342 340 341 341 342 340 340 342 341 341 340 341 339 339 338 340 338
352 351 352 352 351 350 351 352 352 353 352 351 351 352 351 350 351 352 352 352 351 351 349 346 346 346 345 345 345 344 344 343 341 341 342 341 338 340 340 340 343 343 341 342 342 342 341 341 339 340 340 341 341 341 341 340 339 340 339 340 341 339
353 352 353 351 350 352 353 352 352 352 353 352 351 351 351 350 349 350 352 352 350 349 349 348 347 347 346 345 345 345 343 343 341 341 342 341 342 340 340 340 342 342 342 341 342 342 340 340 339 339 340 339 340 343 340 341 340 340 338 339 341 339
354 355 353 352 352 351 351 352 352 350 351 352 351 351 350 350 348 349 351 352 350 350 349 347 349 349 347 345 345 345 345 343 341 341 342 342 341 340 340 339 343 344 345 345 343 344 344 340 340 340 340 338 341 340 338 339 339 340 340 339 338 338
353 354 353 353 352 351 352 352 351 351 352 351 352 350 349 349 348 347 348 347 347 348 350 342 345 347 345 345 344 344 343 345 344 343 343 343 342 340 339 340 342 343 343 343 343 342 342 343 341 341 340 340 340 339 340 339 339 339 339 339 338 338
352 351 351 351 351 350 353 352 351 351 352 351 350 349 349 350 347 347 345 346 347 344 341 342 343 342 345 346 345 342 341 343 345 348 345 344 340 338 337 338 338 341 340 340 340 342 341 340 339 339 340 341 340 342 341 341 340 340 338 338 339 340
347 347 347 349 349 352 353 351 351 350 350 351 350 349 348 348 346 346 346 347 344 339 340 342 341 341 342 345 343 342 340 342 345 348 346 344 340 338 338 338 337 339 340 340 340 340 340 340 338 338 340 341 339 340 341 340 341 341 339 339 339 341
345 346 347 348 348 348 348 348 350 350 350 351 349 347 344 345 345 346 346 347 343 338 340 343 343 343 340 341 341 340 341 341 340 345 346 345 342 337 338 339 340 339 337 337 338 339 341 339 339 339 338 339 340 339 339 339 339 340 340 339 339 341
344 346 347 347 347 347 348 347 348 346 347 349 346 345 344 345 344 344 348 343 343 343 342 343 343 342 341 342 340 337 340 340 339 337 343 344 343 339 339 339 339 340 340 336 336 338 339 340 338 338 338 338 339 340 339 338 340 341 341 340 339 338
346 346 347 346 346 346 346 346 345 345 345 344 346 346 345 346 345 344 343 342 342 343 341 341 342 342 341 341 338 336 336 337 339 338 339 342 343 341 341 342 341 341 339 340 336 337 338 339 338 337 337 336 338 339 339 341 340 338 339 340 339 337
344 346 345 345 344 344 345 345 345 343 342 342 343 344 345 345 344 342 341 343 342 342 341 341 341 341 340 340 338 336 336 336 337 337 337 336 335 340 341 341 341 340 341 342 338 340 340 338 338 336 338 337 338 340 340 340 340 339 339 339 338 337
343 344 344 344 343 341 340 340 339 341 340 340 341 341 343 343 343 342 341 342 342 342 341 341 341 341 339 338 337 336 335 335 335 335 336 334 335 339 339 340 340 341 340 340 341 340 342 339 338 337 336 337 338 338 339 339 340 340 339 338 337 338
343 344 342 340 340 338 336 335 336 336 337 340 339 341 341 341 340 340 341 341 342 343 342 342 341 341 339 338 336 336 336 335 336 335 335 334 335 337 340 340 340 341 339 339 339 342 341 340 337 335 336 335 335 337 338 340 340 340 338 338 338 338
341 342 342 342 341 339 340 338 337 336 338 338 338 336 337 338 340 340 341 341 343 343 342 342 341 339 339 338 336 335 334 336 336 335 335 336 334 335 337 339 340 337 340 338 338 340 341 338 335 331 328 327 331 333 335 336 337 339 340 339 338 338
341 341 340 341 341 339 340 339 340 340 339 337 339 341 341 341 342 341 343 343 342 342 342 342 341 339 338 337 338 337 335 336 335 336 334 335 337 336 338 338 338 337 336 338 336 340 341 339 332 331 330 326 320 322 328 331 334 336 339 337 335 335
340 342 342 342 340 341 340 339 339 339 338 337 336 339 341 342 342 343 342 344 342 342 342 342 342 341 339 339 338 338 337 336 336 337 337 336 336 336 339 339 339 336 335 331 333 335 339 340 334 331 324 326 326 325 321 324 328 332 337 336 334 335
340 339 340 340 340 340 340 339 339 338 337 337 338 337 339 339 341 342 340 342 342 342 342 341 341 340 339 339 339 338 337 337 337 336 337 337 336 337 337 339 339 336 332 329 330 332 334 337 339 336 328 325 320 320 320 326 328 328 331 332 335 338
340 341 340 341 340 339 338 335 334 333 333 333 332 333 334 334 337 339 339 342 340 338 340 341 341 340 339 339 338 338 338 337 336 337 336 337 338 339 337 339 340 340 336 338 335 332 331 335 337 339 338 333 330 323 323 327 325 317 332 335 334 333
340 340 341 341 342 340 338 337 336 334 335 336 336 336 337 339 338 339 341 341 341 341 341 340 340 339 339 338 338 338 337 337 337 337 337 337 336 336 337 337 337 339 337 337 337 331 331 332 333 333 334 337 338 334 332 327 322 325 323 329 331 333
340 340 342 342 341 340 337 337 336 335 335 335 337 337 338 340 342 340 340 342 343 342 341 341 341 340 339 339 339 338 337 336 338 337 336 335 337 338 337 336 338 338 339 337 335 333 332 332 330 328 336 336 335 335 334 335 333 326 325 324 324 331
340 340 341 342 340 341 340 338 338 336 335 335 336 335 336 337 338 339 339 340 340 340 341 341 340 340 340 339 338 338 337 337 336 336 336 335 337 336 334 333 334 336 337 336 337 336 334 330 333 334 333 334 333 332 333 336 335 333 326 321 323 325
337 338 340 341 341 340 339 337 337 336 334 335 335 335 336 335 336 338 338 338 339 339 340 339 340 340 338 338 338 338 338 338 336 335 334 336 334 334 334 333 334 335 336 334 335 336 332 337 335 334 332 333 331 330 331 332 333 331 330 328 323 323
334 336 338 339 338 338 338 337 336 335 333 333 335 335 334 334 335 335 334 336 338 339 341 340 340 340 338 338 337 339 340 338 334 334 334 334 334 334 336 335 334 334 334 333 333 333 334 338 338 333 329 329 331 332 329 329 329 330 330 327 325 325
333 334 335 336 337 336 336 335 335 333 332 332 333 333 333 334 334 334 335 335 336 336 336 339 339 337 337 338 338 339 338 337 335 334 334 335 335 337 337 336 335 335 334 334 333 333 333 334 334 332 332 335 333 335 335 333 330 330 328 328 327 326
331 332 333 333 334 335 335 334 334 334 333 334 335 335 334 334 335 334 334 334 335 333 334 335 337 336 338 338 338 337 336 334 334 333 333 333 334 335 334 335 335 333 334 334 335 334 333 335 335 332 332 334 335 334 335 334 330 330 331 332 330 325
329 331 332 333 334 333 334 335 335 335 335 334 333 334 334 333 335 337 336 335 334 334 335 336 336 336 337 337 336 336 335 335 334 334 334 333 334 334 333 334 334 334 334 335 336 337 337 337 337 332 337 337 332 333 332 331 332 332 333 332 328 327
329 331 332 332 332 332 333 334 334 334 335 335 335 333 332 333 335 336 336 335 334 335 334 336 336 337 336 336 337 335 334 334 335 334 335 335 334 334 334 336 335 335 336 335 335 335 334 332 330 333 331 333 334 333 332 333 333 333 333 333 331 331
328 330 331 330 331 332 333 334 334 334 334 334 333 334 334 334 334 335 337 336 335 336 336 335 337 337 336 336 334 332 334 333 335 334 334 333 333 333 335 335 335 334 335 334 333 332 332 333 331 331 333 334 333 333 335 335 333 333 332 334 334 333
327 329 329 330 331 332 332 332 333 333 333 334 333 333 333 335 336 336 336 337 336 336 337 336 336 336 335 335 334 333 333 333 334 335 334 334 335 333 335 335 333 334 334 335 334 332 333 332 334 332 333 338 333 333 335 337 334 334 335 335 334 334

ECMWFFLT2_sfc_thetae_099.txt.gz
Theta_e
349 351 349 351 350 349 349 351 350 350 350 350 349 349 349 349 349 348 347 348 348 348 350 350 348 347 346 345 347 346 346 345 345 345 345 345 345 346 347 348 346 346 345 343 342 341 340 339 338 339 337 341 340 341 344 342 342 341 340 340 339 338
350 350 350 349 349 349 351 349 349 349 349 350 350 349 349 348 348 348 347 348 347 347 347 349 348 348 345 346 346 346 345 345 345 344 345 345 346 346 347 347 346 345 345 343 341 340 341 340 339 338 340 340 338 343 344 344 342 341 341 339 338 338
351 351 349 349 349 350 348 349 349 348 348 348 348 350 348 348 348 348 347 345 347 347 347 346 348 347 347 345 347 345 345 345 344 344 345 345 346 346 347 346 346 345 344 343 341 342 339 337 337 339 341 338 344 343 344 343 342 343 340 339 337 336
350 351 352 348 349 347 347 351 348 348 348 348 348 348 347 347 348 347 348 347 349 349 349 348 347 348 348 346 346 346 345 344 343 344 344 346 346 346 346 346 346 345 344 342 344 342 341 340 339 341 343 346 342 341 343 343 341 341 340 338 336 336
346 348 346 348 345 347 347 348 348 350 345 348 349 348 348 347 345 347 348 351 350 348 348 351 350 348 347 346 346 345 344 344 344 344 345 341 342 346 347 346 348 345 343 342 342 344 343 341 341 344 343 343 341 342 342 341 340 339 338 338 337 336
346 345 345 345 347 346 344 343 343 344 347 347 346 349 349 347 347 348 346 347 349 347 346 350 351 350 346 345 344 342 342 342 343 343 338 341 339 341 343 345 346 343 343 343 342 344 345 343 341 340 340 343 343 342 341 339 338 338 339 337 337 335
345 342 343 342 344 345 345 344 346 346 345 349 352 350 348 347 346 347 347 346 343 346 344 349 345 347 350 346 344 343 340 343 342 341 336 342 340 341 340 341 343 344 343 340 342 344 344 341 340 338 340 340 342 340 340 338 338 339 339 337 337 336
343 343 344 346 343 345 348 347 346 347 346 347 347 347 346 348 347 345 345 347 347 346 344 346 347 347 347 346 346 344 342 342 342 340 337 340 340 340 340 342 342 342 340 340 341 343 341 338 339 340 338 340 340 340 341 340 340 340 338 338 337 336
346 344 343 344 346 345 347 346 346 347 348 346 345 346 348 346 345 347 346 348 347 346 345 342 343 345 349 347 346 345 343 342 341 342 339 339 341 341 340 340 341 342 342 341 342 341 339 339 340 341 338 338 340 340 340 340 340 339 339 338 339 337
348 343 344 347 348 348 348 348 348 348 347 346 345 346 345 347 348 347 347 348 347 348 346 346 345 344 345 347 345 346 346 343 342 342 340 339 339 340 340 339 342 343 341 340 340 340 339 338 336 339 337 340 339 340 340 339 339 340 340 342 341 336
350 349 349 347 348 348 349 349 347 347 348 346 351 348 347 346 345 348 347 347 346 347 345 344 344 342 346 346 346 345 345 346 343 344 342 340 341 340 341 341 342 342 341 339 341 341 337 338 336 337 339 338 339 339 339 341 339 340 340 342 340 337
349 351 350 349 349 349 349 350 348 348 348 347 349 349 347 349 347 347 345 345 344 339 343 342 343 344 344 345 346 347 344 343 343 342 343 341 339 340 341 339 342 344 343 344 343 342 340 338 337 337 339 336 339 338 339 340 339 340 340 341 340 339
351 352 351 351 349 351 350 348 347 350 348 346 349 348 347 346 347 347 346 344 343 340 339 342 342 343 344 348 345 347 340 340 343 341 343 341 340 343 341 340 341 342 342 343 341 342 339 341 338 339 338 339 338 337 338 339 340 340 340 340 339 338
350 350 352 352 352 351 351 351 352 351 351 347 348 347 347 349 347 348 347 347 346 341 343 346 345 346 349 347 346 344 341 341 346 344 346 343 342 342 337 336 338 338 339 340 341 342 340 339 337 339 338 340 340 340 339 341 340 340 340 340 340 340
350 350 349 350 350 351 352 352 351 350 347 350 347 348 347 349 348 348 344 348 346 349 346 348 348 348 349 347 344 343 341 343 346 344 342 341 340 339 338 337 337 337 337 337 340 341 340 340 339 339 339 340 339 339 341 342 342 341 339 341 341 341
347 347 348 348 349 349 350 350 350 348 348 347 348 344 347 344 344 345 345 344 342 342 347 343 346 348 348 347 345 341 342 345 346 345 343 342 339 335 337 337 337 338 334 334 335 338 340 339 339 338 339 339 340 341 341 341 341 340 340 341 340 341
346 347 347 347 348 347 348 350 348 348 349 346 347 344 342 343 342 343 346 346 340 343 341 346 346 347 346 343 345 345 345 344 346 345 343 343 341 336 336 335 337 336 336 333 332 335 338 339 339 339 338 337 338 340 341 340 340 340 341 340 340 340
347 347 347 347 347 347 347 346 347 346 345 342 343 344 344 343 342 343 349 341 344 344 344 344 344 344 344 345 344 342 342 343 343 343 342 342 341 340 337 338 335 338 335 334 333 335 336 338 339 337 337 335 338 338 339 340 341 339 339 340 339 339
346 346 346 347 347 347 347 347 346 346 343 343 343 346 342 342 343 344 346 339 343 344 343 344 344 344 344 344 341 342 342 342 342 341 341 339 339 339 338 337 337 335 339 338 336 336 338 337 337 337 337 337 339 340 341 341 340 338 339 341 340 340
345 346 346 346 345 344 343 342 341 345 344 342 343 342 343 340 343 341 344 346 344 343 341 343 342 342 343 342 341 343 342 341 340 342 340 338 338 337 337 336 335 333 333 337 338 337 338 339 336 337 337 338 339 341 340 338 339 339 339 341 340 339
345 345 345 343 342 342 339 340 340 341 340 343 343 344 344 346 345 342 342 342 342 341 343 342 342 342 342 341 341 343 342 341 341 342 342 339 340 340 339 338 336 335 333 332 335 339 338 337 337 335 337 338 339 340 340 339 338 338 338 338 338 336
343 342 343 343 343 342 342 340 339 339 341 341 342 342 340 342 344 342 344 343 341 341 342 342 342 342 342 341 340 342 342 340 340 338 340 342 341 340 340 338 336 331 334 331 330 336 341 337 331 329 330 331 333 337 337 337 336 336 338 341 339 338
343 342 341 343 341 341 343 343 342 341 340 340 343 343 344 343 344 342 344 344 343 343 342 342 342 341 341 341 340 337 339 341 339 339 336 340 340 338 338 338 336 333 331 331 333 335 334 335 331 331 332 327 326 326 331 332 334 335 335 338 336 335
341 342 342 344 342 343 344 343 343 341 341 341 340 342 344 344 344 344 343 344 346 345 342 341 341 340 340 340 340 336 339 341 340 341 340 337 339 336 338 337 334 334 331 328 331 334 336 339 334 331 323 322 326 325 320 322 326 333 337 335 336 334
342 342 342 342 342 343 342 342 342 342 341 341 341 340 340 340 342 342 342 344 343 343 341 341 339 336 338 340 341 341 341 342 340 340 340 337 336 339 338 337 336 333 331 329 328 332 334 337 337 337 329 325 323 320 320 324 326 328 333 334 334 335
341 342 342 343 344 342 341 339 338 336 335 336 336 336 336 337 338 339 340 343 344 342 343 342 342 340 340 339 340 339 340 340 340 339 339 339 339 339 339 337 336 335 332 332 331 330 330 335 338 337 334 340 334 323 322 327 325 318 329 333 333 333
341 342 343 342 342 342 341 340 340 338 337 337 336 338 340 341 340 340 342 341 342 345 343 342 343 341 338 338 339 340 340 340 340 339 339 340 335 332 339 334 335 337 335 333 331 329 332 330 333 337 338 336 336 335 332 329 323 327 321 327 331 330
342 341 342 343 342 343 340 339 338 338 338 337 337 337 339 340 342 342 340 342 343 342 343 343 342 341 340 341 341 340 339 340 341 342 342 338 338 339 335 338 340 339 339 336 337 332 332 333 329 333 336 336 334 334 335 331 332 327 325 321 322 330
342 342 341 342 342 341 342 341 340 339 337 338 338 338 339 339 339 340 340 341 342 341 342 344 344 341 341 341 341 341 342 341 343 342 341 338 338 339 337 339 340 339 336 335 337 337 333 332 336 335 332 331 329 330 332 332 332 333 328 323 322 324
338 340 342 342 342 342 341 341 339 339 338 337 337 337 339 338 338 341 339 340 341 341 341 342 343 343 342 341 340 340 339 341 343 341 340 337 337 337 337 336 338 337 336 340 336 335 334 337 338 338 335 332 329 328 327 328 330 328 328 329 323 323
336 337 339 339 341 340 341 340 339 340 338 337 337 337 335 336 337 339 339 339 340 341 341 340 340 342 342 342 340 339 339 340 342 339 337 337 336 336 336 339 340 339 339 338 336 334 337 339 339 337 334 333 331 329 326 326 327 329 326 322 324 326
335 336 337 336 337 337 338 338 338 337 336 337 336 334 334 334 335 336 337 337 338 338 340 341 340 338 340 342 341 339 340 341 336 337 337 336 336 337 337 338 340 337 337 336 336 334 336 336 337 334 333 334 334 334 335 333 332 330 327 325 326 324
332 334 334 335 335 336 336 336 336 336 337 336 335 335 334 334 336 336 337 338 337 338 338 338 337 338 340 342 341 339 339 338 336 337 336 335 335 337 334 335 335 334 335 332 333 334 337 336 334 333 333 335 336 335 334 334 334 333 330 331 327 327
332 332 332 333 334 333 334 335 335 336 336 335 335 335 335 334 335 335 336 337 337 337 338 338 336 338 340 341 340 340 339 338 338 339 337 337 337 336 336 335 335 333 334 337 338 338 335 335 335 333 334 336 335 334 334 334 333 332 330 331 328 326
330 331 332 332 333 333 335 335 336 337 336 336 335 334 334 335 335 334 335 335 336 336 335 336 337 338 340 340 341 340 340 339 339 338 336 336 336 337 335 335 336 338 334 336 336 335 334 333 334 332 336 335 334 334 332 334 334 334 333 332 330 330
329 330 332 332 333 334 334 335 336 335 336 335 334 333 333 334 335 336 335 334 334 337 334 336 337 337 339 340 339 339 339 338 337 337 336 336 335 334 334 333 334 334 334 334 332 333 332 332 330 332 336 335 332 333 334 335 335 335 334 336 332 332
328 330 330 331 332 333 334 334 334 335 335 334 333 333 333 335 335 337 336 335 335 335 335 333 334 337 339 340 340 339 337 337 337 336 336 336 336 336 334 334 332 333 333 334 333 334 335 334 334 335 337 335 333 333 335 336 336 334 335 335 333 334

ECMWFFLT2_sfc_thetae_102.txt.gz
Theta_e
345 344 345 346 345 346 348 350 350 350 349 349 349 349 349 349 348 348 347 347 348 346 347 347 347 346 347 346 347 347 347 347 346 346 345 345 346 347 347 347 345 344 344 343 341 340 339 339 337 341 341 341 341 338 338 339 336 337 336 336 338 340
347 345 347 347 346 347 349 347 348 349 349 349 349 349 348 348 348 347 348 347 346 346 345 346 346 348 345 344 345 347 347 346 346 345 345 345 346 346 347 347 345 345 344 342 341 338 338 339 341 340 340 340 338 335 343 342 338 337 336 335 338 340
343 343 343 346 347 347 346 346 345 347 347 348 347 347 347 347 346 345 344 345 347 347 346 346 346 348 345 345 344 347 346 345 345 345 345 345 346 347 347 346 346 345 344 343 340 337 335 334 334 339 342 338 337 338 343 342 337 335 334 334 333 337
344 342 343 343 346 346 345 347 347 345 346 347 347 346 346 346 344 345 343 344 346 351 350 350 347 351 346 344 346 346 346 345 345 345 345 344 346 346 347 346 346 346 344 341 335 339 334 333 335 335 335 338 340 338 340 342 336 334 333 334 332 338
345 345 345 344 344 347 347 346 346 350 348 347 347 346 346 347 350 350 345 350 349 347 347 345 344 350 344 344 343 343 344 342 343 342 344 342 343 343 345 344 345 344 341 338 337 339 336 335 337 338 339 341 342 342 339 338 336 334 333 333 335 340
344 343 345 344 345 346 344 343 343 346 349 348 347 347 347 348 347 348 350 349 347 345 346 344 344 346 349 346 342 341 341 341 341 341 343 340 339 341 341 343 343 342 340 339 339 340 340 338 337 338 340 340 342 342 338 337 336 335 334 333 335 336
344 343 344 345 345 345 345 344 345 344 344 346 347 347 347 347 348 348 349 349 347 347 346 345 342 345 343 347 347 343 340 340 341 340 339 337 336 338 338 341 343 341 340 340 339 340 347 346 340 337 338 339 340 337 343 336 336 334 333 333 335 337
344 343 343 344 344 341 345 344 345 345 345 348 345 342 341 346 347 350 346 344 347 346 345 343 343 345 347 347 345 340 339 342 343 340 335 334 337 337 335 338 342 342 340 339 339 344 342 338 335 339 336 338 338 340 342 338 336 335 334 333 334 336
345 345 344 344 344 344 345 346 345 345 345 347 345 345 347 346 345 346 342 342 343 345 343 344 344 345 345 344 344 342 341 338 336 336 335 332 337 338 336 336 340 340 339 340 346 345 342 337 338 342 336 337 338 339 339 337 336 336 334 333 332 334
346 346 345 346 345 345 347 346 346 346 348 344 345 346 344 342 344 344 341 339 341 343 344 344 343 345 343 344 341 340 341 340 337 335 337 331 335 340 338 337 341 340 338 340 342 341 341 335 332 337 336 337 340 339 342 338 335 335 335 334 334 334
347 347 346 345 348 347 349 347 347 348 347 342 344 346 342 341 341 342 341 340 342 342 341 343 345 345 344 345 344 341 340 344 342 339 339 337 338 339 341 339 341 339 338 338 342 342 338 335 332 333 335 336 335 337 335 338 337 337 337 334 333 333
348 349 348 347 348 348 347 347 348 348 347 342 341 343 344 340 341 343 344 344 343 344 342 341 342 345 344 344 344 342 342 344 341 341 343 340 339 341 340 338 339 343 343 349 347 344 341 335 331 330 335 334 336 335 337 337 336 336 337 335 333 332
350 350 348 348 349 350 348 345 349 348 345 343 341 341 339 341 342 343 344 342 342 340 340 340 341 340 340 343 344 344 342 340 342 344 344 342 340 340 342 342 342 344 345 345 341 339 339 337 335 334 333 332 336 334 335 336 336 336 337 336 334 332
349 348 348 347 347 346 348 348 347 346 346 343 343 341 341 342 343 343 340 343 343 341 340 341 339 339 341 343 343 343 343 341 344 345 345 343 341 343 342 340 339 341 341 339 340 338 337 335 335 334 335 334 333 336 336 335 335 336 337 336 336 333
346 346 346 345 343 344 346 346 343 343 345 343 342 343 344 345 344 343 343 342 341 339 340 343 343 341 339 339 340 342 342 341 344 345 343 344 342 342 339 338 337 334 337 338 340 343 339 335 334 331 334 338 334 336 337 337 337 337 337 337 337 335
347 347 346 345 346 346 347 343 345 344 342 340 342 344 344 343 343 342 342 342 340 342 342 340 341 340 339 340 339 339 341 343 344 344 343 344 342 338 337 339 338 338 334 332 335 336 335 333 334 335 337 339 336 337 337 337 337 336 336 337 335 337
347 347 346 347 348 347 344 341 343 345 343 344 342 343 345 345 343 343 344 343 342 342 341 341 339 338 338 339 337 338 343 342 343 343 343 343 340 338 338 337 337 337 336 333 331 332 332 332 334 335 334 335 335 337 337 337 337 336 341 336 336 336
348 349 352 351 349 347 347 345 343 343 342 343 344 346 345 345 344 344 343 342 341 341 340 339 340 339 339 339 339 339 339 341 342 342 342 341 340 340 337 337 335 337 337 337 334 332 336 337 334 332 333 332 333 337 337 337 337 337 337 336 336 336
348 349 349 349 349 350 351 348 348 347 347 346 346 345 346 345 345 345 343 342 341 342 340 340 341 340 341 341 339 338 338 338 340 340 340 340 339 339 337 336 335 336 338 336 335 336 336 336 335 334 331 332 333 336 337 337 336 337 337 337 338 338
348 350 350 348 347 347 346 345 344 348 345 346 346 344 345 344 345 344 344 343 342 343 341 341 341 342 341 340 339 339 338 339 338 339 338 337 337 337 337 336 335 335 335 337 338 336 336 336 335 332 332 331 332 335 337 336 336 336 336 336 337 337
347 348 348 346 344 342 342 343 343 343 344 345 343 345 345 346 344 344 343 343 344 344 342 341 340 341 342 341 341 340 339 338 338 337 337 337 338 337 338 337 336 336 334 333 333 336 336 335 331 329 331 332 333 334 334 336 336 336 337 339 339 337
347 348 346 346 346 349 344 345 341 341 342 341 344 344 343 344 346 347 344 344 343 343 342 342 342 341 342 341 340 338 338 337 338 338 337 338 338 338 338 337 336 334 335 333 332 334 336 333 326 324 323 322 328 329 334 336 335 336 337 340 339 339
345 346 347 348 349 343 346 346 344 343 341 340 344 346 345 346 348 345 345 345 345 344 342 342 342 341 341 342 341 339 337 338 338 337 336 336 337 335 335 334 335 333 331 332 332 335 335 331 325 327 328 323 321 322 327 330 333 335 336 336 336 335
343 345 347 345 344 344 346 344 346 346 344 342 339 341 342 344 344 345 344 345 345 344 342 342 342 342 342 341 341 341 339 337 336 336 336 335 335 334 334 334 333 333 333 329 329 331 335 332 330 327 319 319 321 322 317 322 326 331 334 334 335 334
346 345 347 345 345 346 345 343 343 345 343 341 341 340 339 338 340 342 342 342 343 344 343 343 343 342 340 340 340 340 338 337 336 337 337 336 335 335 335 335 334 333 332 330 328 330 333 333 331 333 326 322 319 317 317 323 325 325 332 332 333 332
345 346 347 345 345 345 345 341 340 340 337 337 336 339 337 338 342 340 340 345 345 343 342 342 342 342 339 339 339 340 339 338 338 338 337 337 337 336 335 333 332 330 330 332 332 330 330 334 334 333 332 329 328 320 320 324 324 318 328 331 331 331
344 346 345 345 346 344 342 344 342 339 337 336 335 337 342 344 343 343 343 346 345 346 343 342 342 341 340 339 339 339 340 338 337 337 338 337 336 335 335 332 332 333 331 332 332 328 328 328 331 332 331 331 331 330 331 323 319 320 317 324 330 328
345 345 347 347 346 346 343 343 341 340 338 337 337 337 339 340 342 343 343 342 345 345 344 343 341 341 340 340 339 339 339 339 338 339 339 338 336 336 335 333 332 333 334 333 331 328 328 329 325 326 330 329 329 332 333 332 327 322 321 319 321 328
343 343 344 344 345 346 345 343 341 340 339 339 339 338 338 338 339 341 340 341 342 342 342 343 343 342 341 340 339 339 339 339 338 338 339 338 336 333 334 333 333 331 331 332 332 330 329 327 328 327 327 327 330 329 332 331 331 329 322 320 320 322
337 340 343 343 344 343 343 342 340 340 338 338 338 338 338 337 338 339 338 339 340 339 339 342 341 342 340 340 339 339 339 338 338 338 338 337 336 336 334 334 331 330 331 331 332 332 330 329 328 330 329 328 328 327 327 327 328 327 327 326 320 320
338 339 341 342 341 340 340 340 338 338 337 336 336 336 334 334 334 335 335 336 338 339 339 336 337 340 340 340 340 339 339 338 338 337 337 337 336 336 335 334 333 333 332 332 332 331 330 331 330 328 328 329 330 328 326 324 325 327 326 323 322 322
337 338 338 339 340 340 339 341 339 338 336 337 336 334 333 332 333 333 333 334 335 338 338 337 336 334 334 339 337 336 339 339 337 335 336 337 336 336 334 334 333 332 330 331 331 330 329 329 329 329 330 332 332 332 331 329 330 329 327 325 324 322
332 335 334 335 335 336 336 336 336 337 337 338 337 335 334 333 334 333 333 333 334 334 337 335 335 332 334 335 334 332 336 337 337 336 335 335 336 336 334 333 334 333 333 330 329 331 327 329 330 329 330 333 333 332 332 334 333 330 329 328 325 321
331 333 333 334 334 334 335 336 336 336 336 336 335 335 334 333 334 334 334 333 333 333 334 334 334 333 334 335 334 334 334 333 335 335 334 334 335 336 335 333 332 332 332 332 332 331 329 330 329 330 332 331 331 332 333 335 333 332 330 327 325 323
328 330 331 332 333 333 333 334 335 335 335 335 334 334 333 333 333 333 333 333 333 333 334 333 335 333 332 332 332 333 334 333 335 335 335 335 335 335 335 334 333 333 332 332 332 330 330 330 330 329 330 331 331 332 333 335 333 331 332 329 327 326
327 328 329 330 330 331 332 333 334 334 335 335 335 335 333 334 335 335 334 334 334 335 334 334 334 333 332 331 330 332 332 332 332 332 335 334 333 333 335 332 332 332 329 332 331 329 328 330 330 329 329 332 331 330 332 333 333 332 332 329 329 328
326 327 327 328 328 329 329 330 331 331 332 332 333 333 333 333 334 334 333 334 333 332 333 334 332 333 333 332 332 330 331 331 332 334 334 332 332 334 332 333 331 330 330 330 331 330 330 329 330 331 330 331 332 332 333 333 333 333 333 331 330 329

ECMWFFLT2_sfc_thetae_105.txt.gz
Theta_e
342 342 343 344 345 346 348 350 349 349 350 350 350 350 350 349 348 348 347 348 347 343 342 342 344 343 347 344 346 347 347 347 346 346 346 345 346 346 347 346 345 344 343 343 341 341 341 341 342 342 344 344 344 335 333 333 335 338 338 340 340 339
341 341 342 344 346 347 348 348 346 346 347 348 349 349 348 346 349 343 347 345 342 344 341 341 341 348 343 344 345 347 347 347 346 346 345 345 346 346 346 347 345 344 343 342 342 334 336 340 342 343 344 344 338 334 335 334 334 335 337 337 339 341
341 342 343 343 345 346 345 345 345 345 347 349 348 348 345 347 343 342 342 342 343 341 341 343 343 347 345 346 344 347 347 346 346 345 345 344 346 346 346 347 345 345 344 343 337 334 332 331 331 339 341 336 332 333 337 333 333 334 335 337 337 341
340 340 340 342 344 342 342 343 343 343 343 343 343 344 343 342 342 342 341 340 341 346 344 340 350 350 348 344 345 347 346 346 346 345 345 345 345 346 346 347 346 345 344 342 336 332 333 330 328 329 330 330 331 335 334 332 332 332 332 335 334 339
339 340 340 342 342 341 342 342 342 342 342 342 341 341 342 342 344 342 340 342 343 343 343 341 338 342 340 342 341 340 341 340 338 338 344 338 336 342 342 340 340 342 337 338 336 333 333 331 330 331 331 332 334 337 333 332 331 330 330 332 334 339
340 340 340 341 341 344 342 340 340 342 342 343 342 342 342 341 341 343 343 343 343 340 340 340 337 338 341 339 339 339 339 338 336 337 341 339 337 336 340 339 340 340 339 338 336 334 334 336 331 332 333 334 335 336 331 331 331 330 331 332 335 338
339 340 341 341 341 340 339 339 339 341 342 341 342 342 341 340 340 341 340 340 340 339 338 337 337 339 338 340 338 338 338 337 336 335 338 338 336 335 338 338 338 339 338 337 337 336 336 337 335 333 335 336 335 334 332 331 331 331 331 331 336 339
339 340 339 340 339 339 339 340 342 345 343 345 340 337 339 340 342 339 339 337 340 339 339 338 338 338 339 340 339 336 336 336 336 336 336 336 334 332 335 335 336 338 338 337 337 337 336 337 336 334 334 334 334 334 332 331 331 331 330 331 333 336
340 340 339 340 338 339 340 340 340 340 339 347 339 338 340 340 340 339 339 340 339 337 339 338 338 339 339 338 338 336 336 335 334 335 335 333 332 331 332 333 334 337 338 337 336 336 337 336 334 333 333 333 333 333 332 331 331 331 330 330 331 334
340 340 340 341 340 339 341 340 340 340 341 341 337 339 340 338 338 338 336 336 338 337 337 337 337 338 337 338 338 337 336 336 336 335 334 332 329 329 331 331 331 335 338 337 336 338 337 335 333 332 332 333 334 333 332 331 331 330 330 330 331 334
342 343 341 340 341 341 342 341 340 339 337 337 338 340 338 336 337 336 335 335 335 338 336 335 337 338 339 339 338 336 335 337 337 336 335 335 334 329 332 333 331 334 336 336 336 336 335 333 332 330 332 334 333 333 332 332 331 330 330 330 331 333
343 343 341 342 343 343 343 343 342 338 338 339 341 339 337 335 338 335 337 335 336 336 337 336 337 338 339 338 338 338 337 336 336 337 337 336 336 337 336 336 334 335 337 336 340 339 337 334 332 329 328 333 334 332 331 332 332 331 331 331 331 331
343 343 342 343 344 343 342 344 343 340 339 339 336 336 335 337 337 339 339 338 337 336 336 335 334 334 336 336 336 338 337 336 336 337 337 338 338 338 337 337 336 337 339 339 336 334 339 334 332 331 331 331 332 332 333 333 333 331 330 330 330 330
344 344 343 343 342 342 341 343 343 341 341 338 336 335 336 334 338 338 338 338 337 336 336 337 335 335 336 335 337 338 338 336 335 336 337 339 336 336 336 335 334 335 340 338 336 335 333 331 331 331 331 330 331 332 332 333 333 332 331 330 329 329
345 343 343 340 340 342 342 341 340 341 339 338 338 336 336 336 336 336 337 336 338 337 337 337 337 335 334 334 335 335 336 337 337 338 339 339 337 337 334 333 334 332 332 335 337 336 334 332 331 331 330 331 330 331 332 332 334 333 331 330 329 328
343 342 340 339 339 341 341 340 339 342 337 337 337 337 337 337 337 336 337 336 337 337 337 337 338 336 333 333 334 334 335 337 338 338 338 338 336 334 333 333 333 333 331 332 334 336 334 332 330 329 330 330 330 331 331 331 332 333 332 331 328 328
342 342 341 340 341 340 338 336 339 338 337 336 335 338 336 337 337 337 337 337 336 336 336 336 337 335 333 333 334 334 335 337 336 337 337 337 336 334 333 333 330 333 333 331 331 331 333 331 329 330 330 332 331 332 333 332 332 332 333 331 329 329
343 343 341 341 341 339 337 336 336 339 339 337 337 337 339 339 337 337 336 336 337 337 337 336 336 335 334 334 334 334 334 335 335 336 335 336 335 334 332 330 330 331 333 334 333 334 332 332 332 331 332 332 332 332 334 334 333 334 331 331 331 330
342 342 341 341 340 340 339 337 335 337 335 333 335 337 339 338 338 338 337 337 338 337 338 337 336 335 333 333 334 333 333 334 334 333 335 336 334 334 332 331 330 330 334 334 333 334 332 332 333 332 329 329 331 331 333 335 335 333 331 332 332 333
340 341 341 341 340 338 337 336 333 335 334 334 336 338 339 339 340 338 339 338 337 336 336 336 336 336 334 334 334 334 333 333 333 333 333 334 334 333 333 331 330 331 331 333 335 334 333 332 331 329 327 327 331 333 333 333 334 332 331 331 334 333
337 339 339 337 334 333 333 334 334 334 334 335 335 337 337 339 340 340 340 340 338 337 337 336 337 336 335 337 335 334 333 332 332 333 332 332 333 333 334 333 331 331 330 329 331 334 334 332 328 325 325 325 328 333 333 332 333 331 331 331 333 332
337 336 336 336 334 334 334 333 333 332 332 335 337 337 337 339 339 341 340 340 339 338 338 337 337 335 337 335 334 333 332 333 333 333 333 333 332 334 333 333 331 329 331 330 329 332 332 329 323 322 319 319 321 324 328 330 331 332 332 331 331 332
335 336 335 337 336 335 334 335 333 333 332 333 335 338 338 339 340 339 339 339 339 339 339 338 337 336 336 336 335 334 333 333 333 333 333 333 333 332 332 332 332 330 328 330 331 333 332 329 323 324 323 319 316 317 321 324 327 330 331 330 330 331
334 336 336 337 335 335 336 335 333 333 333 333 332 334 334 335 335 337 338 339 339 339 336 335 335 335 335 337 336 335 334 333 333 334 333 332 331 332 332 332 332 331 330 327 328 329 333 330 327 324 316 316 318 319 314 319 321 325 330 328 329 329
334 337 336 336 336 335 334 333 333 333 333 333 334 332 331 332 333 335 338 336 337 335 335 335 333 333 334 336 337 337 335 334 333 333 333 332 331 332 332 332 332 331 330 329 327 328 331 330 328 328 323 317 315 314 315 318 322 321 327 327 327 328
335 335 338 337 337 335 335 331 331 330 328 328 327 329 329 331 332 333 334 336 336 335 335 334 334 333 333 336 336 336 336 334 333 332 332 332 333 332 332 332 332 331 330 331 329 327 328 330 329 329 328 324 321 316 317 321 321 314 323 325 326 326
337 338 338 338 338 335 332 332 332 332 331 330 327 328 331 333 334 335 336 336 336 332 334 335 334 334 334 336 333 333 333 334 334 333 333 332 332 332 333 333 333 332 331 331 330 326 327 327 328 329 329 328 327 327 325 320 317 319 317 322 325 325
336 336 340 341 339 338 336 334 331 333 334 332 331 331 332 334 333 335 334 335 333 332 333 333 333 332 332 334 334 332 331 332 333 334 333 333 332 333 333 333 333 332 332 330 329 327 326 328 325 326 329 327 327 328 328 326 325 321 319 318 320 324
334 335 336 337 336 338 337 334 332 332 332 334 332 331 332 331 331 332 332 333 333 332 331 333 333 332 333 334 334 332 333 333 333 334 333 332 333 333 332 332 331 329 327 327 327 330 328 327 327 326 326 326 326 325 327 326 327 324 318 317 316 320
334 333 334 334 334 333 334 334 332 330 328 328 329 328 329 327 328 328 328 329 330 331 331 331 333 333 333 335 334 332 331 333 333 333 333 333 333 333 331 331 332 330 329 327 329 329 329 329 328 327 327 326 324 323 324 323 324 323 324 322 318 319
332 330 329 330 330 330 331 330 328 328 327 326 326 327 325 324 326 326 326 327 328 330 330 331 330 331 333 333 330 330 330 329 330 332 333 332 332 334 332 331 329 328 328 327 328 330 329 329 327 326 327 326 325 324 323 321 322 324 323 320 319 319
328 328 328 328 328 328 329 329 329 329 329 329 329 328 326 325 326 326 326 327 328 328 328 329 329 329 329 331 331 331 331 330 330 328 329 330 330 331 330 329 329 329 329 329 329 330 329 328 326 325 326 326 326 327 326 324 325 326 324 323 322 320
326 326 327 327 327 328 328 328 329 329 328 329 328 328 327 326 326 326 326 326 327 327 328 328 328 329 329 329 330 329 329 329 329 329 329 329 329 330 331 329 329 329 328 327 328 328 328 328 327 325 325 327 327 328 328 327 328 327 327 326 324 321
323 325 326 325 326 326 326 327 328 328 328 328 328 328 328 327 327 328 328 327 327 327 327 327 328 328 330 330 329 329 329 329 330 330 331 330 329 330 331 330 329 328 327 328 328 327 328 328 328 328 328 327 328 327 328 331 330 329 327 325 322 321
322 323 323 323 324 324 324 325 326 326 326 327 326 327 327 328 328 328 328 327 327 327 327 328 328 329 330 329 328 328 327 327 328 329 329 328 329 329 330 331 330 329 329 331 328 327 327 327 327 327 328 329 329 330 330 331 331 329 329 326 325 323
321 321 321 322 322 322 323 324 324 324 325 326 326 326 326 327 328 327 327 327 327 326 327 327 327 328 328 328 328 328 328 327 328 328 328 330 330 329 329 329 330 330 330 332 329 327 328 328 327 327 327 329 329 329 330 332 331 330 330 328 327 325
319 320 321 321 321 321 321 321 322 324 324 325 325 325 325 326 328 328 327 327 327 327 327 327 327 328 327 328 328 328 328 327 327 327 328 328 327 327 328 328 329 330 329 329 330 329 328 326 327 328 327 327 328 329 330 332 331 330 330 329 328 327

ECMWFFLT2_sfc_thetae_108.txt.gz
Theta_e
343 343 344 344 343 344 348 349 349 349 349 348 349 349 349 349 348 348 347 348 347 342 341 341 344 341 347 344 347 347 347 347 347 346 345 345 345 346 346 346 344 342 343 342 342 342 343 343 344 344 344 344 339 332 333 334 335 338 338 339 340 338
341 342 343 344 344 345 347 347 343 345 346 347 348 348 347 343 348 341 348 346 340 344 339 337 338 348 342 343 345 347 347 347 346 346 345 345 345 345 346 346 344 344 343 343 343 333 334 337 339 342 344 341 332 332 333 334 335 337 338 337 338 339
339 340 342 343 344 345 343 342 342 343 344 348 347 347 341 344 338 338 339 338 340 338 336 338 340 344 343 347 344 347 347 347 346 346 345 345 345 345 346 346 345 344 344 344 335 330 329 328 328 336 336 331 329 332 332 333 334 335 336 337 336 340
338 339 340 341 342 342 342 342 341 341 342 342 342 343 339 339 339 337 338 335 337 340 340 338 348 349 349 342 341 347 347 347 347 346 346 344 345 345 346 346 346 345 344 339 331 330 329 328 328 327 326 328 331 332 331 332 333 333 335 339 336 341
338 339 340 341 341 340 341 340 340 339 340 339 339 339 338 338 338 338 335 338 337 341 340 335 334 339 342 338 336 336 337 337 337 336 345 333 334 340 339 336 337 340 333 332 332 331 329 329 330 330 328 330 332 331 331 331 331 332 333 334 335 340
339 339 340 340 339 341 341 338 338 339 338 339 339 338 338 338 338 338 336 337 340 337 336 336 335 336 339 338 337 335 336 335 333 333 339 335 333 333 334 335 336 337 336 334 333 333 330 332 332 331 330 331 334 332 329 329 329 329 330 330 336 338
338 339 339 339 339 339 337 337 338 338 338 338 338 338 337 337 337 339 338 340 338 337 334 335 335 335 336 338 337 335 335 334 332 331 333 333 332 333 335 335 335 336 335 335 336 336 334 333 332 333 332 332 333 330 329 328 328 328 329 331 337 339
338 338 337 338 338 337 336 337 339 344 340 341 339 336 336 336 339 336 337 338 338 335 336 334 335 334 335 335 336 336 335 333 334 332 332 332 333 331 331 335 334 334 335 337 337 336 334 335 334 334 333 332 331 329 328 328 328 329 329 330 333 337
338 337 337 337 337 336 336 337 340 338 338 346 336 336 336 337 336 336 337 337 340 334 335 336 334 336 334 336 335 334 333 333 333 334 332 332 333 330 329 331 332 333 335 336 336 335 334 334 334 334 332 332 331 329 329 328 328 329 328 329 331 335
338 337 337 337 337 337 336 337 336 337 338 342 335 337 337 335 335 336 335 336 338 336 336 336 335 335 335 335 334 334 334 333 333 333 331 332 331 329 328 328 330 331 334 335 335 335 335 334 335 333 330 330 331 330 329 328 328 328 328 329 330 334
338 340 337 337 337 337 337 336 337 336 336 335 337 339 337 335 335 335 335 335 335 336 335 334 335 334 334 334 333 333 333 333 333 333 333 333 332 329 327 328 330 329 331 333 334 335 336 335 334 332 330 331 331 330 329 329 329 329 328 328 329 331
339 339 338 337 338 337 337 337 338 336 335 335 338 336 335 335 338 334 334 333 333 334 335 333 333 334 334 333 334 334 334 333 333 334 334 333 332 333 332 331 331 331 331 332 334 334 334 333 332 331 328 330 330 330 330 329 328 328 328 328 329 330
340 339 338 338 338 339 339 340 338 336 336 337 337 336 334 334 334 333 333 334 333 333 333 332 332 333 336 333 333 333 333 334 334 334 335 335 335 335 334 334 334 335 332 332 332 333 334 333 332 331 330 328 329 330 331 329 328 328 328 329 329 330
340 339 339 340 340 339 339 339 339 337 338 336 335 336 336 334 335 335 335 335 334 334 333 332 331 331 332 331 331 331 332 334 334 334 335 334 334 334 333 333 332 331 335 333 332 333 332 330 330 331 329 329 328 329 330 331 330 329 328 329 328 329
341 339 342 339 340 338 338 340 338 337 337 335 334 334 334 333 333 335 335 335 334 334 334 332 332 331 330 331 331 331 333 335 335 335 334 335 334 333 333 333 331 331 329 329 331 330 330 329 330 330 328 329 328 329 330 331 332 331 331 328 327 328
341 340 338 339 339 338 339 337 337 340 335 334 334 334 333 334 333 332 334 333 332 333 334 332 332 332 332 330 330 331 332 333 335 335 334 334 334 333 332 331 332 331 328 328 329 328 330 330 330 329 328 328 328 329 329 331 331 331 332 330 328 327
340 339 337 337 338 336 336 335 335 337 334 333 333 334 333 333 334 333 332 332 331 332 332 332 331 332 333 332 331 330 331 332 334 335 334 333 333 333 331 331 330 330 329 328 329 329 329 330 331 330 328 329 329 330 329 330 331 331 331 330 328 327
340 339 337 337 338 336 335 335 333 332 335 332 331 331 333 333 334 332 331 332 332 332 332 330 331 333 334 335 334 333 332 332 333 334 334 333 333 332 330 330 329 328 330 329 327 326 327 329 332 332 331 329 329 328 329 330 331 333 330 329 328 327
340 338 336 337 338 334 333 331 331 332 330 329 332 333 332 333 334 332 332 332 332 334 335 334 333 333 332 332 332 332 332 331 331 331 332 333 332 332 331 329 328 327 330 330 328 329 328 329 331 331 329 329 328 328 328 330 332 331 330 329 329 329
338 338 336 335 336 332 331 330 329 330 330 331 331 332 334 335 334 334 335 334 333 334 334 336 334 333 332 331 330 330 330 328 329 330 330 331 333 332 331 329 328 326 327 328 330 330 330 328 327 328 328 328 330 329 327 329 330 330 330 329 329 331
337 337 335 334 332 331 328 331 330 328 328 328 330 331 333 333 334 334 335 335 334 334 333 334 335 333 332 333 333 331 331 330 329 330 330 330 331 331 331 330 328 328 327 326 327 328 329 328 324 322 325 325 326 329 331 330 329 329 329 330 331 330
333 333 334 334 333 332 327 328 326 327 328 330 331 331 332 332 334 336 336 335 335 334 334 334 334 333 333 333 332 332 332 332 331 330 330 331 330 332 331 330 329 327 327 327 325 328 329 326 321 320 319 319 321 323 328 328 327 329 330 331 330 329
332 333 333 334 332 331 330 330 328 328 328 328 329 333 334 334 335 335 335 334 333 332 332 331 332 332 331 332 333 333 333 332 331 332 331 330 330 330 331 330 329 329 326 326 328 329 329 327 322 323 322 319 316 315 319 321 324 326 329 329 329 329
331 332 333 333 332 330 330 330 329 329 329 328 328 331 330 330 330 332 333 332 332 332 332 331 332 331 331 331 332 333 334 332 332 331 331 331 331 331 332 332 331 330 329 326 328 328 330 328 326 322 316 318 316 316 313 316 318 321 328 328 328 328
333 332 331 333 330 330 330 329 328 328 328 330 327 328 329 329 331 332 334 331 330 332 332 331 331 330 331 331 331 333 334 334 333 331 332 332 332 332 332 333 332 331 330 328 326 325 328 329 327 328 323 316 313 312 314 316 319 319 326 324 326 327
333 332 332 332 333 333 332 329 329 328 325 324 325 326 326 328 329 330 331 332 331 331 332 332 332 331 331 332 331 332 333 334 334 333 332 332 332 332 332 332 332 332 331 331 328 325 326 330 329 328 328 325 322 316 315 318 320 315 323 326 326 327
334 333 335 334 335 334 332 332 332 332 330 328 326 325 326 329 330 331 332 330 329 330 331 331 331 331 331 331 331 331 331 331 331 332 334 332 331 331 332 332 333 332 332 331 330 326 326 327 328 328 328 327 326 326 324 319 316 315 315 321 324 324
334 335 336 336 336 334 332 332 330 329 330 329 328 327 328 330 329 329 329 330 329 329 330 330 330 330 332 332 332 332 331 330 330 330 332 333 332 332 331 332 333 333 333 332 330 328 327 327 325 325 327 326 325 326 326 324 323 321 318 316 318 324
332 334 335 335 335 336 336 335 334 333 332 333 332 330 327 325 328 326 325 326 327 328 328 329 329 329 330 331 332 331 330 329 329 329 331 332 332 333 330 330 331 332 331 331 331 330 329 327 326 325 325 324 325 324 324 323 324 322 318 317 318 319
328 329 330 330 330 330 331 331 330 330 328 327 326 326 323 324 325 325 324 325 325 325 327 327 328 330 330 330 330 330 330 329 329 329 331 330 331 330 329 330 331 331 331 330 330 329 328 327 327 326 326 325 323 323 322 321 321 321 321 320 318 319
327 327 328 328 328 328 329 329 328 326 325 324 325 325 325 325 325 323 323 324 323 324 325 327 328 329 329 330 330 331 329 328 329 329 329 328 328 328 329 329 330 331 331 329 329 327 326 326 327 326 326 326 323 324 321 320 320 321 321 319 318 319
325 325 326 326 325 325 326 326 325 324 324 323 324 326 325 323 323 320 321 322 323 323 324 325 326 326 327 328 329 329 329 328 328 328 328 328 327 327 328 329 327 326 326 327 328 327 326 325 326 326 326 326 326 325 325 323 323 324 322 322 321 320
322 323 323 324 323 323 324 324 324 323 322 323 323 323 322 322 322 321 322 322 323 323 324 324 325 325 326 326 327 327 327 328 329 330 330 329 328 327 327 327 327 326 326 325 326 326 325 326 327 326 326 326 326 326 326 326 326 325 325 324 322 319
321 321 321 321 321 321 321 322 321 321 321 321 322 322 322 322 323 323 323 322 322 323 324 323 324 324 326 326 327 327 328 328 328 329 329 329 328 327 327 327 327 327 327 328 327 327 326 327 328 328 327 325 325 326 327 327 327 326 325 323 321 320
320 320 320 320 320 320 320 321 321 320 321 321 322 321 322 323 323 323 323 323 324 324 323 324 324 325 326 326 326 326 326 327 328 328 328 328 329 329 329 329 328 328 328 328 328 328 327 327 326 326 326 326 326 326 327 328 327 326 327 325 324 322
320 320 319 319 318 318 318 320 319 320 320 321 321 321 322 323 324 323 323 323 324 323 324 324 325 325 326 326 326 326 327 328 329 328 327 326 327 327 327 327 327 328 327 329 327 326 326 326 326 326 325 326 325 325 327 328 328 328 327 327 326 325
319 318 317 318 318 317 317 318 318 318 319 319 320 320 321 323 324 325 323 323 323 324 324 324 325 326 327 328 327 327 328 328 327 327 327 327 327 327 327 327 326 327 327 329 329 327 327 326 326 327 327 327 326 326 327 328 328 329 328 328 327 326

ECMWFFLT2_sfc_thetae_111.txt.gz
Theta_e
343 341 341 340 340 340 345 347 346 346 347 348 349 349 349 349 348 348 348 348 346 341 341 341 340 341 347 342 347 346 347 347 346 345 345 344 344 345 346 346 344 344 344 343 343 343 342 341 341 343 343 342 340 330 331 332 333 334 332 335 338 336
343 342 340 341 340 342 343 346 339 340 341 345 347 348 346 343 348 340 348 343 338 342 336 334 338 347 341 342 343 346 346 347 346 345 344 345 344 344 345 346 345 344 344 344 344 332 331 336 339 343 342 341 332 330 332 333 333 334 334 333 337 338
342 342 339 338 341 340 341 339 338 340 342 347 346 346 341 342 336 336 338 337 338 335 334 337 338 342 343 346 342 346 347 346 346 346 344 344 345 344 345 346 345 344 344 343 333 329 326 325 327 336 337 332 328 330 332 333 333 334 334 333 332 341
341 342 339 338 340 342 341 339 339 339 340 340 340 341 337 336 335 335 335 333 334 337 337 333 347 347 347 340 339 346 347 347 346 346 345 343 345 345 345 345 345 345 342 337 333 331 330 325 326 323 324 327 328 330 332 332 333 333 334 337 334 340
341 341 339 338 342 342 341 339 337 336 338 336 339 337 336 333 334 333 332 334 332 338 335 334 335 336 336 335 334 333 335 336 335 334 343 331 331 334 336 331 331 336 337 337 335 332 329 327 328 327 328 329 330 330 331 332 332 332 333 333 334 341
338 339 340 341 341 343 342 340 336 336 335 335 338 335 333 332 332 332 332 334 336 334 332 331 331 333 334 334 334 333 332 332 332 331 337 331 331 332 332 332 334 337 337 336 335 334 330 332 329 328 329 329 330 330 329 329 330 332 333 331 334 340
336 338 339 341 341 342 339 338 335 334 334 333 334 334 332 332 333 334 334 337 337 335 334 332 331 332 333 334 334 333 332 332 330 329 330 330 330 330 329 333 333 333 330 333 334 334 334 333 330 330 330 331 331 330 328 328 330 330 330 330 334 340
336 337 337 339 339 340 338 336 336 341 336 339 336 332 332 333 336 336 336 337 338 334 335 332 331 331 332 333 335 333 331 331 333 330 330 329 329 329 328 329 330 330 332 332 334 334 334 334 332 331 332 331 332 329 328 328 328 329 328 329 332 338
336 335 335 336 336 335 335 335 335 336 335 343 336 335 335 335 335 334 335 336 337 333 335 333 331 331 331 332 333 333 332 332 331 331 331 330 331 330 328 327 328 330 330 332 333 333 333 334 333 331 332 332 331 328 327 327 327 328 327 328 331 336
336 335 335 335 334 334 333 334 335 336 336 341 335 335 334 333 333 334 332 333 335 333 333 333 331 331 332 331 331 331 331 331 331 331 330 331 330 329 329 326 326 328 330 331 332 334 334 334 335 333 332 332 331 329 328 327 327 328 328 328 330 334
335 338 335 334 333 334 334 334 335 335 337 338 334 335 333 332 335 334 331 332 333 335 333 332 332 331 331 331 330 331 332 331 332 331 331 332 331 330 328 329 329 328 328 329 331 333 334 334 335 335 334 332 331 329 328 327 327 328 328 328 329 331
336 337 335 334 336 334 334 335 336 334 335 335 336 333 332 331 336 333 333 331 332 332 335 331 331 331 333 333 333 332 333 332 332 332 333 332 331 331 329 328 328 329 329 329 329 331 333 333 334 334 332 330 331 329 328 327 327 327 328 327 328 330
336 337 335 334 335 335 335 335 336 335 335 336 334 334 331 330 330 330 331 331 331 331 332 331 330 331 334 334 336 335 333 333 333 333 332 333 333 332 331 331 331 332 331 330 329 329 331 329 331 332 330 330 330 329 328 327 327 327 327 327 328 329
336 336 336 335 335 335 335 336 335 333 336 334 332 332 333 331 332 332 331 331 332 332 333 331 331 330 330 331 333 335 336 335 334 333 333 332 332 333 332 331 330 331 333 331 330 329 329 330 330 328 328 328 330 329 329 328 327 327 327 328 328 328
338 336 338 336 336 335 335 335 334 332 334 332 331 331 332 331 331 331 333 333 334 334 334 332 331 330 330 330 330 331 333 334 334 332 333 333 333 332 332 331 330 329 329 327 327 329 330 329 329 328 328 328 329 330 330 328 328 327 328 328 327 328
338 336 337 337 336 336 336 334 334 337 332 331 332 330 331 331 330 329 332 333 333 335 336 334 333 333 333 332 332 331 332 332 332 333 334 334 334 333 332 329 329 329 328 328 327 326 327 328 329 329 328 328 328 330 329 329 328 328 328 328 327 327
337 336 337 336 336 335 335 333 334 335 333 333 332 331 330 330 331 332 332 331 331 332 333 334 334 333 334 334 333 333 333 332 332 332 334 334 334 333 331 329 327 330 329 326 328 328 327 326 326 329 329 328 328 329 328 329 329 328 328 327 327 327
338 337 335 335 335 334 334 333 332 333 337 332 331 329 329 331 332 332 332 332 331 332 333 331 330 331 334 335 335 334 334 333 333 333 334 335 334 332 330 330 328 328 328 327 325 325 325 326 327 328 328 328 328 328 329 329 330 331 328 327 326 326
339 336 334 333 334 333 331 330 331 333 331 329 327 328 329 331 333 332 332 332 331 333 333 331 330 330 331 333 334 334 334 334 334 333 333 334 334 334 333 330 329 327 328 328 327 326 325 325 326 328 327 327 327 328 329 330 330 330 329 328 327 327
337 336 334 333 333 330 330 328 328 329 330 329 328 330 331 332 333 334 334 333 333 332 332 332 332 334 333 333 332 332 332 333 333 333 332 332 333 334 333 332 330 328 327 327 328 327 325 325 325 325 327 327 328 328 328 329 330 330 330 328 327 328
335 333 334 332 330 329 329 328 328 328 329 328 328 329 331 331 333 335 335 335 335 334 332 333 335 334 333 334 334 333 332 331 331 332 332 332 332 333 334 333 332 330 328 325 326 327 327 326 322 319 322 322 324 328 329 328 328 329 329 329 328 328
332 332 332 332 332 330 326 328 326 326 327 328 328 330 330 331 332 335 335 334 334 331 329 330 331 330 331 330 331 331 332 332 331 331 331 331 330 331 331 332 332 330 330 329 327 327 327 326 322 321 318 318 320 322 327 328 328 329 329 329 328 328
331 331 331 332 331 329 327 328 327 325 326 324 326 329 329 331 333 333 332 330 330 329 329 329 329 330 329 328 327 326 328 331 332 332 332 331 332 331 331 331 331 330 329 328 329 328 328 328 323 321 321 319 315 314 318 322 324 327 328 328 328 327
330 331 330 332 332 329 328 327 326 327 327 326 326 328 327 326 326 326 328 329 329 328 329 329 328 329 328 328 326 326 327 327 330 332 332 331 331 331 331 331 331 331 331 327 328 328 329 328 325 320 315 316 316 315 311 315 319 323 328 328 328 327
331 330 330 333 331 330 329 327 324 324 325 324 323 324 326 327 328 328 331 329 331 329 328 329 329 329 328 328 327 327 327 328 329 331 332 332 332 332 332 332 332 331 330 328 327 328 329 329 326 326 322 314 312 311 313 316 319 319 325 325 327 328
330 330 330 330 329 328 327 325 325 324 323 320 322 324 324 324 327 327 328 328 330 330 329 328 329 329 329 329 328 328 327 328 328 328 330 332 332 332 331 331 332 331 329 331 329 328 327 329 330 326 325 324 321 315 314 317 317 313 323 326 326 328
330 329 331 330 329 328 327 327 326 326 326 326 324 322 322 324 325 328 328 328 329 329 329 328 329 329 329 329 329 328 328 327 327 327 329 330 330 330 330 331 332 332 331 331 330 325 327 327 329 328 326 325 324 325 322 319 315 315 314 321 325 325
332 332 332 331 332 332 329 328 328 327 328 326 324 324 326 327 326 328 326 326 327 328 328 328 327 328 328 328 329 328 328 328 327 327 329 329 329 330 331 332 333 332 332 331 330 327 327 328 325 325 327 326 325 326 325 324 322 320 317 315 318 324
328 328 329 330 330 331 332 331 329 328 325 325 325 326 325 322 323 323 323 323 323 324 325 326 327 327 327 328 329 328 328 327 327 327 328 329 329 330 330 330 330 329 329 330 330 330 328 328 327 326 325 325 326 325 325 323 323 320 316 316 316 318
325 326 327 328 328 328 328 329 327 326 323 321 323 323 321 322 322 321 321 322 323 323 324 324 325 326 327 328 328 328 328 327 327 327 329 328 329 329 329 329 329 328 329 328 330 329 328 329 328 329 327 326 323 324 322 321 321 320 319 319 315 317
324 325 326 326 326 326 326 326 325 324 323 321 321 321 322 322 322 321 321 321 322 323 323 323 324 325 324 325 326 327 327 327 328 329 330 330 329 329 330 329 329 328 328 328 328 329 328 328 328 329 327 327 325 324 321 318 319 320 319 317 316 317
323 324 325 325 325 325 325 325 324 321 320 319 318 321 322 322 323 321 319 320 321 321 323 323 323 324 324 325 326 326 326 327 328 328 328 329 329 329 329 328 327 327 327 328 328 328 328 327 326 325 325 325 325 325 323 322 322 322 321 320 319 318
321 322 323 324 324 324 324 323 322 320 318 320 318 319 320 322 321 319 319 320 321 322 323 323 324 324 325 326 327 327 327 327 327 328 329 329 329 330 329 327 326 326 327 326 326 326 325 326 326 325 324 325 325 324 324 325 325 323 323 323 321 318
321 322 322 322 322 322 321 321 319 318 317 317 318 319 319 320 320 319 320 319 321 322 323 324 325 325 327 327 327 327 327 327 328 328 328 329 329 329 329 327 327 326 326 327 327 326 326 326 326 326 326 325 325 326 326 327 326 324 323 322 320 319
320 321 321 320 320 320 319 318 317 316 317 317 318 318 318 319 318 321 322 322 323 324 324 325 325 326 327 327 327 327 328 328 328 328 328 328 328 328 328 327 327 327 326 327 327 327 327 326 326 326 326 326 326 326 326 326 327 324 325 324 322 321
319 320 320 320 319 318 315 315 316 316 317 318 319 319 320 320 322 323 324 324 324 324 325 325 326 326 327 327 327 327 328 327 328 328 328 327 327 327 327 326 326 327 326 328 327 327 327 327 326 327 326 327 326 326 326 327 327 327 327 326 325 324
319 319 319 318 316 314 314 315 315 315 317 319 323 324 323 322 322 323 324 324 324 324 325 326 326 327 327 327 327 327 327 327 327 327 327 327 327 327 327 327 326 326 326 327 327 327 327 327 327 327 326 326 326 326 326 327 327 327 327 327 326 325

ECMWFFLT2_sfc_thetae_114.txt.gz
Theta_e
340 339 339 338 338 339 344 346 346 346 348 348 349 349 349 348 348 348 349 348 345 342 340 340 341 341 347 345 346 346 347 346 345 345 343 344 345 345 346 346 345 344 344 344 342 339 339 341 343 343 342 341 341 333 332 334 334 336 335 339 340 336
340 338 338 339 339 341 343 343 338 341 342 345 347 347 346 343 349 340 348 342 340 345 337 336 338 347 344 345 344 346 346 346 346 344 344 344 344 344 345 346 345 344 344 342 339 331 329 337 343 343 342 341 333 331 333 334 334 336 337 338 339 340
341 340 340 341 341 340 339 338 337 338 341 346 346 346 342 342 337 337 337 338 340 337 336 340 340 342 344 346 344 346 346 346 346 345 344 343 345 344 345 345 345 344 341 339 335 331 328 326 330 340 342 336 331 333 334 334 335 336 336 338 337 341
342 342 342 342 343 343 342 342 342 340 338 338 339 340 338 337 336 335 335 335 334 339 337 334 344 347 347 339 336 340 346 346 346 346 345 340 341 343 344 342 342 342 338 337 335 332 329 327 328 327 329 331 332 332 334 335 336 336 336 338 336 341
341 342 341 342 343 342 343 343 342 342 341 337 337 336 336 334 334 334 334 335 332 340 335 333 334 335 336 336 334 334 336 335 335 334 342 337 332 333 336 334 335 337 336 335 335 333 331 330 331 331 331 331 332 333 334 335 335 335 336 337 339 341
342 341 341 342 342 343 342 341 340 341 341 340 338 336 335 333 333 332 332 335 339 336 334 333 332 334 335 335 335 334 334 334 333 335 339 337 333 332 332 333 335 335 335 335 335 334 334 333 330 331 331 332 332 333 333 334 335 335 336 336 339 341
340 341 341 342 342 341 340 341 339 339 340 339 339 337 335 333 333 333 333 337 336 335 333 331 331 332 334 335 336 335 334 333 334 333 333 334 334 332 331 333 333 333 332 334 335 335 334 333 332 332 331 332 332 332 332 333 333 334 335 335 337 340
339 340 340 341 341 340 340 339 338 342 340 341 340 336 332 334 336 334 335 335 339 335 335 333 332 332 333 334 336 336 334 333 333 333 332 333 332 331 330 331 332 331 332 332 333 334 335 336 332 332 332 332 332 332 332 332 333 333 334 334 335 338
339 339 340 340 340 340 339 339 339 338 337 342 336 335 333 335 335 335 336 337 339 334 335 334 332 332 331 334 334 334 335 335 333 333 332 332 332 333 331 330 330 330 330 331 331 333 335 336 335 333 332 332 333 333 331 331 331 332 333 333 333 336
337 338 339 340 339 339 338 338 339 338 334 340 333 333 333 333 333 334 333 334 336 334 333 333 333 333 333 333 332 333 333 333 333 333 332 333 333 332 332 331 330 329 329 330 331 333 336 335 335 336 333 333 333 333 331 330 330 331 332 332 333 335
337 339 338 338 337 337 338 338 338 334 334 334 334 336 333 332 335 334 333 332 333 335 333 332 333 333 333 333 333 333 334 333 333 333 332 333 333 332 331 331 331 330 330 329 330 331 333 333 334 335 336 334 333 333 331 330 330 331 331 331 332 334
336 337 338 336 337 336 337 337 335 335 335 333 335 332 331 332 336 334 335 332 331 331 335 332 331 332 334 334 334 334 334 333 334 334 334 333 333 333 332 332 331 330 330 330 329 330 332 332 332 333 334 334 333 332 331 330 329 330 330 331 331 333
336 336 334 334 335 334 333 335 335 335 336 336 335 332 331 332 332 333 333 332 331 332 334 332 331 331 334 334 335 335 335 335 335 335 334 335 335 334 334 333 332 332 332 332 332 332 331 331 331 332 333 333 332 332 331 330 329 329 329 330 331 332
335 334 334 333 334 333 333 334 335 333 336 332 332 332 332 330 332 332 332 332 333 333 333 331 331 330 330 332 332 333 334 336 337 337 336 334 333 334 334 333 332 331 332 332 331 332 331 330 331 330 329 329 331 331 330 330 329 329 329 329 330 331
336 334 336 334 334 333 333 335 333 332 332 331 331 331 330 331 330 331 333 333 333 334 335 333 333 331 330 331 331 332 333 334 335 335 335 335 335 335 333 331 333 331 331 330 330 331 332 330 329 330 330 330 332 331 330 330 331 330 330 329 329 330
335 333 333 334 332 334 334 334 334 337 332 331 332 330 331 332 331 331 333 334 334 335 337 336 335 334 333 333 333 333 334 334 334 334 334 335 335 334 334 333 333 332 330 329 329 329 330 329 330 331 330 329 330 331 330 330 330 330 330 329 329 331
334 333 334 336 335 333 333 334 335 337 335 334 332 333 334 333 332 332 331 330 331 333 334 335 336 335 335 334 334 334 335 335 335 334 334 334 334 335 334 334 332 332 331 329 329 329 328 328 328 329 330 330 329 330 329 330 329 330 330 329 329 330
335 335 334 336 336 335 335 335 335 337 339 335 335 333 331 331 332 332 332 333 333 332 333 332 333 334 334 335 335 335 335 335 335 334 333 334 334 335 334 333 332 331 331 329 328 327 327 327 328 328 328 329 329 328 329 330 330 331 329 328 328 329
337 334 333 335 337 336 335 334 333 334 333 331 329 328 330 331 333 333 333 334 334 334 334 331 332 333 333 334 334 335 335 335 335 334 333 333 333 334 334 333 332 331 331 330 329 328 328 327 327 328 327 327 328 329 330 330 330 330 329 329 329 330
338 334 333 334 335 334 332 331 331 330 329 329 329 330 330 331 332 333 334 335 334 333 332 334 333 334 334 334 334 334 333 334 333 333 332 332 332 333 333 333 332 331 330 329 330 329 328 327 326 326 326 328 328 328 328 329 329 329 330 329 329 330
337 335 334 333 333 333 331 329 328 328 329 329 329 331 331 331 330 332 334 334 334 334 333 334 336 336 335 335 335 335 334 333 333 333 332 331 333 333 334 334 334 333 331 329 328 329 329 328 325 323 325 325 326 328 328 329 328 329 330 330 330 329
337 336 335 335 332 331 328 330 328 327 327 328 328 329 330 329 330 332 333 334 334 334 333 333 335 334 335 333 333 333 333 332 333 332 332 333 333 333 332 332 333 331 332 330 328 329 329 327 322 321 320 320 322 325 327 327 327 328 330 330 330 329
335 335 334 334 333 330 328 328 327 325 326 325 325 329 329 329 331 331 330 331 332 331 331 330 329 332 331 331 331 330 330 331 332 333 332 331 332 331 332 332 331 330 329 331 331 331 329 328 324 324 324 320 317 316 320 324 327 327 328 329 330 328
331 331 331 334 334 330 330 328 327 327 326 325 325 329 327 326 325 326 328 328 329 329 328 328 328 328 330 329 328 328 327 328 330 332 331 330 331 331 332 332 332 331 330 327 328 328 331 329 328 323 316 317 318 317 314 316 320 325 329 328 329 328
329 331 330 332 330 329 330 326 324 325 324 324 325 323 325 325 326 328 330 328 329 329 328 328 328 327 329 328 327 326 327 328 328 329 331 331 331 331 332 333 333 331 330 328 327 328 329 330 329 328 324 317 314 313 315 318 319 321 325 326 327 329
327 327 329 328 329 329 328 325 324 324 323 320 322 323 325 324 326 325 326 326 328 328 328 328 328 328 328 329 328 328 327 327 327 327 328 330 330 331 331 331 332 332 331 331 329 327 326 329 329 328 327 326 324 318 317 319 319 315 323 326 327 328
329 329 330 329 328 329 327 327 327 327 326 325 323 322 322 324 324 325 324 325 326 326 327 327 327 327 327 328 328 327 328 328 328 328 329 329 329 329 330 330 332 331 331 330 329 324 325 326 328 327 327 327 327 325 322 320 316 318 315 321 325 326
329 329 328 329 329 329 328 326 326 325 325 323 323 323 323 323 323 325 324 324 324 325 326 326 326 326 327 327 328 327 328 328 329 329 330 329 329 330 330 331 331 331 331 330 330 326 325 327 324 324 327 325 326 326 324 322 322 320 318 315 318 325
326 326 326 328 328 328 328 325 324 323 322 322 323 323 322 322 323 322 323 323 324 324 325 325 326 326 326 327 328 327 327 327 327 327 329 329 330 330 330 329 329 329 329 329 330 329 326 325 325 325 326 325 326 324 324 322 322 322 318 316 316 318
324 324 325 325 325 325 325 325 323 321 321 320 322 322 321 321 321 321 322 322 323 323 324 325 325 326 326 327 327 327 327 327 327 327 328 328 328 329 329 329 330 329 329 328 329 328 326 326 326 326 326 326 323 322 322 321 321 321 320 320 317 317
322 323 324 323 323 323 323 323 322 321 321 320 320 320 320 321 321 321 321 321 322 323 325 325 326 326 327 327 327 328 327 327 328 328 328 328 328 328 329 329 329 329 329 328 328 327 326 326 326 326 326 325 324 324 322 320 320 321 321 318 317 317
320 321 322 323 322 322 322 321 320 320 320 319 319 320 319 320 321 321 322 322 323 324 324 325 325 326 326 327 327 327 328 328 328 328 328 329 329 329 329 329 329 328 328 328 328 327 326 326 325 325 325 326 325 325 324 323 324 324 322 321 320 318
319 320 320 321 320 320 320 319 319 319 319 320 319 319 319 321 322 323 322 322 322 321 323 323 324 325 326 327 327 327 327 327 327 328 329 329 329 329 329 329 328 328 327 326 326 326 325 325 326 325 325 327 326 326 325 326 325 323 324 323 322 318
318 318 319 319 319 319 319 318 318 318 318 318 319 319 320 322 323 323 323 322 322 323 323 324 325 325 327 327 327 328 328 328 328 328 328 328 328 328 328 328 328 327 327 327 327 326 326 325 325 325 326 325 325 325 325 326 326 325 323 322 320 319
317 318 318 318 319 319 319 318 318 318 318 319 320 321 322 323 324 324 324 323 323 324 324 325 325 326 327 327 326 327 328 327 327 327 327 327 327 328 328 328 327 327 327 327 327 326 326 326 326 326 326 326 326 326 326 326 326 325 326 324 323 322
317 317 318 318 318 318 318 318 318 318 319 321 323 323 323 324 325 325 324 323 323 323 324 325 326 325 326 324 323 323 324 323 323 324 325 325 326 327 327 327 327 327 326 328 327 327 327 327 326 327 327 327 326 326 327 327 327 327 327 326 325 324
318 317 317 317 316 316 317 317 318 320 320 321 321 322 322 322 322 323 323 322 321 322 323 324 325 322 321 320 320 320 319 320 320 321 321 322 324 325 326 326 326 326 325 326 326 326 326 326 326 327 327 327 326 327 327 328 328 327 327 327 326 325

ECMWFFLT2_sfc_thetae_117.txt.gz
Theta_e
346 346 346 347 347 347 347 347 348 347 348 349 349 349 351 350 350 350 350 349 348 351 351 350 349 349 347 348 347 346 346 345 345 345 345 345 345 345 346 345 345 345 342 339 337 339 342 343 344 344 343 342 342 342 342 341 340 338 338 338 339 339
344 344 345 346 347 347 347 347 348 348 349 349 349 349 350 351 350 351 349 350 350 349 348 348 349 347 348 347 346 345 346 346 346 345 345 344 345 344 345 345 345 343 340 338 336 340 342 343 343 343 343 342 342 342 342 341 340 338 338 340 340 341
344 345 345 344 345 346 347 347 348 348 348 349 349 350 350 350 350 349 349 349 348 348 347 347 348 347 347 346 346 346 346 346 346 346 344 345 344 344 344 343 342 340 338 335 342 339 338 339 343 343 343 344 343 342 341 341 341 340 339 340 341 342
344 344 344 344 344 345 346 347 346 347 347 348 349 348 350 349 348 348 348 348 347 347 346 346 346 346 345 347 346 345 344 345 345 345 343 344 342 342 340 340 339 338 339 341 342 340 336 337 339 344 346 344 342 341 341 341 340 340 341 339 340 341
344 343 343 343 344 344 344 345 344 345 346 347 347 347 347 347 347 347 347 347 345 345 345 345 346 347 347 347 347 347 348 347 347 346 343 344 344 343 345 344 345 344 344 343 341 341 340 338 340 340 341 342 342 342 341 342 341 340 341 343 343 341
343 343 343 342 343 343 343 342 342 343 345 345 345 345 345 346 345 345 345 345 344 344 346 346 346 347 347 347 346 346 347 347 347 346 345 345 343 344 344 343 343 343 343 344 342 342 342 340 338 339 340 341 341 342 341 341 341 341 342 343 345 341
341 341 342 345 344 344 343 343 343 343 342 343 344 344 344 344 344 344 344 345 344 343 344 345 346 347 346 346 345 346 346 347 347 346 346 345 345 345 345 344 342 342 343 343 342 342 341 342 340 337 339 340 341 340 342 342 342 342 343 343 343 341
340 341 342 344 342 342 342 342 342 343 343 343 342 342 342 345 344 346 345 346 345 344 345 344 345 344 345 346 346 346 348 347 347 346 347 346 344 344 344 344 345 344 342 341 338 340 340 341 341 340 337 339 340 341 341 341 341 342 343 344 343 343
340 340 341 341 340 341 341 341 343 343 342 344 343 343 344 345 344 346 347 347 348 345 345 345 344 344 346 345 346 346 348 348 347 347 346 345 346 345 345 345 345 344 344 343 342 341 340 341 341 342 339 339 340 341 341 341 340 341 342 342 343 342
340 340 340 340 339 341 339 339 342 342 343 345 344 344 345 345 346 348 348 347 347 346 345 345 345 346 344 345 345 346 346 346 346 346 347 346 345 345 344 344 345 345 343 343 342 342 341 340 340 341 340 339 340 341 342 340 339 339 340 341 342 343
340 341 340 338 339 339 341 340 341 343 344 344 345 346 345 345 346 345 346 346 345 345 345 344 345 344 344 344 343 342 342 344 344 345 346 345 346 345 344 343 343 342 343 342 342 343 341 340 339 338 341 339 340 341 341 342 340 339 338 339 340 342
340 341 340 339 339 338 340 340 342 343 343 344 345 345 345 345 346 345 344 345 345 346 346 346 344 344 343 343 343 342 343 342 342 342 343 342 342 343 342 341 343 343 343 342 342 343 343 342 341 340 341 339 341 341 340 342 341 341 339 339 340 341
341 342 341 340 339 339 341 341 341 342 343 344 345 345 344 345 345 344 344 345 345 344 345 344 345 343 342 342 341 341 341 341 342 341 341 340 340 341 342 342 341 342 342 342 341 342 342 342 342 342 342 340 342 340 340 341 342 341 341 340 338 339
341 341 341 341 341 340 341 342 343 344 345 345 346 347 346 346 345 344 345 344 344 344 344 344 342 342 342 341 340 340 340 340 341 339 340 340 339 340 340 340 340 338 338 339 339 341 340 340 341 342 341 342 341 341 341 341 341 340 341 341 340 339
341 341 342 342 342 341 342 343 344 345 346 347 345 346 348 345 345 345 344 344 343 343 343 342 342 340 341 340 340 339 339 339 339 340 339 340 339 338 339 339 339 338 338 338 338 338 338 339 339 340 340 341 340 339 341 341 341 340 339 341 341 339
342 342 342 342 343 343 343 346 345 344 345 345 346 345 346 346 346 345 345 345 343 343 343 343 342 341 340 340 340 339 339 339 339 340 340 339 339 338 338 338 338 338 335 336 337 337 338 337 337 338 340 340 340 339 340 341 340 340 341 342 340 339
340 341 342 342 343 343 344 344 345 344 343 344 344 347 347 346 346 346 346 345 344 343 343 343 343 342 340 339 340 339 340 340 340 339 339 341 339 339 338 337 337 338 337 335 336 335 336 336 336 337 338 338 339 339 338 340 341 340 340 338 339 339
342 342 343 342 343 343 344 343 344 344 344 345 346 346 347 347 346 345 345 344 343 342 343 343 343 341 340 340 340 340 340 340 339 339 339 339 339 339 338 338 338 338 338 336 335 334 335 335 335 335 336 337 337 337 337 338 339 338 338 338 338 336
342 343 343 343 343 343 343 343 343 344 345 345 346 346 346 346 344 344 343 343 342 343 343 343 342 341 339 340 340 340 339 339 339 338 338 337 337 338 338 338 337 337 338 337 335 334 334 334 333 333 333 335 336 336 336 337 337 337 336 336 337 336
341 342 343 342 342 341 342 342 341 343 343 343 344 344 345 343 344 343 343 342 342 343 343 342 341 341 340 340 340 340 339 339 338 337 337 335 335 337 335 335 336 336 336 336 337 335 334 334 333 334 333 334 335 336 335 334 334 335 335 336 336 337
341 341 341 340 340 340 339 340 341 341 341 344 344 342 342 343 345 344 343 343 343 343 343 342 342 342 341 340 340 340 338 338 338 337 337 335 336 335 335 335 334 335 334 333 334 336 335 334 330 329 332 332 333 335 335 334 334 334 335 335 336 335
341 341 342 342 342 343 343 343 343 342 343 343 342 341 341 344 345 345 345 343 343 343 342 342 341 341 340 340 339 339 338 338 338 337 335 336 336 336 335 334 334 332 335 333 331 335 335 333 327 325 325 326 329 332 333 334 333 333 334 334 335 335
341 341 342 343 343 343 343 344 344 343 343 341 343 344 343 343 343 343 344 343 342 341 341 340 340 339 338 338 337 337 336 337 336 335 335 335 337 336 336 335 335 334 331 334 333 335 335 334 327 330 330 325 323 323 328 329 332 333 333 334 334 333
340 342 343 345 344 345 344 343 343 344 343 342 340 341 342 342 341 341 339 339 340 340 338 338 338 337 337 336 336 335 335 334 334 335 334 333 335 334 335 336 337 335 333 329 330 333 338 336 332 325 319 320 324 321 318 323 327 331 333 333 333 333
340 341 343 344 345 344 343 342 341 341 342 341 340 339 338 336 338 338 338 337 337 337 337 336 336 336 335 335 335 334 334 333 333 334 333 332 333 333 333 334 334 334 332 331 328 331 334 337 334 332 325 321 319 316 319 324 326 327 332 331 332 333
340 341 342 343 344 344 343 342 339 336 335 335 334 335 333 333 335 335 334 336 336 336 335 335 334 334 333 333 333 332 333 332 332 332 332 332 332 333 332 333 332 332 332 333 331 329 328 334 336 334 332 330 328 324 324 325 324 319 333 332 332 332
341 342 342 343 343 343 342 341 341 339 338 337 333 333 334 335 335 335 335 334 334 334 333 332 332 331 331 331 331 331 330 330 330 330 331 332 331 331 332 332 332 332 331 331 332 327 327 329 333 335 334 332 328 327 328 325 321 324 320 327 330 330
340 341 342 343 343 345 341 339 338 338 337 336 335 332 333 334 335 334 334 334 333 331 331 330 330 330 330 330 331 330 330 330 330 330 330 330 330 331 331 332 333 333 332 332 332 330 327 328 327 328 334 329 326 326 326 328 327 324 322 320 322 329
338 339 340 341 340 339 339 339 338 337 334 334 334 334 334 333 333 334 332 331 331 330 330 330 329 329 330 330 330 331 330 330 330 331 330 330 331 331 331 331 330 330 330 331 332 331 330 329 330 328 329 329 329 324 324 324 327 324 320 320 320 323
335 335 336 336 337 337 337 337 335 335 333 332 333 333 333 332 331 331 330 329 329 328 328 330 330 330 330 330 330 331 331 331 331 331 332 331 332 332 331 331 331 331 332 331 332 331 330 330 329 331 330 328 325 326 324 321 322 321 322 323 320 322
332 333 334 334 335 335 335 335 334 334 333 332 331 331 330 328 328 329 328 327 327 327 329 328 329 329 329 329 330 331 331 331 331 331 332 331 331 331 332 332 332 332 331 333 333 332 332 332 331 328 329 329 326 326 324 322 321 322 322 320 320 320
330 330 331 332 333 332 332 332 333 331 329 330 330 328 326 325 326 326 326 325 326 326 327 328 328 328 328 329 329 330 331 330 330 331 330 331 331 331 331 332 332 332 332 332 332 331 330 331 330 330 326 330 329 329 328 327 326 325 320 321 321 321
328 329 330 331 331 331 331 331 329 330 330 330 328 327 327 326 326 325 325 325 325 324 326 326 325 326 328 328 328 328 329 328 328 329 328 329 330 330 331 331 331 330 331 330 332 330 328 329 330 327 328 331 331 329 326 332 332 328 327 326 323 321
327 329 329 329 329 328 328 329 330 330 329 328 327 327 326 325 326 326 325 325 325 324 324 325 325 325 327 327 327 327 326 327 327 327 327 327 327 329 330 330 330 330 330 331 332 331 331 329 330 331 332 330 330 329 330 332 330 329 326 325 323 323
326 327 328 327 327 327 327 328 328 329 328 328 326 327 326 326 326 325 325 324 324 325 325 325 325 326 327 326 324 325 325 325 324 324 324 324 325 326 327 328 329 330 330 331 331 330 331 330 328 329 330 330 327 330 331 330 331 328 330 327 326 325
326 327 327 326 326 327 327 327 328 327 327 327 327 327 326 325 325 325 324 324 324 323 323 324 325 325 324 323 323 323 323 323 322 322 321 321 323 324 326 327 329 329 328 330 329 330 331 330 329 329 329 330 330 330 332 332 330 329 328 329 328 327
325 325 325 325 325 326 326 326 325 326 326 325 324 323 322 322 323 324 324 323 323 321 321 321 321 322 321 321 320 320 320 319 319 319 319 319 321 323 325 327 327 327 326 328 328 329 330 330 329 329 328 329 331 331 331 332 332 330 329 330 330 329

ECMWFFLT2_sfc_thetae_120.txt.gz
Theta_e
348 348 348 348 348 347 348 349 350 349 351 351 351 350 351 351 351 350 351 350 350 352 353 352 352 351 348 349 347 346 346 345 345 344 344 345 343 344 346 344 343 342 340 338 340 341 343 345 345 344 343 343 343 342 346 345 344 342 343 341 343 342
348 347 347 346 347 347 348 348 348 350 353 352 351 351 353 353 353 354 350 352 351 351 349 350 349 343 347 349 348 346 345 346 345 345 344 343 345 344 344 346 343 341 339 339 336 342 344 346 345 345 344 343 343 345 345 345 345 343 342 343 343 343
347 347 346 345 345 346 345 347 347 347 349 350 352 353 351 352 351 350 350 349 349 350 347 348 348 348 350 342 347 347 344 346 346 346 344 344 344 344 343 342 341 340 339 336 338 341 343 343 347 345 344 345 346 345 344 345 345 344 342 343 342 343
347 347 344 342 343 344 344 346 343 346 347 349 349 349 350 350 349 350 348 349 347 348 348 349 343 345 350 348 349 344 345 345 346 345 340 346 343 344 342 341 342 340 339 339 340 340 340 340 341 347 348 346 345 345 345 344 342 342 342 341 341 343
346 345 344 342 343 343 344 343 342 344 345 346 347 347 346 348 348 348 348 348 344 347 347 347 346 348 346 347 348 348 349 349 348 349 346 346 345 345 347 346 347 344 344 342 340 340 341 340 343 343 344 344 344 345 345 345 342 342 343 344 346 343
346 344 343 342 345 344 344 343 344 342 343 345 345 345 344 345 345 347 347 346 345 345 345 346 348 348 348 349 347 348 349 350 352 350 349 348 346 345 344 341 341 341 341 341 341 341 341 341 341 342 341 344 344 345 345 342 342 343 345 345 347 343
344 343 344 345 345 344 343 344 344 342 342 340 344 343 343 342 344 344 344 346 344 342 343 346 347 348 348 351 351 349 349 351 351 350 352 351 351 351 349 346 343 343 343 342 339 341 339 338 339 338 340 340 343 343 343 343 344 343 344 346 347 342
344 343 343 344 345 343 345 345 344 343 343 341 342 343 343 343 345 343 346 347 346 345 346 346 347 348 350 352 352 353 353 350 351 349 351 351 349 348 348 350 350 346 342 340 338 340 339 338 338 338 337 339 341 344 343 342 343 345 345 346 347 345
344 342 343 344 344 343 343 343 342 341 342 342 345 344 344 345 345 345 348 349 348 348 349 350 351 350 351 350 352 353 352 351 353 351 351 349 348 347 347 346 348 349 348 344 341 341 339 340 340 340 337 336 339 341 342 343 343 343 343 343 344 345
342 342 343 344 344 342 341 340 341 343 343 345 345 346 346 346 348 349 348 350 349 349 348 348 350 352 349 350 350 351 350 351 350 351 350 349 348 348 347 347 347 349 347 347 346 343 340 340 339 339 337 337 337 340 342 342 342 343 344 344 344 344
342 343 343 342 342 343 343 342 343 343 344 344 345 346 347 347 348 349 349 350 349 350 350 350 350 350 350 351 349 350 348 348 348 348 350 349 350 350 349 348 349 347 348 347 346 347 345 342 340 339 340 338 337 339 339 342 342 343 343 343 344 345
342 343 342 342 342 341 341 342 343 342 344 345 347 347 347 347 347 348 348 349 350 350 349 349 350 351 350 348 347 346 346 348 348 347 345 345 346 348 348 346 348 349 349 349 347 347 348 346 345 341 340 338 341 339 337 339 342 343 343 343 342 345
343 344 343 342 342 342 343 342 343 344 345 346 346 347 347 347 347 348 350 350 350 350 350 349 349 348 347 346 346 346 347 346 346 346 346 346 345 344 345 345 345 346 345 346 347 347 345 346 345 345 344 341 341 340 340 340 341 343 343 344 343 343
344 345 344 344 343 341 343 343 344 345 347 347 347 347 348 349 349 349 350 349 349 349 348 349 348 347 347 346 346 345 345 344 344 345 345 346 344 344 342 343 343 344 343 343 343 345 344 344 342 342 342 343 344 343 342 341 341 341 342 344 344 345
345 346 346 345 344 345 345 345 346 347 348 349 349 348 349 349 349 349 349 348 349 348 348 348 348 348 347 346 345 344 343 343 345 346 344 345 344 344 343 342 342 342 343 342 342 343 343 343 343 342 342 343 343 343 345 343 343 342 341 343 343 344
346 346 347 346 346 346 347 348 348 347 349 350 348 349 347 348 349 348 348 349 348 347 348 348 348 347 347 346 344 343 344 346 346 345 344 345 344 342 343 342 342 342 339 339 341 341 343 343 344 344 344 344 344 344 344 345 345 345 345 344 343 344
345 347 348 348 347 347 347 348 348 348 349 350 350 349 348 349 349 349 348 348 349 348 348 347 348 347 347 346 344 344 343 345 345 344 343 343 342 341 342 341 342 342 341 338 338 338 340 340 340 342 343 343 343 343 343 345 346 345 346 345 345 344
347 347 347 347 348 348 348 348 348 348 350 350 349 348 349 348 349 348 348 347 347 347 347 348 348 347 346 346 345 344 345 345 344 344 342 343 342 343 343 342 340 341 340 340 337 337 337 338 338 338 338 339 341 340 341 343 344 342 343 343 344 344
347 349 348 348 347 348 348 349 350 351 349 347 348 348 348 347 348 349 348 348 348 348 348 347 346 346 346 345 344 344 344 344 343 342 342 342 342 342 342 341 340 340 342 340 339 339 338 337 337 337 337 338 339 341 341 341 341 341 342 343 343 342
348 348 348 347 347 346 347 346 347 347 345 346 347 345 348 346 348 348 347 347 346 346 346 346 345 345 345 345 344 343 343 343 342 342 340 339 339 339 340 340 339 339 339 339 340 340 340 341 340 339 336 337 339 341 342 340 341 341 340 340 341 341
346 348 346 345 346 346 345 345 346 344 344 344 344 345 345 347 347 346 347 345 346 346 346 345 345 345 344 343 343 343 342 342 341 341 339 338 340 340 340 340 338 339 338 337 337 340 341 339 335 333 337 339 338 340 340 340 340 340 339 338 339 339
344 347 348 348 347 347 348 345 344 343 343 342 342 343 342 345 345 346 346 345 345 344 345 344 343 344 344 343 342 339 341 339 340 339 339 340 340 338 339 338 338 336 338 335 335 337 338 338 333 331 328 329 330 335 337 339 338 338 339 338 338 339
342 343 347 349 348 347 349 348 346 344 342 342 346 346 344 343 345 345 345 345 344 344 343 343 343 342 341 341 340 339 339 339 339 339 337 337 338 337 338 337 337 335 333 336 335 337 339 338 330 332 333 329 324 324 329 334 338 337 337 337 338 338
335 344 347 349 347 350 349 348 347 346 346 343 341 344 344 343 343 343 341 343 342 342 340 340 340 340 340 340 339 338 337 337 337 338 336 334 335 334 336 336 336 336 335 331 331 332 336 338 335 331 324 323 324 324 318 323 326 334 336 338 338 336
336 346 346 346 349 349 346 344 344 345 345 344 343 341 339 338 339 339 340 340 339 340 339 339 339 338 337 337 337 337 336 336 336 336 336 334 334 334 334 334 334 334 333 332 329 331 333 337 337 336 330 325 322 321 322 325 328 328 335 335 338 338
344 346 346 348 348 345 344 341 340 338 337 338 337 337 336 336 337 337 336 339 339 338 337 337 337 336 336 335 336 335 335 334 334 334 335 333 334 334 334 334 333 333 332 334 332 330 329 333 335 336 336 335 330 321 321 323 324 319 328 334 336 337
344 342 347 347 347 344 342 341 341 340 339 338 336 336 338 338 337 337 338 338 337 337 336 335 335 335 334 334 335 335 335 335 334 334 334 333 333 333 333 334 334 333 332 333 333 328 329 329 331 333 334 335 332 335 330 327 320 324 320 326 333 330
341 343 346 346 344 344 343 342 342 340 339 338 337 336 337 337 338 338 337 336 336 334 334 334 334 333 334 334 334 334 335 335 333 334 333 334 334 334 334 334 335 335 335 334 332 330 330 330 329 329 333 330 329 333 334 331 329 324 321 318 320 331
341 341 344 345 344 345 343 342 341 339 337 337 338 337 336 337 336 337 335 333 333 333 333 334 334 334 334 334 334 334 335 334 333 334 333 334 334 334 335 334 334 334 334 334 333 333 333 331 331 329 330 330 333 331 329 329 329 330 325 320 318 321
343 343 343 344 344 343 342 341 339 338 336 335 336 335 335 334 335 335 332 332 332 332 332 333 334 333 333 332 333 334 334 334 334 335 333 334 335 335 334 334 334 335 335 334 334 334 332 332 333 331 329 331 330 327 327 328 326 328 329 328 321 321
341 341 341 341 341 340 341 340 338 337 335 334 334 334 333 331 331 332 330 330 330 330 331 331 332 333 333 333 334 334 333 334 334 334 333 333 333 334 334 334 334 335 335 334 334 334 333 332 332 332 332 330 329 330 326 321 324 325 324 321 321 323
339 339 340 340 340 339 338 337 338 337 335 334 333 332 330 329 329 330 330 329 329 329 330 331 331 331 331 332 332 332 332 333 332 333 331 331 332 332 333 334 333 334 333 334 334 334 335 333 332 330 330 331 328 330 328 330 330 324 325 324 324 323
337 338 338 338 337 336 336 336 334 335 334 333 332 331 329 328 329 328 327 327 328 327 328 328 329 329 330 331 330 330 330 331 330 330 330 329 330 331 332 333 333 333 333 333 333 333 333 334 334 332 331 334 333 332 328 330 333 331 327 325 322 320
336 337 337 335 335 335 334 334 334 334 333 331 331 330 330 329 329 328 328 327 327 327 326 328 327 328 329 329 328 329 330 330 330 329 329 329 329 330 332 332 332 332 332 333 333 333 333 336 335 335 334 333 333 332 331 329 332 332 329 324 322 321
334 335 335 334 333 332 332 332 332 333 332 332 331 329 328 328 328 327 327 327 327 327 326 327 327 328 328 328 328 328 328 328 328 328 328 328 329 330 331 332 332 333 332 332 333 332 332 334 334 335 335 333 332 333 332 332 331 331 332 328 327 323
333 333 332 332 332 332 332 332 331 330 330 330 329 328 327 328 327 327 327 327 326 326 326 326 327 327 327 327 326 325 326 326 326 326 326 327 329 329 330 330 330 331 331 332 331 331 331 332 333 332 332 333 333 332 333 332 331 332 332 332 330 329
331 330 330 331 331 331 330 329 329 329 328 327 327 326 326 327 327 327 326 326 325 325 326 326 325 325 325 325 324 324 324 324 323 324 325 326 326 327 329 330 330 330 329 331 331 331 330 330 330 329 328 329 328 329 329 330 331 330 330 331 332 331

ECMWFFLT2_sfc_thetae_123.txt.gz
Theta_e
348 347 347 346 344 346 349 350 351 351 351 351 352 351 351 351 351 351 351 350 350 352 353 352 351 349 347 349 347 346 346 344 344 344 343 344 343 343 342 343 342 341 340 341 340 343 345 345 346 345 345 344 344 343 344 346 343 341 337 339 337 340
348 347 346 346 345 346 349 349 350 353 353 353 352 352 353 353 354 355 352 352 353 350 349 350 349 350 350 349 348 346 346 345 345 344 345 344 343 343 344 343 344 342 340 341 339 339 343 345 346 346 345 345 344 343 346 344 343 339 340 339 341 341
347 347 345 344 344 343 346 347 349 350 351 351 353 354 351 351 350 350 350 349 349 350 346 346 347 348 350 346 347 348 347 347 346 345 345 345 345 345 344 346 344 343 343 340 339 335 337 343 344 347 346 346 345 344 344 344 343 340 338 340 343 344
348 348 343 342 343 343 344 345 344 348 350 351 352 351 349 348 348 348 348 349 346 347 346 348 335 343 348 343 347 345 346 347 347 347 345 347 345 346 346 345 345 344 342 340 333 332 335 338 344 347 347 345 344 344 343 343 340 338 339 339 341 344
348 346 343 341 343 343 345 343 343 343 347 347 348 347 347 348 347 346 346 346 343 346 344 346 345 347 347 346 348 348 347 348 349 349 347 346 349 345 345 342 344 342 339 334 331 334 338 338 341 344 344 345 344 344 342 343 341 338 341 340 346 345
348 346 344 341 343 343 345 343 342 341 343 345 344 344 343 346 344 346 345 345 345 344 344 345 347 349 349 349 347 348 348 347 347 348 346 346 346 347 346 343 346 344 343 341 340 340 339 339 336 336 338 340 341 341 342 339 339 340 340 341 348 347
345 345 344 343 343 343 344 344 344 342 342 341 342 343 342 342 344 344 345 346 344 343 342 346 349 349 349 350 348 348 350 348 347 351 350 348 346 346 345 344 344 343 342 340 339 339 339 338 337 333 334 336 339 340 340 339 339 340 342 340 346 347
345 343 343 343 344 341 345 345 346 343 343 341 341 341 341 344 345 343 345 345 345 345 346 348 349 348 348 349 347 349 349 347 346 348 353 348 346 348 346 346 347 345 343 342 340 338 338 337 338 338 334 332 335 340 341 339 339 340 341 343 345 347
345 343 342 344 343 343 344 345 345 343 344 343 344 343 343 346 343 344 346 347 347 349 348 349 348 348 349 348 348 349 348 347 347 346 347 346 347 347 347 346 346 346 346 345 343 341 340 339 339 341 339 336 334 334 339 341 341 339 340 341 343 352
343 339 342 343 344 344 344 343 342 344 345 343 343 344 346 343 347 348 348 349 351 351 352 348 348 349 349 350 350 352 351 349 349 348 347 346 346 346 344 345 346 345 344 343 342 343 344 340 338 339 339 338 336 336 337 339 341 339 340 342 342 345
340 343 343 343 344 344 344 343 343 344 343 342 345 346 345 348 349 351 352 353 352 352 352 351 351 351 351 351 352 351 350 350 348 350 349 347 349 347 347 346 346 346 346 344 343 344 343 341 341 340 339 337 338 338 337 338 340 341 340 341 343 344
342 343 345 343 345 343 344 344 345 343 342 346 348 347 347 348 349 350 352 351 352 353 353 353 351 353 351 349 349 347 347 348 347 348 349 347 346 347 346 344 345 347 349 348 345 345 346 344 343 342 342 341 340 339 338 338 340 339 340 340 343 343
342 343 345 344 344 343 346 344 344 345 346 348 348 348 348 348 350 349 351 352 353 353 353 350 350 349 349 348 347 347 347 348 349 349 349 347 347 347 346 346 345 345 344 345 345 346 345 344 344 343 343 341 343 340 338 339 341 341 341 343 341 342
341 343 344 345 345 343 345 344 345 346 347 347 348 348 348 351 350 350 351 352 350 350 349 350 349 348 347 346 346 347 347 346 347 346 346 348 346 347 345 344 345 344 343 343 342 344 343 343 342 343 343 343 342 344 343 341 342 342 344 341 341 342
342 344 344 345 344 345 345 344 345 348 348 349 348 348 350 350 349 350 350 349 350 350 348 349 349 349 347 346 344 344 344 345 348 347 347 347 347 347 347 345 344 343 344 343 342 342 342 341 342 342 344 345 343 343 343 341 344 343 342 343 341 343
344 344 344 344 346 346 346 348 349 347 350 349 349 349 350 350 350 350 349 351 351 349 349 349 349 349 347 346 344 344 345 348 347 346 345 346 346 343 344 344 344 342 339 339 339 339 341 341 341 341 342 344 344 344 341 342 343 344 345 343 341 343
343 344 344 345 345 348 348 349 350 350 350 350 350 349 349 350 350 351 350 350 350 350 349 349 351 350 349 349 346 346 345 346 347 345 345 344 342 343 343 342 342 342 341 338 338 337 338 338 338 338 340 341 343 343 343 343 344 342 345 343 343 342
344 344 345 345 346 347 347 346 346 348 349 348 349 350 350 350 351 349 350 349 349 349 349 349 350 349 348 348 346 345 346 346 346 345 344 344 343 343 343 342 341 342 341 340 337 337 337 337 337 337 337 337 338 340 341 342 343 342 342 342 341 343
346 346 346 347 347 347 344 342 346 346 347 346 351 350 351 348 349 350 350 350 349 350 349 350 348 347 348 345 344 344 345 346 345 344 343 342 341 340 342 342 341 340 342 340 337 338 337 337 338 340 338 339 339 339 339 341 342 341 341 342 343 343
349 349 349 346 344 341 345 341 343 342 344 345 349 346 348 348 350 348 349 349 348 349 348 349 347 347 346 346 344 343 344 344 343 342 340 339 338 338 339 340 340 339 338 338 338 338 338 338 339 340 339 339 339 340 340 340 342 341 341 341 341 340
344 348 347 342 341 339 335 340 342 339 342 345 345 346 346 348 348 348 348 348 347 347 347 347 345 345 344 343 344 342 343 342 341 339 339 338 340 340 340 339 338 338 336 335 336 337 337 338 334 332 334 334 335 338 341 342 341 339 340 340 341 340
342 342 341 340 340 339 339 340 338 339 343 343 344 343 343 346 346 348 348 345 346 345 344 344 343 343 343 342 340 339 339 338 339 339 339 339 339 338 339 338 337 335 337 334 334 335 335 334 330 328 328 329 330 333 335 336 337 337 341 342 340 340
342 340 339 337 337 336 338 339 337 342 345 344 347 347 344 344 346 346 346 345 345 344 342 342 341 341 340 340 340 339 339 339 339 338 336 336 337 337 336 336 336 333 331 334 333 335 335 336 330 331 332 328 324 323 328 330 335 338 340 339 340 337
340 341 338 336 338 339 337 341 339 343 344 344 343 344 344 344 345 344 342 343 343 342 339 340 340 339 339 338 339 338 338 337 337 338 336 334 334 333 336 334 334 334 333 330 329 332 335 335 333 330 323 324 324 323 319 323 328 334 340 334 335 337
339 341 342 339 338 337 339 340 342 344 344 342 342 341 341 340 341 340 340 341 340 340 339 339 339 338 337 337 337 337 336 337 336 336 336 334 333 333 333 333 333 333 333 330 329 331 333 335 334 334 329 324 323 320 320 323 325 326 331 331 339 339
340 341 338 339 337 337 339 335 339 337 337 338 337 338 337 337 338 338 338 340 341 339 338 338 338 336 337 335 336 336 337 335 335 335 335 334 334 334 334 333 333 333 332 334 332 330 330 334 334 334 334 335 328 320 321 325 324 318 329 331 330 337
340 340 337 337 338 337 336 334 340 339 339 338 336 338 340 340 339 338 340 339 338 338 336 336 336 336 336 336 336 336 336 336 335 335 335 335 333 335 333 333 334 333 333 334 333 329 330 330 332 335 335 336 336 332 330 326 320 323 319 325 329 330
340 340 340 339 338 337 335 337 340 340 340 338 338 337 339 339 339 339 338 337 336 336 336 334 334 335 335 335 335 335 336 336 334 335 333 333 333 334 334 335 336 336 335 334 333 331 330 332 331 330 334 334 335 333 330 328 327 325 320 318 321 328
341 340 342 342 341 340 337 341 340 340 337 338 339 338 338 338 338 338 336 336 335 334 335 334 334 335 334 334 334 335 335 335 334 335 334 335 334 335 334 334 334 334 334 334 333 334 334 332 332 330 330 330 331 329 330 331 330 328 321 319 320 322
338 339 339 340 339 340 342 342 340 339 338 337 337 337 338 337 336 335 334 334 334 333 333 334 335 335 335 334 334 335 335 335 335 334 334 334 334 335 334 334 335 335 335 334 334 334 333 334 334 333 332 330 329 329 328 327 326 326 326 325 318 319
336 338 338 336 335 336 338 340 338 339 338 337 337 337 334 334 332 332 331 331 331 331 333 333 333 334 333 334 334 334 333 334 335 334 334 333 332 332 333 334 335 336 335 333 333 334 334 335 333 332 333 330 328 328 326 325 325 326 323 320 320 322
333 336 335 336 336 338 338 338 339 338 336 336 335 334 332 331 331 331 331 330 330 330 331 332 331 332 333 333 333 333 333 333 333 333 331 332 332 332 333 334 334 333 333 334 334 333 334 332 334 331 331 331 330 329 327 328 327 329 327 323 321 320
333 334 336 336 337 338 338 337 336 336 335 335 334 333 331 331 331 329 329 329 329 328 330 330 330 331 331 331 331 331 332 331 330 331 331 330 331 332 333 333 333 334 333 332 332 333 332 333 332 332 332 332 332 331 331 329 332 330 327 325 322 320
332 335 335 336 336 336 337 337 336 335 334 334 333 332 331 331 331 329 330 329 328 327 328 329 330 329 329 329 330 330 330 330 330 329 329 330 331 332 332 332 333 333 333 333 332 333 333 332 332 331 331 329 329 329 330 332 330 330 329 325 322 321
332 333 336 335 335 334 334 335 335 334 333 333 332 331 330 329 330 329 329 328 328 328 328 329 328 329 328 328 328 329 329 328 328 328 328 329 330 331 332 333 333 331 330 330 331 331 330 330 328 328 328 327 326 327 328 328 328 328 330 329 327 324
333 334 333 334 334 333 333 333 333 333 333 332 330 329 328 328 329 330 328 327 327 328 328 328 328 327 327 327 327 328 328 327 327 327 328 327 328 329 331 330 329 328 328 328 329 328 327 326 325 326 326 326 325 325 326 325 326 326 327 329 331 330
332 333 333 333 333 332 332 331 331 331 330 330 329 327 326 327 327 327 327 326 327 327 327 327 326 327 327 327 327 327 326 326 326 327 327 327 327 328 328 327 327 326 326 328 328 327 325 325 325 324 323 323 323 323 323 325 326 326 326 326 327 328

ECMWFFLT2_sfc_thetae_126.txt.gz
Theta_e
341 341 342 345 348 349 349 352 352 352 352 352 351 352 351 351 350 350 350 350 349 347 348 347 347 346 347 347 347 345 345 343 343 344 344 343 342 342 342 341 343 343 341 342 340 343 343 344 346 346 347 347 346 343 340 340 340 341 334 334 339 337
342 342 342 344 344 348 349 350 351 351 350 351 351 351 351 351 354 351 351 350 350 351 350 348 350 351 349 347 346 347 345 344 344 344 343 344 344 344 342 343 342 342 342 341 342 338 337 343 345 345 347 347 344 340 339 340 341 339 336 335 338 341
344 344 344 342 343 346 348 349 349 350 351 351 352 352 351 352 351 351 350 350 351 351 349 351 350 349 350 349 348 347 347 346 345 345 345 343 344 344 345 345 344 344 344 343 339 334 332 332 338 346 347 346 342 341 340 341 341 339 335 339 337 345
345 345 342 341 343 344 346 347 347 349 350 350 351 351 351 350 350 349 350 351 351 351 348 347 339 343 349 347 346 348 348 347 347 346 345 345 345 344 345 345 345 345 344 341 333 330 330 331 335 340 342 344 342 341 341 341 340 337 336 337 338 347
345 344 342 341 342 341 346 344 345 348 349 349 350 350 349 349 349 348 350 350 347 352 347 346 342 346 346 345 343 345 346 346 346 344 347 343 344 342 344 342 342 344 341 337 332 329 328 328 341 341 341 341 342 341 341 341 339 338 336 339 341 347
345 344 343 341 341 342 345 341 343 346 348 347 348 347 347 347 351 355 354 349 354 350 352 351 347 347 348 348 346 346 344 346 347 348 347 343 345 346 346 342 341 340 338 337 336 333 332 335 338 340 342 342 342 342 340 339 338 339 335 341 339 347
344 346 343 342 342 343 343 345 344 344 345 344 345 345 344 345 346 351 353 353 349 349 348 350 351 353 350 354 351 353 349 349 347 346 349 346 346 346 344 347 344 343 343 342 341 338 337 337 335 333 332 332 334 337 336 336 335 334 335 341 341 348
345 345 344 344 344 342 343 343 346 345 343 343 343 343 346 348 346 348 353 351 350 347 343 353 353 352 351 353 353 349 350 351 351 348 347 347 345 345 347 345 344 345 345 344 342 343 340 337 336 336 337 336 334 331 334 336 336 336 335 336 340 346
346 345 345 348 343 343 347 345 347 344 348 347 349 347 353 346 344 348 350 350 347 352 354 352 349 348 349 350 351 355 353 351 352 350 350 350 349 348 348 347 347 346 345 343 343 343 342 341 340 339 336 334 335 335 333 336 336 337 336 334 343 341
346 346 347 346 341 344 349 350 349 349 352 346 352 351 348 344 348 344 345 348 356 356 355 352 351 355 351 353 355 354 355 353 354 352 352 352 351 351 347 346 346 344 341 340 340 341 342 341 340 339 338 336 338 336 337 335 336 337 335 336 338 345
346 347 344 344 343 346 347 348 345 349 344 347 351 348 346 347 351 353 354 357 355 356 356 354 352 351 353 351 355 354 353 353 351 353 354 349 351 349 349 347 345 344 343 342 342 343 341 340 340 339 340 339 337 337 336 336 335 336 337 337 336 342
345 348 344 342 347 343 346 344 343 349 341 348 349 345 349 351 350 351 353 354 354 355 355 359 354 353 352 350 352 353 353 353 353 352 352 349 348 348 346 343 345 345 345 345 343 344 344 342 341 340 341 338 340 339 337 335 335 335 334 339 340 340
346 346 344 347 346 344 347 343 346 343 345 349 346 349 350 349 349 349 353 351 352 352 355 353 357 354 352 352 352 353 351 351 351 353 352 349 347 347 346 346 345 346 345 342 341 341 341 340 340 340 341 339 340 341 338 338 337 336 339 346 342 341
343 344 346 348 346 344 348 345 346 346 349 348 353 351 353 350 353 350 350 351 354 352 354 357 357 355 352 351 352 352 349 351 351 350 349 350 348 348 345 344 343 342 343 341 339 339 339 338 338 338 338 339 339 340 341 339 339 339 341 343 342 339
343 344 348 346 345 349 349 345 348 347 346 352 349 350 343 347 353 350 352 351 351 353 353 350 352 352 352 350 347 352 350 349 352 349 347 350 348 345 344 342 341 340 339 339 338 338 337 336 337 336 337 339 338 339 341 340 339 340 340 339 343 343
343 345 346 346 348 349 350 351 349 348 347 344 342 340 347 345 343 345 348 349 350 351 351 353 354 354 353 351 349 348 351 352 351 349 349 348 346 343 342 343 342 341 338 337 336 336 336 335 335 335 336 336 336 337 339 340 339 339 342 342 341 340
342 344 345 345 347 349 350 344 343 342 341 341 342 343 346 343 342 338 345 348 350 353 354 354 355 354 357 351 351 349 348 350 350 347 347 347 344 345 342 342 341 341 340 336 336 335 335 335 335 335 335 335 336 336 336 337 339 342 342 339 339 339
344 345 346 346 348 345 344 344 340 339 341 340 340 343 345 341 341 339 343 348 352 353 356 352 352 354 359 351 350 349 349 348 347 347 346 345 344 344 344 340 338 340 339 338 335 334 334 334 335 335 335 336 337 337 337 336 337 338 339 338 339 339
343 344 345 347 343 343 343 344 342 341 342 342 342 342 344 342 341 341 340 350 351 353 355 354 352 351 349 346 345 346 345 346 347 345 345 340 338 338 340 339 337 336 339 338 336 335 335 334 334 334 334 335 336 336 337 337 337 335 336 337 339 339
347 348 346 344 342 340 342 341 340 342 342 340 340 341 342 340 340 340 341 351 351 352 350 352 352 350 350 347 346 343 344 344 342 342 340 338 337 336 337 337 337 336 335 335 335 336 335 333 332 332 332 334 334 335 336 337 337 337 338 338 335 337
343 345 344 341 341 340 340 339 340 339 338 340 341 339 337 339 339 337 345 350 352 352 348 346 344 344 342 345 343 342 341 342 339 339 338 338 338 338 338 338 337 336 334 331 331 334 334 333 329 328 330 330 331 334 334 334 335 337 337 337 339 341
343 342 344 343 341 341 341 340 338 337 338 339 341 337 336 336 335 340 347 346 347 345 345 343 343 343 343 343 341 340 340 339 339 338 338 338 338 338 338 336 335 333 334 330 329 332 335 330 327 325 324 325 327 330 332 333 335 337 339 338 337 336
342 341 341 341 340 337 340 339 339 338 338 337 338 337 335 337 338 344 346 344 343 342 342 343 343 345 344 340 339 338 338 338 337 337 336 335 336 335 335 334 333 331 329 331 330 334 334 333 325 327 327 324 321 321 324 328 334 330 331 334 337 334
340 340 339 339 340 339 339 341 340 339 339 338 336 337 336 336 340 345 341 343 342 344 342 341 339 338 337 338 338 336 336 337 336 337 337 334 334 331 332 332 332 332 331 327 327 329 333 334 331 326 320 321 321 321 316 319 322 326 329 330 337 336
340 339 340 339 339 339 339 339 340 339 338 335 335 332 334 338 341 339 340 340 340 340 339 338 338 337 335 335 336 337 337 337 338 338 337 335 334 333 332 332 332 332 331 329 327 329 331 334 333 334 326 322 319 317 316 320 322 322 330 327 328 332
340 341 340 340 340 339 339 339 336 333 331 331 331 333 335 338 339 338 337 340 339 337 336 336 336 335 335 335 337 337 337 336 337 337 338 336 335 336 334 332 332 332 331 332 330 328 327 331 333 334 335 332 326 319 319 322 320 315 324 328 328 329
340 340 340 340 340 340 338 336 334 332 332 330 328 332 336 342 341 340 341 339 337 337 335 337 338 336 335 337 337 338 338 337 335 336 336 337 335 333 333 333 333 332 332 332 332 327 327 328 330 332 332 332 331 330 330 322 317 320 316 321 325 326
340 338 339 340 340 340 336 336 334 332 330 331 329 328 332 340 340 339 339 337 336 336 338 339 336 335 336 337 336 337 337 336 336 335 334 333 332 333 334 334 334 335 334 334 332 329 328 329 325 326 329 329 329 331 331 330 327 322 319 316 318 324
339 339 340 339 339 338 337 337 335 335 332 333 332 330 334 341 339 339 336 336 335 337 340 337 336 336 335 334 335 335 335 335 334 333 332 332 332 332 332 332 332 333 332 332 333 332 330 328 328 326 326 326 327 327 327 326 327 325 320 317 316 318
339 340 340 340 340 337 336 336 333 332 331 329 329 332 339 338 338 337 335 337 335 337 337 336 338 335 334 333 334 333 333 333 333 332 332 331 331 331 332 332 333 333 332 332 331 331 330 329 329 329 328 327 324 324 323 323 323 323 322 322 317 317
337 339 339 337 337 334 334 336 335 333 331 332 333 336 336 336 336 336 333 333 334 333 334 335 338 334 333 332 333 333 333 332 332 331 330 330 330 330 331 332 333 333 332 331 330 330 329 329 329 328 327 326 324 324 322 320 321 322 321 319 318 318
336 336 336 336 335 335 335 335 335 333 331 331 334 336 335 332 333 332 334 333 332 332 332 334 333 331 330 331 332 332 331 330 330 329 329 330 331 331 331 332 332 331 330 330 330 329 328 327 325 325 325 324 323 324 324 323 323 323 323 322 320 318
333 335 335 335 336 336 337 337 337 335 335 336 336 334 332 333 334 335 331 329 330 329 331 330 329 328 328 329 330 329 329 328 328 329 329 329 329 330 331 332 330 327 327 327 327 325 324 324 323 323 323 324 323 324 323 323 323 322 323 323 322 318
333 334 334 336 337 336 337 336 336 335 335 335 334 334 334 335 331 330 330 329 329 329 329 328 327 327 328 328 329 328 328 328 328 328 328 328 329 330 330 329 327 326 326 327 327 324 324 324 323 323 324 322 321 322 322 323 323 323 322 321 319 318
332 333 333 335 335 335 334 335 335 334 334 334 333 331 330 330 331 329 328 328 328 329 328 326 326 328 328 329 328 328 327 327 327 328 328 328 329 328 327 327 326 326 326 327 325 324 323 324 322 322 322 321 321 321 321 321 322 322 322 321 321 320
333 332 333 334 333 333 333 333 334 333 333 331 330 330 329 329 330 330 328 327 327 327 327 326 328 329 328 327 327 327 327 327 328 329 329 328 327 326 326 325 324 324 323 325 323 322 321 322 321 321 321 320 320 319 320 321 321 322 322 322 321 321
333 333 334 333 332 331 331 331 331 332 330 330 329 328 328 328 328 328 328 327 326 326 327 328 327 328 327 327 329 330 328 329 328 328 326 326 326 325 325 324 323 322 321 322 322 321 320 320 320 320 319 319 318 318 318 320 320 321 321 321 321 321